<?xml version='1.0' encoding='UTF-8'?><gpx version="1.1" creator="JPX - https://github.com/jenetics/jpx" xmlns="http://www.topografix.com/GPX/1/1"><trk><trkseg><trkpt lat="45.0687667" lon="7.9741983"><ele>409.4</ele><time>2026-04-11T15:49:45.881Z</time></trkpt><trkpt lat="45.068885" lon="7.9741183"><ele>408.8</ele><time>2026-04-11T15:49:47.88Z</time></trkpt><trkpt lat="45.0689717" lon="7.97406"><ele>408.20000000000005</ele><time>2026-04-11T15:49:48.881Z</time></trkpt><trkpt lat="45.0690483" lon="7.9740033"><ele>407.6</ele><time>2026-04-11T15:49:49.88Z</time></trkpt><trkpt lat="45.0691267" lon="7.97395"><ele>407.0</ele><time>2026-04-11T15:49:50.88Z</time></trkpt><trkpt lat="45.069225" lon="7.9739033"><ele>408.20000000000005</ele><time>2026-04-11T15:49:51.88Z</time></trkpt><trkpt lat="45.0693283" lon="7.973855"><ele>409.4</ele><time>2026-04-11T15:49:52.88Z</time></trkpt><trkpt lat="45.0694333" lon="7.9737983"><ele>410.6</ele><time>2026-04-11T15:49:53.881Z</time></trkpt><trkpt lat="45.0695367" lon="7.9737317"><ele>411.79999999999995</ele><time>2026-04-11T15:49:54.88Z</time></trkpt><trkpt lat="45.0696183" lon="7.9736467"><ele>413.0</ele><time>2026-04-11T15:49:55.88Z</time></trkpt><trkpt lat="45.0696667" lon="7.9735233"><ele>413.0</ele><time>2026-04-11T15:49:56.881Z</time></trkpt><trkpt lat="45.0696983" lon="7.9733767"><ele>413.0</ele><time>2026-04-11T15:49:57.881Z</time></trkpt><trkpt lat="45.0697267" lon="7.9732067"><ele>413.0</ele><time>2026-04-11T15:49:58.88Z</time></trkpt><trkpt lat="45.0697417" lon="7.97305"><ele>413.0</ele><time>2026-04-11T15:49:59.88Z</time></trkpt><trkpt lat="45.0697833" lon="7.9729017"><ele>414.25</ele><time>2026-04-11T15:50:00.88Z</time></trkpt><trkpt lat="45.0698517" lon="7.9727533"><ele>415.5</ele><time>2026-04-11T15:50:01.881Z</time></trkpt><trkpt lat="45.0699533" lon="7.97265"><ele>416.75</ele><time>2026-04-11T15:50:02.88Z</time></trkpt><trkpt lat="45.070065" lon="7.97257"><ele>418.0</ele><time>2026-04-11T15:50:03.881Z</time></trkpt><trkpt lat="45.0701867" lon="7.9724933"><ele>419.79999999999995</ele><time>2026-04-11T15:50:04.881Z</time></trkpt><trkpt lat="45.070295" lon="7.972405"><ele>421.6</ele><time>2026-04-11T15:50:05.88Z</time></trkpt><trkpt lat="45.070375" lon="7.9722917"><ele>423.40000000000003</ele><time>2026-04-11T15:50:06.881Z</time></trkpt><trkpt lat="45.0704517" lon="7.9722117"><ele>425.20000000000005</ele><time>2026-04-11T15:50:07.88Z</time></trkpt><trkpt lat="45.0705433" lon="7.9721667"><ele>427.0</ele><time>2026-04-11T15:50:08.88Z</time></trkpt><trkpt lat="45.0706433" lon="7.9721283"><ele>427.0</ele><time>2026-04-11T15:50:09.88Z</time></trkpt><trkpt lat="45.0707367" lon="7.9720983"><ele>427.00000000000006</ele><time>2026-04-11T15:50:10.88Z</time></trkpt><trkpt lat="45.070825" lon="7.97205"><ele>427.00000000000006</ele><time>2026-04-11T15:50:11.88Z</time></trkpt><trkpt lat="45.0708983" lon="7.9719767"><ele>427.0</ele><time>2026-04-11T15:50:12.88Z</time></trkpt><trkpt lat="45.0709867" lon="7.9718967"><ele>427.0</ele><time>2026-04-11T15:50:13.881Z</time></trkpt><trkpt lat="45.0710867" lon="7.9718367"><ele>427.25</ele><time>2026-04-11T15:50:14.881Z</time></trkpt><trkpt lat="45.0711933" lon="7.97177"><ele>427.5</ele><time>2026-04-11T15:50:15.88Z</time></trkpt><trkpt lat="45.071305" lon="7.97169"><ele>427.75</ele><time>2026-04-11T15:50:16.88Z</time></trkpt><trkpt lat="45.0714167" lon="7.9716167"><ele>428.0</ele><time>2026-04-11T15:50:17.881Z</time></trkpt><trkpt lat="45.0715333" lon="7.9715417"><ele>428.25</ele><time>2026-04-11T15:50:18.88Z</time></trkpt><trkpt lat="45.0716517" lon="7.971465"><ele>428.5</ele><time>2026-04-11T15:50:19.88Z</time></trkpt><trkpt lat="45.0717767" lon="7.971385"><ele>428.75</ele><time>2026-04-11T15:50:20.88Z</time></trkpt><trkpt lat="45.0719" lon="7.971315"><ele>429.0</ele><time>2026-04-11T15:50:21.88Z</time></trkpt><trkpt lat="45.0720283" lon="7.9712283"><ele>429.0</ele><time>2026-04-11T15:50:22.881Z</time></trkpt><trkpt lat="45.0721567" lon="7.971145"><ele>429.0</ele><time>2026-04-11T15:50:23.881Z</time></trkpt><trkpt lat="45.07229" lon="7.971055"><ele>429.0</ele><time>2026-04-11T15:50:24.88Z</time></trkpt><trkpt lat="45.0724217" lon="7.9709667"><ele>429.0</ele><time>2026-04-11T15:50:25.88Z</time></trkpt><trkpt lat="45.0725517" lon="7.9708667"><ele>433.33333333333337</ele><time>2026-04-11T15:50:26.88Z</time></trkpt><trkpt lat="45.0726733" lon="7.9707733"><ele>437.6666666666667</ele><time>2026-04-11T15:50:27.88Z</time></trkpt><trkpt lat="45.0728117" lon="7.97066"><ele>442.0</ele><time>2026-04-11T15:50:28.88Z</time></trkpt><trkpt lat="45.0729517" lon="7.9705617"><ele>442.0</ele><time>2026-04-11T15:50:29.88Z</time></trkpt><trkpt lat="45.0730933" lon="7.9704683"><ele>442.0</ele><time>2026-04-11T15:50:30.88Z</time></trkpt><trkpt lat="45.073215" lon="7.97037"><ele>442.0</ele><time>2026-04-11T15:50:31.881Z</time></trkpt><trkpt lat="45.0733533" lon="7.9702717"><ele>441.5</ele><time>2026-04-11T15:50:32.881Z</time></trkpt><trkpt lat="45.07348" lon="7.9701667"><ele>441.0</ele><time>2026-04-11T15:50:33.88Z</time></trkpt><trkpt lat="45.073605" lon="7.9700533"><ele>440.5</ele><time>2026-04-11T15:50:34.881Z</time></trkpt><trkpt lat="45.0737167" lon="7.9699083"><ele>440.0</ele><time>2026-04-11T15:50:35.88Z</time></trkpt><trkpt lat="45.073825" lon="7.9697483"><ele>443.75</ele><time>2026-04-11T15:50:36.88Z</time></trkpt><trkpt lat="45.0739367" lon="7.9696133"><ele>447.5</ele><time>2026-04-11T15:50:37.881Z</time></trkpt><trkpt lat="45.0740317" lon="7.9695033"><ele>451.25</ele><time>2026-04-11T15:50:38.88Z</time></trkpt><trkpt lat="45.074145" lon="7.9694333"><ele>455.0</ele><time>2026-04-11T15:50:39.88Z</time></trkpt><trkpt lat="45.074275" lon="7.9694167"><ele>455.0</ele><time>2026-04-11T15:50:40.88Z</time></trkpt><trkpt lat="45.0743983" lon="7.9694533"><ele>455.0</ele><time>2026-04-11T15:50:41.88Z</time></trkpt><trkpt lat="45.0745333" lon="7.969535"><ele>455.0</ele><time>2026-04-11T15:50:42.881Z</time></trkpt><trkpt lat="45.0746717" lon="7.969605"><ele>455.0</ele><time>2026-04-11T15:50:43.881Z</time></trkpt><trkpt lat="45.0748067" lon="7.96966"><ele>456.75</ele><time>2026-04-11T15:50:44.881Z</time></trkpt><trkpt lat="45.0749467" lon="7.9697133"><ele>458.5</ele><time>2026-04-11T15:50:45.88Z</time></trkpt><trkpt lat="45.0750833" lon="7.9697583"><ele>460.25</ele><time>2026-04-11T15:50:46.88Z</time></trkpt><trkpt lat="45.0751883" lon="7.9698283"><ele>462.0</ele><time>2026-04-11T15:50:47.88Z</time></trkpt><trkpt lat="45.0752717" lon="7.9699483"><ele>460.75</ele><time>2026-04-11T15:50:48.88Z</time></trkpt><trkpt lat="45.0753367" lon="7.9701117"><ele>459.5</ele><time>2026-04-11T15:50:49.88Z</time></trkpt><trkpt lat="45.0753533" lon="7.9702883"><ele>458.25</ele><time>2026-04-11T15:50:50.881Z</time></trkpt><trkpt lat="45.0753633" lon="7.9704517"><ele>457.0</ele><time>2026-04-11T15:50:51.88Z</time></trkpt><trkpt lat="45.0753917" lon="7.9706183"><ele>457.0</ele><time>2026-04-11T15:50:52.88Z</time></trkpt><trkpt lat="45.0754617" lon="7.9707783"><ele>457.0</ele><time>2026-04-11T15:50:53.88Z</time></trkpt><trkpt lat="45.0755483" lon="7.9709317"><ele>457.0</ele><time>2026-04-11T15:50:54.88Z</time></trkpt><trkpt lat="45.07563" lon="7.97107"><ele>457.0</ele><time>2026-04-11T15:50:55.881Z</time></trkpt><trkpt lat="45.0757083" lon="7.9712433"><ele>456.0</ele><time>2026-04-11T15:50:56.88Z</time></trkpt><trkpt lat="45.07575" lon="7.97143"><ele>455.0</ele><time>2026-04-11T15:50:57.881Z</time></trkpt><trkpt lat="45.07576" lon="7.97163"><ele>454.0</ele><time>2026-04-11T15:50:58.881Z</time></trkpt><trkpt lat="45.0757467" lon="7.9718217"><ele>453.0</ele><time>2026-04-11T15:50:59.88Z</time></trkpt><trkpt lat="45.075725" lon="7.97202"><ele>455.75</ele><time>2026-04-11T15:51:00.881Z</time></trkpt><trkpt lat="45.075675" lon="7.9721783"><ele>458.5</ele><time>2026-04-11T15:51:01.881Z</time></trkpt><trkpt lat="45.075595" lon="7.972345"><ele>461.25</ele><time>2026-04-11T15:51:02.88Z</time></trkpt><trkpt lat="45.0755067" lon="7.9724933"><ele>464.0</ele><time>2026-04-11T15:51:03.88Z</time></trkpt><trkpt lat="45.0754133" lon="7.9726217"><ele>465.0</ele><time>2026-04-11T15:51:04.881Z</time></trkpt><trkpt lat="45.0753217" lon="7.97273"><ele>466.0</ele><time>2026-04-11T15:51:05.88Z</time></trkpt><trkpt lat="45.0752467" lon="7.9728283"><ele>467.0</ele><time>2026-04-11T15:51:06.88Z</time></trkpt><trkpt lat="45.0752367" lon="7.972995"><ele>468.0</ele><time>2026-04-11T15:51:08.88Z</time></trkpt><trkpt lat="45.0753317" lon="7.9730617"><ele>469.0</ele><time>2026-04-11T15:51:10.88Z</time></trkpt><trkpt lat="45.0753967" lon="7.973025"><ele>469.0</ele><time>2026-04-11T15:51:11.881Z</time></trkpt><trkpt lat="45.0754767" lon="7.9729367"><ele>469.0</ele><time>2026-04-11T15:51:12.881Z</time></trkpt><trkpt lat="45.07557" lon="7.97279"><ele>469.0</ele><time>2026-04-11T15:51:13.881Z</time></trkpt><trkpt lat="45.0756783" lon="7.9726183"><ele>469.0</ele><time>2026-04-11T15:51:14.88Z</time></trkpt><trkpt lat="45.075785" lon="7.9724567"><ele>473.5</ele><time>2026-04-11T15:51:15.88Z</time></trkpt><trkpt lat="45.0758733" lon="7.9723033"><ele>478.0</ele><time>2026-04-11T15:51:16.88Z</time></trkpt><trkpt lat="45.0759417" lon="7.972135"><ele>482.5</ele><time>2026-04-11T15:51:17.88Z</time></trkpt><trkpt lat="45.07599" lon="7.971955"><ele>487.0</ele><time>2026-04-11T15:51:18.881Z</time></trkpt><trkpt lat="45.07604" lon="7.971775"><ele>485.0</ele><time>2026-04-11T15:51:19.88Z</time></trkpt><trkpt lat="45.0761133" lon="7.9716133"><ele>483.0</ele><time>2026-04-11T15:51:20.88Z</time></trkpt><trkpt lat="45.076195" lon="7.971475"><ele>481.0</ele><time>2026-04-11T15:51:21.88Z</time></trkpt><trkpt lat="45.0762567" lon="7.9713367"><ele>479.0</ele><time>2026-04-11T15:51:22.88Z</time></trkpt><trkpt lat="45.076285" lon="7.9711733"><ele>479.0</ele><time>2026-04-11T15:51:23.88Z</time></trkpt><trkpt lat="45.0762733" lon="7.97101"><ele>479.0</ele><time>2026-04-11T15:51:24.88Z</time></trkpt><trkpt lat="45.0762333" lon="7.970855"><ele>479.0</ele><time>2026-04-11T15:51:25.88Z</time></trkpt><trkpt lat="45.0761617" lon="7.9707167"><ele>479.0</ele><time>2026-04-11T15:51:26.88Z</time></trkpt><trkpt lat="45.076105" lon="7.9705667"><ele>479.5</ele><time>2026-04-11T15:51:27.88Z</time></trkpt><trkpt lat="45.0760783" lon="7.9703933"><ele>480.0</ele><time>2026-04-11T15:51:28.88Z</time></trkpt><trkpt lat="45.076085" lon="7.97021"><ele>480.5</ele><time>2026-04-11T15:51:29.88Z</time></trkpt><trkpt lat="45.07611" lon="7.970015"><ele>481.0</ele><time>2026-04-11T15:51:30.881Z</time></trkpt><trkpt lat="45.07614" lon="7.9698267"><ele>482.5</ele><time>2026-04-11T15:51:31.881Z</time></trkpt><trkpt lat="45.0761717" lon="7.9696367"><ele>484.0</ele><time>2026-04-11T15:51:32.881Z</time></trkpt><trkpt lat="45.0762033" lon="7.9694567"><ele>485.5</ele><time>2026-04-11T15:51:33.88Z</time></trkpt><trkpt lat="45.0762483" lon="7.9692733"><ele>487.0</ele><time>2026-04-11T15:51:34.88Z</time></trkpt><trkpt lat="45.076285" lon="7.9690967"><ele>488.0</ele><time>2026-04-11T15:51:35.88Z</time></trkpt><trkpt lat="45.0763467" lon="7.96894"><ele>489.0</ele><time>2026-04-11T15:51:36.881Z</time></trkpt><trkpt lat="45.076415" lon="7.968785"><ele>490.0</ele><time>2026-04-11T15:51:37.88Z</time></trkpt><trkpt lat="45.076475" lon="7.9686383"><ele>491.0</ele><time>2026-04-11T15:51:38.88Z</time></trkpt><trkpt lat="45.0765317" lon="7.9685167"><ele>493.0</ele><time>2026-04-11T15:51:39.88Z</time></trkpt><trkpt lat="45.0766183" lon="7.9684583"><ele>495.0</ele><time>2026-04-11T15:51:40.88Z</time></trkpt><trkpt lat="45.076715" lon="7.9683883"><ele>497.0</ele><time>2026-04-11T15:51:41.88Z</time></trkpt><trkpt lat="45.07684" lon="7.968295"><ele>499.0</ele><time>2026-04-11T15:51:42.88Z</time></trkpt><trkpt lat="45.0769633" lon="7.9682133"><ele>499.0</ele><time>2026-04-11T15:51:43.881Z</time></trkpt><trkpt lat="45.07708" lon="7.9681367"><ele>499.0</ele><time>2026-04-11T15:51:44.88Z</time></trkpt><trkpt lat="45.0772117" lon="7.968035"><ele>499.0</ele><time>2026-04-11T15:51:45.88Z</time></trkpt><trkpt lat="45.07735" lon="7.967945"><ele>499.0</ele><time>2026-04-11T15:51:46.88Z</time></trkpt><trkpt lat="45.07749" lon="7.9678433"><ele>501.0</ele><time>2026-04-11T15:51:47.88Z</time></trkpt><trkpt lat="45.0776133" lon="7.9677733"><ele>503.0</ele><time>2026-04-11T15:51:48.88Z</time></trkpt><trkpt lat="45.0777233" lon="7.9677033"><ele>505.0</ele><time>2026-04-11T15:51:49.88Z</time></trkpt><trkpt lat="45.0778433" lon="7.9676433"><ele>507.0</ele><time>2026-04-11T15:51:50.88Z</time></trkpt><trkpt lat="45.077965" lon="7.96758"><ele>507.0</ele><time>2026-04-11T15:51:51.88Z</time></trkpt><trkpt lat="45.0780917" lon="7.9675483"><ele>507.0</ele><time>2026-04-11T15:51:52.881Z</time></trkpt><trkpt lat="45.07822" lon="7.96755"><ele>507.0</ele><time>2026-04-11T15:51:53.88Z</time></trkpt><trkpt lat="45.0783533" lon="7.967585"><ele>507.0</ele><time>2026-04-11T15:51:54.88Z</time></trkpt><trkpt lat="45.0784733" lon="7.9676383"><ele>507.75</ele><time>2026-04-11T15:51:55.88Z</time></trkpt><trkpt lat="45.0785917" lon="7.96773"><ele>508.5</ele><time>2026-04-11T15:51:56.881Z</time></trkpt><trkpt lat="45.078695" lon="7.9678533"><ele>509.25</ele><time>2026-04-11T15:51:57.881Z</time></trkpt><trkpt lat="45.0787867" lon="7.9679883"><ele>510.0</ele><time>2026-04-11T15:51:58.881Z</time></trkpt><trkpt lat="45.0788767" lon="7.968145"><ele>510.0</ele><time>2026-04-11T15:51:59.88Z</time></trkpt><trkpt lat="45.0789733" lon="7.96828"><ele>510.0</ele><time>2026-04-11T15:52:00.881Z</time></trkpt><trkpt lat="45.0790783" lon="7.968395"><ele>510.0</ele><time>2026-04-11T15:52:01.881Z</time></trkpt><trkpt lat="45.0791917" lon="7.96852"><ele>510.0</ele><time>2026-04-11T15:52:02.88Z</time></trkpt><trkpt lat="45.0792783" lon="7.9686333"><ele>512.0</ele><time>2026-04-11T15:52:03.88Z</time></trkpt><trkpt lat="45.0793567" lon="7.9687167"><ele>514.0</ele><time>2026-04-11T15:52:04.881Z</time></trkpt><trkpt lat="45.0794433" lon="7.9687717"><ele>516.0</ele><time>2026-04-11T15:52:05.88Z</time></trkpt><trkpt lat="45.0795217" lon="7.96881"><ele>518.0</ele><time>2026-04-11T15:52:06.881Z</time></trkpt><trkpt lat="45.0795967" lon="7.9688283"><ele>520.0</ele><time>2026-04-11T15:52:07.88Z</time></trkpt><trkpt lat="45.0796767" lon="7.9688083"><ele>522.0</ele><time>2026-04-11T15:52:08.881Z</time></trkpt><trkpt lat="45.0797483" lon="7.9687417"><ele>522.0</ele><time>2026-04-11T15:52:09.881Z</time></trkpt><trkpt lat="45.079825" lon="7.96862"><ele>522.0</ele><time>2026-04-11T15:52:10.88Z</time></trkpt><trkpt lat="45.0799033" lon="7.9684667"><ele>522.0</ele><time>2026-04-11T15:52:11.88Z</time></trkpt><trkpt lat="45.0799917" lon="7.9683367"><ele>522.0</ele><time>2026-04-11T15:52:12.88Z</time></trkpt><trkpt lat="45.0800717" lon="7.9682083"><ele>518.0</ele><time>2026-04-11T15:52:13.88Z</time></trkpt><trkpt lat="45.0801583" lon="7.9680667"><ele>514.0</ele><time>2026-04-11T15:52:14.88Z</time></trkpt><trkpt lat="45.0802283" lon="7.9679067"><ele>510.0</ele><time>2026-04-11T15:52:15.881Z</time></trkpt><trkpt lat="45.0803117" lon="7.9677467"><ele>506.0</ele><time>2026-04-11T15:52:16.881Z</time></trkpt><trkpt lat="45.0803917" lon="7.9675917"><ele>503.75</ele><time>2026-04-11T15:52:17.88Z</time></trkpt><trkpt lat="45.0804717" lon="7.9674367"><ele>501.5</ele><time>2026-04-11T15:52:18.88Z</time></trkpt><trkpt lat="45.0805567" lon="7.96726"><ele>499.25</ele><time>2026-04-11T15:52:19.881Z</time></trkpt><trkpt lat="45.0806367" lon="7.9670933"><ele>497.0</ele><time>2026-04-11T15:52:20.881Z</time></trkpt><trkpt lat="45.0807167" lon="7.9669383"><ele>500.0</ele><time>2026-04-11T15:52:21.881Z</time></trkpt><trkpt lat="45.0808" lon="7.96678"><ele>503.0</ele><time>2026-04-11T15:52:22.88Z</time></trkpt><trkpt lat="45.0808867" lon="7.9666083"><ele>506.0</ele><time>2026-04-11T15:52:23.88Z</time></trkpt><trkpt lat="45.08097" lon="7.9664267"><ele>509.0</ele><time>2026-04-11T15:52:24.88Z</time></trkpt><trkpt lat="45.0810567" lon="7.96625"><ele>509.0</ele><time>2026-04-11T15:52:25.881Z</time></trkpt><trkpt lat="45.0811383" lon="7.9660667"><ele>509.0</ele><time>2026-04-11T15:52:26.881Z</time></trkpt><trkpt lat="45.0812217" lon="7.9658933"><ele>509.0</ele><time>2026-04-11T15:52:27.88Z</time></trkpt><trkpt lat="45.0813033" lon="7.9657183"><ele>509.0</ele><time>2026-04-11T15:52:28.881Z</time></trkpt><trkpt lat="45.0813717" lon="7.9655333"><ele>507.5</ele><time>2026-04-11T15:52:29.88Z</time></trkpt><trkpt lat="45.081425" lon="7.9653383"><ele>506.0</ele><time>2026-04-11T15:52:30.88Z</time></trkpt><trkpt lat="45.0814517" lon="7.9651283"><ele>504.5</ele><time>2026-04-11T15:52:31.881Z</time></trkpt><trkpt lat="45.08147" lon="7.9649217"><ele>503.0</ele><time>2026-04-11T15:52:32.88Z</time></trkpt><trkpt lat="45.081485" lon="7.9647283"><ele>503.0</ele><time>2026-04-11T15:52:33.88Z</time></trkpt><trkpt lat="45.0815283" lon="7.964555"><ele>503.0</ele><time>2026-04-11T15:52:34.88Z</time></trkpt><trkpt lat="45.0816017" lon="7.96441"><ele>503.0</ele><time>2026-04-11T15:52:35.881Z</time></trkpt><trkpt lat="45.0816883" lon="7.9642783"><ele>503.0</ele><time>2026-04-11T15:52:36.881Z</time></trkpt><trkpt lat="45.081805" lon="7.9641783"><ele>508.0</ele><time>2026-04-11T15:52:37.88Z</time></trkpt><trkpt lat="45.0819483" lon="7.9641183"><ele>513.0</ele><time>2026-04-11T15:52:38.881Z</time></trkpt><trkpt lat="45.0820917" lon="7.96404"><ele>518.0</ele><time>2026-04-11T15:52:39.881Z</time></trkpt><trkpt lat="45.082235" lon="7.9639433"><ele>518.0</ele><time>2026-04-11T15:52:40.88Z</time></trkpt><trkpt lat="45.0823867" lon="7.963845"><ele>518.0</ele><time>2026-04-11T15:52:41.88Z</time></trkpt><trkpt lat="45.08252" lon="7.9637683"><ele>518.0</ele><time>2026-04-11T15:52:42.881Z</time></trkpt><trkpt lat="45.0826583" lon="7.9636517"><ele>513.0</ele><time>2026-04-11T15:52:43.881Z</time></trkpt><trkpt lat="45.0828133" lon="7.9635383"><ele>508.0</ele><time>2026-04-11T15:52:44.881Z</time></trkpt><trkpt lat="45.0829617" lon="7.963395"><ele>503.0</ele><time>2026-04-11T15:52:45.881Z</time></trkpt><trkpt lat="45.0830967" lon="7.9632733"><ele>499.3333333333333</ele><time>2026-04-11T15:52:46.88Z</time></trkpt><trkpt lat="45.0832367" lon="7.9631733"><ele>495.66666666666663</ele><time>2026-04-11T15:52:47.88Z</time></trkpt><trkpt lat="45.0833867" lon="7.9631067"><ele>492.0</ele><time>2026-04-11T15:52:48.88Z</time></trkpt><trkpt lat="45.0835317" lon="7.9630717"><ele>491.75</ele><time>2026-04-11T15:52:49.881Z</time></trkpt><trkpt lat="45.0836767" lon="7.9630333"><ele>491.5</ele><time>2026-04-11T15:52:50.881Z</time></trkpt><trkpt lat="45.0838217" lon="7.9629917"><ele>491.25</ele><time>2026-04-11T15:52:51.88Z</time></trkpt><trkpt lat="45.0839633" lon="7.962945"><ele>491.0</ele><time>2026-04-11T15:52:52.881Z</time></trkpt><trkpt lat="45.0840983" lon="7.96294"><ele>490.0</ele><time>2026-04-11T15:52:53.881Z</time></trkpt><trkpt lat="45.0842367" lon="7.962955"><ele>489.0</ele><time>2026-04-11T15:52:54.88Z</time></trkpt><trkpt lat="45.08439" lon="7.9629883"><ele>488.0</ele><time>2026-04-11T15:52:55.881Z</time></trkpt><trkpt lat="45.0845183" lon="7.9630683"><ele>487.0</ele><time>2026-04-11T15:52:56.881Z</time></trkpt><trkpt lat="45.0846333" lon="7.9631933"><ele>487.0</ele><time>2026-04-11T15:52:57.88Z</time></trkpt><trkpt lat="45.0847267" lon="7.9633483"><ele>487.0</ele><time>2026-04-11T15:52:58.881Z</time></trkpt><trkpt lat="45.0848167" lon="7.96348"><ele>487.0</ele><time>2026-04-11T15:52:59.88Z</time></trkpt><trkpt lat="45.0849167" lon="7.9635633"><ele>487.0</ele><time>2026-04-11T15:53:00.88Z</time></trkpt><trkpt lat="45.0850167" lon="7.9635867"><ele>487.0</ele><time>2026-04-11T15:53:01.88Z</time></trkpt><trkpt lat="45.0851033" lon="7.96353"><ele>487.0</ele><time>2026-04-11T15:53:02.88Z</time></trkpt><trkpt lat="45.085175" lon="7.9633833"><ele>487.0</ele><time>2026-04-11T15:53:03.881Z</time></trkpt><trkpt lat="45.0852117" lon="7.96318"><ele>487.0</ele><time>2026-04-11T15:53:04.88Z</time></trkpt><trkpt lat="45.0852583" lon="7.9630083"><ele>487.0</ele><time>2026-04-11T15:53:05.88Z</time></trkpt><trkpt lat="45.0853633" lon="7.962865"><ele>487.0</ele><time>2026-04-11T15:53:06.88Z</time></trkpt><trkpt lat="45.0854967" lon="7.96277"><ele>487.0</ele><time>2026-04-11T15:53:07.881Z</time></trkpt><trkpt lat="45.0856667" lon="7.9627233"><ele>479.33333333333337</ele><time>2026-04-11T15:53:08.88Z</time></trkpt><trkpt lat="45.0858317" lon="7.9627417"><ele>471.66666666666663</ele><time>2026-04-11T15:53:09.881Z</time></trkpt><trkpt lat="45.085995" lon="7.9627733"><ele>464.0</ele><time>2026-04-11T15:53:10.88Z</time></trkpt><trkpt lat="45.0861583" lon="7.9627783"><ele>464.0</ele><time>2026-04-11T15:53:11.881Z</time></trkpt><trkpt lat="45.08631" lon="7.9627667"><ele>464.0</ele><time>2026-04-11T15:53:12.88Z</time></trkpt><trkpt lat="45.0864633" lon="7.96275"><ele>464.0</ele><time>2026-04-11T15:53:13.88Z</time></trkpt><trkpt lat="45.0866283" lon="7.9627283"><ele>461.0</ele><time>2026-04-11T15:53:14.881Z</time></trkpt><trkpt lat="45.0867817" lon="7.96267"><ele>458.0</ele><time>2026-04-11T15:53:15.88Z</time></trkpt><trkpt lat="45.0869283" lon="7.9625783"><ele>455.0</ele><time>2026-04-11T15:53:16.88Z</time></trkpt><trkpt lat="45.0870667" lon="7.9624967"><ele>454.75</ele><time>2026-04-11T15:53:17.881Z</time></trkpt><trkpt lat="45.0872083" lon="7.9624217"><ele>454.5</ele><time>2026-04-11T15:53:18.88Z</time></trkpt><trkpt lat="45.08735" lon="7.9623767"><ele>454.25</ele><time>2026-04-11T15:53:19.881Z</time></trkpt><trkpt lat="45.08748" lon="7.96231"><ele>454.0</ele><time>2026-04-11T15:53:20.88Z</time></trkpt><trkpt lat="45.0876117" lon="7.96223"><ele>454.0</ele><time>2026-04-11T15:53:21.88Z</time></trkpt><trkpt lat="45.0877217" lon="7.96217"><ele>454.0</ele><time>2026-04-11T15:53:22.88Z</time></trkpt><trkpt lat="45.0878217" lon="7.96214"><ele>454.0</ele><time>2026-04-11T15:53:23.881Z</time></trkpt><trkpt lat="45.0879183" lon="7.96218"><ele>454.0</ele><time>2026-04-11T15:53:24.881Z</time></trkpt><trkpt lat="45.0879883" lon="7.9622633"><ele>454.0</ele><time>2026-04-11T15:53:25.881Z</time></trkpt><trkpt lat="45.08803" lon="7.96239"><ele>454.0</ele><time>2026-04-11T15:53:26.88Z</time></trkpt><trkpt lat="45.0880333" lon="7.9625183"><ele>454.0</ele><time>2026-04-11T15:53:27.881Z</time></trkpt><trkpt lat="45.087985" lon="7.9626467"><ele>454.0</ele><time>2026-04-11T15:53:28.881Z</time></trkpt><trkpt lat="45.08791" lon="7.96275"><ele>454.0</ele><time>2026-04-11T15:53:29.881Z</time></trkpt><trkpt lat="45.08779" lon="7.96285"><ele>454.0</ele><time>2026-04-11T15:53:30.88Z</time></trkpt><trkpt lat="45.08766" lon="7.962955"><ele>453.2</ele><time>2026-04-11T15:53:31.881Z</time></trkpt><trkpt lat="45.0875767" lon="7.9630833"><ele>452.4</ele><time>2026-04-11T15:53:32.88Z</time></trkpt><trkpt lat="45.0875317" lon="7.9632367"><ele>451.6</ele><time>2026-04-11T15:53:33.88Z</time></trkpt><trkpt lat="45.08753" lon="7.9633667"><ele>450.8</ele><time>2026-04-11T15:53:34.88Z</time></trkpt><trkpt lat="45.087565" lon="7.9634767"><ele>450.0</ele><time>2026-04-11T15:53:35.88Z</time></trkpt><trkpt lat="45.0876267" lon="7.9635767"><ele>450.0</ele><time>2026-04-11T15:53:36.881Z</time></trkpt><trkpt lat="45.087725" lon="7.9636333"><ele>450.0</ele><time>2026-04-11T15:53:37.881Z</time></trkpt><trkpt lat="45.0878583" lon="7.96369"><ele>450.0</ele><time>2026-04-11T15:53:38.88Z</time></trkpt><trkpt lat="45.0880167" lon="7.9637683"><ele>450.0</ele><time>2026-04-11T15:53:39.881Z</time></trkpt><trkpt lat="45.0881617" lon="7.9638667"><ele>445.66666666666663</ele><time>2026-04-11T15:53:40.88Z</time></trkpt><trkpt lat="45.0882983" lon="7.963985"><ele>441.3333333333333</ele><time>2026-04-11T15:53:41.88Z</time></trkpt><trkpt lat="45.088445" lon="7.9641167"><ele>437.0</ele><time>2026-04-11T15:53:42.881Z</time></trkpt><trkpt lat="45.0885617" lon="7.9642383"><ele>436.25</ele><time>2026-04-11T15:53:43.881Z</time></trkpt><trkpt lat="45.0886867" lon="7.9643517"><ele>435.5</ele><time>2026-04-11T15:53:44.88Z</time></trkpt><trkpt lat="45.088795" lon="7.9644883"><ele>434.75</ele><time>2026-04-11T15:53:45.88Z</time></trkpt><trkpt lat="45.0888917" lon="7.96463"><ele>434.0</ele><time>2026-04-11T15:53:46.88Z</time></trkpt><trkpt lat="45.0889683" lon="7.96479"><ele>434.0</ele><time>2026-04-11T15:53:47.881Z</time></trkpt><trkpt lat="45.0890483" lon="7.96494"><ele>434.0</ele><time>2026-04-11T15:53:48.881Z</time></trkpt><trkpt lat="45.089125" lon="7.9650667"><ele>434.0</ele><time>2026-04-11T15:53:49.881Z</time></trkpt><trkpt lat="45.0892017" lon="7.965175"><ele>434.0</ele><time>2026-04-11T15:53:50.88Z</time></trkpt><trkpt lat="45.08928" lon="7.9652517"><ele>432.16666666666663</ele><time>2026-04-11T15:53:51.88Z</time></trkpt><trkpt lat="45.0893667" lon="7.9652833"><ele>430.3333333333333</ele><time>2026-04-11T15:53:52.88Z</time></trkpt><trkpt lat="45.0894417" lon="7.96529"><ele>428.5</ele><time>2026-04-11T15:53:53.881Z</time></trkpt><trkpt lat="45.0895033" lon="7.96525"><ele>426.66666666666663</ele><time>2026-04-11T15:53:54.88Z</time></trkpt><trkpt lat="45.0895633" lon="7.9651833"><ele>424.8333333333333</ele><time>2026-04-11T15:53:55.88Z</time></trkpt><trkpt lat="45.0895967" lon="7.96508"><ele>423.0</ele><time>2026-04-11T15:53:56.88Z</time></trkpt><trkpt lat="45.0895967" lon="7.96491"><ele>423.0</ele><time>2026-04-11T15:53:57.881Z</time></trkpt><trkpt lat="45.0895533" lon="7.9647433"><ele>423.0</ele><time>2026-04-11T15:53:58.88Z</time></trkpt><trkpt lat="45.0894817" lon="7.9645767"><ele>423.0</ele><time>2026-04-11T15:53:59.88Z</time></trkpt><trkpt lat="45.0893867" lon="7.9644133"><ele>423.0</ele><time>2026-04-11T15:54:00.881Z</time></trkpt><trkpt lat="45.0893333" lon="7.9642617"><ele>423.0</ele><time>2026-04-11T15:54:01.88Z</time></trkpt><trkpt lat="45.0893433" lon="7.9641317"><ele>423.0</ele><time>2026-04-11T15:54:02.88Z</time></trkpt><trkpt lat="45.0893833" lon="7.9640433"><ele>423.0</ele><time>2026-04-11T15:54:03.88Z</time></trkpt><trkpt lat="45.0894433" lon="7.9639967"><ele>423.0</ele><time>2026-04-11T15:54:04.88Z</time></trkpt><trkpt lat="45.089575" lon="7.9640733"><ele>423.0</ele><time>2026-04-11T15:54:06.881Z</time></trkpt><trkpt lat="45.0896567" lon="7.9641983"><ele>423.0</ele><time>2026-04-11T15:54:07.88Z</time></trkpt><trkpt lat="45.089755" lon="7.9643417"><ele>423.0</ele><time>2026-04-11T15:54:08.88Z</time></trkpt><trkpt lat="45.0898817" lon="7.96446"><ele>423.0</ele><time>2026-04-11T15:54:09.881Z</time></trkpt><trkpt lat="45.0900133" lon="7.9645133"><ele>423.0</ele><time>2026-04-11T15:54:10.88Z</time></trkpt><trkpt lat="45.0901733" lon="7.9645133"><ele>422.33333333333337</ele><time>2026-04-11T15:54:11.88Z</time></trkpt><trkpt lat="45.0903717" lon="7.9644583"><ele>421.6666666666667</ele><time>2026-04-11T15:54:12.88Z</time></trkpt><trkpt lat="45.0905483" lon="7.96439"><ele>421.0</ele><time>2026-04-11T15:54:13.881Z</time></trkpt><trkpt lat="45.0907217" lon="7.9643517"><ele>421.0</ele><time>2026-04-11T15:54:14.881Z</time></trkpt><trkpt lat="45.0908867" lon="7.9643083"><ele>421.0</ele><time>2026-04-11T15:54:15.881Z</time></trkpt><trkpt lat="45.091055" lon="7.9642667"><ele>421.0</ele><time>2026-04-11T15:54:16.88Z</time></trkpt><trkpt lat="45.0912" lon="7.9642367"><ele>417.25</ele><time>2026-04-11T15:54:17.88Z</time></trkpt><trkpt lat="45.091325" lon="7.9641767"><ele>413.5</ele><time>2026-04-11T15:54:18.88Z</time></trkpt><trkpt lat="45.0914267" lon="7.9640833"><ele>409.75</ele><time>2026-04-11T15:54:19.88Z</time></trkpt><trkpt lat="45.0914883" lon="7.9639283"><ele>406.0</ele><time>2026-04-11T15:54:20.88Z</time></trkpt><trkpt lat="45.0915483" lon="7.963735"><ele>406.0</ele><time>2026-04-11T15:54:21.88Z</time></trkpt><trkpt lat="45.0915733" lon="7.963555"><ele>406.0</ele><time>2026-04-11T15:54:22.881Z</time></trkpt><trkpt lat="45.0915317" lon="7.9633533"><ele>406.0</ele><time>2026-04-11T15:54:23.881Z</time></trkpt><trkpt lat="45.0914133" lon="7.9631333"><ele>404.0</ele><time>2026-04-11T15:54:24.88Z</time></trkpt><trkpt lat="45.0913417" lon="7.962915"><ele>402.0</ele><time>2026-04-11T15:54:25.88Z</time></trkpt><trkpt lat="45.09129" lon="7.9626983"><ele>400.0</ele><time>2026-04-11T15:54:26.881Z</time></trkpt><trkpt lat="45.09127" lon="7.96247"><ele>400.0</ele><time>2026-04-11T15:54:27.881Z</time></trkpt><trkpt lat="45.0912933" lon="7.9622433"><ele>400.0</ele><time>2026-04-11T15:54:28.881Z</time></trkpt><trkpt lat="45.091365" lon="7.9620367"><ele>400.0</ele><time>2026-04-11T15:54:29.88Z</time></trkpt><trkpt lat="45.0914583" lon="7.9618517"><ele>400.33333333333337</ele><time>2026-04-11T15:54:30.88Z</time></trkpt><trkpt lat="45.0915717" lon="7.9616683"><ele>400.66666666666663</ele><time>2026-04-11T15:54:31.88Z</time></trkpt><trkpt lat="45.091685" lon="7.9614933"><ele>401.0</ele><time>2026-04-11T15:54:32.88Z</time></trkpt><trkpt lat="45.0917883" lon="7.9612933"><ele>395.3333333333333</ele><time>2026-04-11T15:54:33.88Z</time></trkpt><trkpt lat="45.0918833" lon="7.9610983"><ele>389.66666666666663</ele><time>2026-04-11T15:54:34.881Z</time></trkpt><trkpt lat="45.0919833" lon="7.9608983"><ele>384.0</ele><time>2026-04-11T15:54:35.88Z</time></trkpt><trkpt lat="45.0920783" lon="7.9607"><ele>384.0</ele><time>2026-04-11T15:54:36.881Z</time></trkpt><trkpt lat="45.0921733" lon="7.9605017"><ele>384.0</ele><time>2026-04-11T15:54:37.88Z</time></trkpt><trkpt lat="45.09226" lon="7.9603167"><ele>384.0</ele><time>2026-04-11T15:54:38.88Z</time></trkpt><trkpt lat="45.0923517" lon="7.9601367"><ele>382.75</ele><time>2026-04-11T15:54:39.88Z</time></trkpt><trkpt lat="45.092445" lon="7.9599767"><ele>381.5</ele><time>2026-04-11T15:54:40.881Z</time></trkpt><trkpt lat="45.0925333" lon="7.9597967"><ele>380.25</ele><time>2026-04-11T15:54:41.881Z</time></trkpt><trkpt lat="45.0926117" lon="7.9596433"><ele>379.0</ele><time>2026-04-11T15:54:42.88Z</time></trkpt><trkpt lat="45.0926817" lon="7.9594617"><ele>379.0</ele><time>2026-04-11T15:54:43.88Z</time></trkpt><trkpt lat="45.0927467" lon="7.95926"><ele>379.0</ele><time>2026-04-11T15:54:44.881Z</time></trkpt><trkpt lat="45.0927817" lon="7.95906"><ele>379.0</ele><time>2026-04-11T15:54:45.88Z</time></trkpt><trkpt lat="45.0927967" lon="7.9588667"><ele>379.0</ele><time>2026-04-11T15:54:46.88Z</time></trkpt><trkpt lat="45.0928" lon="7.9586667"><ele>378.5</ele><time>2026-04-11T15:54:47.88Z</time></trkpt><trkpt lat="45.0928" lon="7.9584667"><ele>378.0</ele><time>2026-04-11T15:54:48.88Z</time></trkpt><trkpt lat="45.0928033" lon="7.958255"><ele>377.5</ele><time>2026-04-11T15:54:49.88Z</time></trkpt><trkpt lat="45.0928033" lon="7.9580483"><ele>377.0</ele><time>2026-04-11T15:54:50.881Z</time></trkpt><trkpt lat="45.0928" lon="7.9578483"><ele>377.0</ele><time>2026-04-11T15:54:51.881Z</time></trkpt><trkpt lat="45.0927983" lon="7.95765"><ele>377.0</ele><time>2026-04-11T15:54:52.88Z</time></trkpt><trkpt lat="45.0928267" lon="7.957445"><ele>377.0</ele><time>2026-04-11T15:54:53.88Z</time></trkpt><trkpt lat="45.0928867" lon="7.95727"><ele>377.0</ele><time>2026-04-11T15:54:54.88Z</time></trkpt><trkpt lat="45.0929833" lon="7.957135"><ele>377.5</ele><time>2026-04-11T15:54:55.88Z</time></trkpt><trkpt lat="45.0931" lon="7.95702"><ele>378.0</ele><time>2026-04-11T15:54:56.881Z</time></trkpt><trkpt lat="45.0932283" lon="7.956905"><ele>378.5</ele><time>2026-04-11T15:54:57.881Z</time></trkpt><trkpt lat="45.0933567" lon="7.9567967"><ele>379.0</ele><time>2026-04-11T15:54:58.881Z</time></trkpt><trkpt lat="45.0934783" lon="7.9566967"><ele>381.5</ele><time>2026-04-11T15:54:59.88Z</time></trkpt><trkpt lat="45.0936033" lon="7.9565833"><ele>384.0</ele><time>2026-04-11T15:55:00.88Z</time></trkpt><trkpt lat="45.093725" lon="7.9564567"><ele>386.5</ele><time>2026-04-11T15:55:01.88Z</time></trkpt><trkpt lat="45.09384" lon="7.9563283"><ele>389.0</ele><time>2026-04-11T15:55:02.881Z</time></trkpt><trkpt lat="45.0939517" lon="7.9561933"><ele>389.0</ele><time>2026-04-11T15:55:03.88Z</time></trkpt><trkpt lat="45.0940583" lon="7.9560567"><ele>389.0</ele><time>2026-04-11T15:55:04.881Z</time></trkpt><trkpt lat="45.0941617" lon="7.9559267"><ele>389.0</ele><time>2026-04-11T15:55:05.881Z</time></trkpt><trkpt lat="45.09427" lon="7.9557967"><ele>389.0</ele><time>2026-04-11T15:55:06.88Z</time></trkpt><trkpt lat="45.0943817" lon="7.955665"><ele>390.0</ele><time>2026-04-11T15:55:07.881Z</time></trkpt><trkpt lat="45.0944983" lon="7.955535"><ele>391.0</ele><time>2026-04-11T15:55:08.88Z</time></trkpt><trkpt lat="45.094605" lon="7.9554117"><ele>392.0</ele><time>2026-04-11T15:55:09.88Z</time></trkpt><trkpt lat="45.09471" lon="7.9552767"><ele>393.0</ele><time>2026-04-11T15:55:10.881Z</time></trkpt><trkpt lat="45.09481" lon="7.9551483"><ele>393.5</ele><time>2026-04-11T15:55:11.881Z</time></trkpt><trkpt lat="45.0949167" lon="7.95503"><ele>394.0</ele><time>2026-04-11T15:55:12.88Z</time></trkpt><trkpt lat="45.0950217" lon="7.9549"><ele>394.5</ele><time>2026-04-11T15:55:13.88Z</time></trkpt><trkpt lat="45.0951083" lon="7.954775"><ele>395.0</ele><time>2026-04-11T15:55:14.88Z</time></trkpt><trkpt lat="45.095175" lon="7.954655"><ele>395.0</ele><time>2026-04-11T15:55:15.88Z</time></trkpt><trkpt lat="45.0952383" lon="7.9545317"><ele>395.0</ele><time>2026-04-11T15:55:16.88Z</time></trkpt><trkpt lat="45.0952917" lon="7.9544183"><ele>395.0</ele><time>2026-04-11T15:55:17.88Z</time></trkpt><trkpt lat="45.0953483" lon="7.9543017"><ele>395.0</ele><time>2026-04-11T15:55:18.881Z</time></trkpt><trkpt lat="45.095395" lon="7.9541733"><ele>395.0</ele><time>2026-04-11T15:55:19.88Z</time></trkpt><trkpt lat="45.0954167" lon="7.95403"><ele>394.8</ele><time>2026-04-11T15:55:20.88Z</time></trkpt><trkpt lat="45.0954333" lon="7.95387"><ele>394.6</ele><time>2026-04-11T15:55:21.88Z</time></trkpt><trkpt lat="45.0954517" lon="7.9537183"><ele>394.4</ele><time>2026-04-11T15:55:22.88Z</time></trkpt><trkpt lat="45.0954683" lon="7.953585"><ele>394.2</ele><time>2026-04-11T15:55:23.88Z</time></trkpt><trkpt lat="45.0954667" lon="7.95347"><ele>394.0</ele><time>2026-04-11T15:55:24.881Z</time></trkpt><trkpt lat="45.0954483" lon="7.9533667"><ele>394.00000000000006</ele><time>2026-04-11T15:55:25.881Z</time></trkpt><trkpt lat="45.0954183" lon="7.9532567"><ele>394.0</ele><time>2026-04-11T15:55:26.88Z</time></trkpt><trkpt lat="45.09538" lon="7.9531583"><ele>394.0</ele><time>2026-04-11T15:55:27.88Z</time></trkpt><trkpt lat="45.0953467" lon="7.95308"><ele>394.0</ele><time>2026-04-11T15:55:28.881Z</time></trkpt><trkpt lat="45.095305" lon="7.9529867"><ele>394.00000000000006</ele><time>2026-04-11T15:55:30.881Z</time></trkpt><trkpt lat="45.0953933" lon="7.952945"><ele>394.0</ele><time>2026-04-11T15:55:33.881Z</time></trkpt><trkpt lat="45.0954567" lon="7.9528967"><ele>394.0</ele><time>2026-04-11T15:55:34.88Z</time></trkpt><trkpt lat="45.0955333" lon="7.952815"><ele>394.0</ele><time>2026-04-11T15:55:35.88Z</time></trkpt><trkpt lat="45.0956267" lon="7.952705"><ele>394.0</ele><time>2026-04-11T15:55:36.881Z</time></trkpt><trkpt lat="45.0957383" lon="7.952565"><ele>394.0</ele><time>2026-04-11T15:55:37.881Z</time></trkpt><trkpt lat="45.0958567" lon="7.95242"><ele>393.33333333333337</ele><time>2026-04-11T15:55:38.88Z</time></trkpt><trkpt lat="45.0959617" lon="7.9522783"><ele>392.66666666666663</ele><time>2026-04-11T15:55:39.88Z</time></trkpt><trkpt lat="45.0960883" lon="7.9521617"><ele>392.0</ele><time>2026-04-11T15:55:40.88Z</time></trkpt><trkpt lat="45.09624" lon="7.95208"><ele>392.0</ele><time>2026-04-11T15:55:41.881Z</time></trkpt><trkpt lat="45.09639" lon="7.9520217"><ele>392.0</ele><time>2026-04-11T15:55:42.88Z</time></trkpt><trkpt lat="45.0965483" lon="7.95197"><ele>392.0</ele><time>2026-04-11T15:55:43.88Z</time></trkpt><trkpt lat="45.0967067" lon="7.9519083"><ele>393.3333333333333</ele><time>2026-04-11T15:55:44.881Z</time></trkpt><trkpt lat="45.096865" lon="7.9518383"><ele>394.66666666666663</ele><time>2026-04-11T15:55:45.88Z</time></trkpt><trkpt lat="45.097005" lon="7.951745"><ele>396.0</ele><time>2026-04-11T15:55:46.881Z</time></trkpt><trkpt lat="45.097135" lon="7.95162"><ele>393.0</ele><time>2026-04-11T15:55:47.88Z</time></trkpt><trkpt lat="45.0972417" lon="7.9515083"><ele>390.0</ele><time>2026-04-11T15:55:48.88Z</time></trkpt><trkpt lat="45.0973517" lon="7.9514133"><ele>387.0</ele><time>2026-04-11T15:55:49.88Z</time></trkpt><trkpt lat="45.0974567" lon="7.9513333"><ele>384.0</ele><time>2026-04-11T15:55:50.881Z</time></trkpt><trkpt lat="45.0975383" lon="7.95126"><ele>384.0</ele><time>2026-04-11T15:55:51.881Z</time></trkpt><trkpt lat="45.0975933" lon="7.9511883"><ele>384.0</ele><time>2026-04-11T15:55:52.88Z</time></trkpt><trkpt lat="45.0976333" lon="7.95109"><ele>384.0</ele><time>2026-04-11T15:55:53.88Z</time></trkpt><trkpt lat="45.0976" lon="7.9509383"><ele>384.0</ele><time>2026-04-11T15:55:55.88Z</time></trkpt><trkpt lat="45.097525" lon="7.950925"><ele>384.0</ele><time>2026-04-11T15:55:56.881Z</time></trkpt><trkpt lat="45.0974133" lon="7.9509433"><ele>382.0</ele><time>2026-04-11T15:55:57.88Z</time></trkpt><trkpt lat="45.097285" lon="7.9510417"><ele>380.0</ele><time>2026-04-11T15:55:58.881Z</time></trkpt><trkpt lat="45.097135" lon="7.95117"><ele>378.0</ele><time>2026-04-11T15:55:59.881Z</time></trkpt><trkpt lat="45.096975" lon="7.9512933"><ele>378.0</ele><time>2026-04-11T15:56:00.88Z</time></trkpt><trkpt lat="45.0968383" lon="7.95137"><ele>378.0</ele><time>2026-04-11T15:56:01.88Z</time></trkpt><trkpt lat="45.0967117" lon="7.95143"><ele>378.0</ele><time>2026-04-11T15:56:02.881Z</time></trkpt><trkpt lat="45.0966083" lon="7.9514567"><ele>378.0</ele><time>2026-04-11T15:56:03.881Z</time></trkpt><trkpt lat="45.0965167" lon="7.9514533"><ele>377.1666666666667</ele><time>2026-04-11T15:56:04.88Z</time></trkpt><trkpt lat="45.096435" lon="7.9514017"><ele>376.3333333333333</ele><time>2026-04-11T15:56:05.88Z</time></trkpt><trkpt lat="45.0963667" lon="7.951315"><ele>375.5</ele><time>2026-04-11T15:56:06.88Z</time></trkpt><trkpt lat="45.0963383" lon="7.951205"><ele>374.66666666666663</ele><time>2026-04-11T15:56:07.88Z</time></trkpt><trkpt lat="45.0963483" lon="7.951085"><ele>373.8333333333333</ele><time>2026-04-11T15:56:08.88Z</time></trkpt><trkpt lat="45.0964033" lon="7.9510017"><ele>373.0</ele><time>2026-04-11T15:56:09.88Z</time></trkpt><trkpt lat="45.0965017" lon="7.95095"><ele>374.66666666666663</ele><time>2026-04-11T15:56:10.88Z</time></trkpt><trkpt lat="45.0966367" lon="7.9509"><ele>376.3333333333333</ele><time>2026-04-11T15:56:11.881Z</time></trkpt><trkpt lat="45.0968033" lon="7.9508583"><ele>378.0</ele><time>2026-04-11T15:56:12.881Z</time></trkpt><trkpt lat="45.0969867" lon="7.9507833"><ele>373.0</ele><time>2026-04-11T15:56:13.88Z</time></trkpt><trkpt lat="45.0971367" lon="7.950645"><ele>368.0</ele><time>2026-04-11T15:56:14.88Z</time></trkpt><trkpt lat="45.0972567" lon="7.9504733"><ele>363.0</ele><time>2026-04-11T15:56:15.881Z</time></trkpt><trkpt lat="45.0973667" lon="7.9502967"><ele>364.3333333333333</ele><time>2026-04-11T15:56:16.881Z</time></trkpt><trkpt lat="45.0974617" lon="7.9501233"><ele>365.66666666666663</ele><time>2026-04-11T15:56:17.881Z</time></trkpt><trkpt lat="45.097555" lon="7.9499417"><ele>367.0</ele><time>2026-04-11T15:56:18.88Z</time></trkpt><trkpt lat="45.0976417" lon="7.94976"><ele>363.0</ele><time>2026-04-11T15:56:19.88Z</time></trkpt><trkpt lat="45.0977283" lon="7.9495833"><ele>359.0</ele><time>2026-04-11T15:56:20.881Z</time></trkpt><trkpt lat="45.0978233" lon="7.9494067"><ele>355.0</ele><time>2026-04-11T15:56:21.88Z</time></trkpt><trkpt lat="45.0979283" lon="7.9492633"><ele>354.0</ele><time>2026-04-11T15:56:22.88Z</time></trkpt><trkpt lat="45.0980583" lon="7.9491633"><ele>353.0</ele><time>2026-04-11T15:56:23.88Z</time></trkpt><trkpt lat="45.098195" lon="7.949075"><ele>352.0</ele><time>2026-04-11T15:56:24.881Z</time></trkpt><trkpt lat="45.0983233" lon="7.9489833"><ele>351.0</ele><time>2026-04-11T15:56:25.88Z</time></trkpt><trkpt lat="45.09843" lon="7.9488583"><ele>351.0</ele><time>2026-04-11T15:56:26.88Z</time></trkpt><trkpt lat="45.098535" lon="7.94872"><ele>351.0</ele><time>2026-04-11T15:56:27.881Z</time></trkpt><trkpt lat="45.0986467" lon="7.9485567"><ele>351.0</ele><time>2026-04-11T15:56:28.88Z</time></trkpt><trkpt lat="45.0987483" lon="7.9483933"><ele>349.0</ele><time>2026-04-11T15:56:29.881Z</time></trkpt><trkpt lat="45.0988483" lon="7.9482417"><ele>347.0</ele><time>2026-04-11T15:56:30.88Z</time></trkpt><trkpt lat="45.0989583" lon="7.9481083"><ele>345.0</ele><time>2026-04-11T15:56:31.88Z</time></trkpt><trkpt lat="45.0990683" lon="7.94796"><ele>343.0</ele><time>2026-04-11T15:56:32.88Z</time></trkpt><trkpt lat="45.0991833" lon="7.9478367"><ele>343.0</ele><time>2026-04-11T15:56:33.88Z</time></trkpt><trkpt lat="45.099315" lon="7.947705"><ele>343.0</ele><time>2026-04-11T15:56:34.881Z</time></trkpt><trkpt lat="45.0994567" lon="7.9476283"><ele>343.0</ele><time>2026-04-11T15:56:35.88Z</time></trkpt><trkpt lat="45.099615" lon="7.9475733"><ele>340.3333333333333</ele><time>2026-04-11T15:56:36.88Z</time></trkpt><trkpt lat="45.09977" lon="7.9475133"><ele>337.6666666666667</ele><time>2026-04-11T15:56:37.88Z</time></trkpt><trkpt lat="45.0999317" lon="7.9474517"><ele>335.0</ele><time>2026-04-11T15:56:38.88Z</time></trkpt><trkpt lat="45.10009" lon="7.9473917"><ele>334.5</ele><time>2026-04-11T15:56:39.88Z</time></trkpt><trkpt lat="45.1002383" lon="7.9473267"><ele>334.0</ele><time>2026-04-11T15:56:40.88Z</time></trkpt><trkpt lat="45.10038" lon="7.9472683"><ele>333.5</ele><time>2026-04-11T15:56:41.88Z</time></trkpt><trkpt lat="45.1005167" lon="7.9472083"><ele>333.0</ele><time>2026-04-11T15:56:42.88Z</time></trkpt><trkpt lat="45.100625" lon="7.947115"><ele>333.0</ele><time>2026-04-11T15:56:43.88Z</time></trkpt><trkpt lat="45.100705" lon="7.94697"><ele>333.0</ele><time>2026-04-11T15:56:44.88Z</time></trkpt><trkpt lat="45.1007483" lon="7.9468067"><ele>333.0</ele><time>2026-04-11T15:56:45.88Z</time></trkpt><trkpt lat="45.10074" lon="7.9466517"><ele>333.0</ele><time>2026-04-11T15:56:46.881Z</time></trkpt><trkpt lat="45.1007033" lon="7.9464967"><ele>329.25</ele><time>2026-04-11T15:56:47.88Z</time></trkpt><trkpt lat="45.1006617" lon="7.9463233"><ele>325.5</ele><time>2026-04-11T15:56:48.88Z</time></trkpt><trkpt lat="45.1006067" lon="7.9461483"><ele>321.75</ele><time>2026-04-11T15:56:49.88Z</time></trkpt><trkpt lat="45.1005567" lon="7.9459567"><ele>318.0</ele><time>2026-04-11T15:56:50.88Z</time></trkpt><trkpt lat="45.1005117" lon="7.9457533"><ele>315.25</ele><time>2026-04-11T15:56:51.881Z</time></trkpt><trkpt lat="45.1004883" lon="7.9455467"><ele>312.5</ele><time>2026-04-11T15:56:52.88Z</time></trkpt><trkpt lat="45.100505" lon="7.9453483"><ele>309.75</ele><time>2026-04-11T15:56:53.88Z</time></trkpt><trkpt lat="45.100555" lon="7.94514"><ele>307.0</ele><time>2026-04-11T15:56:54.88Z</time></trkpt><trkpt lat="45.1006183" lon="7.94494"><ele>306.0</ele><time>2026-04-11T15:56:55.88Z</time></trkpt><trkpt lat="45.100695" lon="7.9447433"><ele>305.0</ele><time>2026-04-11T15:56:56.88Z</time></trkpt><trkpt lat="45.100775" lon="7.944565"><ele>304.0</ele><time>2026-04-11T15:56:57.881Z</time></trkpt><trkpt lat="45.1008517" lon="7.9443967"><ele>303.0</ele><time>2026-04-11T15:56:58.881Z</time></trkpt><trkpt lat="45.1009433" lon="7.94426"><ele>304.2</ele><time>2026-04-11T15:56:59.881Z</time></trkpt><trkpt lat="45.1010417" lon="7.9441683"><ele>305.4</ele><time>2026-04-11T15:57:00.881Z</time></trkpt><trkpt lat="45.1011467" lon="7.9441583"><ele>306.59999999999997</ele><time>2026-04-11T15:57:01.88Z</time></trkpt><trkpt lat="45.10126" lon="7.9441633"><ele>307.8</ele><time>2026-04-11T15:57:02.88Z</time></trkpt><trkpt lat="45.1013383" lon="7.9441217"><ele>309.0</ele><time>2026-04-11T15:57:03.88Z</time></trkpt><trkpt lat="45.1013983" lon="7.9440467"><ele>309.0</ele><time>2026-04-11T15:57:04.88Z</time></trkpt><trkpt lat="45.1014317" lon="7.9439317"><ele>309.0</ele><time>2026-04-11T15:57:05.881Z</time></trkpt><trkpt lat="45.1014" lon="7.9438367"><ele>309.0</ele><time>2026-04-11T15:57:06.881Z</time></trkpt><trkpt lat="45.1013283" lon="7.9437617"><ele>309.0</ele><time>2026-04-11T15:57:07.881Z</time></trkpt><trkpt lat="45.101225" lon="7.9437367"><ele>309.0</ele><time>2026-04-11T15:57:08.88Z</time></trkpt><trkpt lat="45.1010867" lon="7.94375"><ele>309.0</ele><time>2026-04-11T15:57:09.881Z</time></trkpt><trkpt lat="45.10094" lon="7.9438417"><ele>309.0</ele><time>2026-04-11T15:57:10.88Z</time></trkpt><trkpt lat="45.1008083" lon="7.9439733"><ele>309.0</ele><time>2026-04-11T15:57:11.881Z</time></trkpt><trkpt lat="45.10067" lon="7.94415"><ele>307.0</ele><time>2026-04-11T15:57:12.88Z</time></trkpt><trkpt lat="45.10054" lon="7.9443233"><ele>305.0</ele><time>2026-04-11T15:57:13.881Z</time></trkpt><trkpt lat="45.1004183" lon="7.94448"><ele>303.0</ele><time>2026-04-11T15:57:14.881Z</time></trkpt><trkpt lat="45.1002967" lon="7.944625"><ele>303.0</ele><time>2026-04-11T15:57:15.88Z</time></trkpt><trkpt lat="45.1001867" lon="7.9447567"><ele>303.0</ele><time>2026-04-11T15:57:16.88Z</time></trkpt><trkpt lat="45.1000917" lon="7.9448833"><ele>303.0</ele><time>2026-04-11T15:57:17.88Z</time></trkpt><trkpt lat="45.10003" lon="7.9450217"><ele>303.0</ele><time>2026-04-11T15:57:18.881Z</time></trkpt><trkpt lat="45.100005" lon="7.9451817"><ele>304.0</ele><time>2026-04-11T15:57:19.881Z</time></trkpt><trkpt lat="45.099995" lon="7.9453567"><ele>305.0</ele><time>2026-04-11T15:57:20.88Z</time></trkpt><trkpt lat="45.0999933" lon="7.945545"><ele>306.0</ele><time>2026-04-11T15:57:21.88Z</time></trkpt><trkpt lat="45.0999833" lon="7.94571"><ele>307.0</ele><time>2026-04-11T15:57:22.88Z</time></trkpt><trkpt lat="45.09995" lon="7.9458467"><ele>306.8333333333333</ele><time>2026-04-11T15:57:23.881Z</time></trkpt><trkpt lat="45.0998933" lon="7.94593"><ele>306.66666666666663</ele><time>2026-04-11T15:57:24.88Z</time></trkpt><trkpt lat="45.0998267" lon="7.94594"><ele>306.5</ele><time>2026-04-11T15:57:25.88Z</time></trkpt><trkpt lat="45.099755" lon="7.9459033"><ele>306.3333333333333</ele><time>2026-04-11T15:57:26.881Z</time></trkpt><trkpt lat="45.09972" lon="7.9458083"><ele>306.1666666666667</ele><time>2026-04-11T15:57:27.88Z</time></trkpt><trkpt lat="45.0997267" lon="7.945675"><ele>306.0</ele><time>2026-04-11T15:57:28.88Z</time></trkpt><trkpt lat="45.09977" lon="7.9455067"><ele>306.0</ele><time>2026-04-11T15:57:29.88Z</time></trkpt><trkpt lat="45.0997967" lon="7.9453317"><ele>306.0</ele><time>2026-04-11T15:57:30.88Z</time></trkpt><trkpt lat="45.099815" lon="7.94515"><ele>306.0</ele><time>2026-04-11T15:57:31.88Z</time></trkpt><trkpt lat="45.099795" lon="7.9449617"><ele>306.0</ele><time>2026-04-11T15:57:32.88Z</time></trkpt><trkpt lat="45.099785" lon="7.944775"><ele>303.3333333333333</ele><time>2026-04-11T15:57:33.88Z</time></trkpt><trkpt lat="45.0998067" lon="7.944575"><ele>300.66666666666663</ele><time>2026-04-11T15:57:34.88Z</time></trkpt><trkpt lat="45.0998533" lon="7.9443767"><ele>298.0</ele><time>2026-04-11T15:57:35.88Z</time></trkpt><trkpt lat="45.09992" lon="7.9441717"><ele>298.0</ele><time>2026-04-11T15:57:36.88Z</time></trkpt><trkpt lat="45.0999933" lon="7.94396"><ele>298.0</ele><time>2026-04-11T15:57:37.88Z</time></trkpt><trkpt lat="45.10006" lon="7.9437517"><ele>298.0</ele><time>2026-04-11T15:57:38.88Z</time></trkpt><trkpt lat="45.1001267" lon="7.9435383"><ele>296.25</ele><time>2026-04-11T15:57:39.881Z</time></trkpt><trkpt lat="45.1001817" lon="7.94336"><ele>294.5</ele><time>2026-04-11T15:57:40.881Z</time></trkpt><trkpt lat="45.1002433" lon="7.943165"><ele>292.75</ele><time>2026-04-11T15:57:41.881Z</time></trkpt><trkpt lat="45.1003183" lon="7.9429817"><ele>291.0</ele><time>2026-04-11T15:57:42.88Z</time></trkpt><trkpt lat="45.100385" lon="7.94279"><ele>291.0</ele><time>2026-04-11T15:57:43.88Z</time></trkpt><trkpt lat="45.1004533" lon="7.9425967"><ele>291.0</ele><time>2026-04-11T15:57:44.88Z</time></trkpt><trkpt lat="45.100525" lon="7.942405"><ele>291.0</ele><time>2026-04-11T15:57:45.88Z</time></trkpt><trkpt lat="45.1005983" lon="7.942225"><ele>291.75</ele><time>2026-04-11T15:57:46.88Z</time></trkpt><trkpt lat="45.1006583" lon="7.9420533"><ele>292.5</ele><time>2026-04-11T15:57:47.881Z</time></trkpt><trkpt lat="45.1007217" lon="7.9418917"><ele>293.25</ele><time>2026-04-11T15:57:48.88Z</time></trkpt><trkpt lat="45.1007983" lon="7.941745"><ele>294.0</ele><time>2026-04-11T15:57:49.88Z</time></trkpt><trkpt lat="45.1008917" lon="7.9416"><ele>291.75</ele><time>2026-04-11T15:57:50.88Z</time></trkpt><trkpt lat="45.100995" lon="7.941465"><ele>289.5</ele><time>2026-04-11T15:57:51.881Z</time></trkpt><trkpt lat="45.1010933" lon="7.9413817"><ele>287.25</ele><time>2026-04-11T15:57:52.88Z</time></trkpt><trkpt lat="45.10119" lon="7.9413617"><ele>285.0</ele><time>2026-04-11T15:57:53.88Z</time></trkpt><trkpt lat="45.101285" lon="7.941395"><ele>285.0</ele><time>2026-04-11T15:57:54.881Z</time></trkpt><trkpt lat="45.1013867" lon="7.941435"><ele>285.0</ele><time>2026-04-11T15:57:55.881Z</time></trkpt><trkpt lat="45.1014767" lon="7.9414083"><ele>285.0</ele><time>2026-04-11T15:57:56.88Z</time></trkpt><trkpt lat="45.10156" lon="7.9413267"><ele>285.0</ele><time>2026-04-11T15:57:57.881Z</time></trkpt><trkpt lat="45.1016133" lon="7.9411967"><ele>285.0</ele><time>2026-04-11T15:57:58.88Z</time></trkpt><trkpt lat="45.101645" lon="7.9410283"><ele>282.5</ele><time>2026-04-11T15:57:59.88Z</time></trkpt><trkpt lat="45.1016817" lon="7.94085"><ele>280.0</ele><time>2026-04-11T15:58:00.88Z</time></trkpt><trkpt lat="45.10172" lon="7.9406833"><ele>277.5</ele><time>2026-04-11T15:58:01.881Z</time></trkpt><trkpt lat="45.1017667" lon="7.9405333"><ele>275.0</ele><time>2026-04-11T15:58:02.88Z</time></trkpt><trkpt lat="45.1018433" lon="7.9404083"><ele>275.0</ele><time>2026-04-11T15:58:03.881Z</time></trkpt><trkpt lat="45.1019517" lon="7.940325"><ele>275.0</ele><time>2026-04-11T15:58:04.881Z</time></trkpt><trkpt lat="45.1020767" lon="7.940265"><ele>275.0</ele><time>2026-04-11T15:58:05.881Z</time></trkpt><trkpt lat="45.1022317" lon="7.9402383"><ele>275.0</ele><time>2026-04-11T15:58:06.88Z</time></trkpt><trkpt lat="45.1023817" lon="7.9402"><ele>275.75</ele><time>2026-04-11T15:58:07.88Z</time></trkpt><trkpt lat="45.1025333" lon="7.94015"><ele>276.5</ele><time>2026-04-11T15:58:08.88Z</time></trkpt><trkpt lat="45.102675" lon="7.9400983"><ele>277.25</ele><time>2026-04-11T15:58:09.88Z</time></trkpt><trkpt lat="45.1028083" lon="7.9400717"><ele>278.0</ele><time>2026-04-11T15:58:10.881Z</time></trkpt><trkpt lat="45.1029367" lon="7.9400833"><ele>278.0</ele><time>2026-04-11T15:58:11.88Z</time></trkpt><trkpt lat="45.1030567" lon="7.9401717"><ele>278.0</ele><time>2026-04-11T15:58:12.88Z</time></trkpt><trkpt lat="45.1031483" lon="7.9403167"><ele>278.0</ele><time>2026-04-11T15:58:13.881Z</time></trkpt><trkpt lat="45.1032483" lon="7.9404217"><ele>278.0</ele><time>2026-04-11T15:58:14.881Z</time></trkpt><trkpt lat="45.1033617" lon="7.9404683"><ele>276.75</ele><time>2026-04-11T15:58:15.88Z</time></trkpt><trkpt lat="45.10349" lon="7.9404467"><ele>275.5</ele><time>2026-04-11T15:58:16.881Z</time></trkpt><trkpt lat="45.10362" lon="7.940385"><ele>274.25</ele><time>2026-04-11T15:58:17.88Z</time></trkpt><trkpt lat="45.1037567" lon="7.9403133"><ele>273.0</ele><time>2026-04-11T15:58:18.881Z</time></trkpt><trkpt lat="45.10389" lon="7.9402633"><ele>273.0</ele><time>2026-04-11T15:58:19.88Z</time></trkpt><trkpt lat="45.1040367" lon="7.9402667"><ele>273.0</ele><time>2026-04-11T15:58:20.88Z</time></trkpt><trkpt lat="45.1041817" lon="7.9403233"><ele>273.0</ele><time>2026-04-11T15:58:21.88Z</time></trkpt><trkpt lat="45.10431" lon="7.9404133"><ele>273.0</ele><time>2026-04-11T15:58:22.88Z</time></trkpt><trkpt lat="45.1044383" lon="7.9405167"><ele>269.3333333333333</ele><time>2026-04-11T15:58:23.881Z</time></trkpt><trkpt lat="45.10458" lon="7.9406183"><ele>265.66666666666663</ele><time>2026-04-11T15:58:24.881Z</time></trkpt><trkpt lat="45.1047333" lon="7.9407267"><ele>262.0</ele><time>2026-04-11T15:58:25.881Z</time></trkpt><trkpt lat="45.1048783" lon="7.94082"><ele>259.66666666666663</ele><time>2026-04-11T15:58:26.88Z</time></trkpt><trkpt lat="45.10503" lon="7.9409017"><ele>257.3333333333333</ele><time>2026-04-11T15:58:27.88Z</time></trkpt><trkpt lat="45.1051817" lon="7.9409633"><ele>255.0</ele><time>2026-04-11T15:58:28.88Z</time></trkpt><trkpt lat="45.1053383" lon="7.9409933"><ele>255.0</ele><time>2026-04-11T15:58:29.88Z</time></trkpt><trkpt lat="45.105505" lon="7.9410267"><ele>255.0</ele><time>2026-04-11T15:58:30.88Z</time></trkpt><trkpt lat="45.10566" lon="7.9410783"><ele>255.0</ele><time>2026-04-11T15:58:31.88Z</time></trkpt><trkpt lat="45.1058283" lon="7.94115"><ele>251.66666666666669</ele><time>2026-04-11T15:58:32.88Z</time></trkpt><trkpt lat="45.10598" lon="7.941185"><ele>248.33333333333334</ele><time>2026-04-11T15:58:33.88Z</time></trkpt><trkpt lat="45.1061283" lon="7.9412167"><ele>245.0</ele><time>2026-04-11T15:58:34.88Z</time></trkpt><trkpt lat="45.1062767" lon="7.9412667"><ele>245.0</ele><time>2026-04-11T15:58:35.88Z</time></trkpt><trkpt lat="45.1064167" lon="7.9413283"><ele>245.0</ele><time>2026-04-11T15:58:36.88Z</time></trkpt><trkpt lat="45.1065533" lon="7.9413917"><ele>245.0</ele><time>2026-04-11T15:58:37.88Z</time></trkpt><trkpt lat="45.106695" lon="7.941475"><ele>245.0</ele><time>2026-04-11T15:58:38.88Z</time></trkpt><trkpt lat="45.1068433" lon="7.9415517"><ele>244.66666666666669</ele><time>2026-04-11T15:58:39.88Z</time></trkpt><trkpt lat="45.106985" lon="7.9416367"><ele>244.33333333333331</ele><time>2026-04-11T15:58:40.88Z</time></trkpt><trkpt lat="45.107125" lon="7.9417217"><ele>244.0</ele><time>2026-04-11T15:58:41.881Z</time></trkpt><trkpt lat="45.10726" lon="7.94179"><ele>244.0</ele><time>2026-04-11T15:58:42.881Z</time></trkpt><trkpt lat="45.1074033" lon="7.9418533"><ele>244.0</ele><time>2026-04-11T15:58:43.88Z</time></trkpt><trkpt lat="45.1075417" lon="7.9418933"><ele>244.0</ele><time>2026-04-11T15:58:44.88Z</time></trkpt><trkpt lat="45.107685" lon="7.94188"><ele>244.0</ele><time>2026-04-11T15:58:45.88Z</time></trkpt><trkpt lat="45.1078267" lon="7.941835"><ele>244.0</ele><time>2026-04-11T15:58:46.88Z</time></trkpt><trkpt lat="45.1079583" lon="7.941765"><ele>244.0</ele><time>2026-04-11T15:58:47.881Z</time></trkpt><trkpt lat="45.1081" lon="7.941675"><ele>244.0</ele><time>2026-04-11T15:58:48.881Z</time></trkpt><trkpt lat="45.1082417" lon="7.941575"><ele>243.0</ele><time>2026-04-11T15:58:49.88Z</time></trkpt><trkpt lat="45.1083917" lon="7.9414783"><ele>242.0</ele><time>2026-04-11T15:58:50.881Z</time></trkpt><trkpt lat="45.1085583" lon="7.941395"><ele>241.0</ele><time>2026-04-11T15:58:51.88Z</time></trkpt><trkpt lat="45.1087167" lon="7.9413433"><ele>241.0</ele><time>2026-04-11T15:58:52.88Z</time></trkpt><trkpt lat="45.108875" lon="7.9413283"><ele>241.0</ele><time>2026-04-11T15:58:53.88Z</time></trkpt><trkpt lat="45.109035" lon="7.9413333"><ele>241.0</ele><time>2026-04-11T15:58:54.88Z</time></trkpt><trkpt lat="45.10919" lon="7.941365"><ele>240.33333333333331</ele><time>2026-04-11T15:58:55.88Z</time></trkpt><trkpt lat="45.1093483" lon="7.941395"><ele>239.66666666666669</ele><time>2026-04-11T15:58:56.881Z</time></trkpt><trkpt lat="45.1095083" lon="7.9414333"><ele>239.0</ele><time>2026-04-11T15:58:57.881Z</time></trkpt><trkpt lat="45.1096683" lon="7.9414733"><ele>239.0</ele><time>2026-04-11T15:58:58.881Z</time></trkpt><trkpt lat="45.1098333" lon="7.9414883"><ele>239.0</ele><time>2026-04-11T15:58:59.88Z</time></trkpt><trkpt lat="45.109995" lon="7.9415083"><ele>239.0</ele><time>2026-04-11T15:59:00.881Z</time></trkpt><trkpt lat="45.11017" lon="7.941535"><ele>238.66666666666669</ele><time>2026-04-11T15:59:01.88Z</time></trkpt><trkpt lat="45.1103367" lon="7.9415633"><ele>238.33333333333331</ele><time>2026-04-11T15:59:02.88Z</time></trkpt><trkpt lat="45.11051" lon="7.9415833"><ele>238.0</ele><time>2026-04-11T15:59:03.881Z</time></trkpt><trkpt lat="45.1106733" lon="7.94164"><ele>240.0</ele><time>2026-04-11T15:59:04.88Z</time></trkpt><trkpt lat="45.1108317" lon="7.9417017"><ele>242.0</ele><time>2026-04-11T15:59:05.881Z</time></trkpt><trkpt lat="45.110985" lon="7.9417717"><ele>244.0</ele><time>2026-04-11T15:59:06.88Z</time></trkpt><trkpt lat="45.111135" lon="7.9418417"><ele>240.33333333333331</ele><time>2026-04-11T15:59:07.881Z</time></trkpt><trkpt lat="45.1112883" lon="7.9418867"><ele>236.66666666666669</ele><time>2026-04-11T15:59:08.881Z</time></trkpt><trkpt lat="45.1114467" lon="7.941895"><ele>233.0</ele><time>2026-04-11T15:59:09.881Z</time></trkpt><trkpt lat="45.1115833" lon="7.9418733"><ele>233.0</ele><time>2026-04-11T15:59:10.88Z</time></trkpt><trkpt lat="45.1117267" lon="7.9418317"><ele>233.0</ele><time>2026-04-11T15:59:11.88Z</time></trkpt><trkpt lat="45.111875" lon="7.9417817"><ele>233.0</ele><time>2026-04-11T15:59:12.881Z</time></trkpt><trkpt lat="45.1120167" lon="7.9417583"><ele>233.0</ele><time>2026-04-11T15:59:13.88Z</time></trkpt><trkpt lat="45.112155" lon="7.9417567"><ele>233.0</ele><time>2026-04-11T15:59:14.881Z</time></trkpt><trkpt lat="45.11227" lon="7.9418083"><ele>233.0</ele><time>2026-04-11T15:59:15.88Z</time></trkpt><trkpt lat="45.1123767" lon="7.94191"><ele>233.0</ele><time>2026-04-11T15:59:16.881Z</time></trkpt><trkpt lat="45.1124583" lon="7.9420267"><ele>233.0</ele><time>2026-04-11T15:59:17.88Z</time></trkpt><trkpt lat="45.1125667" lon="7.9421033"><ele>233.5</ele><time>2026-04-11T15:59:18.88Z</time></trkpt><trkpt lat="45.11269" lon="7.94212"><ele>234.0</ele><time>2026-04-11T15:59:19.88Z</time></trkpt><trkpt lat="45.1128333" lon="7.942085"><ele>234.5</ele><time>2026-04-11T15:59:20.88Z</time></trkpt><trkpt lat="45.1129883" lon="7.94204"><ele>235.0</ele><time>2026-04-11T15:59:21.881Z</time></trkpt><trkpt lat="45.1131467" lon="7.941995"><ele>233.66666666666666</ele><time>2026-04-11T15:59:22.88Z</time></trkpt><trkpt lat="45.11331" lon="7.941965"><ele>232.33333333333331</ele><time>2026-04-11T15:59:23.88Z</time></trkpt><trkpt lat="45.1134767" lon="7.9419533"><ele>231.0</ele><time>2026-04-11T15:59:24.88Z</time></trkpt><trkpt lat="45.113635" lon="7.9419417"><ele>231.0</ele><time>2026-04-11T15:59:25.881Z</time></trkpt><trkpt lat="45.1137817" lon="7.9419233"><ele>231.0</ele><time>2026-04-11T15:59:26.88Z</time></trkpt><trkpt lat="45.113935" lon="7.9419083"><ele>231.0</ele><time>2026-04-11T15:59:27.881Z</time></trkpt><trkpt lat="45.1140967" lon="7.9418867"><ele>231.33333333333331</ele><time>2026-04-11T15:59:28.881Z</time></trkpt><trkpt lat="45.1142567" lon="7.941845"><ele>231.66666666666666</ele><time>2026-04-11T15:59:29.881Z</time></trkpt><trkpt lat="45.1144117" lon="7.9417867"><ele>232.0</ele><time>2026-04-11T15:59:30.881Z</time></trkpt><trkpt lat="45.1145617" lon="7.9417067"><ele>233.33333333333331</ele><time>2026-04-11T15:59:31.88Z</time></trkpt><trkpt lat="45.1147133" lon="7.9416233"><ele>234.66666666666669</ele><time>2026-04-11T15:59:32.88Z</time></trkpt><trkpt lat="45.11487" lon="7.9415633"><ele>236.0</ele><time>2026-04-11T15:59:33.88Z</time></trkpt><trkpt lat="45.1150217" lon="7.9415183"><ele>236.0</ele><time>2026-04-11T15:59:34.881Z</time></trkpt><trkpt lat="45.1151733" lon="7.9414717"><ele>236.0</ele><time>2026-04-11T15:59:35.881Z</time></trkpt><trkpt lat="45.11533" lon="7.94142"><ele>236.0</ele><time>2026-04-11T15:59:36.881Z</time></trkpt><trkpt lat="45.11548" lon="7.9413783"><ele>236.0</ele><time>2026-04-11T15:59:37.88Z</time></trkpt><trkpt lat="45.115635" lon="7.94132"><ele>236.0</ele><time>2026-04-11T15:59:38.881Z</time></trkpt><trkpt lat="45.115785" lon="7.941265"><ele>236.0</ele><time>2026-04-11T15:59:39.88Z</time></trkpt><trkpt lat="45.1159283" lon="7.9412317"><ele>234.5</ele><time>2026-04-11T15:59:40.881Z</time></trkpt><trkpt lat="45.1160733" lon="7.9412117"><ele>233.0</ele><time>2026-04-11T15:59:41.88Z</time></trkpt><trkpt lat="45.1162167" lon="7.9412317"><ele>231.5</ele><time>2026-04-11T15:59:42.881Z</time></trkpt><trkpt lat="45.1163333" lon="7.9413283"><ele>230.0</ele><time>2026-04-11T15:59:43.881Z</time></trkpt><trkpt lat="45.1164617" lon="7.9414367"><ele>229.66666666666669</ele><time>2026-04-11T15:59:44.88Z</time></trkpt><trkpt lat="45.1165933" lon="7.94155"><ele>229.33333333333331</ele><time>2026-04-11T15:59:45.881Z</time></trkpt><trkpt lat="45.1167283" lon="7.9416567"><ele>229.0</ele><time>2026-04-11T15:59:46.88Z</time></trkpt><trkpt lat="45.11688" lon="7.9417367"><ele>229.0</ele><time>2026-04-11T15:59:47.88Z</time></trkpt><trkpt lat="45.11705" lon="7.9417733"><ele>229.0</ele><time>2026-04-11T15:59:48.88Z</time></trkpt><trkpt lat="45.1171867" lon="7.94177"><ele>229.0</ele><time>2026-04-11T15:59:49.881Z</time></trkpt><trkpt lat="45.11736" lon="7.9416967"><ele>228.0</ele><time>2026-04-11T15:59:50.88Z</time></trkpt><trkpt lat="45.1175383" lon="7.9416333"><ele>227.0</ele><time>2026-04-11T15:59:51.88Z</time></trkpt><trkpt lat="45.1177167" lon="7.941585"><ele>226.0</ele><time>2026-04-11T15:59:52.88Z</time></trkpt><trkpt lat="45.1178767" lon="7.9415417"><ele>226.0</ele><time>2026-04-11T15:59:53.88Z</time></trkpt><trkpt lat="45.1180433" lon="7.9415183"><ele>226.0</ele><time>2026-04-11T15:59:54.881Z</time></trkpt><trkpt lat="45.1182" lon="7.941485"><ele>226.0</ele><time>2026-04-11T15:59:55.88Z</time></trkpt><trkpt lat="45.118365" lon="7.9414483"><ele>225.0</ele><time>2026-04-11T15:59:56.88Z</time></trkpt><trkpt lat="45.118535" lon="7.9414083"><ele>224.0</ele><time>2026-04-11T15:59:57.881Z</time></trkpt><trkpt lat="45.1186967" lon="7.94135"><ele>223.0</ele><time>2026-04-11T15:59:58.881Z</time></trkpt><trkpt lat="45.1188517" lon="7.94128"><ele>223.0</ele><time>2026-04-11T15:59:59.88Z</time></trkpt><trkpt lat="45.1190017" lon="7.9411983"><ele>223.0</ele><time>2026-04-11T16:00:00.88Z</time></trkpt><trkpt lat="45.11915" lon="7.9411"><ele>223.0</ele><time>2026-04-11T16:00:01.88Z</time></trkpt><trkpt lat="45.1192983" lon="7.9410017"><ele>223.33333333333331</ele><time>2026-04-11T16:00:02.88Z</time></trkpt><trkpt lat="45.1194417" lon="7.9409083"><ele>223.66666666666669</ele><time>2026-04-11T16:00:03.88Z</time></trkpt><trkpt lat="45.1195833" lon="7.9407883"><ele>224.0</ele><time>2026-04-11T16:00:04.88Z</time></trkpt><trkpt lat="45.1197133" lon="7.9406483"><ele>224.0</ele><time>2026-04-11T16:00:05.881Z</time></trkpt><trkpt lat="45.1198317" lon="7.940495"><ele>224.0</ele><time>2026-04-11T16:00:06.881Z</time></trkpt><trkpt lat="45.1199483" lon="7.9403567"><ele>224.0</ele><time>2026-04-11T16:00:07.881Z</time></trkpt><trkpt lat="45.1200733" lon="7.940225"><ele>221.66666666666669</ele><time>2026-04-11T16:00:08.88Z</time></trkpt><trkpt lat="45.120215" lon="7.9401433"><ele>219.33333333333331</ele><time>2026-04-11T16:00:09.881Z</time></trkpt><trkpt lat="45.12036" lon="7.9400883"><ele>217.0</ele><time>2026-04-11T16:00:10.88Z</time></trkpt><trkpt lat="45.120525" lon="7.9400417"><ele>216.66666666666666</ele><time>2026-04-11T16:00:11.88Z</time></trkpt><trkpt lat="45.1206783" lon="7.9400183"><ele>216.33333333333331</ele><time>2026-04-11T16:00:12.88Z</time></trkpt><trkpt lat="45.120835" lon="7.94001"><ele>216.0</ele><time>2026-04-11T16:00:13.881Z</time></trkpt><trkpt lat="45.1209883" lon="7.9400317"><ele>215.66666666666669</ele><time>2026-04-11T16:00:14.881Z</time></trkpt><trkpt lat="45.1211383" lon="7.9400967"><ele>215.33333333333334</ele><time>2026-04-11T16:00:15.88Z</time></trkpt><trkpt lat="45.1212767" lon="7.9401817"><ele>215.0</ele><time>2026-04-11T16:00:16.88Z</time></trkpt><trkpt lat="45.1214233" lon="7.9402617"><ele>214.66666666666669</ele><time>2026-04-11T16:00:17.88Z</time></trkpt><trkpt lat="45.1215733" lon="7.9403417"><ele>214.33333333333331</ele><time>2026-04-11T16:00:18.881Z</time></trkpt><trkpt lat="45.1217283" lon="7.9404367"><ele>214.0</ele><time>2026-04-11T16:00:19.881Z</time></trkpt><trkpt lat="45.121885" lon="7.9405417"><ele>214.0</ele><time>2026-04-11T16:00:20.881Z</time></trkpt><trkpt lat="45.12203" lon="7.94067"><ele>214.0</ele><time>2026-04-11T16:00:21.881Z</time></trkpt><trkpt lat="45.122175" lon="7.9408033"><ele>214.0</ele><time>2026-04-11T16:00:22.881Z</time></trkpt><trkpt lat="45.12232" lon="7.94093"><ele>213.0</ele><time>2026-04-11T16:00:23.881Z</time></trkpt><trkpt lat="45.122465" lon="7.9410567"><ele>212.0</ele><time>2026-04-11T16:00:24.88Z</time></trkpt><trkpt lat="45.12261" lon="7.9411767"><ele>211.0</ele><time>2026-04-11T16:00:25.881Z</time></trkpt><trkpt lat="45.1227617" lon="7.9412833"><ele>211.0</ele><time>2026-04-11T16:00:26.88Z</time></trkpt><trkpt lat="45.12291" lon="7.9413833"><ele>211.0</ele><time>2026-04-11T16:00:27.88Z</time></trkpt><trkpt lat="45.123065" lon="7.9414817"><ele>211.0</ele><time>2026-04-11T16:00:28.881Z</time></trkpt><trkpt lat="45.1232133" lon="7.9415967"><ele>210.66666666666666</ele><time>2026-04-11T16:00:29.88Z</time></trkpt><trkpt lat="45.123355" lon="7.9417017"><ele>210.33333333333331</ele><time>2026-04-11T16:00:30.881Z</time></trkpt><trkpt lat="45.1235017" lon="7.9418283"><ele>210.0</ele><time>2026-04-11T16:00:31.881Z</time></trkpt><trkpt lat="45.1236333" lon="7.9419683"><ele>210.0</ele><time>2026-04-11T16:00:32.88Z</time></trkpt><trkpt lat="45.1237683" lon="7.942115"><ele>210.0</ele><time>2026-04-11T16:00:33.88Z</time></trkpt><trkpt lat="45.1239067" lon="7.942265"><ele>210.0</ele><time>2026-04-11T16:00:34.88Z</time></trkpt><trkpt lat="45.124045" lon="7.942405"><ele>209.33333333333331</ele><time>2026-04-11T16:00:35.881Z</time></trkpt><trkpt lat="45.1241783" lon="7.942545"><ele>208.66666666666666</ele><time>2026-04-11T16:00:36.881Z</time></trkpt><trkpt lat="45.124315" lon="7.942675"><ele>208.0</ele><time>2026-04-11T16:00:37.88Z</time></trkpt><trkpt lat="45.1244567" lon="7.9427967"><ele>208.0</ele><time>2026-04-11T16:00:38.88Z</time></trkpt><trkpt lat="45.1246017" lon="7.9429183"><ele>208.0</ele><time>2026-04-11T16:00:39.881Z</time></trkpt><trkpt lat="45.1247383" lon="7.94304"><ele>208.0</ele><time>2026-04-11T16:00:40.88Z</time></trkpt><trkpt lat="45.1248833" lon="7.94315"><ele>208.0</ele><time>2026-04-11T16:00:41.881Z</time></trkpt><trkpt lat="45.1250333" lon="7.9432483"><ele>208.0</ele><time>2026-04-11T16:00:42.881Z</time></trkpt><trkpt lat="45.1251817" lon="7.9433283"><ele>208.0</ele><time>2026-04-11T16:00:43.88Z</time></trkpt><trkpt lat="45.1253367" lon="7.9433967"><ele>208.0</ele><time>2026-04-11T16:00:44.881Z</time></trkpt><trkpt lat="45.1254917" lon="7.94344"><ele>208.0</ele><time>2026-04-11T16:00:45.88Z</time></trkpt><trkpt lat="45.125645" lon="7.9434633"><ele>208.0</ele><time>2026-04-11T16:00:46.88Z</time></trkpt><trkpt lat="45.1257983" lon="7.94348"><ele>207.66666666666666</ele><time>2026-04-11T16:00:47.88Z</time></trkpt><trkpt lat="45.1259533" lon="7.943515"><ele>207.33333333333331</ele><time>2026-04-11T16:00:48.88Z</time></trkpt><trkpt lat="45.126105" lon="7.9435267"><ele>207.0</ele><time>2026-04-11T16:00:49.88Z</time></trkpt><trkpt lat="45.1262533" lon="7.943555"><ele>207.0</ele><time>2026-04-11T16:00:50.881Z</time></trkpt><trkpt lat="45.1264117" lon="7.94356"><ele>207.0</ele><time>2026-04-11T16:00:51.88Z</time></trkpt><trkpt lat="45.12657" lon="7.94358"><ele>207.0</ele><time>2026-04-11T16:00:52.88Z</time></trkpt><trkpt lat="45.1267133" lon="7.9435983"><ele>207.0</ele><time>2026-04-11T16:00:53.88Z</time></trkpt><trkpt lat="45.1268517" lon="7.94362"><ele>207.0</ele><time>2026-04-11T16:00:54.88Z</time></trkpt><trkpt lat="45.1269917" lon="7.943645"><ele>207.0</ele><time>2026-04-11T16:00:55.881Z</time></trkpt><trkpt lat="45.12714" lon="7.9436717"><ele>207.0</ele><time>2026-04-11T16:00:56.881Z</time></trkpt><trkpt lat="45.1272717" lon="7.9436917"><ele>207.25</ele><time>2026-04-11T16:00:57.88Z</time></trkpt><trkpt lat="45.1274" lon="7.9436967"><ele>207.5</ele><time>2026-04-11T16:00:58.88Z</time></trkpt><trkpt lat="45.1275283" lon="7.9437017"><ele>207.75</ele><time>2026-04-11T16:00:59.881Z</time></trkpt><trkpt lat="45.1276567" lon="7.9437067"><ele>208.0</ele><time>2026-04-11T16:01:00.88Z</time></trkpt><trkpt lat="45.12778" lon="7.9437"><ele>208.0</ele><time>2026-04-11T16:01:01.88Z</time></trkpt><trkpt lat="45.1278983" lon="7.9436717"><ele>208.0</ele><time>2026-04-11T16:01:02.881Z</time></trkpt><trkpt lat="45.1280183" lon="7.94362"><ele>208.0</ele><time>2026-04-11T16:01:03.881Z</time></trkpt><trkpt lat="45.1281467" lon="7.9435367"><ele>208.0</ele><time>2026-04-11T16:01:04.88Z</time></trkpt><trkpt lat="45.12827" lon="7.9434483"><ele>208.25</ele><time>2026-04-11T16:01:05.881Z</time></trkpt><trkpt lat="45.1284033" lon="7.94337"><ele>208.5</ele><time>2026-04-11T16:01:06.88Z</time></trkpt><trkpt lat="45.1285217" lon="7.9433033"><ele>208.75</ele><time>2026-04-11T16:01:07.88Z</time></trkpt><trkpt lat="45.128645" lon="7.9432383"><ele>209.0</ele><time>2026-04-11T16:01:08.881Z</time></trkpt><trkpt lat="45.1287767" lon="7.9431783"><ele>209.0</ele><time>2026-04-11T16:01:09.88Z</time></trkpt><trkpt lat="45.128895" lon="7.943125"><ele>209.0</ele><time>2026-04-11T16:01:10.881Z</time></trkpt><trkpt lat="45.1289917" lon="7.9430583"><ele>209.0</ele><time>2026-04-11T16:01:11.88Z</time></trkpt><trkpt lat="45.12909" lon="7.9430083"><ele>209.0</ele><time>2026-04-11T16:01:12.88Z</time></trkpt><trkpt lat="45.1291767" lon="7.9429767"><ele>209.0</ele><time>2026-04-11T16:01:13.88Z</time></trkpt><trkpt lat="45.1292483" lon="7.94294"><ele>208.79999999999998</ele><time>2026-04-11T16:01:14.88Z</time></trkpt><trkpt lat="45.129355" lon="7.9430033"><ele>208.6</ele><time>2026-04-11T16:01:16.881Z</time></trkpt><trkpt lat="45.1293517" lon="7.943145"><ele>208.4</ele><time>2026-04-11T16:01:18.88Z</time></trkpt><trkpt lat="45.1293117" lon="7.94325"><ele>208.2</ele><time>2026-04-11T16:01:19.88Z</time></trkpt><trkpt lat="45.12924" lon="7.943395"><ele>208.0</ele><time>2026-04-11T16:01:20.88Z</time></trkpt><trkpt lat="45.1291533" lon="7.9435633"><ele>208.0</ele><time>2026-04-11T16:01:21.88Z</time></trkpt><trkpt lat="45.1290733" lon="7.94374"><ele>208.0</ele><time>2026-04-11T16:01:22.88Z</time></trkpt><trkpt lat="45.129005" lon="7.943915"><ele>208.0</ele><time>2026-04-11T16:01:23.881Z</time></trkpt><trkpt lat="45.128945" lon="7.944085"><ele>208.0</ele><time>2026-04-11T16:01:24.88Z</time></trkpt><trkpt lat="45.1288933" lon="7.944255"><ele>207.75</ele><time>2026-04-11T16:01:25.88Z</time></trkpt><trkpt lat="45.1288517" lon="7.9444333"><ele>207.5</ele><time>2026-04-11T16:01:26.88Z</time></trkpt><trkpt lat="45.1288017" lon="7.944615"><ele>207.25</ele><time>2026-04-11T16:01:27.88Z</time></trkpt><trkpt lat="45.12875" lon="7.9448"><ele>207.0</ele><time>2026-04-11T16:01:28.88Z</time></trkpt><trkpt lat="45.1287017" lon="7.9449733"><ele>206.8</ele><time>2026-04-11T16:01:29.881Z</time></trkpt><trkpt lat="45.128655" lon="7.9451317"><ele>206.6</ele><time>2026-04-11T16:01:30.88Z</time></trkpt><trkpt lat="45.1286167" lon="7.9452717"><ele>206.4</ele><time>2026-04-11T16:01:31.88Z</time></trkpt><trkpt lat="45.1285933" lon="7.945425"><ele>206.20000000000002</ele><time>2026-04-11T16:01:32.88Z</time></trkpt><trkpt lat="45.1285917" lon="7.9455617"><ele>206.0</ele><time>2026-04-11T16:01:33.881Z</time></trkpt><trkpt lat="45.1286117" lon="7.9457083"><ele>206.0</ele><time>2026-04-11T16:01:34.88Z</time></trkpt><trkpt lat="45.1286433" lon="7.9458617"><ele>206.0</ele><time>2026-04-11T16:01:35.88Z</time></trkpt><trkpt lat="45.12869" lon="7.94604"><ele>206.0</ele><time>2026-04-11T16:01:36.88Z</time></trkpt><trkpt lat="45.12872" lon="7.9462233"><ele>206.0</ele><time>2026-04-11T16:01:37.88Z</time></trkpt><trkpt lat="45.1287583" lon="7.9464133"><ele>205.75</ele><time>2026-04-11T16:01:38.88Z</time></trkpt><trkpt lat="45.1287983" lon="7.9465917"><ele>205.5</ele><time>2026-04-11T16:01:39.88Z</time></trkpt><trkpt lat="45.128835" lon="7.946765"><ele>205.25</ele><time>2026-04-11T16:01:40.88Z</time></trkpt><trkpt lat="45.12888" lon="7.94694"><ele>205.0</ele><time>2026-04-11T16:01:41.88Z</time></trkpt><trkpt lat="45.1289167" lon="7.9471"><ele>205.0</ele><time>2026-04-11T16:01:42.881Z</time></trkpt><trkpt lat="45.1289583" lon="7.94727"><ele>205.0</ele><time>2026-04-11T16:01:43.88Z</time></trkpt><trkpt lat="45.1289933" lon="7.947445"><ele>205.0</ele><time>2026-04-11T16:01:44.881Z</time></trkpt><trkpt lat="45.1290317" lon="7.9476217"><ele>205.0</ele><time>2026-04-11T16:01:45.88Z</time></trkpt><trkpt lat="45.1290767" lon="7.9477883"><ele>205.25</ele><time>2026-04-11T16:01:46.88Z</time></trkpt><trkpt lat="45.1291317" lon="7.947975"><ele>205.5</ele><time>2026-04-11T16:01:47.881Z</time></trkpt><trkpt lat="45.1292033" lon="7.948155"><ele>205.75</ele><time>2026-04-11T16:01:48.88Z</time></trkpt><trkpt lat="45.1292933" lon="7.9483267"><ele>206.0</ele><time>2026-04-11T16:01:49.88Z</time></trkpt><trkpt lat="45.129395" lon="7.9485017"><ele>205.33333333333334</ele><time>2026-04-11T16:01:50.88Z</time></trkpt><trkpt lat="45.1294967" lon="7.9486833"><ele>204.66666666666669</ele><time>2026-04-11T16:01:51.881Z</time></trkpt><trkpt lat="45.12959" lon="7.9488683"><ele>204.0</ele><time>2026-04-11T16:01:52.88Z</time></trkpt><trkpt lat="45.12969" lon="7.949045"><ele>204.66666666666669</ele><time>2026-04-11T16:01:53.881Z</time></trkpt><trkpt lat="45.12979" lon="7.9492233"><ele>205.33333333333334</ele><time>2026-04-11T16:01:54.88Z</time></trkpt><trkpt lat="45.12988" lon="7.9494033"><ele>206.0</ele><time>2026-04-11T16:01:55.881Z</time></trkpt><trkpt lat="45.1299533" lon="7.949595"><ele>206.75</ele><time>2026-04-11T16:01:56.881Z</time></trkpt><trkpt lat="45.1300133" lon="7.94977"><ele>207.5</ele><time>2026-04-11T16:01:57.881Z</time></trkpt><trkpt lat="45.1300567" lon="7.9499683"><ele>208.25</ele><time>2026-04-11T16:01:58.88Z</time></trkpt><trkpt lat="45.1300683" lon="7.9501767"><ele>209.0</ele><time>2026-04-11T16:01:59.88Z</time></trkpt><trkpt lat="45.13005" lon="7.9503767"><ele>210.75</ele><time>2026-04-11T16:02:00.881Z</time></trkpt><trkpt lat="45.1300167" lon="7.95058"><ele>212.5</ele><time>2026-04-11T16:02:01.881Z</time></trkpt><trkpt lat="45.1299733" lon="7.9507783"><ele>214.25</ele><time>2026-04-11T16:02:02.88Z</time></trkpt><trkpt lat="45.1299367" lon="7.9509867"><ele>216.0</ele><time>2026-04-11T16:02:03.88Z</time></trkpt><trkpt lat="45.1299117" lon="7.9511967"><ele>217.25</ele><time>2026-04-11T16:02:04.88Z</time></trkpt><trkpt lat="45.12992" lon="7.951395"><ele>218.5</ele><time>2026-04-11T16:02:05.88Z</time></trkpt><trkpt lat="45.1299367" lon="7.9515967"><ele>219.75</ele><time>2026-04-11T16:02:06.881Z</time></trkpt><trkpt lat="45.1299717" lon="7.95179"><ele>221.0</ele><time>2026-04-11T16:02:07.881Z</time></trkpt><trkpt lat="45.130005" lon="7.9519833"><ele>221.0</ele><time>2026-04-11T16:02:08.881Z</time></trkpt><trkpt lat="45.130045" lon="7.9521833"><ele>221.0</ele><time>2026-04-11T16:02:09.88Z</time></trkpt><trkpt lat="45.1301117" lon="7.9523733"><ele>221.0</ele><time>2026-04-11T16:02:10.881Z</time></trkpt><trkpt lat="45.13018" lon="7.9525867"><ele>220.0</ele><time>2026-04-11T16:02:11.88Z</time></trkpt><trkpt lat="45.1302433" lon="7.952795"><ele>219.0</ele><time>2026-04-11T16:02:12.881Z</time></trkpt><trkpt lat="45.130295" lon="7.9530133"><ele>218.0</ele><time>2026-04-11T16:02:13.881Z</time></trkpt><trkpt lat="45.13033" lon="7.95324"><ele>216.66666666666669</ele><time>2026-04-11T16:02:14.88Z</time></trkpt><trkpt lat="45.13036" lon="7.9534583"><ele>215.33333333333331</ele><time>2026-04-11T16:02:15.881Z</time></trkpt><trkpt lat="45.130395" lon="7.95368"><ele>214.0</ele><time>2026-04-11T16:02:16.88Z</time></trkpt><trkpt lat="45.1304533" lon="7.9538867"><ele>214.0</ele><time>2026-04-11T16:02:17.88Z</time></trkpt><trkpt lat="45.130525" lon="7.9540833"><ele>214.0</ele><time>2026-04-11T16:02:18.881Z</time></trkpt><trkpt lat="45.1306" lon="7.9542583"><ele>214.0</ele><time>2026-04-11T16:02:19.881Z</time></trkpt><trkpt lat="45.13064" lon="7.9544267"><ele>214.0</ele><time>2026-04-11T16:02:20.88Z</time></trkpt><trkpt lat="45.1306333" lon="7.9546067"><ele>213.75</ele><time>2026-04-11T16:02:21.881Z</time></trkpt><trkpt lat="45.130635" lon="7.9547967"><ele>213.5</ele><time>2026-04-11T16:02:22.881Z</time></trkpt><trkpt lat="45.1306433" lon="7.9549817"><ele>213.25</ele><time>2026-04-11T16:02:23.88Z</time></trkpt><trkpt lat="45.1306233" lon="7.95514"><ele>213.0</ele><time>2026-04-11T16:02:24.88Z</time></trkpt><trkpt lat="45.130565" lon="7.95531"><ele>213.5</ele><time>2026-04-11T16:02:25.88Z</time></trkpt><trkpt lat="45.1304767" lon="7.9554367"><ele>214.0</ele><time>2026-04-11T16:02:26.88Z</time></trkpt><trkpt lat="45.130375" lon="7.95552"><ele>214.5</ele><time>2026-04-11T16:02:27.88Z</time></trkpt><trkpt lat="45.1302867" lon="7.95561"><ele>215.0</ele><time>2026-04-11T16:02:28.881Z</time></trkpt><trkpt lat="45.1302267" lon="7.955755"><ele>214.25</ele><time>2026-04-11T16:02:29.88Z</time></trkpt><trkpt lat="45.130215" lon="7.955915"><ele>213.5</ele><time>2026-04-11T16:02:30.88Z</time></trkpt><trkpt lat="45.1302383" lon="7.9561067"><ele>212.75</ele><time>2026-04-11T16:02:31.881Z</time></trkpt><trkpt lat="45.1302733" lon="7.95629"><ele>212.0</ele><time>2026-04-11T16:02:32.881Z</time></trkpt><trkpt lat="45.1302983" lon="7.9564967"><ele>213.33333333333334</ele><time>2026-04-11T16:02:33.88Z</time></trkpt><trkpt lat="45.13033" lon="7.95671"><ele>214.66666666666669</ele><time>2026-04-11T16:02:34.88Z</time></trkpt><trkpt lat="45.1303667" lon="7.9569317"><ele>216.0</ele><time>2026-04-11T16:02:35.881Z</time></trkpt><trkpt lat="45.1303967" lon="7.9571667"><ele>216.0</ele><time>2026-04-11T16:02:36.88Z</time></trkpt><trkpt lat="45.1304367" lon="7.9573883"><ele>216.0</ele><time>2026-04-11T16:02:37.88Z</time></trkpt><trkpt lat="45.1304767" lon="7.9576183"><ele>216.0</ele><time>2026-04-11T16:02:38.88Z</time></trkpt><trkpt lat="45.1305017" lon="7.9578433"><ele>217.0</ele><time>2026-04-11T16:02:39.88Z</time></trkpt><trkpt lat="45.13052" lon="7.95807"><ele>218.0</ele><time>2026-04-11T16:02:40.881Z</time></trkpt><trkpt lat="45.1305033" lon="7.9582867"><ele>219.0</ele><time>2026-04-11T16:02:41.88Z</time></trkpt><trkpt lat="45.1304783" lon="7.958515"><ele>220.5</ele><time>2026-04-11T16:02:42.88Z</time></trkpt><trkpt lat="45.1304517" lon="7.9587167"><ele>222.0</ele><time>2026-04-11T16:02:43.88Z</time></trkpt><trkpt lat="45.1304333" lon="7.958915"><ele>223.5</ele><time>2026-04-11T16:02:44.88Z</time></trkpt><trkpt lat="45.1304233" lon="7.9591017"><ele>225.0</ele><time>2026-04-11T16:02:45.88Z</time></trkpt><trkpt lat="45.1304233" lon="7.9593017"><ele>226.5</ele><time>2026-04-11T16:02:46.88Z</time></trkpt><trkpt lat="45.13043" lon="7.9595117"><ele>228.0</ele><time>2026-04-11T16:02:47.881Z</time></trkpt><trkpt lat="45.1304283" lon="7.9597183"><ele>229.5</ele><time>2026-04-11T16:02:48.881Z</time></trkpt><trkpt lat="45.1304267" lon="7.9599283"><ele>231.0</ele><time>2026-04-11T16:02:49.881Z</time></trkpt><trkpt lat="45.1304217" lon="7.9601433"><ele>232.0</ele><time>2026-04-11T16:02:50.88Z</time></trkpt><trkpt lat="45.1304133" lon="7.960355"><ele>233.0</ele><time>2026-04-11T16:02:51.881Z</time></trkpt><trkpt lat="45.1304083" lon="7.9605567"><ele>234.0</ele><time>2026-04-11T16:02:52.88Z</time></trkpt><trkpt lat="45.1304" lon="7.9607567"><ele>235.0</ele><time>2026-04-11T16:02:53.881Z</time></trkpt><trkpt lat="45.1303883" lon="7.9609433"><ele>235.75</ele><time>2026-04-11T16:02:54.881Z</time></trkpt><trkpt lat="45.1304067" lon="7.9611317"><ele>236.5</ele><time>2026-04-11T16:02:55.88Z</time></trkpt><trkpt lat="45.1304333" lon="7.9613083"><ele>237.25</ele><time>2026-04-11T16:02:56.88Z</time></trkpt><trkpt lat="45.130485" lon="7.9614967"><ele>238.0</ele><time>2026-04-11T16:02:57.88Z</time></trkpt><trkpt lat="45.13055" lon="7.9616883"><ele>239.33333333333331</ele><time>2026-04-11T16:02:58.88Z</time></trkpt><trkpt lat="45.1306083" lon="7.961895"><ele>240.66666666666669</ele><time>2026-04-11T16:02:59.88Z</time></trkpt><trkpt lat="45.1306733" lon="7.962105"><ele>242.0</ele><time>2026-04-11T16:03:00.881Z</time></trkpt><trkpt lat="45.1307367" lon="7.9623033"><ele>245.25</ele><time>2026-04-11T16:03:01.88Z</time></trkpt><trkpt lat="45.1307983" lon="7.9624867"><ele>248.5</ele><time>2026-04-11T16:03:02.88Z</time></trkpt><trkpt lat="45.13085" lon="7.9626583"><ele>251.75</ele><time>2026-04-11T16:03:03.881Z</time></trkpt><trkpt lat="45.1309" lon="7.962825"><ele>255.0</ele><time>2026-04-11T16:03:04.88Z</time></trkpt><trkpt lat="45.1309433" lon="7.9630117"><ele>256.5</ele><time>2026-04-11T16:03:05.881Z</time></trkpt><trkpt lat="45.1309783" lon="7.9632"><ele>258.0</ele><time>2026-04-11T16:03:06.88Z</time></trkpt><trkpt lat="45.1309767" lon="7.963385"><ele>259.5</ele><time>2026-04-11T16:03:07.881Z</time></trkpt><trkpt lat="45.1309167" lon="7.963575"><ele>261.0</ele><time>2026-04-11T16:03:08.881Z</time></trkpt><trkpt lat="45.13085" lon="7.9637583"><ele>262.5</ele><time>2026-04-11T16:03:09.88Z</time></trkpt><trkpt lat="45.13081" lon="7.9639583"><ele>264.0</ele><time>2026-04-11T16:03:10.88Z</time></trkpt><trkpt lat="45.1307617" lon="7.9641617"><ele>265.5</ele><time>2026-04-11T16:03:11.88Z</time></trkpt><trkpt lat="45.130715" lon="7.964365"><ele>267.0</ele><time>2026-04-11T16:03:12.88Z</time></trkpt><trkpt lat="45.130655" lon="7.96457"><ele>267.0</ele><time>2026-04-11T16:03:13.881Z</time></trkpt><trkpt lat="45.130615" lon="7.9647767"><ele>267.0</ele><time>2026-04-11T16:03:14.881Z</time></trkpt><trkpt lat="45.130565" lon="7.9649867"><ele>267.0</ele><time>2026-04-11T16:03:15.88Z</time></trkpt><trkpt lat="45.1305233" lon="7.96518"><ele>269.25</ele><time>2026-04-11T16:03:16.88Z</time></trkpt><trkpt lat="45.130475" lon="7.9653817"><ele>271.5</ele><time>2026-04-11T16:03:17.881Z</time></trkpt><trkpt lat="45.13043" lon="7.9655683"><ele>273.75</ele><time>2026-04-11T16:03:18.88Z</time></trkpt><trkpt lat="45.1303817" lon="7.9657567"><ele>276.0</ele><time>2026-04-11T16:03:19.88Z</time></trkpt><trkpt lat="45.1303383" lon="7.9659467"><ele>279.0</ele><time>2026-04-11T16:03:20.88Z</time></trkpt><trkpt lat="45.1303083" lon="7.9661417"><ele>282.0</ele><time>2026-04-11T16:03:21.881Z</time></trkpt><trkpt lat="45.13028" lon="7.9663417"><ele>285.0</ele><time>2026-04-11T16:03:22.881Z</time></trkpt><trkpt lat="45.1302567" lon="7.9665367"><ele>288.0</ele><time>2026-04-11T16:03:23.881Z</time></trkpt><trkpt lat="45.1302383" lon="7.9667367"><ele>290.75</ele><time>2026-04-11T16:03:24.88Z</time></trkpt><trkpt lat="45.1302367" lon="7.966945"><ele>293.5</ele><time>2026-04-11T16:03:25.881Z</time></trkpt><trkpt lat="45.1302417" lon="7.96716"><ele>296.25</ele><time>2026-04-11T16:03:26.881Z</time></trkpt><trkpt lat="45.1302333" lon="7.9673617"><ele>299.0</ele><time>2026-04-11T16:03:27.881Z</time></trkpt><trkpt lat="45.13021" lon="7.9675733"><ele>301.25</ele><time>2026-04-11T16:03:28.88Z</time></trkpt><trkpt lat="45.1301667" lon="7.9677717"><ele>303.5</ele><time>2026-04-11T16:03:29.881Z</time></trkpt><trkpt lat="45.1301117" lon="7.9679617"><ele>305.75</ele><time>2026-04-11T16:03:30.88Z</time></trkpt><trkpt lat="45.130055" lon="7.968155"><ele>308.0</ele><time>2026-04-11T16:03:31.88Z</time></trkpt><trkpt lat="45.1299867" lon="7.9683483"><ele>308.25</ele><time>2026-04-11T16:03:32.881Z</time></trkpt><trkpt lat="45.1299233" lon="7.9685417"><ele>308.5</ele><time>2026-04-11T16:03:33.881Z</time></trkpt><trkpt lat="45.1298633" lon="7.9687317"><ele>308.75</ele><time>2026-04-11T16:03:34.88Z</time></trkpt><trkpt lat="45.129815" lon="7.9689217"><ele>309.0</ele><time>2026-04-11T16:03:35.881Z</time></trkpt><trkpt lat="45.1297767" lon="7.9691133"><ele>310.0</ele><time>2026-04-11T16:03:36.881Z</time></trkpt><trkpt lat="45.12976" lon="7.9693117"><ele>311.0</ele><time>2026-04-11T16:03:37.88Z</time></trkpt><trkpt lat="45.1297667" lon="7.9695117"><ele>312.0</ele><time>2026-04-11T16:03:38.88Z</time></trkpt><trkpt lat="45.1298" lon="7.9697117"><ele>313.0</ele><time>2026-04-11T16:03:39.881Z</time></trkpt><trkpt lat="45.129845" lon="7.9699033"><ele>313.5</ele><time>2026-04-11T16:03:40.88Z</time></trkpt><trkpt lat="45.129875" lon="7.9700833"><ele>314.0</ele><time>2026-04-11T16:03:41.881Z</time></trkpt><trkpt lat="45.129885" lon="7.970245"><ele>314.5</ele><time>2026-04-11T16:03:42.88Z</time></trkpt><trkpt lat="45.1298883" lon="7.970405"><ele>315.0</ele><time>2026-04-11T16:03:43.88Z</time></trkpt><trkpt lat="45.1298433" lon="7.97054"><ele>315.0</ele><time>2026-04-11T16:03:44.881Z</time></trkpt><trkpt lat="45.1297867" lon="7.9706533"><ele>315.0</ele><time>2026-04-11T16:03:45.88Z</time></trkpt><trkpt lat="45.1297533" lon="7.9707733"><ele>315.0</ele><time>2026-04-11T16:03:46.88Z</time></trkpt><trkpt lat="45.1297133" lon="7.970905"><ele>315.0</ele><time>2026-04-11T16:03:47.88Z</time></trkpt><trkpt lat="45.12968" lon="7.9710533"><ele>315.0</ele><time>2026-04-11T16:03:48.88Z</time></trkpt><trkpt lat="45.1296617" lon="7.9712117"><ele>317.5</ele><time>2026-04-11T16:03:49.88Z</time></trkpt><trkpt lat="45.1296517" lon="7.9713767"><ele>320.0</ele><time>2026-04-11T16:03:50.881Z</time></trkpt><trkpt lat="45.12965" lon="7.9715333"><ele>322.5</ele><time>2026-04-11T16:03:51.88Z</time></trkpt><trkpt lat="45.12966" lon="7.9716933"><ele>325.0</ele><time>2026-04-11T16:03:52.881Z</time></trkpt><trkpt lat="45.12967" lon="7.9718483"><ele>328.2</ele><time>2026-04-11T16:03:53.88Z</time></trkpt><trkpt lat="45.12965" lon="7.9720033"><ele>331.4</ele><time>2026-04-11T16:03:54.88Z</time></trkpt><trkpt lat="45.1296233" lon="7.9721533"><ele>334.6</ele><time>2026-04-11T16:03:55.88Z</time></trkpt><trkpt lat="45.129585" lon="7.972265"><ele>337.8</ele><time>2026-04-11T16:03:56.88Z</time></trkpt><trkpt lat="45.1295367" lon="7.9723617"><ele>341.0</ele><time>2026-04-11T16:03:57.88Z</time></trkpt><trkpt lat="45.1294917" lon="7.9724433"><ele>344.20000000000005</ele><time>2026-04-11T16:03:58.88Z</time></trkpt><trkpt lat="45.1294183" lon="7.9725583"><ele>347.40000000000003</ele><time>2026-04-11T16:04:00.88Z</time></trkpt><trkpt lat="45.1293483" lon="7.9726917"><ele>350.6</ele><time>2026-04-11T16:04:02.88Z</time></trkpt><trkpt lat="45.1293083" lon="7.9727667"><ele>353.8</ele><time>2026-04-11T16:04:03.88Z</time></trkpt><trkpt lat="45.1292583" lon="7.9728567"><ele>357.0</ele><time>2026-04-11T16:04:04.881Z</time></trkpt><trkpt lat="45.1292017" lon="7.9729383"><ele>357.0</ele><time>2026-04-11T16:04:05.881Z</time></trkpt><trkpt lat="45.1291383" lon="7.9730133"><ele>357.0</ele><time>2026-04-11T16:04:06.88Z</time></trkpt><trkpt lat="45.1290683" lon="7.9730783"><ele>357.0</ele><time>2026-04-11T16:04:07.88Z</time></trkpt><trkpt lat="45.1289833" lon="7.9731083"><ele>357.0</ele><time>2026-04-11T16:04:08.88Z</time></trkpt><trkpt lat="45.1288983" lon="7.9731267"><ele>357.0</ele><time>2026-04-11T16:04:09.88Z</time></trkpt><trkpt lat="45.12881" lon="7.9731383"><ele>357.0</ele><time>2026-04-11T16:04:10.88Z</time></trkpt><trkpt lat="45.1287283" lon="7.9731733"><ele>354.8</ele><time>2026-04-11T16:04:11.88Z</time></trkpt><trkpt lat="45.1286417" lon="7.97325"><ele>352.6</ele><time>2026-04-11T16:04:12.88Z</time></trkpt><trkpt lat="45.128585" lon="7.9733533"><ele>350.40000000000003</ele><time>2026-04-11T16:04:13.88Z</time></trkpt><trkpt lat="45.128555" lon="7.973485"><ele>348.20000000000005</ele><time>2026-04-11T16:04:14.88Z</time></trkpt><trkpt lat="45.1285383" lon="7.9736267"><ele>346.0</ele><time>2026-04-11T16:04:15.881Z</time></trkpt><trkpt lat="45.12853" lon="7.9737733"><ele>346.0</ele><time>2026-04-11T16:04:16.88Z</time></trkpt><trkpt lat="45.1285483" lon="7.97393"><ele>346.0</ele><time>2026-04-11T16:04:17.881Z</time></trkpt><trkpt lat="45.1285617" lon="7.974075"><ele>346.0</ele><time>2026-04-11T16:04:18.881Z</time></trkpt><trkpt lat="45.1285583" lon="7.9742033"><ele>346.0</ele><time>2026-04-11T16:04:19.88Z</time></trkpt><trkpt lat="45.1285367" lon="7.974325"><ele>346.0</ele><time>2026-04-11T16:04:20.881Z</time></trkpt><trkpt lat="45.1285167" lon="7.9744233"><ele>347.5</ele><time>2026-04-11T16:04:21.881Z</time></trkpt><trkpt lat="45.128475" lon="7.9745267"><ele>349.0</ele><time>2026-04-11T16:04:22.88Z</time></trkpt><trkpt lat="45.1284317" lon="7.9746433"><ele>350.5</ele><time>2026-04-11T16:04:23.88Z</time></trkpt><trkpt lat="45.1284083" lon="7.9747683"><ele>352.0</ele><time>2026-04-11T16:04:24.88Z</time></trkpt><trkpt lat="45.12841" lon="7.974895"><ele>353.5</ele><time>2026-04-11T16:04:25.88Z</time></trkpt><trkpt lat="45.1284333" lon="7.9750117"><ele>355.0</ele><time>2026-04-11T16:04:26.881Z</time></trkpt><trkpt lat="45.1284733" lon="7.9751333"><ele>356.6</ele><time>2026-04-11T16:04:27.88Z</time></trkpt><trkpt lat="45.1285417" lon="7.9752517"><ele>358.2</ele><time>2026-04-11T16:04:28.881Z</time></trkpt><trkpt lat="45.1286217" lon="7.97537"><ele>359.79999999999995</ele><time>2026-04-11T16:04:29.88Z</time></trkpt><trkpt lat="45.128705" lon="7.9754867"><ele>361.4</ele><time>2026-04-11T16:04:30.881Z</time></trkpt><trkpt lat="45.128755" lon="7.9756033"><ele>363.0</ele><time>2026-04-11T16:04:31.88Z</time></trkpt><trkpt lat="45.12877" lon="7.9757383"><ele>369.0</ele><time>2026-04-11T16:04:32.88Z</time></trkpt><trkpt lat="45.1287383" lon="7.9758683"><ele>375.0</ele><time>2026-04-11T16:04:33.88Z</time></trkpt><trkpt lat="45.12867" lon="7.97599"><ele>381.0</ele><time>2026-04-11T16:04:34.88Z</time></trkpt><trkpt lat="45.128585" lon="7.9761083"><ele>387.0</ele><time>2026-04-11T16:04:35.881Z</time></trkpt><trkpt lat="45.128485" lon="7.97624"><ele>387.0</ele><time>2026-04-11T16:04:36.88Z</time></trkpt><trkpt lat="45.12837" lon="7.976325"><ele>387.0</ele><time>2026-04-11T16:04:37.88Z</time></trkpt><trkpt lat="45.1282283" lon="7.976375"><ele>387.0</ele><time>2026-04-11T16:04:38.88Z</time></trkpt><trkpt lat="45.1280783" lon="7.97636"><ele>387.0</ele><time>2026-04-11T16:04:39.881Z</time></trkpt><trkpt lat="45.1279467" lon="7.976345"><ele>385.25</ele><time>2026-04-11T16:04:40.88Z</time></trkpt><trkpt lat="45.127835" lon="7.9763583"><ele>383.5</ele><time>2026-04-11T16:04:41.88Z</time></trkpt><trkpt lat="45.1277367" lon="7.9764383"><ele>381.75</ele><time>2026-04-11T16:04:42.881Z</time></trkpt><trkpt lat="45.1276367" lon="7.976515"><ele>380.0</ele><time>2026-04-11T16:04:43.88Z</time></trkpt><trkpt lat="45.12752" lon="7.9765467"><ele>380.0</ele><time>2026-04-11T16:04:44.88Z</time></trkpt><trkpt lat="45.1273983" lon="7.9765183"><ele>380.0</ele><time>2026-04-11T16:04:45.88Z</time></trkpt><trkpt lat="45.1272883" lon="7.976495"><ele>380.0</ele><time>2026-04-11T16:04:46.88Z</time></trkpt><trkpt lat="45.1272067" lon="7.97653"><ele>380.0</ele><time>2026-04-11T16:04:47.881Z</time></trkpt><trkpt lat="45.1271467" lon="7.976625"><ele>380.0</ele><time>2026-04-11T16:04:48.88Z</time></trkpt><trkpt lat="45.1271" lon="7.9767367"><ele>372.5</ele><time>2026-04-11T16:04:49.881Z</time></trkpt><trkpt lat="45.1270933" lon="7.9768433"><ele>365.0</ele><time>2026-04-11T16:04:50.88Z</time></trkpt><trkpt lat="45.1271033" lon="7.9769833"><ele>357.5</ele><time>2026-04-11T16:04:51.881Z</time></trkpt><trkpt lat="45.12714" lon="7.9771617"><ele>350.0</ele><time>2026-04-11T16:04:52.88Z</time></trkpt><trkpt lat="45.1271883" lon="7.9773933"><ele>353.33333333333337</ele><time>2026-04-11T16:04:53.881Z</time></trkpt><trkpt lat="45.1272" lon="7.9776367"><ele>356.6666666666667</ele><time>2026-04-11T16:04:54.881Z</time></trkpt><trkpt lat="45.1271933" lon="7.9778633"><ele>360.0</ele><time>2026-04-11T16:04:55.88Z</time></trkpt><trkpt lat="45.12718" lon="7.9780617"><ele>360.0</ele><time>2026-04-11T16:04:56.88Z</time></trkpt><trkpt lat="45.1271867" lon="7.9782767"><ele>360.0</ele><time>2026-04-11T16:04:57.88Z</time></trkpt><trkpt lat="45.1272033" lon="7.97849"><ele>360.0</ele><time>2026-04-11T16:04:58.881Z</time></trkpt><trkpt lat="45.12721" lon="7.9787133"><ele>361.5</ele><time>2026-04-11T16:04:59.88Z</time></trkpt><trkpt lat="45.1272167" lon="7.97891"><ele>363.0</ele><time>2026-04-11T16:05:00.88Z</time></trkpt><trkpt lat="45.1272067" lon="7.9790867"><ele>364.5</ele><time>2026-04-11T16:05:01.88Z</time></trkpt><trkpt lat="45.127155" lon="7.9792533"><ele>366.0</ele><time>2026-04-11T16:05:02.88Z</time></trkpt><trkpt lat="45.1270817" lon="7.979385"><ele>366.0</ele><time>2026-04-11T16:05:03.88Z</time></trkpt><trkpt lat="45.126965" lon="7.9794517"><ele>366.0</ele><time>2026-04-11T16:05:04.88Z</time></trkpt><trkpt lat="45.1268267" lon="7.9794617"><ele>366.0</ele><time>2026-04-11T16:05:05.88Z</time></trkpt><trkpt lat="45.126685" lon="7.9794267"><ele>366.0</ele><time>2026-04-11T16:05:06.88Z</time></trkpt><trkpt lat="45.126525" lon="7.9793383"><ele>367.0</ele><time>2026-04-11T16:05:07.881Z</time></trkpt><trkpt lat="45.1263683" lon="7.9792233"><ele>368.0</ele><time>2026-04-11T16:05:08.88Z</time></trkpt><trkpt lat="45.1262067" lon="7.97915"><ele>369.0</ele><time>2026-04-11T16:05:09.88Z</time></trkpt><trkpt lat="45.1260533" lon="7.9791017"><ele>372.3333333333333</ele><time>2026-04-11T16:05:10.881Z</time></trkpt><trkpt lat="45.1258967" lon="7.9790817"><ele>375.66666666666663</ele><time>2026-04-11T16:05:11.88Z</time></trkpt><trkpt lat="45.12573" lon="7.9790967"><ele>379.0</ele><time>2026-04-11T16:05:12.881Z</time></trkpt><trkpt lat="45.125565" lon="7.9791217"><ele>382.25</ele><time>2026-04-11T16:05:13.88Z</time></trkpt><trkpt lat="45.1254183" lon="7.979175"><ele>385.5</ele><time>2026-04-11T16:05:14.881Z</time></trkpt><trkpt lat="45.1252783" lon="7.97923"><ele>388.75</ele><time>2026-04-11T16:05:15.881Z</time></trkpt><trkpt lat="45.1251433" lon="7.9792867"><ele>392.0</ele><time>2026-04-11T16:05:16.88Z</time></trkpt><trkpt lat="45.1250067" lon="7.97936"><ele>394.0</ele><time>2026-04-11T16:05:17.88Z</time></trkpt><trkpt lat="45.124885" lon="7.9794467"><ele>396.0</ele><time>2026-04-11T16:05:18.88Z</time></trkpt><trkpt lat="45.124765" lon="7.9795217"><ele>398.0</ele><time>2026-04-11T16:05:19.88Z</time></trkpt><trkpt lat="45.1246367" lon="7.9795883"><ele>400.0</ele><time>2026-04-11T16:05:20.88Z</time></trkpt><trkpt lat="45.1245183" lon="7.979655"><ele>400.0</ele><time>2026-04-11T16:05:21.88Z</time></trkpt><trkpt lat="45.124395" lon="7.9797167"><ele>400.0</ele><time>2026-04-11T16:05:22.88Z</time></trkpt><trkpt lat="45.1242783" lon="7.9798217"><ele>400.0</ele><time>2026-04-11T16:05:23.88Z</time></trkpt><trkpt lat="45.12417" lon="7.97996"><ele>400.0</ele><time>2026-04-11T16:05:24.88Z</time></trkpt><trkpt lat="45.1240383" lon="7.9800933"><ele>399.6666666666667</ele><time>2026-04-11T16:05:25.88Z</time></trkpt><trkpt lat="45.1239067" lon="7.9802033"><ele>399.33333333333337</ele><time>2026-04-11T16:05:26.88Z</time></trkpt><trkpt lat="45.123765" lon="7.9802833"><ele>399.0</ele><time>2026-04-11T16:05:27.88Z</time></trkpt><trkpt lat="45.123615" lon="7.9803533"><ele>399.0</ele><time>2026-04-11T16:05:28.881Z</time></trkpt><trkpt lat="45.1234783" lon="7.9804383"><ele>399.0</ele><time>2026-04-11T16:05:29.881Z</time></trkpt><trkpt lat="45.123335" lon="7.9804967"><ele>399.0</ele><time>2026-04-11T16:05:30.881Z</time></trkpt><trkpt lat="45.1232" lon="7.9805483"><ele>399.0</ele><time>2026-04-11T16:05:31.88Z</time></trkpt><trkpt lat="45.123075" lon="7.9806117"><ele>397.5</ele><time>2026-04-11T16:05:32.88Z</time></trkpt><trkpt lat="45.1229517" lon="7.98071"><ele>396.0</ele><time>2026-04-11T16:05:33.88Z</time></trkpt><trkpt lat="45.12282" lon="7.9808067"><ele>394.5</ele><time>2026-04-11T16:05:34.881Z</time></trkpt><trkpt lat="45.1226867" lon="7.98093"><ele>393.0</ele><time>2026-04-11T16:05:35.88Z</time></trkpt><trkpt lat="45.122575" lon="7.98104"><ele>393.0</ele><time>2026-04-11T16:05:36.88Z</time></trkpt><trkpt lat="45.1224733" lon="7.9811583"><ele>393.0</ele><time>2026-04-11T16:05:37.88Z</time></trkpt><trkpt lat="45.122365" lon="7.9812667"><ele>393.0</ele><time>2026-04-11T16:05:38.88Z</time></trkpt><trkpt lat="45.1222833" lon="7.9813767"><ele>393.0</ele><time>2026-04-11T16:05:39.88Z</time></trkpt><trkpt lat="45.1222333" lon="7.9814917"><ele>391.3333333333333</ele><time>2026-04-11T16:05:40.88Z</time></trkpt><trkpt lat="45.1221817" lon="7.9815983"><ele>389.6666666666667</ele><time>2026-04-11T16:05:41.881Z</time></trkpt><trkpt lat="45.1221583" lon="7.9817167"><ele>388.0</ele><time>2026-04-11T16:05:42.88Z</time></trkpt><trkpt lat="45.12213" lon="7.9818167"><ele>386.33333333333337</ele><time>2026-04-11T16:05:43.881Z</time></trkpt><trkpt lat="45.1220917" lon="7.9819283"><ele>384.6666666666667</ele><time>2026-04-11T16:05:44.88Z</time></trkpt><trkpt lat="45.12205" lon="7.9820633"><ele>383.0</ele><time>2026-04-11T16:05:45.88Z</time></trkpt><trkpt lat="45.122" lon="7.9821867"><ele>383.0</ele><time>2026-04-11T16:05:46.88Z</time></trkpt><trkpt lat="45.1219433" lon="7.9823183"><ele>383.0</ele><time>2026-04-11T16:05:47.88Z</time></trkpt><trkpt lat="45.12187" lon="7.982445"><ele>383.0</ele><time>2026-04-11T16:05:48.88Z</time></trkpt><trkpt lat="45.1217583" lon="7.982555"><ele>383.0</ele><time>2026-04-11T16:05:49.88Z</time></trkpt><trkpt lat="45.1216333" lon="7.9826517"><ele>386.0</ele><time>2026-04-11T16:05:50.88Z</time></trkpt><trkpt lat="45.1215033" lon="7.9827267"><ele>389.0</ele><time>2026-04-11T16:05:51.881Z</time></trkpt><trkpt lat="45.12137" lon="7.9827767"><ele>392.0</ele><time>2026-04-11T16:05:52.88Z</time></trkpt><trkpt lat="45.12123" lon="7.9827833"><ele>395.0</ele><time>2026-04-11T16:05:53.881Z</time></trkpt><trkpt lat="45.1210967" lon="7.9827667"><ele>395.0</ele><time>2026-04-11T16:05:54.88Z</time></trkpt><trkpt lat="45.1209683" lon="7.9827583"><ele>395.0</ele><time>2026-04-11T16:05:55.88Z</time></trkpt><trkpt lat="45.1208417" lon="7.982745"><ele>395.0</ele><time>2026-04-11T16:05:56.88Z</time></trkpt><trkpt lat="45.1207183" lon="7.9827433"><ele>395.0</ele><time>2026-04-11T16:05:57.881Z</time></trkpt><trkpt lat="45.1205767" lon="7.982755"><ele>397.5</ele><time>2026-04-11T16:05:58.881Z</time></trkpt><trkpt lat="45.1204417" lon="7.9828"><ele>400.0</ele><time>2026-04-11T16:05:59.881Z</time></trkpt><trkpt lat="45.12032" lon="7.9828717"><ele>402.5</ele><time>2026-04-11T16:06:00.88Z</time></trkpt><trkpt lat="45.1202067" lon="7.9829717"><ele>405.0</ele><time>2026-04-11T16:06:01.88Z</time></trkpt><trkpt lat="45.12011" lon="7.9831017"><ele>405.0</ele><time>2026-04-11T16:06:02.88Z</time></trkpt><trkpt lat="45.1200217" lon="7.983245"><ele>405.0</ele><time>2026-04-11T16:06:03.88Z</time></trkpt><trkpt lat="45.119935" lon="7.9834033"><ele>405.0</ele><time>2026-04-11T16:06:04.88Z</time></trkpt><trkpt lat="45.1198617" lon="7.98358"><ele>405.0</ele><time>2026-04-11T16:06:05.88Z</time></trkpt><trkpt lat="45.11979" lon="7.983755"><ele>407.0</ele><time>2026-04-11T16:06:06.881Z</time></trkpt><trkpt lat="45.11972" lon="7.9839317"><ele>409.0</ele><time>2026-04-11T16:06:07.88Z</time></trkpt><trkpt lat="45.1196483" lon="7.9841083"><ele>411.0</ele><time>2026-04-11T16:06:08.88Z</time></trkpt><trkpt lat="45.1195733" lon="7.9842583"><ele>413.0</ele><time>2026-04-11T16:06:09.88Z</time></trkpt><trkpt lat="45.1195017" lon="7.984375"><ele>416.0</ele><time>2026-04-11T16:06:10.88Z</time></trkpt><trkpt lat="45.11942" lon="7.9844517"><ele>419.0</ele><time>2026-04-11T16:06:11.881Z</time></trkpt><trkpt lat="45.11932" lon="7.9844867"><ele>421.99999999999994</ele><time>2026-04-11T16:06:12.88Z</time></trkpt><trkpt lat="45.1192367" lon="7.9844917"><ele>425.0</ele><time>2026-04-11T16:06:13.88Z</time></trkpt><trkpt lat="45.11915" lon="7.9844833"><ele>428.0</ele><time>2026-04-11T16:06:14.881Z</time></trkpt><trkpt lat="45.11907" lon="7.9844733"><ele>434.79999999999995</ele><time>2026-04-11T16:06:15.88Z</time></trkpt><trkpt lat="45.1189817" lon="7.98446"><ele>441.59999999999997</ele><time>2026-04-11T16:06:16.88Z</time></trkpt><trkpt lat="45.118885" lon="7.984435"><ele>448.40000000000003</ele><time>2026-04-11T16:06:17.88Z</time></trkpt><trkpt lat="45.1187783" lon="7.98442"><ele>455.20000000000005</ele><time>2026-04-11T16:06:18.881Z</time></trkpt><trkpt lat="45.118665" lon="7.98442"><ele>462.0</ele><time>2026-04-11T16:06:19.88Z</time></trkpt><trkpt lat="45.1185567" lon="7.984425"><ele>462.0</ele><time>2026-04-11T16:06:20.88Z</time></trkpt><trkpt lat="45.1184567" lon="7.9844233"><ele>462.00000000000006</ele><time>2026-04-11T16:06:21.881Z</time></trkpt><trkpt lat="45.1183633" lon="7.98441"><ele>462.00000000000006</ele><time>2026-04-11T16:06:22.88Z</time></trkpt><trkpt lat="45.1182617" lon="7.9843533"><ele>462.0</ele><time>2026-04-11T16:06:23.881Z</time></trkpt><trkpt lat="45.11817" lon="7.9842667"><ele>462.0</ele><time>2026-04-11T16:06:24.881Z</time></trkpt><trkpt lat="45.1181117" lon="7.9841183"><ele>467.5</ele><time>2026-04-11T16:06:25.88Z</time></trkpt><trkpt lat="45.11808" lon="7.9839467"><ele>473.0</ele><time>2026-04-11T16:06:26.88Z</time></trkpt><trkpt lat="45.118055" lon="7.9837633"><ele>478.5</ele><time>2026-04-11T16:06:27.88Z</time></trkpt><trkpt lat="45.11804" lon="7.9835783"><ele>484.0</ele><time>2026-04-11T16:06:28.88Z</time></trkpt><trkpt lat="45.1180267" lon="7.983395"><ele>479.75</ele><time>2026-04-11T16:06:29.88Z</time></trkpt><trkpt lat="45.118015" lon="7.983205"><ele>475.5</ele><time>2026-04-11T16:06:30.88Z</time></trkpt><trkpt lat="45.1179917" lon="7.9830167"><ele>471.25</ele><time>2026-04-11T16:06:31.88Z</time></trkpt><trkpt lat="45.1179633" lon="7.9828467"><ele>467.0</ele><time>2026-04-11T16:06:32.88Z</time></trkpt><trkpt lat="45.117925" lon="7.9826917"><ele>467.0</ele><time>2026-04-11T16:06:33.88Z</time></trkpt><trkpt lat="45.11786" lon="7.982575"><ele>467.0</ele><time>2026-04-11T16:06:34.88Z</time></trkpt><trkpt lat="45.117765" lon="7.9825033"><ele>467.0</ele><time>2026-04-11T16:06:35.881Z</time></trkpt><trkpt lat="45.1176333" lon="7.982445"><ele>467.0</ele><time>2026-04-11T16:06:36.88Z</time></trkpt><trkpt lat="45.1174983" lon="7.98242"><ele>461.75</ele><time>2026-04-11T16:06:37.88Z</time></trkpt><trkpt lat="45.11737" lon="7.9823833"><ele>456.5</ele><time>2026-04-11T16:06:38.88Z</time></trkpt><trkpt lat="45.1172517" lon="7.9823633"><ele>451.25</ele><time>2026-04-11T16:06:39.88Z</time></trkpt><trkpt lat="45.1171433" lon="7.98239"><ele>446.0</ele><time>2026-04-11T16:06:40.88Z</time></trkpt><trkpt lat="45.11706" lon="7.9824683"><ele>450.0</ele><time>2026-04-11T16:06:41.88Z</time></trkpt><trkpt lat="45.11698" lon="7.98256"><ele>454.0</ele><time>2026-04-11T16:06:42.881Z</time></trkpt><trkpt lat="45.1169017" lon="7.9826733"><ele>458.0</ele><time>2026-04-11T16:06:43.88Z</time></trkpt><trkpt lat="45.11684" lon="7.982805"><ele>462.0</ele><time>2026-04-11T16:06:44.88Z</time></trkpt><trkpt lat="45.1167667" lon="7.982945"><ele>466.0</ele><time>2026-04-11T16:06:45.88Z</time></trkpt><trkpt lat="45.1166817" lon="7.983085"><ele>466.0</ele><time>2026-04-11T16:06:46.881Z</time></trkpt><trkpt lat="45.1165867" lon="7.9832017"><ele>466.0</ele><time>2026-04-11T16:06:47.88Z</time></trkpt><trkpt lat="45.11648" lon="7.9832983"><ele>466.0</ele><time>2026-04-11T16:06:48.88Z</time></trkpt><trkpt lat="45.1163667" lon="7.9833583"><ele>466.0</ele><time>2026-04-11T16:06:49.88Z</time></trkpt><trkpt lat="45.1162483" lon="7.9833917"><ele>468.0</ele><time>2026-04-11T16:06:50.881Z</time></trkpt><trkpt lat="45.1161083" lon="7.983355"><ele>470.0</ele><time>2026-04-11T16:06:51.88Z</time></trkpt><trkpt lat="45.1159883" lon="7.9833167"><ele>472.0</ele><time>2026-04-11T16:06:52.88Z</time></trkpt><trkpt lat="45.1158817" lon="7.9832817"><ele>474.0</ele><time>2026-04-11T16:06:53.88Z</time></trkpt><trkpt lat="45.115795" lon="7.9832767"><ele>470.5714285714285</ele><time>2026-04-11T16:06:54.88Z</time></trkpt><trkpt lat="45.11572" lon="7.9832733"><ele>467.1428571428571</ele><time>2026-04-11T16:06:55.881Z</time></trkpt><trkpt lat="45.1156467" lon="7.98329"><ele>463.7142857142857</ele><time>2026-04-11T16:06:56.881Z</time></trkpt><trkpt lat="45.1156067" lon="7.983365"><ele>460.2857142857143</ele><time>2026-04-11T16:06:57.88Z</time></trkpt><trkpt lat="45.11558" lon="7.9834483"><ele>456.8571428571429</ele><time>2026-04-11T16:06:58.881Z</time></trkpt><trkpt lat="45.1155717" lon="7.983555"><ele>453.4285714285715</ele><time>2026-04-11T16:06:59.88Z</time></trkpt><trkpt lat="45.115575" lon="7.98365"><ele>450.00000000000006</ele><time>2026-04-11T16:07:00.88Z</time></trkpt><trkpt lat="45.1155867" lon="7.9837617"><ele>449.4</ele><time>2026-04-11T16:07:01.88Z</time></trkpt><trkpt lat="45.1156117" lon="7.9838617"><ele>448.8</ele><time>2026-04-11T16:07:02.881Z</time></trkpt><trkpt lat="45.1156583" lon="7.9839833"><ele>448.20000000000005</ele><time>2026-04-11T16:07:03.881Z</time></trkpt><trkpt lat="45.11572" lon="7.984095"><ele>447.6</ele><time>2026-04-11T16:07:04.88Z</time></trkpt><trkpt lat="45.11578" lon="7.984205"><ele>447.0</ele><time>2026-04-11T16:07:05.88Z</time></trkpt><trkpt lat="45.115845" lon="7.9843"><ele>450.40000000000003</ele><time>2026-04-11T16:07:06.881Z</time></trkpt><trkpt lat="45.1159183" lon="7.9843767"><ele>453.80000000000007</ele><time>2026-04-11T16:07:07.88Z</time></trkpt><trkpt lat="45.1159967" lon="7.98446"><ele>457.2</ele><time>2026-04-11T16:07:08.881Z</time></trkpt><trkpt lat="45.1160733" lon="7.984545"><ele>460.6</ele><time>2026-04-11T16:07:09.881Z</time></trkpt><trkpt lat="45.1161467" lon="7.9846383"><ele>464.0</ele><time>2026-04-11T16:07:10.88Z</time></trkpt><trkpt lat="45.116215" lon="7.9847383"><ele>464.0</ele><time>2026-04-11T16:07:11.881Z</time></trkpt><trkpt lat="45.116275" lon="7.9848483"><ele>464.0</ele><time>2026-04-11T16:07:12.881Z</time></trkpt><trkpt lat="45.11633" lon="7.9849533"><ele>464.0</ele><time>2026-04-11T16:07:13.88Z</time></trkpt><trkpt lat="45.11639" lon="7.9850533"><ele>464.0</ele><time>2026-04-11T16:07:14.88Z</time></trkpt><trkpt lat="45.1164583" lon="7.985145"><ele>464.0</ele><time>2026-04-11T16:07:15.88Z</time></trkpt><trkpt lat="45.116535" lon="7.9852217"><ele>465.79999999999995</ele><time>2026-04-11T16:07:16.881Z</time></trkpt><trkpt lat="45.1166283" lon="7.9852967"><ele>467.59999999999997</ele><time>2026-04-11T16:07:17.88Z</time></trkpt><trkpt lat="45.11672" lon="7.9853683"><ele>469.4</ele><time>2026-04-11T16:07:18.881Z</time></trkpt><trkpt lat="45.11682" lon="7.98543"><ele>471.2</ele><time>2026-04-11T16:07:19.88Z</time></trkpt><trkpt lat="45.1169167" lon="7.9855033"><ele>473.0</ele><time>2026-04-11T16:07:20.88Z</time></trkpt><trkpt lat="45.1170233" lon="7.98558"><ele>473.0</ele><time>2026-04-11T16:07:21.88Z</time></trkpt><trkpt lat="45.1171283" lon="7.985675"><ele>473.0</ele><time>2026-04-11T16:07:22.88Z</time></trkpt><trkpt lat="45.1172233" lon="7.9857967"><ele>473.0</ele><time>2026-04-11T16:07:23.88Z</time></trkpt><trkpt lat="45.1173" lon="7.9859483"><ele>473.0</ele><time>2026-04-11T16:07:24.88Z</time></trkpt><trkpt lat="45.1173633" lon="7.986105"><ele>474.25</ele><time>2026-04-11T16:07:25.88Z</time></trkpt><trkpt lat="45.117415" lon="7.986265"><ele>475.5</ele><time>2026-04-11T16:07:26.88Z</time></trkpt><trkpt lat="45.1174683" lon="7.986425"><ele>476.75</ele><time>2026-04-11T16:07:27.88Z</time></trkpt><trkpt lat="45.1175167" lon="7.9865867"><ele>478.0</ele><time>2026-04-11T16:07:28.88Z</time></trkpt><trkpt lat="45.1175633" lon="7.9867483"><ele>478.0</ele><time>2026-04-11T16:07:29.88Z</time></trkpt><trkpt lat="45.1176283" lon="7.9868933"><ele>478.0</ele><time>2026-04-11T16:07:30.88Z</time></trkpt><trkpt lat="45.1176983" lon="7.98706"><ele>478.0</ele><time>2026-04-11T16:07:31.88Z</time></trkpt><trkpt lat="45.1177733" lon="7.987215"><ele>478.0</ele><time>2026-04-11T16:07:32.881Z</time></trkpt><trkpt lat="45.1178617" lon="7.9873567"><ele>475.75</ele><time>2026-04-11T16:07:33.881Z</time></trkpt><trkpt lat="45.1179417" lon="7.9875183"><ele>473.5</ele><time>2026-04-11T16:07:34.881Z</time></trkpt><trkpt lat="45.1180133" lon="7.9876917"><ele>471.25</ele><time>2026-04-11T16:07:35.881Z</time></trkpt><trkpt lat="45.11807" lon="7.98785"><ele>469.0</ele><time>2026-04-11T16:07:36.881Z</time></trkpt><trkpt lat="45.1181133" lon="7.9880067"><ele>469.0</ele><time>2026-04-11T16:07:37.881Z</time></trkpt><trkpt lat="45.1181433" lon="7.9881717"><ele>469.0</ele><time>2026-04-11T16:07:38.881Z</time></trkpt><trkpt lat="45.1181733" lon="7.98834"><ele>469.0</ele><time>2026-04-11T16:07:39.88Z</time></trkpt><trkpt lat="45.118205" lon="7.9885017"><ele>469.0</ele><time>2026-04-11T16:07:40.88Z</time></trkpt><trkpt lat="45.1182633" lon="7.9886433"><ele>472.75</ele><time>2026-04-11T16:07:41.88Z</time></trkpt><trkpt lat="45.1183533" lon="7.9887583"><ele>476.5</ele><time>2026-04-11T16:07:42.881Z</time></trkpt><trkpt lat="45.118455" lon="7.9888683"><ele>480.25</ele><time>2026-04-11T16:07:43.881Z</time></trkpt><trkpt lat="45.11858" lon="7.989005"><ele>484.0</ele><time>2026-04-11T16:07:44.881Z</time></trkpt><trkpt lat="45.11869" lon="7.98914"><ele>484.6666666666667</ele><time>2026-04-11T16:07:45.881Z</time></trkpt><trkpt lat="45.1187917" lon="7.9893083"><ele>485.33333333333337</ele><time>2026-04-11T16:07:46.88Z</time></trkpt><trkpt lat="45.11889" lon="7.9894767"><ele>486.0</ele><time>2026-04-11T16:07:47.88Z</time></trkpt><trkpt lat="45.118985" lon="7.98963"><ele>486.25</ele><time>2026-04-11T16:07:48.881Z</time></trkpt><trkpt lat="45.119105" lon="7.989745"><ele>486.5</ele><time>2026-04-11T16:07:49.88Z</time></trkpt><trkpt lat="45.1192233" lon="7.9898517"><ele>486.75</ele><time>2026-04-11T16:07:50.88Z</time></trkpt><trkpt lat="45.119335" lon="7.9899633"><ele>487.0</ele><time>2026-04-11T16:07:51.88Z</time></trkpt><trkpt lat="45.11946" lon="7.9900917"><ele>481.0</ele><time>2026-04-11T16:07:52.881Z</time></trkpt><trkpt lat="45.119585" lon="7.9902317"><ele>475.0</ele><time>2026-04-11T16:07:53.881Z</time></trkpt><trkpt lat="45.1197183" lon="7.99037"><ele>469.0</ele><time>2026-04-11T16:07:54.88Z</time></trkpt><trkpt lat="45.1198533" lon="7.9905267"><ele>467.6666666666667</ele><time>2026-04-11T16:07:55.881Z</time></trkpt><trkpt lat="45.119975" lon="7.9907"><ele>466.33333333333337</ele><time>2026-04-11T16:07:56.88Z</time></trkpt><trkpt lat="45.12007" lon="7.9908667"><ele>465.0</ele><time>2026-04-11T16:07:57.88Z</time></trkpt><trkpt lat="45.120145" lon="7.99105"><ele>465.0</ele><time>2026-04-11T16:07:58.88Z</time></trkpt><trkpt lat="45.1202317" lon="7.99124"><ele>465.0</ele><time>2026-04-11T16:07:59.88Z</time></trkpt><trkpt lat="45.120315" lon="7.9914383"><ele>465.0</ele><time>2026-04-11T16:08:00.881Z</time></trkpt><trkpt lat="45.1203967" lon="7.9916367"><ele>460.33333333333337</ele><time>2026-04-11T16:08:01.881Z</time></trkpt><trkpt lat="45.1204383" lon="7.99187"><ele>455.6666666666667</ele><time>2026-04-11T16:08:02.881Z</time></trkpt><trkpt lat="45.1204633" lon="7.9921033"><ele>451.0</ele><time>2026-04-11T16:08:03.88Z</time></trkpt><trkpt lat="45.12049" lon="7.9923417"><ele>449.5</ele><time>2026-04-11T16:08:04.88Z</time></trkpt><trkpt lat="45.1205383" lon="7.9925383"><ele>448.0</ele><time>2026-04-11T16:08:05.88Z</time></trkpt><trkpt lat="45.12061" lon="7.9927117"><ele>446.5</ele><time>2026-04-11T16:08:06.881Z</time></trkpt><trkpt lat="45.1206933" lon="7.9928767"><ele>445.0</ele><time>2026-04-11T16:08:07.881Z</time></trkpt><trkpt lat="45.1207517" lon="7.9930367"><ele>450.75</ele><time>2026-04-11T16:08:08.88Z</time></trkpt><trkpt lat="45.120795" lon="7.9932233"><ele>456.5</ele><time>2026-04-11T16:08:09.881Z</time></trkpt><trkpt lat="45.1208167" lon="7.993405"><ele>462.25</ele><time>2026-04-11T16:08:10.88Z</time></trkpt><trkpt lat="45.12086" lon="7.9935617"><ele>468.0</ele><time>2026-04-11T16:08:11.88Z</time></trkpt><trkpt lat="45.12093" lon="7.99372"><ele>468.25</ele><time>2026-04-11T16:08:12.88Z</time></trkpt><trkpt lat="45.121025" lon="7.9938567"><ele>468.5</ele><time>2026-04-11T16:08:13.881Z</time></trkpt><trkpt lat="45.12115" lon="7.9939683"><ele>468.75</ele><time>2026-04-11T16:08:14.881Z</time></trkpt><trkpt lat="45.1212683" lon="7.9940583"><ele>469.0</ele><time>2026-04-11T16:08:15.88Z</time></trkpt><trkpt lat="45.1213767" lon="7.9941717"><ele>469.0</ele><time>2026-04-11T16:08:16.881Z</time></trkpt><trkpt lat="45.12149" lon="7.9943083"><ele>469.0</ele><time>2026-04-11T16:08:17.88Z</time></trkpt><trkpt lat="45.1216017" lon="7.99446"><ele>469.0</ele><time>2026-04-11T16:08:18.88Z</time></trkpt><trkpt lat="45.1217267" lon="7.9946"><ele>466.75</ele><time>2026-04-11T16:08:19.88Z</time></trkpt><trkpt lat="45.1218533" lon="7.9947167"><ele>464.5</ele><time>2026-04-11T16:08:20.879Z</time></trkpt><trkpt lat="45.1219817" lon="7.9948217"><ele>462.25</ele><time>2026-04-11T16:08:21.879Z</time></trkpt><trkpt lat="45.122105" lon="7.994915"><ele>460.0</ele><time>2026-04-11T16:08:22.88Z</time></trkpt><trkpt lat="45.1222133" lon="7.9950217"><ele>456.75</ele><time>2026-04-11T16:08:23.88Z</time></trkpt><trkpt lat="45.1223433" lon="7.99509"><ele>453.5</ele><time>2026-04-11T16:08:24.88Z</time></trkpt><trkpt lat="45.1224833" lon="7.9951317"><ele>450.25</ele><time>2026-04-11T16:08:25.88Z</time></trkpt><trkpt lat="45.1226267" lon="7.9951633"><ele>447.0</ele><time>2026-04-11T16:08:26.88Z</time></trkpt><trkpt lat="45.1227683" lon="7.9951833"><ele>447.0</ele><time>2026-04-11T16:08:27.88Z</time></trkpt><trkpt lat="45.1228933" lon="7.9951983"><ele>447.0</ele><time>2026-04-11T16:08:28.88Z</time></trkpt><trkpt lat="45.12301" lon="7.9952283"><ele>447.0</ele><time>2026-04-11T16:08:29.879Z</time></trkpt><trkpt lat="45.1231283" lon="7.9952733"><ele>447.0</ele><time>2026-04-11T16:08:30.879Z</time></trkpt><trkpt lat="45.12323" lon="7.9953717"><ele>450.75</ele><time>2026-04-11T16:08:31.879Z</time></trkpt><trkpt lat="45.1233033" lon="7.995475"><ele>454.5</ele><time>2026-04-11T16:08:32.879Z</time></trkpt><trkpt lat="45.1233467" lon="7.995635"><ele>458.25</ele><time>2026-04-11T16:08:33.879Z</time></trkpt><trkpt lat="45.1233517" lon="7.9957917"><ele>462.0</ele><time>2026-04-11T16:08:34.879Z</time></trkpt><trkpt lat="45.1233217" lon="7.9959783"><ele>462.5</ele><time>2026-04-11T16:08:35.879Z</time></trkpt><trkpt lat="45.123285" lon="7.9961717"><ele>463.0</ele><time>2026-04-11T16:08:36.88Z</time></trkpt><trkpt lat="45.1232433" lon="7.99636"><ele>463.5</ele><time>2026-04-11T16:08:37.879Z</time></trkpt><trkpt lat="45.1231967" lon="7.99653"><ele>464.0</ele><time>2026-04-11T16:08:38.879Z</time></trkpt><trkpt lat="45.123145" lon="7.996685"><ele>458.0</ele><time>2026-04-11T16:08:39.879Z</time></trkpt><trkpt lat="45.1231183" lon="7.9968333"><ele>452.0</ele><time>2026-04-11T16:08:40.879Z</time></trkpt><trkpt lat="45.1231" lon="7.9969783"><ele>446.0</ele><time>2026-04-11T16:08:41.88Z</time></trkpt><trkpt lat="45.1230917" lon="7.997105"><ele>440.0</ele><time>2026-04-11T16:08:42.879Z</time></trkpt><trkpt lat="45.1230867" lon="7.997225"><ele>434.0</ele><time>2026-04-11T16:08:43.88Z</time></trkpt><trkpt lat="45.1230833" lon="7.9973217"><ele>433.99999999999994</ele><time>2026-04-11T16:08:44.879Z</time></trkpt><trkpt lat="45.12307" lon="7.9974117"><ele>434.0</ele><time>2026-04-11T16:08:45.879Z</time></trkpt><trkpt lat="45.1230533" lon="7.997515"><ele>434.0</ele><time>2026-04-11T16:08:46.879Z</time></trkpt><trkpt lat="45.1230217" lon="7.997665"><ele>434.0</ele><time>2026-04-11T16:08:48.88Z</time></trkpt><trkpt lat="45.1229767" lon="7.9977417"><ele>433.99999999999994</ele><time>2026-04-11T16:08:50.879Z</time></trkpt><trkpt lat="45.1228717" lon="7.9977917"><ele>434.0</ele><time>2026-04-11T16:08:52.879Z</time></trkpt><trkpt lat="45.1227933" lon="7.9978367"><ele>434.8333333333333</ele><time>2026-04-11T16:08:53.88Z</time></trkpt><trkpt lat="45.1227183" lon="7.9978867"><ele>435.66666666666663</ele><time>2026-04-11T16:08:54.879Z</time></trkpt><trkpt lat="45.1226567" lon="7.997935"><ele>436.5</ele><time>2026-04-11T16:08:55.879Z</time></trkpt><trkpt lat="45.1226033" lon="7.9979833"><ele>437.33333333333337</ele><time>2026-04-11T16:08:56.879Z</time></trkpt><trkpt lat="45.1225167" lon="7.998055"><ele>438.1666666666667</ele><time>2026-04-11T16:08:58.879Z</time></trkpt><trkpt lat="45.1224883" lon="7.9981367"><ele>439.0</ele><time>2026-04-11T16:09:01.879Z</time></trkpt><trkpt lat="45.1225567" lon="7.9981167"><ele>439.00000000000006</ele><time>2026-04-11T16:09:04.88Z</time></trkpt><trkpt lat="45.1226367" lon="7.9980383"><ele>439.0</ele><time>2026-04-11T16:09:06.88Z</time></trkpt><trkpt lat="45.12269" lon="7.9979867"><ele>439.0</ele><time>2026-04-11T16:09:07.88Z</time></trkpt><trkpt lat="45.1227517" lon="7.9979383"><ele>439.0</ele><time>2026-04-11T16:09:08.879Z</time></trkpt><trkpt lat="45.1228183" lon="7.9978967"><ele>439.00000000000006</ele><time>2026-04-11T16:09:09.879Z</time></trkpt><trkpt lat="45.1228883" lon="7.9978467"><ele>439.0</ele><time>2026-04-11T16:09:10.879Z</time></trkpt><trkpt lat="45.12296" lon="7.9978017"><ele>439.0</ele><time>2026-04-11T16:09:11.879Z</time></trkpt><trkpt lat="45.1230217" lon="7.9977417"><ele>439.0</ele><time>2026-04-11T16:09:12.88Z</time></trkpt><trkpt lat="45.1230617" lon="7.997655"><ele>439.0</ele><time>2026-04-11T16:09:13.879Z</time></trkpt><trkpt lat="45.1230933" lon="7.9975233"><ele>439.0</ele><time>2026-04-11T16:09:14.88Z</time></trkpt><trkpt lat="45.1231117" lon="7.9973817"><ele>439.0</ele><time>2026-04-11T16:09:15.879Z</time></trkpt><trkpt lat="45.1231233" lon="7.9972333"><ele>437.75</ele><time>2026-04-11T16:09:16.879Z</time></trkpt><trkpt lat="45.1231317" lon="7.997085"><ele>436.5</ele><time>2026-04-11T16:09:17.879Z</time></trkpt><trkpt lat="45.1231467" lon="7.9969333"><ele>435.25</ele><time>2026-04-11T16:09:18.879Z</time></trkpt><trkpt lat="45.1231767" lon="7.9967633"><ele>434.0</ele><time>2026-04-11T16:09:19.879Z</time></trkpt><trkpt lat="45.1232133" lon="7.9965983"><ele>441.5</ele><time>2026-04-11T16:09:20.879Z</time></trkpt><trkpt lat="45.1232617" lon="7.9964333"><ele>449.0</ele><time>2026-04-11T16:09:21.879Z</time></trkpt><trkpt lat="45.1233017" lon="7.9962633"><ele>456.5</ele><time>2026-04-11T16:09:22.88Z</time></trkpt><trkpt lat="45.1233333" lon="7.9960733"><ele>464.0</ele><time>2026-04-11T16:09:23.879Z</time></trkpt><trkpt lat="45.12337" lon="7.9959"><ele>463.6</ele><time>2026-04-11T16:09:24.879Z</time></trkpt><trkpt lat="45.1233717" lon="7.9957233"><ele>463.2</ele><time>2026-04-11T16:09:25.879Z</time></trkpt><trkpt lat="45.1233617" lon="7.9955733"><ele>462.80000000000007</ele><time>2026-04-11T16:09:26.88Z</time></trkpt><trkpt lat="45.1233267" lon="7.9954233"><ele>462.40000000000003</ele><time>2026-04-11T16:09:27.879Z</time></trkpt><trkpt lat="45.1232633" lon="7.9953067"><ele>462.0</ele><time>2026-04-11T16:09:28.879Z</time></trkpt><trkpt lat="45.1231683" lon="7.9952067"><ele>458.25</ele><time>2026-04-11T16:09:29.879Z</time></trkpt><trkpt lat="45.1230433" lon="7.9951517"><ele>454.5</ele><time>2026-04-11T16:09:30.88Z</time></trkpt><trkpt lat="45.1229133" lon="7.99513"><ele>450.75</ele><time>2026-04-11T16:09:31.88Z</time></trkpt><trkpt lat="45.12276" lon="7.9951267"><ele>447.0</ele><time>2026-04-11T16:09:32.879Z</time></trkpt><trkpt lat="45.1225983" lon="7.99512"><ele>447.0</ele><time>2026-04-11T16:09:33.879Z</time></trkpt><trkpt lat="45.1224417" lon="7.9950967"><ele>447.0</ele><time>2026-04-11T16:09:34.88Z</time></trkpt><trkpt lat="45.122305" lon="7.9950517"><ele>447.0</ele><time>2026-04-11T16:09:35.879Z</time></trkpt><trkpt lat="45.1221817" lon="7.9949933"><ele>447.0</ele><time>2026-04-11T16:09:36.88Z</time></trkpt><trkpt lat="45.122075" lon="7.9949067"><ele>450.25</ele><time>2026-04-11T16:09:37.879Z</time></trkpt><trkpt lat="45.1219683" lon="7.994805"><ele>453.5</ele><time>2026-04-11T16:09:38.88Z</time></trkpt><trkpt lat="45.1218567" lon="7.9947033"><ele>456.75</ele><time>2026-04-11T16:09:39.88Z</time></trkpt><trkpt lat="45.12174" lon="7.9945683"><ele>460.0</ele><time>2026-04-11T16:09:40.879Z</time></trkpt><trkpt lat="45.1216333" lon="7.9944267"><ele>462.25</ele><time>2026-04-11T16:09:41.88Z</time></trkpt><trkpt lat="45.121535" lon="7.9942817"><ele>464.5</ele><time>2026-04-11T16:09:42.879Z</time></trkpt><trkpt lat="45.121435" lon="7.9941417"><ele>466.75</ele><time>2026-04-11T16:09:43.88Z</time></trkpt><trkpt lat="45.12132" lon="7.99402"><ele>469.0</ele><time>2026-04-11T16:09:44.879Z</time></trkpt><trkpt lat="45.1212183" lon="7.9939083"><ele>471.0</ele><time>2026-04-11T16:09:45.879Z</time></trkpt><trkpt lat="45.1211117" lon="7.99381"><ele>473.0</ele><time>2026-04-11T16:09:46.879Z</time></trkpt><trkpt lat="45.121" lon="7.9936983"><ele>475.0</ele><time>2026-04-11T16:09:47.88Z</time></trkpt><trkpt lat="45.1208967" lon="7.9935483"><ele>477.0</ele><time>2026-04-11T16:09:48.879Z</time></trkpt><trkpt lat="45.1208167" lon="7.99337"><ele>474.75</ele><time>2026-04-11T16:09:49.88Z</time></trkpt><trkpt lat="45.1207667" lon="7.993175"><ele>472.5</ele><time>2026-04-11T16:09:50.88Z</time></trkpt><trkpt lat="45.12073" lon="7.9929917"><ele>470.25</ele><time>2026-04-11T16:09:51.879Z</time></trkpt><trkpt lat="45.120675" lon="7.9928167"><ele>468.0</ele><time>2026-04-11T16:09:52.879Z</time></trkpt><trkpt lat="45.1205883" lon="7.99265"><ele>463.75</ele><time>2026-04-11T16:09:53.879Z</time></trkpt><trkpt lat="45.1205067" lon="7.9924767"><ele>459.5</ele><time>2026-04-11T16:09:54.88Z</time></trkpt><trkpt lat="45.1204567" lon="7.9922783"><ele>455.25</ele><time>2026-04-11T16:09:55.879Z</time></trkpt><trkpt lat="45.1204317" lon="7.9920683"><ele>451.0</ele><time>2026-04-11T16:09:56.879Z</time></trkpt><trkpt lat="45.1204183" lon="7.9918617"><ele>454.5</ele><time>2026-04-11T16:09:57.879Z</time></trkpt><trkpt lat="45.120395" lon="7.991655"><ele>458.0</ele><time>2026-04-11T16:09:58.879Z</time></trkpt><trkpt lat="45.12035" lon="7.991455"><ele>461.5</ele><time>2026-04-11T16:09:59.88Z</time></trkpt><trkpt lat="45.12028" lon="7.9912767"><ele>465.0</ele><time>2026-04-11T16:10:00.879Z</time></trkpt><trkpt lat="45.1202117" lon="7.9911283"><ele>465.0</ele><time>2026-04-11T16:10:01.879Z</time></trkpt><trkpt lat="45.1201333" lon="7.9909583"><ele>465.0</ele><time>2026-04-11T16:10:02.88Z</time></trkpt><trkpt lat="45.120055" lon="7.9908033"><ele>465.0</ele><time>2026-04-11T16:10:03.879Z</time></trkpt><trkpt lat="45.1199483" lon="7.9906183"><ele>465.0</ele><time>2026-04-11T16:10:04.879Z</time></trkpt><trkpt lat="45.11984" lon="7.9904883"><ele>466.33333333333337</ele><time>2026-04-11T16:10:05.88Z</time></trkpt><trkpt lat="45.1197183" lon="7.990315"><ele>467.6666666666667</ele><time>2026-04-11T16:10:06.88Z</time></trkpt><trkpt lat="45.1195967" lon="7.99016"><ele>469.0</ele><time>2026-04-11T16:10:07.879Z</time></trkpt><trkpt lat="45.11948" lon="7.9900183"><ele>473.25</ele><time>2026-04-11T16:10:08.88Z</time></trkpt><trkpt lat="45.1193683" lon="7.9898883"><ele>477.5</ele><time>2026-04-11T16:10:09.879Z</time></trkpt><trkpt lat="45.1192583" lon="7.98977"><ele>481.75</ele><time>2026-04-11T16:10:10.88Z</time></trkpt><trkpt lat="45.1191417" lon="7.98966"><ele>486.0</ele><time>2026-04-11T16:10:11.879Z</time></trkpt><trkpt lat="45.1190267" lon="7.9895417"><ele>486.0</ele><time>2026-04-11T16:10:12.88Z</time></trkpt><trkpt lat="45.1189067" lon="7.9894067"><ele>486.0</ele><time>2026-04-11T16:10:13.88Z</time></trkpt><trkpt lat="45.1187983" lon="7.9892333"><ele>486.0</ele><time>2026-04-11T16:10:14.879Z</time></trkpt><trkpt lat="45.1186867" lon="7.989055"><ele>485.5</ele><time>2026-04-11T16:10:15.879Z</time></trkpt><trkpt lat="45.1185767" lon="7.988895"><ele>485.0</ele><time>2026-04-11T16:10:16.88Z</time></trkpt><trkpt lat="45.1184733" lon="7.9887583"><ele>484.5</ele><time>2026-04-11T16:10:17.879Z</time></trkpt><trkpt lat="45.1183683" lon="7.9886283"><ele>484.0</ele><time>2026-04-11T16:10:18.88Z</time></trkpt><trkpt lat="45.1182683" lon="7.988495"><ele>480.25</ele><time>2026-04-11T16:10:19.879Z</time></trkpt><trkpt lat="45.1181867" lon="7.9883383"><ele>476.5</ele><time>2026-04-11T16:10:20.879Z</time></trkpt><trkpt lat="45.11814" lon="7.988165"><ele>472.75</ele><time>2026-04-11T16:10:21.879Z</time></trkpt><trkpt lat="45.1181133" lon="7.9879983"><ele>469.0</ele><time>2026-04-11T16:10:22.879Z</time></trkpt><trkpt lat="45.118065" lon="7.9877983"><ele>469.0</ele><time>2026-04-11T16:10:23.879Z</time></trkpt><trkpt lat="45.1180033" lon="7.9876083"><ele>469.0</ele><time>2026-04-11T16:10:24.879Z</time></trkpt><trkpt lat="45.1179217" lon="7.9874183"><ele>469.0</ele><time>2026-04-11T16:10:25.879Z</time></trkpt><trkpt lat="45.1178467" lon="7.9872533"><ele>469.0</ele><time>2026-04-11T16:10:26.879Z</time></trkpt><trkpt lat="45.1177667" lon="7.98709"><ele>471.25</ele><time>2026-04-11T16:10:27.88Z</time></trkpt><trkpt lat="45.1176883" lon="7.9869233"><ele>473.5</ele><time>2026-04-11T16:10:28.88Z</time></trkpt><trkpt lat="45.1176133" lon="7.9867433"><ele>475.75</ele><time>2026-04-11T16:10:29.88Z</time></trkpt><trkpt lat="45.1175433" lon="7.9865467"><ele>478.0</ele><time>2026-04-11T16:10:30.88Z</time></trkpt><trkpt lat="45.1174933" lon="7.9863433"><ele>476.33333333333337</ele><time>2026-04-11T16:10:31.88Z</time></trkpt><trkpt lat="45.1174383" lon="7.986145"><ele>474.66666666666663</ele><time>2026-04-11T16:10:32.879Z</time></trkpt><trkpt lat="45.1173733" lon="7.98595"><ele>473.0</ele><time>2026-04-11T16:10:33.879Z</time></trkpt><trkpt lat="45.1172833" lon="7.9857667"><ele>473.0</ele><time>2026-04-11T16:10:34.88Z</time></trkpt><trkpt lat="45.1171717" lon="7.9856067"><ele>473.0</ele><time>2026-04-11T16:10:35.88Z</time></trkpt><trkpt lat="45.1170317" lon="7.98546"><ele>473.0</ele><time>2026-04-11T16:10:36.879Z</time></trkpt><trkpt lat="45.1168867" lon="7.9853633"><ele>473.0</ele><time>2026-04-11T16:10:37.879Z</time></trkpt><trkpt lat="45.1167617" lon="7.9852983"><ele>473.0</ele><time>2026-04-11T16:10:38.88Z</time></trkpt><trkpt lat="45.1166333" lon="7.98523"><ele>473.0</ele><time>2026-04-11T16:10:39.88Z</time></trkpt><trkpt lat="45.1165117" lon="7.9851583"><ele>473.0</ele><time>2026-04-11T16:10:40.879Z</time></trkpt><trkpt lat="45.1164067" lon="7.985055"><ele>470.0</ele><time>2026-04-11T16:10:41.88Z</time></trkpt><trkpt lat="45.1163217" lon="7.98491"><ele>467.0</ele><time>2026-04-11T16:10:42.88Z</time></trkpt><trkpt lat="45.1162133" lon="7.9847417"><ele>464.0</ele><time>2026-04-11T16:10:43.88Z</time></trkpt><trkpt lat="45.1160883" lon="7.984595"><ele>464.0</ele><time>2026-04-11T16:10:44.879Z</time></trkpt><trkpt lat="45.1159717" lon="7.9844467"><ele>464.0</ele><time>2026-04-11T16:10:45.879Z</time></trkpt><trkpt lat="45.1158533" lon="7.98431"><ele>464.0</ele><time>2026-04-11T16:10:46.879Z</time></trkpt><trkpt lat="45.1157533" lon="7.9841683"><ele>459.75</ele><time>2026-04-11T16:10:47.88Z</time></trkpt><trkpt lat="45.1156817" lon="7.9840167"><ele>455.5</ele><time>2026-04-11T16:10:48.879Z</time></trkpt><trkpt lat="45.1156383" lon="7.9838283"><ele>451.25</ele><time>2026-04-11T16:10:49.879Z</time></trkpt><trkpt lat="45.115615" lon="7.9836483"><ele>447.0</ele><time>2026-04-11T16:10:50.879Z</time></trkpt><trkpt lat="45.1156117" lon="7.9835083"><ele>447.0</ele><time>2026-04-11T16:10:51.88Z</time></trkpt><trkpt lat="45.1156383" lon="7.9833883"><ele>447.0</ele><time>2026-04-11T16:10:52.88Z</time></trkpt><trkpt lat="45.1156833" lon="7.9832817"><ele>447.0</ele><time>2026-04-11T16:10:53.879Z</time></trkpt><trkpt lat="45.1157417" lon="7.98321"><ele>447.0</ele><time>2026-04-11T16:10:54.88Z</time></trkpt><trkpt lat="45.11583" lon="7.9831817"><ele>447.0</ele><time>2026-04-11T16:10:55.88Z</time></trkpt><trkpt lat="45.115935" lon="7.983185"><ele>447.0</ele><time>2026-04-11T16:10:56.88Z</time></trkpt><trkpt lat="45.1160533" lon="7.9832233"><ele>449.5</ele><time>2026-04-11T16:10:57.879Z</time></trkpt><trkpt lat="45.1161867" lon="7.98326"><ele>452.0</ele><time>2026-04-11T16:10:58.879Z</time></trkpt><trkpt lat="45.11632" lon="7.98328"><ele>454.5</ele><time>2026-04-11T16:10:59.879Z</time></trkpt><trkpt lat="45.1164517" lon="7.9832633"><ele>457.0</ele><time>2026-04-11T16:11:00.879Z</time></trkpt><trkpt lat="45.1165733" lon="7.98319"><ele>460.0</ele><time>2026-04-11T16:11:01.88Z</time></trkpt><trkpt lat="45.116705" lon="7.9830683"><ele>463.0</ele><time>2026-04-11T16:11:02.88Z</time></trkpt><trkpt lat="45.1168133" lon="7.982935"><ele>466.0</ele><time>2026-04-11T16:11:03.879Z</time></trkpt><trkpt lat="45.1169117" lon="7.9827767"><ele>466.0</ele><time>2026-04-11T16:11:04.88Z</time></trkpt><trkpt lat="45.1170067" lon="7.982635"><ele>466.0</ele><time>2026-04-11T16:11:05.879Z</time></trkpt><trkpt lat="45.1170967" lon="7.9825217"><ele>466.0</ele><time>2026-04-11T16:11:06.879Z</time></trkpt><trkpt lat="45.1171717" lon="7.982435"><ele>466.0</ele><time>2026-04-11T16:11:07.88Z</time></trkpt><trkpt lat="45.11729" lon="7.9824067"><ele>466.25</ele><time>2026-04-11T16:11:08.879Z</time></trkpt><trkpt lat="45.117405" lon="7.9824217"><ele>466.5</ele><time>2026-04-11T16:11:09.88Z</time></trkpt><trkpt lat="45.1175317" lon="7.98248"><ele>466.75</ele><time>2026-04-11T16:11:10.879Z</time></trkpt><trkpt lat="45.11766" lon="7.9825583"><ele>467.0</ele><time>2026-04-11T16:11:11.879Z</time></trkpt><trkpt lat="45.11779" lon="7.982635"><ele>467.0</ele><time>2026-04-11T16:11:12.879Z</time></trkpt><trkpt lat="45.1178833" lon="7.9827167"><ele>467.00000000000006</ele><time>2026-04-11T16:11:13.879Z</time></trkpt><trkpt lat="45.1179533" lon="7.9828333"><ele>467.00000000000006</ele><time>2026-04-11T16:11:14.879Z</time></trkpt><trkpt lat="45.117995" lon="7.982975"><ele>467.0</ele><time>2026-04-11T16:11:15.879Z</time></trkpt><trkpt lat="45.1180183" lon="7.9831417"><ele>467.0</ele><time>2026-04-11T16:11:16.879Z</time></trkpt><trkpt lat="45.1180083" lon="7.98334"><ele>472.66666666666663</ele><time>2026-04-11T16:11:17.88Z</time></trkpt><trkpt lat="45.1180083" lon="7.9835783"><ele>478.33333333333337</ele><time>2026-04-11T16:11:18.88Z</time></trkpt><trkpt lat="45.1180267" lon="7.9838033"><ele>484.0</ele><time>2026-04-11T16:11:19.879Z</time></trkpt><trkpt lat="45.1180517" lon="7.98399"><ele>484.0</ele><time>2026-04-11T16:11:20.879Z</time></trkpt><trkpt lat="45.118095" lon="7.9841767"><ele>484.0</ele><time>2026-04-11T16:11:21.88Z</time></trkpt><trkpt lat="45.1181417" lon="7.9843217"><ele>484.0</ele><time>2026-04-11T16:11:22.879Z</time></trkpt><trkpt lat="45.118205" lon="7.9844383"><ele>484.0</ele><time>2026-04-11T16:11:23.879Z</time></trkpt><trkpt lat="45.11829" lon="7.9845233"><ele>478.5</ele><time>2026-04-11T16:11:24.879Z</time></trkpt><trkpt lat="45.1183983" lon="7.9845667"><ele>473.0</ele><time>2026-04-11T16:11:25.88Z</time></trkpt><trkpt lat="45.1185317" lon="7.98458"><ele>467.5</ele><time>2026-04-11T16:11:26.88Z</time></trkpt><trkpt lat="45.1186833" lon="7.98456"><ele>462.0</ele><time>2026-04-11T16:11:27.879Z</time></trkpt><trkpt lat="45.1188567" lon="7.9845467"><ele>462.0</ele><time>2026-04-11T16:11:28.879Z</time></trkpt><trkpt lat="45.1190183" lon="7.98452"><ele>462.0</ele><time>2026-04-11T16:11:29.88Z</time></trkpt><trkpt lat="45.119175" lon="7.9845233"><ele>462.0</ele><time>2026-04-11T16:11:30.88Z</time></trkpt><trkpt lat="45.1192983" lon="7.984505"><ele>462.0</ele><time>2026-04-11T16:11:31.88Z</time></trkpt><trkpt lat="45.119405" lon="7.9844717"><ele>455.20000000000005</ele><time>2026-04-11T16:11:32.879Z</time></trkpt><trkpt lat="45.1194733" lon="7.98441"><ele>448.40000000000003</ele><time>2026-04-11T16:11:33.88Z</time></trkpt><trkpt lat="45.1195667" lon="7.98431"><ele>441.59999999999997</ele><time>2026-04-11T16:11:34.88Z</time></trkpt><trkpt lat="45.1196317" lon="7.984185"><ele>434.79999999999995</ele><time>2026-04-11T16:11:35.88Z</time></trkpt><trkpt lat="45.1196867" lon="7.984045"><ele>428.0</ele><time>2026-04-11T16:11:36.879Z</time></trkpt><trkpt lat="45.1197433" lon="7.98388"><ele>424.25</ele><time>2026-04-11T16:11:37.88Z</time></trkpt><trkpt lat="45.1198017" lon="7.9836933"><ele>420.5</ele><time>2026-04-11T16:11:38.88Z</time></trkpt><trkpt lat="45.119875" lon="7.9835117"><ele>416.75</ele><time>2026-04-11T16:11:39.88Z</time></trkpt><trkpt lat="45.1199417" lon="7.983345"><ele>413.0</ele><time>2026-04-11T16:11:40.879Z</time></trkpt><trkpt lat="45.1200367" lon="7.9832067"><ele>411.0</ele><time>2026-04-11T16:11:41.879Z</time></trkpt><trkpt lat="45.12016" lon="7.983085"><ele>409.0</ele><time>2026-04-11T16:11:42.88Z</time></trkpt><trkpt lat="45.1202767" lon="7.9829767"><ele>407.0</ele><time>2026-04-11T16:11:43.88Z</time></trkpt><trkpt lat="45.1203967" lon="7.982885"><ele>405.0</ele><time>2026-04-11T16:11:44.88Z</time></trkpt><trkpt lat="45.12052" lon="7.9828183"><ele>405.0</ele><time>2026-04-11T16:11:45.879Z</time></trkpt><trkpt lat="45.1206417" lon="7.98278"><ele>405.0</ele><time>2026-04-11T16:11:46.88Z</time></trkpt><trkpt lat="45.1207717" lon="7.982765"><ele>405.0</ele><time>2026-04-11T16:11:47.879Z</time></trkpt><trkpt lat="45.1209083" lon="7.9827617"><ele>405.0</ele><time>2026-04-11T16:11:48.88Z</time></trkpt><trkpt lat="45.1210417" lon="7.9827867"><ele>402.5</ele><time>2026-04-11T16:11:49.879Z</time></trkpt><trkpt lat="45.1211717" lon="7.9828133"><ele>400.0</ele><time>2026-04-11T16:11:50.88Z</time></trkpt><trkpt lat="45.12131" lon="7.98282"><ele>397.5</ele><time>2026-04-11T16:11:51.88Z</time></trkpt><trkpt lat="45.1214567" lon="7.9828083"><ele>395.0</ele><time>2026-04-11T16:11:52.879Z</time></trkpt><trkpt lat="45.1215867" lon="7.982735"><ele>392.0</ele><time>2026-04-11T16:11:53.879Z</time></trkpt><trkpt lat="45.1216883" lon="7.9826567"><ele>389.0</ele><time>2026-04-11T16:11:54.879Z</time></trkpt><trkpt lat="45.1217983" lon="7.9825483"><ele>386.0</ele><time>2026-04-11T16:11:55.879Z</time></trkpt><trkpt lat="45.1218967" lon="7.9824233"><ele>383.0</ele><time>2026-04-11T16:11:56.88Z</time></trkpt><trkpt lat="45.1219867" lon="7.9822767"><ele>383.0</ele><time>2026-04-11T16:11:57.879Z</time></trkpt><trkpt lat="45.122065" lon="7.9821067"><ele>383.0</ele><time>2026-04-11T16:11:58.879Z</time></trkpt><trkpt lat="45.1221117" lon="7.9819183"><ele>383.0</ele><time>2026-04-11T16:11:59.88Z</time></trkpt><trkpt lat="45.12216" lon="7.9817467"><ele>383.0</ele><time>2026-04-11T16:12:00.88Z</time></trkpt><trkpt lat="45.1222" lon="7.981605"><ele>382.59999999999997</ele><time>2026-04-11T16:12:01.88Z</time></trkpt><trkpt lat="45.1222533" lon="7.9814967"><ele>382.2</ele><time>2026-04-11T16:12:02.88Z</time></trkpt><trkpt lat="45.1223167" lon="7.9813833"><ele>381.8</ele><time>2026-04-11T16:12:03.879Z</time></trkpt><trkpt lat="45.1224017" lon="7.981285"><ele>381.4</ele><time>2026-04-11T16:12:04.879Z</time></trkpt><trkpt lat="45.1225" lon="7.981185"><ele>381.0</ele><time>2026-04-11T16:12:05.88Z</time></trkpt><trkpt lat="45.1226067" lon="7.9810883"><ele>382.0</ele><time>2026-04-11T16:12:06.879Z</time></trkpt><trkpt lat="45.122725" lon="7.9809833"><ele>383.0</ele><time>2026-04-11T16:12:07.88Z</time></trkpt><trkpt lat="45.1228417" lon="7.9808917"><ele>384.0</ele><time>2026-04-11T16:12:08.879Z</time></trkpt><trkpt lat="45.1229717" lon="7.9807783"><ele>385.0</ele><time>2026-04-11T16:12:09.88Z</time></trkpt><trkpt lat="45.1231067" lon="7.9806967"><ele>389.6666666666667</ele><time>2026-04-11T16:12:10.879Z</time></trkpt><trkpt lat="45.1232433" lon="7.9806233"><ele>394.33333333333337</ele><time>2026-04-11T16:12:11.879Z</time></trkpt><trkpt lat="45.1233833" lon="7.980555"><ele>399.0</ele><time>2026-04-11T16:12:12.88Z</time></trkpt><trkpt lat="45.12354" lon="7.9804867"><ele>399.0</ele><time>2026-04-11T16:12:13.879Z</time></trkpt><trkpt lat="45.1236867" lon="7.9804017"><ele>399.0</ele><time>2026-04-11T16:12:14.88Z</time></trkpt><trkpt lat="45.123835" lon="7.9803167"><ele>399.0</ele><time>2026-04-11T16:12:15.88Z</time></trkpt><trkpt lat="45.1239783" lon="7.980225"><ele>399.25</ele><time>2026-04-11T16:12:16.879Z</time></trkpt><trkpt lat="45.1241167" lon="7.98012"><ele>399.5</ele><time>2026-04-11T16:12:17.88Z</time></trkpt><trkpt lat="45.12424" lon="7.97999"><ele>399.75</ele><time>2026-04-11T16:12:18.88Z</time></trkpt><trkpt lat="45.1243433" lon="7.9798683"><ele>400.0</ele><time>2026-04-11T16:12:19.879Z</time></trkpt><trkpt lat="45.124455" lon="7.97976"><ele>400.0</ele><time>2026-04-11T16:12:20.88Z</time></trkpt><trkpt lat="45.1245817" lon="7.9796983"><ele>400.0</ele><time>2026-04-11T16:12:21.88Z</time></trkpt><trkpt lat="45.1247083" lon="7.97964"><ele>400.0</ele><time>2026-04-11T16:12:22.879Z</time></trkpt><trkpt lat="45.1248483" lon="7.9795717"><ele>400.0</ele><time>2026-04-11T16:12:23.879Z</time></trkpt><trkpt lat="45.1249833" lon="7.9794783"><ele>399.6666666666667</ele><time>2026-04-11T16:12:24.88Z</time></trkpt><trkpt lat="45.1251233" lon="7.9793817"><ele>399.33333333333337</ele><time>2026-04-11T16:12:25.88Z</time></trkpt><trkpt lat="45.1252733" lon="7.9793117"><ele>399.0</ele><time>2026-04-11T16:12:26.88Z</time></trkpt><trkpt lat="45.125425" lon="7.979245"><ele>399.0</ele><time>2026-04-11T16:12:27.88Z</time></trkpt><trkpt lat="45.1255817" lon="7.979185"><ele>399.0</ele><time>2026-04-11T16:12:28.88Z</time></trkpt><trkpt lat="45.1257417" lon="7.9791267"><ele>399.0</ele><time>2026-04-11T16:12:29.879Z</time></trkpt><trkpt lat="45.1259033" lon="7.9790917"><ele>392.3333333333333</ele><time>2026-04-11T16:12:30.879Z</time></trkpt><trkpt lat="45.1260633" lon="7.9790817"><ele>385.66666666666663</ele><time>2026-04-11T16:12:31.879Z</time></trkpt><trkpt lat="45.1262117" lon="7.979115"><ele>379.0</ele><time>2026-04-11T16:12:32.879Z</time></trkpt><trkpt lat="45.1263667" lon="7.9791983"><ele>376.5</ele><time>2026-04-11T16:12:33.879Z</time></trkpt><trkpt lat="45.1265133" lon="7.9792767"><ele>374.0</ele><time>2026-04-11T16:12:34.879Z</time></trkpt><trkpt lat="45.12665" lon="7.9793417"><ele>371.5</ele><time>2026-04-11T16:12:35.88Z</time></trkpt><trkpt lat="45.12678" lon="7.9793767"><ele>369.0</ele><time>2026-04-11T16:12:36.879Z</time></trkpt><trkpt lat="45.1269217" lon="7.9793683"><ele>368.25</ele><time>2026-04-11T16:12:37.88Z</time></trkpt><trkpt lat="45.1270567" lon="7.9793167"><ele>367.5</ele><time>2026-04-11T16:12:38.879Z</time></trkpt><trkpt lat="45.127165" lon="7.979215"><ele>366.75</ele><time>2026-04-11T16:12:39.88Z</time></trkpt><trkpt lat="45.1272267" lon="7.9790333"><ele>366.0</ele><time>2026-04-11T16:12:40.88Z</time></trkpt><trkpt lat="45.127265" lon="7.9788633"><ele>364.0</ele><time>2026-04-11T16:12:41.879Z</time></trkpt><trkpt lat="45.12724" lon="7.97865"><ele>362.0</ele><time>2026-04-11T16:12:42.879Z</time></trkpt><trkpt lat="45.127235" lon="7.9784383"><ele>360.0</ele><time>2026-04-11T16:12:43.88Z</time></trkpt><trkpt lat="45.1272333" lon="7.97821"><ele>360.0</ele><time>2026-04-11T16:12:44.879Z</time></trkpt><trkpt lat="45.12724" lon="7.9779867"><ele>360.0</ele><time>2026-04-11T16:12:45.879Z</time></trkpt><trkpt lat="45.1272483" lon="7.9777567"><ele>360.0</ele><time>2026-04-11T16:12:46.879Z</time></trkpt><trkpt lat="45.127275" lon="7.97754"><ele>357.5</ele><time>2026-04-11T16:12:47.88Z</time></trkpt><trkpt lat="45.1272967" lon="7.9773417"><ele>355.0</ele><time>2026-04-11T16:12:48.88Z</time></trkpt><trkpt lat="45.1272667" lon="7.977145"><ele>352.5</ele><time>2026-04-11T16:12:49.88Z</time></trkpt><trkpt lat="45.1272233" lon="7.9769483"><ele>350.0</ele><time>2026-04-11T16:12:50.879Z</time></trkpt><trkpt lat="45.12721" lon="7.9767733"><ele>350.8</ele><time>2026-04-11T16:12:51.88Z</time></trkpt><trkpt lat="45.1272083" lon="7.9766133"><ele>351.6</ele><time>2026-04-11T16:12:52.879Z</time></trkpt><trkpt lat="45.1272517" lon="7.9765067"><ele>352.4</ele><time>2026-04-11T16:12:53.879Z</time></trkpt><trkpt lat="45.1273167" lon="7.9764567"><ele>353.2</ele><time>2026-04-11T16:12:54.879Z</time></trkpt><trkpt lat="45.1273933" lon="7.9764467"><ele>354.0</ele><time>2026-04-11T16:12:55.88Z</time></trkpt><trkpt lat="45.1275017" lon="7.9764783"><ele>360.5</ele><time>2026-04-11T16:12:56.88Z</time></trkpt><trkpt lat="45.1276233" lon="7.9764733"><ele>367.0</ele><time>2026-04-11T16:12:57.88Z</time></trkpt><trkpt lat="45.12774" lon="7.9764133"><ele>373.5</ele><time>2026-04-11T16:12:58.88Z</time></trkpt><trkpt lat="45.1278517" lon="7.97635"><ele>380.0</ele><time>2026-04-11T16:12:59.879Z</time></trkpt><trkpt lat="45.1279667" lon="7.976305"><ele>380.0</ele><time>2026-04-11T16:13:00.879Z</time></trkpt><trkpt lat="45.128085" lon="7.9763033"><ele>380.0</ele><time>2026-04-11T16:13:01.88Z</time></trkpt><trkpt lat="45.1282133" lon="7.97632"><ele>380.0</ele><time>2026-04-11T16:13:02.879Z</time></trkpt><trkpt lat="45.128345" lon="7.97631"><ele>380.0</ele><time>2026-04-11T16:13:03.88Z</time></trkpt><trkpt lat="45.1284633" lon="7.9762433"><ele>381.75</ele><time>2026-04-11T16:13:04.879Z</time></trkpt><trkpt lat="45.128575" lon="7.9761217"><ele>383.5</ele><time>2026-04-11T16:13:05.88Z</time></trkpt><trkpt lat="45.128665" lon="7.9759883"><ele>385.25</ele><time>2026-04-11T16:13:06.879Z</time></trkpt><trkpt lat="45.128745" lon="7.97586"><ele>387.0</ele><time>2026-04-11T16:13:07.88Z</time></trkpt><trkpt lat="45.1288033" lon="7.9757233"><ele>382.20000000000005</ele><time>2026-04-11T16:13:08.879Z</time></trkpt><trkpt lat="45.128845" lon="7.9755967"><ele>377.4</ele><time>2026-04-11T16:13:09.88Z</time></trkpt><trkpt lat="45.1288633" lon="7.9754683"><ele>372.6</ele><time>2026-04-11T16:13:10.88Z</time></trkpt><trkpt lat="45.1288617" lon="7.9753467"><ele>367.79999999999995</ele><time>2026-04-11T16:13:11.879Z</time></trkpt><trkpt lat="45.1288217" lon="7.9752283"><ele>363.0</ele><time>2026-04-11T16:13:12.879Z</time></trkpt><trkpt lat="45.1287417" lon="7.9750933"><ele>361.0</ele><time>2026-04-11T16:13:13.879Z</time></trkpt><trkpt lat="45.1286317" lon="7.97493"><ele>359.0</ele><time>2026-04-11T16:13:14.88Z</time></trkpt><trkpt lat="45.1285583" lon="7.9747633"><ele>357.0</ele><time>2026-04-11T16:13:15.88Z</time></trkpt><trkpt lat="45.1285083" lon="7.9745833"><ele>355.0</ele><time>2026-04-11T16:13:16.879Z</time></trkpt><trkpt lat="45.1285183" lon="7.9744183"><ele>355.0</ele><time>2026-04-11T16:13:17.88Z</time></trkpt><trkpt lat="45.1285617" lon="7.9742533"><ele>355.0</ele><time>2026-04-11T16:13:18.88Z</time></trkpt><trkpt lat="45.1285917" lon="7.9740517"><ele>355.0</ele><time>2026-04-11T16:13:19.879Z</time></trkpt><trkpt lat="45.1286083" lon="7.9738517"><ele>355.0</ele><time>2026-04-11T16:13:20.88Z</time></trkpt><trkpt lat="45.12863" lon="7.9736633"><ele>353.2</ele><time>2026-04-11T16:13:21.88Z</time></trkpt><trkpt lat="45.128645" lon="7.9734917"><ele>351.4</ele><time>2026-04-11T16:13:22.879Z</time></trkpt><trkpt lat="45.1286767" lon="7.9733567"><ele>349.6</ele><time>2026-04-11T16:13:23.879Z</time></trkpt><trkpt lat="45.1287117" lon="7.973245"><ele>347.8</ele><time>2026-04-11T16:13:24.88Z</time></trkpt><trkpt lat="45.128745" lon="7.973135"><ele>346.0</ele><time>2026-04-11T16:13:25.879Z</time></trkpt><trkpt lat="45.12881" lon="7.97306"><ele>345.0</ele><time>2026-04-11T16:13:26.88Z</time></trkpt><trkpt lat="45.1288917" lon="7.973025"><ele>344.0</ele><time>2026-04-11T16:13:27.879Z</time></trkpt><trkpt lat="45.1290083" lon="7.9730133"><ele>343.0</ele><time>2026-04-11T16:13:28.88Z</time></trkpt><trkpt lat="45.1291283" lon="7.9729817"><ele>342.0</ele><time>2026-04-11T16:13:29.88Z</time></trkpt><trkpt lat="45.1292233" lon="7.972875"><ele>341.0</ele><time>2026-04-11T16:13:30.88Z</time></trkpt><trkpt lat="45.1293067" lon="7.9727317"><ele>341.0</ele><time>2026-04-11T16:13:31.879Z</time></trkpt><trkpt lat="45.1293983" lon="7.9725717"><ele>341.0</ele><time>2026-04-11T16:13:32.879Z</time></trkpt><trkpt lat="45.1294917" lon="7.9724067"><ele>341.0</ele><time>2026-04-11T16:13:33.879Z</time></trkpt><trkpt lat="45.1295783" lon="7.972245"><ele>341.0</ele><time>2026-04-11T16:13:34.88Z</time></trkpt><trkpt lat="45.1296483" lon="7.9720917"><ele>341.0</ele><time>2026-04-11T16:13:35.879Z</time></trkpt><trkpt lat="45.1296967" lon="7.9719383"><ele>341.0</ele><time>2026-04-11T16:13:36.88Z</time></trkpt><trkpt lat="45.1297283" lon="7.971795"><ele>341.0</ele><time>2026-04-11T16:13:37.879Z</time></trkpt><trkpt lat="45.1297217" lon="7.9716467"><ele>341.0</ele><time>2026-04-11T16:13:38.879Z</time></trkpt><trkpt lat="45.1297017" lon="7.97149"><ele>341.0</ele><time>2026-04-11T16:13:39.88Z</time></trkpt><trkpt lat="45.1296867" lon="7.9713267"><ele>337.0</ele><time>2026-04-11T16:13:40.879Z</time></trkpt><trkpt lat="45.1297" lon="7.971155"><ele>333.0</ele><time>2026-04-11T16:13:41.879Z</time></trkpt><trkpt lat="45.12971" lon="7.9709783"><ele>329.0</ele><time>2026-04-11T16:13:42.88Z</time></trkpt><trkpt lat="45.12974" lon="7.9708167"><ele>325.0</ele><time>2026-04-11T16:13:43.879Z</time></trkpt><trkpt lat="45.1297983" lon="7.9706717"><ele>325.5</ele><time>2026-04-11T16:13:44.88Z</time></trkpt><trkpt lat="45.1298733" lon="7.9705583"><ele>326.0</ele><time>2026-04-11T16:13:45.879Z</time></trkpt><trkpt lat="45.1299333" lon="7.97042"><ele>326.5</ele><time>2026-04-11T16:13:46.879Z</time></trkpt><trkpt lat="45.1299633" lon="7.970265"><ele>327.0</ele><time>2026-04-11T16:13:47.88Z</time></trkpt><trkpt lat="45.12997" lon="7.9700817"><ele>324.3333333333333</ele><time>2026-04-11T16:13:48.88Z</time></trkpt><trkpt lat="45.1299517" lon="7.9698883"><ele>321.66666666666663</ele><time>2026-04-11T16:13:49.879Z</time></trkpt><trkpt lat="45.12992" lon="7.969665"><ele>319.0</ele><time>2026-04-11T16:13:50.88Z</time></trkpt><trkpt lat="45.129885" lon="7.9694433"><ele>317.0</ele><time>2026-04-11T16:13:51.879Z</time></trkpt><trkpt lat="45.1298633" lon="7.9692133"><ele>315.0</ele><time>2026-04-11T16:13:52.88Z</time></trkpt><trkpt lat="45.1298633" lon="7.969005"><ele>313.0</ele><time>2026-04-11T16:13:53.879Z</time></trkpt><trkpt lat="45.129895" lon="7.9688"><ele>312.0</ele><time>2026-04-11T16:13:54.879Z</time></trkpt><trkpt lat="45.1299317" lon="7.9686033"><ele>311.0</ele><time>2026-04-11T16:13:55.879Z</time></trkpt><trkpt lat="45.1299933" lon="7.968415"><ele>310.0</ele><time>2026-04-11T16:13:56.88Z</time></trkpt><trkpt lat="45.1300517" lon="7.9682167"><ele>309.0</ele><time>2026-04-11T16:13:57.88Z</time></trkpt><trkpt lat="45.130105" lon="7.96801"><ele>308.6666666666667</ele><time>2026-04-11T16:13:58.879Z</time></trkpt><trkpt lat="45.130165" lon="7.9677867"><ele>308.33333333333337</ele><time>2026-04-11T16:13:59.879Z</time></trkpt><trkpt lat="45.1302133" lon="7.9676017"><ele>308.0</ele><time>2026-04-11T16:14:00.879Z</time></trkpt><trkpt lat="45.1302467" lon="7.9673883"><ele>305.0</ele><time>2026-04-11T16:14:01.879Z</time></trkpt><trkpt lat="45.1302583" lon="7.9671567"><ele>302.0</ele><time>2026-04-11T16:14:02.879Z</time></trkpt><trkpt lat="45.1302583" lon="7.9669383"><ele>299.0</ele><time>2026-04-11T16:14:03.879Z</time></trkpt><trkpt lat="45.130255" lon="7.9667183"><ele>295.33333333333337</ele><time>2026-04-11T16:14:04.879Z</time></trkpt><trkpt lat="45.1302717" lon="7.9664833"><ele>291.6666666666667</ele><time>2026-04-11T16:14:05.879Z</time></trkpt><trkpt lat="45.1303133" lon="7.9662367"><ele>288.0</ele><time>2026-04-11T16:14:06.88Z</time></trkpt><trkpt lat="45.1303483" lon="7.9659983"><ele>284.0</ele><time>2026-04-11T16:14:07.879Z</time></trkpt><trkpt lat="45.130385" lon="7.9657833"><ele>280.0</ele><time>2026-04-11T16:14:08.879Z</time></trkpt><trkpt lat="45.1304233" lon="7.96557"><ele>276.0</ele><time>2026-04-11T16:14:09.879Z</time></trkpt><trkpt lat="45.1304683" lon="7.9653567"><ele>276.0</ele><time>2026-04-11T16:14:10.88Z</time></trkpt><trkpt lat="45.1305117" lon="7.96514"><ele>276.0</ele><time>2026-04-11T16:14:11.879Z</time></trkpt><trkpt lat="45.13056" lon="7.9649217"><ele>276.0</ele><time>2026-04-11T16:14:12.88Z</time></trkpt><trkpt lat="45.1306017" lon="7.96471"><ele>273.0</ele><time>2026-04-11T16:14:13.879Z</time></trkpt><trkpt lat="45.1306517" lon="7.9645033"><ele>270.0</ele><time>2026-04-11T16:14:14.879Z</time></trkpt><trkpt lat="45.1307033" lon="7.964305"><ele>267.0</ele><time>2026-04-11T16:14:15.879Z</time></trkpt><trkpt lat="45.1307467" lon="7.9640933"><ele>267.0</ele><time>2026-04-11T16:14:16.879Z</time></trkpt><trkpt lat="45.130795" lon="7.963895"><ele>267.0</ele><time>2026-04-11T16:14:17.879Z</time></trkpt><trkpt lat="45.1308467" lon="7.963705"><ele>267.0</ele><time>2026-04-11T16:14:18.88Z</time></trkpt><trkpt lat="45.1309" lon="7.9635167"><ele>267.0</ele><time>2026-04-11T16:14:19.879Z</time></trkpt><trkpt lat="45.130945" lon="7.96333"><ele>265.5</ele><time>2026-04-11T16:14:20.88Z</time></trkpt><trkpt lat="45.1309733" lon="7.9631433"><ele>264.0</ele><time>2026-04-11T16:14:21.879Z</time></trkpt><trkpt lat="45.1309733" lon="7.9629467"><ele>262.5</ele><time>2026-04-11T16:14:22.88Z</time></trkpt><trkpt lat="45.1309267" lon="7.9627567"><ele>261.0</ele><time>2026-04-11T16:14:23.88Z</time></trkpt><trkpt lat="45.13084" lon="7.9625467"><ele>259.0</ele><time>2026-04-11T16:14:24.88Z</time></trkpt><trkpt lat="45.13076" lon="7.9623283"><ele>257.0</ele><time>2026-04-11T16:14:25.879Z</time></trkpt><trkpt lat="45.130695" lon="7.9621083"><ele>255.0</ele><time>2026-04-11T16:14:26.879Z</time></trkpt><trkpt lat="45.1306317" lon="7.9619"><ele>249.33333333333331</ele><time>2026-04-11T16:14:27.879Z</time></trkpt><trkpt lat="45.13057" lon="7.9616767"><ele>243.66666666666666</ele><time>2026-04-11T16:14:28.88Z</time></trkpt><trkpt lat="45.1305017" lon="7.9614783"><ele>238.0</ele><time>2026-04-11T16:14:29.879Z</time></trkpt><trkpt lat="45.1304567" lon="7.9612933"><ele>238.0</ele><time>2026-04-11T16:14:30.879Z</time></trkpt><trkpt lat="45.1304" lon="7.9610967"><ele>238.0</ele><time>2026-04-11T16:14:31.879Z</time></trkpt><trkpt lat="45.13037" lon="7.9608917"><ele>238.0</ele><time>2026-04-11T16:14:32.879Z</time></trkpt><trkpt lat="45.130355" lon="7.96068"><ele>238.0</ele><time>2026-04-11T16:14:33.879Z</time></trkpt><trkpt lat="45.1303617" lon="7.960455"><ele>237.0</ele><time>2026-04-11T16:14:34.879Z</time></trkpt><trkpt lat="45.1303817" lon="7.9602167"><ele>236.0</ele><time>2026-04-11T16:14:35.88Z</time></trkpt><trkpt lat="45.1303967" lon="7.9599967"><ele>235.0</ele><time>2026-04-11T16:14:36.88Z</time></trkpt><trkpt lat="45.1304117" lon="7.9597933"><ele>234.0</ele><time>2026-04-11T16:14:37.88Z</time></trkpt><trkpt lat="45.1304167" lon="7.9596"><ele>233.0</ele><time>2026-04-11T16:14:38.879Z</time></trkpt><trkpt lat="45.1304167" lon="7.9593917"><ele>232.0</ele><time>2026-04-11T16:14:39.879Z</time></trkpt><trkpt lat="45.130405" lon="7.9591817"><ele>231.0</ele><time>2026-04-11T16:14:40.88Z</time></trkpt><trkpt lat="45.1304017" lon="7.9589783"><ele>229.0</ele><time>2026-04-11T16:14:41.879Z</time></trkpt><trkpt lat="45.1304167" lon="7.9587683"><ele>227.0</ele><time>2026-04-11T16:14:42.879Z</time></trkpt><trkpt lat="45.1304467" lon="7.9585467"><ele>225.0</ele><time>2026-04-11T16:14:43.88Z</time></trkpt><trkpt lat="45.1304767" lon="7.9583283"><ele>223.0</ele><time>2026-04-11T16:14:44.879Z</time></trkpt><trkpt lat="45.1305" lon="7.9580933"><ele>221.0</ele><time>2026-04-11T16:14:45.879Z</time></trkpt><trkpt lat="45.1304983" lon="7.9578583"><ele>219.0</ele><time>2026-04-11T16:14:46.88Z</time></trkpt><trkpt lat="45.1304783" lon="7.9576433"><ele>218.0</ele><time>2026-04-11T16:14:47.88Z</time></trkpt><trkpt lat="45.13045" lon="7.95743"><ele>217.0</ele><time>2026-04-11T16:14:48.879Z</time></trkpt><trkpt lat="45.1304117" lon="7.9572117"><ele>216.0</ele><time>2026-04-11T16:14:49.879Z</time></trkpt><trkpt lat="45.1303733" lon="7.95699"><ele>216.0</ele><time>2026-04-11T16:14:50.879Z</time></trkpt><trkpt lat="45.1303433" lon="7.95678"><ele>216.0</ele><time>2026-04-11T16:14:51.88Z</time></trkpt><trkpt lat="45.1303167" lon="7.9565667"><ele>216.0</ele><time>2026-04-11T16:14:52.88Z</time></trkpt><trkpt lat="45.1302833" lon="7.9563567"><ele>215.75</ele><time>2026-04-11T16:14:53.879Z</time></trkpt><trkpt lat="45.1302583" lon="7.9561467"><ele>215.5</ele><time>2026-04-11T16:14:54.88Z</time></trkpt><trkpt lat="45.1302333" lon="7.9559417"><ele>215.25</ele><time>2026-04-11T16:14:55.88Z</time></trkpt><trkpt lat="45.130235" lon="7.95576"><ele>215.0</ele><time>2026-04-11T16:14:56.879Z</time></trkpt><trkpt lat="45.1302717" lon="7.9555917"><ele>215.0</ele><time>2026-04-11T16:14:57.879Z</time></trkpt><trkpt lat="45.1303517" lon="7.9554633"><ele>215.0</ele><time>2026-04-11T16:14:58.879Z</time></trkpt><trkpt lat="45.1304533" lon="7.95538"><ele>215.0</ele><time>2026-04-11T16:14:59.88Z</time></trkpt><trkpt lat="45.1305517" lon="7.955285"><ele>215.0</ele><time>2026-04-11T16:15:00.88Z</time></trkpt><trkpt lat="45.13062" lon="7.9551683"><ele>214.5</ele><time>2026-04-11T16:15:01.879Z</time></trkpt><trkpt lat="45.1306433" lon="7.9550333"><ele>214.0</ele><time>2026-04-11T16:15:02.879Z</time></trkpt><trkpt lat="45.1306483" lon="7.9548767"><ele>213.5</ele><time>2026-04-11T16:15:03.879Z</time></trkpt><trkpt lat="45.13064" lon="7.9546933"><ele>213.0</ele><time>2026-04-11T16:15:04.88Z</time></trkpt><trkpt lat="45.130625" lon="7.95451"><ele>213.0</ele><time>2026-04-11T16:15:05.879Z</time></trkpt><trkpt lat="45.130605" lon="7.9543067"><ele>213.0</ele><time>2026-04-11T16:15:06.879Z</time></trkpt><trkpt lat="45.130545" lon="7.9541117"><ele>213.0</ele><time>2026-04-11T16:15:07.88Z</time></trkpt><trkpt lat="45.1304767" lon="7.9539133"><ele>213.33333333333331</ele><time>2026-04-11T16:15:08.879Z</time></trkpt><trkpt lat="45.1304167" lon="7.9537"><ele>213.66666666666666</ele><time>2026-04-11T16:15:09.879Z</time></trkpt><trkpt lat="45.13038" lon="7.953475"><ele>214.0</ele><time>2026-04-11T16:15:10.879Z</time></trkpt><trkpt lat="45.1303483" lon="7.9532483"><ele>215.33333333333331</ele><time>2026-04-11T16:15:11.879Z</time></trkpt><trkpt lat="45.13031" lon="7.953025"><ele>216.66666666666669</ele><time>2026-04-11T16:15:12.879Z</time></trkpt><trkpt lat="45.1302567" lon="7.952805"><ele>218.0</ele><time>2026-04-11T16:15:13.879Z</time></trkpt><trkpt lat="45.1302017" lon="7.9525967"><ele>218.75</ele><time>2026-04-11T16:15:14.879Z</time></trkpt><trkpt lat="45.1301333" lon="7.95241"><ele>219.5</ele><time>2026-04-11T16:15:15.88Z</time></trkpt><trkpt lat="45.1300717" lon="7.9522283"><ele>220.25</ele><time>2026-04-11T16:15:16.88Z</time></trkpt><trkpt lat="45.1300133" lon="7.952035"><ele>221.0</ele><time>2026-04-11T16:15:17.879Z</time></trkpt><trkpt lat="45.12997" lon="7.9518317"><ele>221.33333333333334</ele><time>2026-04-11T16:15:18.879Z</time></trkpt><trkpt lat="45.1299383" lon="7.951625"><ele>221.66666666666669</ele><time>2026-04-11T16:15:19.879Z</time></trkpt><trkpt lat="45.12992" lon="7.9514183"><ele>222.0</ele><time>2026-04-11T16:15:20.88Z</time></trkpt><trkpt lat="45.129915" lon="7.9511967"><ele>222.0</ele><time>2026-04-11T16:15:21.88Z</time></trkpt><trkpt lat="45.1299317" lon="7.9509583"><ele>222.0</ele><time>2026-04-11T16:15:22.879Z</time></trkpt><trkpt lat="45.1299733" lon="7.9507417"><ele>222.0</ele><time>2026-04-11T16:15:23.88Z</time></trkpt><trkpt lat="45.1300167" lon="7.95053"><ele>220.5</ele><time>2026-04-11T16:15:24.879Z</time></trkpt><trkpt lat="45.130045" lon="7.9503417"><ele>219.0</ele><time>2026-04-11T16:15:25.88Z</time></trkpt><trkpt lat="45.13007" lon="7.9501633"><ele>217.5</ele><time>2026-04-11T16:15:26.88Z</time></trkpt><trkpt lat="45.1300617" lon="7.9499933"><ele>216.0</ele><time>2026-04-11T16:15:27.879Z</time></trkpt><trkpt lat="45.1300283" lon="7.9498367"><ele>214.25</ele><time>2026-04-11T16:15:28.879Z</time></trkpt><trkpt lat="45.1299917" lon="7.94969"><ele>212.5</ele><time>2026-04-11T16:15:29.88Z</time></trkpt><trkpt lat="45.1299417" lon="7.9495367"><ele>210.75</ele><time>2026-04-11T16:15:30.879Z</time></trkpt><trkpt lat="45.1298717" lon="7.94938"><ele>209.0</ele><time>2026-04-11T16:15:31.879Z</time></trkpt><trkpt lat="45.1297983" lon="7.9492267"><ele>207.75</ele><time>2026-04-11T16:15:32.879Z</time></trkpt><trkpt lat="45.1297167" lon="7.9490633"><ele>206.5</ele><time>2026-04-11T16:15:33.88Z</time></trkpt><trkpt lat="45.12961" lon="7.9489083"><ele>205.25</ele><time>2026-04-11T16:15:34.88Z</time></trkpt><trkpt lat="45.1295033" lon="7.9487517"><ele>204.0</ele><time>2026-04-11T16:15:35.879Z</time></trkpt><trkpt lat="45.1293967" lon="7.9485667"><ele>204.66666666666669</ele><time>2026-04-11T16:15:36.879Z</time></trkpt><trkpt lat="45.129295" lon="7.948375"><ele>205.33333333333334</ele><time>2026-04-11T16:15:37.88Z</time></trkpt><trkpt lat="45.1292033" lon="7.9481883"><ele>206.0</ele><time>2026-04-11T16:15:38.879Z</time></trkpt><trkpt lat="45.1291167" lon="7.9480017"><ele>205.66666666666669</ele><time>2026-04-11T16:15:39.88Z</time></trkpt><trkpt lat="45.1290467" lon="7.9478117"><ele>205.33333333333331</ele><time>2026-04-11T16:15:40.879Z</time></trkpt><trkpt lat="45.1289833" lon="7.9476033"><ele>205.0</ele><time>2026-04-11T16:15:41.879Z</time></trkpt><trkpt lat="45.1289333" lon="7.947395"><ele>206.0</ele><time>2026-04-11T16:15:42.879Z</time></trkpt><trkpt lat="45.1288983" lon="7.9471717"><ele>207.0</ele><time>2026-04-11T16:15:43.88Z</time></trkpt><trkpt lat="45.12886" lon="7.9469517"><ele>208.0</ele><time>2026-04-11T16:15:44.879Z</time></trkpt><trkpt lat="45.128815" lon="7.9467433"><ele>207.0</ele><time>2026-04-11T16:15:45.88Z</time></trkpt><trkpt lat="45.128775" lon="7.9465367"><ele>206.0</ele><time>2026-04-11T16:15:46.879Z</time></trkpt><trkpt lat="45.12874" lon="7.9463217"><ele>205.0</ele><time>2026-04-11T16:15:47.879Z</time></trkpt><trkpt lat="45.1287" lon="7.9461233"><ele>205.0</ele><time>2026-04-11T16:15:48.879Z</time></trkpt><trkpt lat="45.1286683" lon="7.945945"><ele>205.0</ele><time>2026-04-11T16:15:49.879Z</time></trkpt><trkpt lat="45.1286333" lon="7.9457817"><ele>205.0</ele><time>2026-04-11T16:15:50.88Z</time></trkpt><trkpt lat="45.128605" lon="7.94564"><ele>205.0</ele><time>2026-04-11T16:15:51.879Z</time></trkpt><trkpt lat="45.1285767" lon="7.9455183"><ele>205.0</ele><time>2026-04-11T16:15:52.879Z</time></trkpt><trkpt lat="45.1285717" lon="7.9454117"><ele>205.2</ele><time>2026-04-11T16:15:53.88Z</time></trkpt><trkpt lat="45.1285817" lon="7.94531"><ele>205.4</ele><time>2026-04-11T16:15:54.88Z</time></trkpt><trkpt lat="45.1286033" lon="7.945195"><ele>205.60000000000002</ele><time>2026-04-11T16:15:55.879Z</time></trkpt><trkpt lat="45.1286417" lon="7.94506"><ele>205.8</ele><time>2026-04-11T16:15:56.879Z</time></trkpt><trkpt lat="45.1286917" lon="7.9449033"><ele>206.0</ele><time>2026-04-11T16:15:57.88Z</time></trkpt><trkpt lat="45.1287517" lon="7.9447433"><ele>206.25</ele><time>2026-04-11T16:15:58.879Z</time></trkpt><trkpt lat="45.12881" lon="7.9445767"><ele>206.5</ele><time>2026-04-11T16:15:59.879Z</time></trkpt><trkpt lat="45.12888" lon="7.94441"><ele>206.75</ele><time>2026-04-11T16:16:00.879Z</time></trkpt><trkpt lat="45.1289283" lon="7.9442267"><ele>207.0</ele><time>2026-04-11T16:16:01.879Z</time></trkpt><trkpt lat="45.128985" lon="7.9440517"><ele>207.25</ele><time>2026-04-11T16:16:02.88Z</time></trkpt><trkpt lat="45.1290333" lon="7.943885"><ele>207.5</ele><time>2026-04-11T16:16:03.879Z</time></trkpt><trkpt lat="45.1290867" lon="7.943715"><ele>207.75</ele><time>2026-04-11T16:16:04.88Z</time></trkpt><trkpt lat="45.1291467" lon="7.943585"><ele>208.0</ele><time>2026-04-11T16:16:05.879Z</time></trkpt><trkpt lat="45.1291967" lon="7.94344"><ele>207.99999999999997</ele><time>2026-04-11T16:16:06.879Z</time></trkpt><trkpt lat="45.1292483" lon="7.94332"><ele>208.0</ele><time>2026-04-11T16:16:07.879Z</time></trkpt><trkpt lat="45.129305" lon="7.9432317"><ele>208.0</ele><time>2026-04-11T16:16:08.88Z</time></trkpt><trkpt lat="45.1293583" lon="7.94316"><ele>208.0</ele><time>2026-04-11T16:16:09.88Z</time></trkpt><trkpt lat="45.1294167" lon="7.9431"><ele>207.99999999999997</ele><time>2026-04-11T16:16:10.879Z</time></trkpt><trkpt lat="45.1294767" lon="7.9430433"><ele>208.0</ele><time>2026-04-11T16:16:11.88Z</time></trkpt><trkpt lat="45.1295233" lon="7.9429783"><ele>208.0</ele><time>2026-04-11T16:16:12.879Z</time></trkpt><trkpt lat="45.1295683" lon="7.9428433"><ele>208.0</ele><time>2026-04-11T16:16:14.879Z</time></trkpt><trkpt lat="45.1295233" lon="7.94278"><ele>208.0</ele><time>2026-04-11T16:16:16.88Z</time></trkpt><trkpt lat="45.1293817" lon="7.9428433"><ele>208.0</ele><time>2026-04-11T16:16:18.879Z</time></trkpt><trkpt lat="45.1292717" lon="7.942895"><ele>208.0</ele><time>2026-04-11T16:16:19.88Z</time></trkpt><trkpt lat="45.129145" lon="7.9429433"><ele>208.33333333333331</ele><time>2026-04-11T16:16:20.88Z</time></trkpt><trkpt lat="45.129005" lon="7.9429883"><ele>208.66666666666669</ele><time>2026-04-11T16:16:21.88Z</time></trkpt><trkpt lat="45.128845" lon="7.943065"><ele>209.0</ele><time>2026-04-11T16:16:22.88Z</time></trkpt><trkpt lat="45.1286917" lon="7.9431433"><ele>209.0</ele><time>2026-04-11T16:16:23.88Z</time></trkpt><trkpt lat="45.1285283" lon="7.9432167"><ele>209.0</ele><time>2026-04-11T16:16:24.879Z</time></trkpt><trkpt lat="45.12838" lon="7.94329"><ele>209.0</ele><time>2026-04-11T16:16:25.88Z</time></trkpt><trkpt lat="45.1282317" lon="7.9433617"><ele>208.66666666666669</ele><time>2026-04-11T16:16:26.879Z</time></trkpt><trkpt lat="45.1280833" lon="7.9434467"><ele>208.33333333333331</ele><time>2026-04-11T16:16:27.879Z</time></trkpt><trkpt lat="45.1279417" lon="7.9435133"><ele>208.0</ele><time>2026-04-11T16:16:28.879Z</time></trkpt><trkpt lat="45.12779" lon="7.9435733"><ele>208.0</ele><time>2026-04-11T16:16:29.879Z</time></trkpt><trkpt lat="45.1276417" lon="7.94361"><ele>208.0</ele><time>2026-04-11T16:16:30.879Z</time></trkpt><trkpt lat="45.1275017" lon="7.9436117"><ele>208.0</ele><time>2026-04-11T16:16:31.88Z</time></trkpt><trkpt lat="45.1273583" lon="7.9435933"><ele>208.0</ele><time>2026-04-11T16:16:32.88Z</time></trkpt><trkpt lat="45.1272033" lon="7.94359"><ele>207.66666666666666</ele><time>2026-04-11T16:16:33.88Z</time></trkpt><trkpt lat="45.127045" lon="7.9435833"><ele>207.33333333333331</ele><time>2026-04-11T16:16:34.879Z</time></trkpt><trkpt lat="45.1268917" lon="7.9435533"><ele>207.0</ele><time>2026-04-11T16:16:35.879Z</time></trkpt><trkpt lat="45.1267333" lon="7.9435433"><ele>207.0</ele><time>2026-04-11T16:16:36.879Z</time></trkpt><trkpt lat="45.12657" lon="7.9435117"><ele>207.0</ele><time>2026-04-11T16:16:37.88Z</time></trkpt><trkpt lat="45.1264067" lon="7.943485"><ele>207.0</ele><time>2026-04-11T16:16:38.879Z</time></trkpt><trkpt lat="45.126245" lon="7.9434633"><ele>207.0</ele><time>2026-04-11T16:16:39.88Z</time></trkpt><trkpt lat="45.12608" lon="7.9434517"><ele>207.0</ele><time>2026-04-11T16:16:40.879Z</time></trkpt><trkpt lat="45.1259167" lon="7.9434317"><ele>207.0</ele><time>2026-04-11T16:16:41.879Z</time></trkpt><trkpt lat="45.125755" lon="7.9434233"><ele>207.0</ele><time>2026-04-11T16:16:42.879Z</time></trkpt><trkpt lat="45.1255817" lon="7.9434033"><ele>207.0</ele><time>2026-04-11T16:16:43.879Z</time></trkpt><trkpt lat="45.1254067" lon="7.943385"><ele>207.0</ele><time>2026-04-11T16:16:44.879Z</time></trkpt><trkpt lat="45.1252467" lon="7.943325"><ele>207.0</ele><time>2026-04-11T16:16:45.879Z</time></trkpt><trkpt lat="45.125085" lon="7.9432683"><ele>207.0</ele><time>2026-04-11T16:16:46.88Z</time></trkpt><trkpt lat="45.1249317" lon="7.9431733"><ele>207.0</ele><time>2026-04-11T16:16:47.88Z</time></trkpt><trkpt lat="45.124785" lon="7.9430633"><ele>207.33333333333331</ele><time>2026-04-11T16:16:48.879Z</time></trkpt><trkpt lat="45.1246467" lon="7.9429433"><ele>207.66666666666666</ele><time>2026-04-11T16:16:49.88Z</time></trkpt><trkpt lat="45.1245117" lon="7.94281"><ele>208.0</ele><time>2026-04-11T16:16:50.88Z</time></trkpt><trkpt lat="45.1243833" lon="7.9426733"><ele>208.66666666666666</ele><time>2026-04-11T16:16:51.88Z</time></trkpt><trkpt lat="45.1242517" lon="7.9425433"><ele>209.33333333333331</ele><time>2026-04-11T16:16:52.879Z</time></trkpt><trkpt lat="45.12411" lon="7.9424133"><ele>210.0</ele><time>2026-04-11T16:16:53.879Z</time></trkpt><trkpt lat="45.1239833" lon="7.94227"><ele>210.0</ele><time>2026-04-11T16:16:54.879Z</time></trkpt><trkpt lat="45.12385" lon="7.9421333"><ele>210.0</ele><time>2026-04-11T16:16:55.879Z</time></trkpt><trkpt lat="45.1237167" lon="7.9419883"><ele>210.0</ele><time>2026-04-11T16:16:56.88Z</time></trkpt><trkpt lat="45.12359" lon="7.941845"><ele>210.0</ele><time>2026-04-11T16:16:57.88Z</time></trkpt><trkpt lat="45.1234667" lon="7.9417267"><ele>210.0</ele><time>2026-04-11T16:16:58.879Z</time></trkpt><trkpt lat="45.1233267" lon="7.9416333"><ele>210.0</ele><time>2026-04-11T16:16:59.879Z</time></trkpt><trkpt lat="45.123185" lon="7.94152"><ele>210.33333333333331</ele><time>2026-04-11T16:17:00.88Z</time></trkpt><trkpt lat="45.1230317" lon="7.9414333"><ele>210.66666666666666</ele><time>2026-04-11T16:17:01.879Z</time></trkpt><trkpt lat="45.122885" lon="7.9413383"><ele>211.0</ele><time>2026-04-11T16:17:02.88Z</time></trkpt><trkpt lat="45.1227383" lon="7.9412417"><ele>211.0</ele><time>2026-04-11T16:17:03.88Z</time></trkpt><trkpt lat="45.1225967" lon="7.9411317"><ele>211.0</ele><time>2026-04-11T16:17:04.879Z</time></trkpt><trkpt lat="45.1224683" lon="7.941005"><ele>211.0</ele><time>2026-04-11T16:17:05.88Z</time></trkpt><trkpt lat="45.1223267" lon="7.9408833"><ele>212.0</ele><time>2026-04-11T16:17:06.879Z</time></trkpt><trkpt lat="45.12219" lon="7.9407517"><ele>213.0</ele><time>2026-04-11T16:17:07.879Z</time></trkpt><trkpt lat="45.1220467" lon="7.9406167"><ele>214.0</ele><time>2026-04-11T16:17:08.879Z</time></trkpt><trkpt lat="45.1219033" lon="7.9404883"><ele>214.0</ele><time>2026-04-11T16:17:09.88Z</time></trkpt><trkpt lat="45.1217567" lon="7.9403833"><ele>214.0</ele><time>2026-04-11T16:17:10.879Z</time></trkpt><trkpt lat="45.1216133" lon="7.9402883"><ele>214.0</ele><time>2026-04-11T16:17:11.88Z</time></trkpt><trkpt lat="45.121465" lon="7.94021"><ele>214.0</ele><time>2026-04-11T16:17:12.879Z</time></trkpt><trkpt lat="45.12131" lon="7.9401333"><ele>214.0</ele><time>2026-04-11T16:17:13.879Z</time></trkpt><trkpt lat="45.12116" lon="7.9400433"><ele>214.0</ele><time>2026-04-11T16:17:14.88Z</time></trkpt><trkpt lat="45.1210233" lon="7.9399767"><ele>214.0</ele><time>2026-04-11T16:17:15.88Z</time></trkpt><trkpt lat="45.1208783" lon="7.9399133"><ele>214.0</ele><time>2026-04-11T16:17:16.88Z</time></trkpt><trkpt lat="45.1207417" lon="7.9399083"><ele>214.0</ele><time>2026-04-11T16:17:17.879Z</time></trkpt><trkpt lat="45.1205883" lon="7.9399433"><ele>214.0</ele><time>2026-04-11T16:17:18.879Z</time></trkpt><trkpt lat="45.1204517" lon="7.93999"><ele>215.0</ele><time>2026-04-11T16:17:19.879Z</time></trkpt><trkpt lat="45.1203" lon="7.9400533"><ele>216.0</ele><time>2026-04-11T16:17:20.879Z</time></trkpt><trkpt lat="45.1201583" lon="7.9401367"><ele>217.0</ele><time>2026-04-11T16:17:21.88Z</time></trkpt><trkpt lat="45.1200283" lon="7.9402233"><ele>219.33333333333331</ele><time>2026-04-11T16:17:22.879Z</time></trkpt><trkpt lat="45.1198933" lon="7.9403433"><ele>221.66666666666669</ele><time>2026-04-11T16:17:23.88Z</time></trkpt><trkpt lat="45.1197733" lon="7.9404917"><ele>224.0</ele><time>2026-04-11T16:17:24.879Z</time></trkpt><trkpt lat="45.1196467" lon="7.94063"><ele>224.0</ele><time>2026-04-11T16:17:25.88Z</time></trkpt><trkpt lat="45.1195117" lon="7.9407633"><ele>224.0</ele><time>2026-04-11T16:17:26.88Z</time></trkpt><trkpt lat="45.119375" lon="7.94089"><ele>224.0</ele><time>2026-04-11T16:17:27.879Z</time></trkpt><trkpt lat="45.119225" lon="7.9409983"><ele>223.66666666666669</ele><time>2026-04-11T16:17:28.879Z</time></trkpt><trkpt lat="45.1190717" lon="7.94108"><ele>223.33333333333331</ele><time>2026-04-11T16:17:29.88Z</time></trkpt><trkpt lat="45.118925" lon="7.94116"><ele>223.0</ele><time>2026-04-11T16:17:30.879Z</time></trkpt><trkpt lat="45.11879" lon="7.9412367"><ele>223.0</ele><time>2026-04-11T16:17:31.879Z</time></trkpt><trkpt lat="45.1186433" lon="7.9412983"><ele>223.0</ele><time>2026-04-11T16:17:32.88Z</time></trkpt><trkpt lat="45.1184867" lon="7.9413383"><ele>223.0</ele><time>2026-04-11T16:17:33.879Z</time></trkpt><trkpt lat="45.11833" lon="7.9413733"><ele>224.0</ele><time>2026-04-11T16:17:34.88Z</time></trkpt><trkpt lat="45.1181717" lon="7.9414083"><ele>225.0</ele><time>2026-04-11T16:17:35.88Z</time></trkpt><trkpt lat="45.1180133" lon="7.9414433"><ele>226.0</ele><time>2026-04-11T16:17:36.879Z</time></trkpt><trkpt lat="45.1178533" lon="7.94147"><ele>226.0</ele><time>2026-04-11T16:17:37.88Z</time></trkpt><trkpt lat="45.1176967" lon="7.9414967"><ele>226.0</ele><time>2026-04-11T16:17:38.88Z</time></trkpt><trkpt lat="45.11754" lon="7.9415333"><ele>226.0</ele><time>2026-04-11T16:17:39.88Z</time></trkpt><trkpt lat="45.1173733" lon="7.9415833"><ele>227.0</ele><time>2026-04-11T16:17:40.88Z</time></trkpt><trkpt lat="45.11721" lon="7.9416217"><ele>228.0</ele><time>2026-04-11T16:17:41.879Z</time></trkpt><trkpt lat="45.117045" lon="7.9416517"><ele>229.0</ele><time>2026-04-11T16:17:42.879Z</time></trkpt><trkpt lat="45.1168933" lon="7.9416433"><ele>229.0</ele><time>2026-04-11T16:17:43.879Z</time></trkpt><trkpt lat="45.1167483" lon="7.941595"><ele>229.0</ele><time>2026-04-11T16:17:44.879Z</time></trkpt><trkpt lat="45.1166167" lon="7.941515"><ele>229.0</ele><time>2026-04-11T16:17:45.88Z</time></trkpt><trkpt lat="45.1164967" lon="7.9414133"><ele>229.0</ele><time>2026-04-11T16:17:46.88Z</time></trkpt><trkpt lat="45.1163767" lon="7.94131"><ele>229.25</ele><time>2026-04-11T16:17:47.879Z</time></trkpt><trkpt lat="45.116255" lon="7.9412283"><ele>229.5</ele><time>2026-04-11T16:17:48.88Z</time></trkpt><trkpt lat="45.1161167" lon="7.9411733"><ele>229.75</ele><time>2026-04-11T16:17:49.88Z</time></trkpt><trkpt lat="45.1159633" lon="7.941175"><ele>230.0</ele><time>2026-04-11T16:17:50.88Z</time></trkpt><trkpt lat="45.1158083" lon="7.9412117"><ele>232.0</ele><time>2026-04-11T16:17:51.879Z</time></trkpt><trkpt lat="45.11566" lon="7.941265"><ele>234.0</ele><time>2026-04-11T16:17:52.879Z</time></trkpt><trkpt lat="45.1155117" lon="7.9413333"><ele>236.0</ele><time>2026-04-11T16:17:53.879Z</time></trkpt><trkpt lat="45.115345" lon="7.94139"><ele>236.0</ele><time>2026-04-11T16:17:54.88Z</time></trkpt><trkpt lat="45.1151967" lon="7.94144"><ele>236.0</ele><time>2026-04-11T16:17:55.879Z</time></trkpt><trkpt lat="45.1150233" lon="7.941475"><ele>236.0</ele><time>2026-04-11T16:17:56.879Z</time></trkpt><trkpt lat="45.1148617" lon="7.9415283"><ele>237.33333333333334</ele><time>2026-04-11T16:17:57.88Z</time></trkpt><trkpt lat="45.1146983" lon="7.9415967"><ele>238.66666666666669</ele><time>2026-04-11T16:17:58.879Z</time></trkpt><trkpt lat="45.11454" lon="7.9416683"><ele>240.0</ele><time>2026-04-11T16:17:59.879Z</time></trkpt><trkpt lat="45.114385" lon="7.9417483"><ele>237.33333333333331</ele><time>2026-04-11T16:18:00.88Z</time></trkpt><trkpt lat="45.1142333" lon="7.9418133"><ele>234.66666666666666</ele><time>2026-04-11T16:18:01.879Z</time></trkpt><trkpt lat="45.1140733" lon="7.9418383"><ele>232.0</ele><time>2026-04-11T16:18:02.88Z</time></trkpt><trkpt lat="45.1139167" lon="7.94185"><ele>231.66666666666666</ele><time>2026-04-11T16:18:03.88Z</time></trkpt><trkpt lat="45.1137617" lon="7.941855"><ele>231.33333333333331</ele><time>2026-04-11T16:18:04.88Z</time></trkpt><trkpt lat="45.1136067" lon="7.9418667"><ele>231.0</ele><time>2026-04-11T16:18:05.88Z</time></trkpt><trkpt lat="45.1134467" lon="7.941885"><ele>231.0</ele><time>2026-04-11T16:18:06.879Z</time></trkpt><trkpt lat="45.1132917" lon="7.9419083"><ele>231.0</ele><time>2026-04-11T16:18:07.879Z</time></trkpt><trkpt lat="45.1131267" lon="7.9419417"><ele>231.0</ele><time>2026-04-11T16:18:08.879Z</time></trkpt><trkpt lat="45.1129783" lon="7.94198"><ele>232.0</ele><time>2026-04-11T16:18:09.88Z</time></trkpt><trkpt lat="45.112825" lon="7.942025"><ele>233.0</ele><time>2026-04-11T16:18:10.879Z</time></trkpt><trkpt lat="45.1126817" lon="7.9420517"><ele>234.0</ele><time>2026-04-11T16:18:11.879Z</time></trkpt><trkpt lat="45.11254" lon="7.9420467"><ele>235.0</ele><time>2026-04-11T16:18:12.879Z</time></trkpt><trkpt lat="45.1124183" lon="7.94199"><ele>234.5</ele><time>2026-04-11T16:18:13.88Z</time></trkpt><trkpt lat="45.1123033" lon="7.9418633"><ele>234.0</ele><time>2026-04-11T16:18:14.879Z</time></trkpt><trkpt lat="45.1121817" lon="7.9417483"><ele>233.5</ele><time>2026-04-11T16:18:15.879Z</time></trkpt><trkpt lat="45.1120667" lon="7.94169"><ele>233.0</ele><time>2026-04-11T16:18:16.88Z</time></trkpt><trkpt lat="45.1119333" lon="7.9417"><ele>233.0</ele><time>2026-04-11T16:18:17.879Z</time></trkpt><trkpt lat="45.1117883" lon="7.9417517"><ele>233.0</ele><time>2026-04-11T16:18:18.879Z</time></trkpt><trkpt lat="45.1116333" lon="7.94179"><ele>233.0</ele><time>2026-04-11T16:18:19.879Z</time></trkpt><trkpt lat="45.1114867" lon="7.941815"><ele>232.66666666666669</ele><time>2026-04-11T16:18:20.879Z</time></trkpt><trkpt lat="45.11134" lon="7.94184"><ele>232.33333333333331</ele><time>2026-04-11T16:18:21.879Z</time></trkpt><trkpt lat="45.111195" lon="7.9418"><ele>232.0</ele><time>2026-04-11T16:18:22.879Z</time></trkpt><trkpt lat="45.1110417" lon="7.941755"><ele>234.0</ele><time>2026-04-11T16:18:23.879Z</time></trkpt><trkpt lat="45.1108917" lon="7.9416933"><ele>236.0</ele><time>2026-04-11T16:18:24.88Z</time></trkpt><trkpt lat="45.11074" lon="7.94162"><ele>238.0</ele><time>2026-04-11T16:18:25.879Z</time></trkpt><trkpt lat="45.1105917" lon="7.9415683"><ele>238.0</ele><time>2026-04-11T16:18:26.88Z</time></trkpt><trkpt lat="45.1104333" lon="7.9415217"><ele>238.0</ele><time>2026-04-11T16:18:27.879Z</time></trkpt><trkpt lat="45.1102717" lon="7.94149"><ele>238.0</ele><time>2026-04-11T16:18:28.88Z</time></trkpt><trkpt lat="45.1101033" lon="7.9414583"><ele>238.0</ele><time>2026-04-11T16:18:29.879Z</time></trkpt><trkpt lat="45.1099367" lon="7.9414317"><ele>238.0</ele><time>2026-04-11T16:18:30.879Z</time></trkpt><trkpt lat="45.1097717" lon="7.9414083"><ele>238.0</ele><time>2026-04-11T16:18:31.88Z</time></trkpt><trkpt lat="45.109605" lon="7.9413833"><ele>238.33333333333331</ele><time>2026-04-11T16:18:32.879Z</time></trkpt><trkpt lat="45.10943" lon="7.941355"><ele>238.66666666666669</ele><time>2026-04-11T16:18:33.88Z</time></trkpt><trkpt lat="45.1092667" lon="7.9413167"><ele>239.0</ele><time>2026-04-11T16:18:34.879Z</time></trkpt><trkpt lat="45.1091167" lon="7.9412817"><ele>239.5</ele><time>2026-04-11T16:18:35.879Z</time></trkpt><trkpt lat="45.1089733" lon="7.941275"><ele>240.0</ele><time>2026-04-11T16:18:36.879Z</time></trkpt><trkpt lat="45.108835" lon="7.9412717"><ele>240.5</ele><time>2026-04-11T16:18:37.879Z</time></trkpt><trkpt lat="45.10868" lon="7.9412917"><ele>241.0</ele><time>2026-04-11T16:18:38.88Z</time></trkpt><trkpt lat="45.108535" lon="7.941345"><ele>241.0</ele><time>2026-04-11T16:18:39.88Z</time></trkpt><trkpt lat="45.1083933" lon="7.9414333"><ele>241.0</ele><time>2026-04-11T16:18:40.879Z</time></trkpt><trkpt lat="45.1082567" lon="7.9415267"><ele>241.0</ele><time>2026-04-11T16:18:41.879Z</time></trkpt><trkpt lat="45.10812" lon="7.9416183"><ele>241.75</ele><time>2026-04-11T16:18:42.879Z</time></trkpt><trkpt lat="45.1079833" lon="7.9416983"><ele>242.5</ele><time>2026-04-11T16:18:43.88Z</time></trkpt><trkpt lat="45.1078417" lon="7.9417717"><ele>243.25</ele><time>2026-04-11T16:18:44.879Z</time></trkpt><trkpt lat="45.1077117" lon="7.9418267"><ele>244.0</ele><time>2026-04-11T16:18:45.88Z</time></trkpt><trkpt lat="45.1075817" lon="7.941865"><ele>244.0</ele><time>2026-04-11T16:18:46.88Z</time></trkpt><trkpt lat="45.10744" lon="7.9418533"><ele>244.0</ele><time>2026-04-11T16:18:47.879Z</time></trkpt><trkpt lat="45.1072933" lon="7.9418067"><ele>244.0</ele><time>2026-04-11T16:18:48.879Z</time></trkpt><trkpt lat="45.1071583" lon="7.9417017"><ele>244.0</ele><time>2026-04-11T16:18:49.879Z</time></trkpt><trkpt lat="45.1070167" lon="7.9416017"><ele>244.33333333333331</ele><time>2026-04-11T16:18:50.879Z</time></trkpt><trkpt lat="45.1068667" lon="7.94153"><ele>244.66666666666669</ele><time>2026-04-11T16:18:51.88Z</time></trkpt><trkpt lat="45.1067183" lon="7.9414417"><ele>245.0</ele><time>2026-04-11T16:18:52.879Z</time></trkpt><trkpt lat="45.106575" lon="7.941345"><ele>245.0</ele><time>2026-04-11T16:18:53.88Z</time></trkpt><trkpt lat="45.106425" lon="7.94127"><ele>245.0</ele><time>2026-04-11T16:18:54.88Z</time></trkpt><trkpt lat="45.106275" lon="7.94121"><ele>245.0</ele><time>2026-04-11T16:18:55.88Z</time></trkpt><trkpt lat="45.1061283" lon="7.941155"><ele>245.0</ele><time>2026-04-11T16:18:56.88Z</time></trkpt><trkpt lat="45.10598" lon="7.94111"><ele>245.0</ele><time>2026-04-11T16:18:57.879Z</time></trkpt><trkpt lat="45.10583" lon="7.9410717"><ele>245.0</ele><time>2026-04-11T16:18:58.879Z</time></trkpt><trkpt lat="45.1056783" lon="7.9410183"><ele>247.0</ele><time>2026-04-11T16:18:59.879Z</time></trkpt><trkpt lat="45.105525" lon="7.9409667"><ele>249.0</ele><time>2026-04-11T16:19:00.88Z</time></trkpt><trkpt lat="45.105365" lon="7.9409183"><ele>251.0</ele><time>2026-04-11T16:19:01.879Z</time></trkpt><trkpt lat="45.10521" lon="7.9408667"><ele>251.0</ele><time>2026-04-11T16:19:02.879Z</time></trkpt><trkpt lat="45.1050617" lon="7.9408117"><ele>251.0</ele><time>2026-04-11T16:19:03.88Z</time></trkpt><trkpt lat="45.1049133" lon="7.9407667"><ele>251.0</ele><time>2026-04-11T16:19:04.88Z</time></trkpt><trkpt lat="45.1047683" lon="7.9406883"><ele>253.75</ele><time>2026-04-11T16:19:05.879Z</time></trkpt><trkpt lat="45.10464" lon="7.9405983"><ele>256.5</ele><time>2026-04-11T16:19:06.88Z</time></trkpt><trkpt lat="45.10452" lon="7.94048"><ele>259.25</ele><time>2026-04-11T16:19:07.879Z</time></trkpt><trkpt lat="45.10439" lon="7.9403783"><ele>262.0</ele><time>2026-04-11T16:19:08.879Z</time></trkpt><trkpt lat="45.104255" lon="7.940285"><ele>262.0</ele><time>2026-04-11T16:19:09.879Z</time></trkpt><trkpt lat="45.1041117" lon="7.940215"><ele>262.0</ele><time>2026-04-11T16:19:10.88Z</time></trkpt><trkpt lat="45.1039617" lon="7.940195"><ele>262.0</ele><time>2026-04-11T16:19:11.879Z</time></trkpt><trkpt lat="45.103815" lon="7.9402117"><ele>262.0</ele><time>2026-04-11T16:19:12.879Z</time></trkpt><trkpt lat="45.1036683" lon="7.9402633"><ele>264.75</ele><time>2026-04-11T16:19:13.88Z</time></trkpt><trkpt lat="45.10353" lon="7.9403233"><ele>267.5</ele><time>2026-04-11T16:19:14.88Z</time></trkpt><trkpt lat="45.1033867" lon="7.940375"><ele>270.25</ele><time>2026-04-11T16:19:15.879Z</time></trkpt><trkpt lat="45.1032517" lon="7.9403767"><ele>273.0</ele><time>2026-04-11T16:19:16.879Z</time></trkpt><trkpt lat="45.1031417" lon="7.9403217"><ele>274.25</ele><time>2026-04-11T16:19:17.88Z</time></trkpt><trkpt lat="45.103055" lon="7.9402033"><ele>275.5</ele><time>2026-04-11T16:19:18.879Z</time></trkpt><trkpt lat="45.102965" lon="7.9401017"><ele>276.75</ele><time>2026-04-11T16:19:19.879Z</time></trkpt><trkpt lat="45.1028717" lon="7.940045"><ele>278.0</ele><time>2026-04-11T16:19:20.879Z</time></trkpt><trkpt lat="45.1027583" lon="7.9400483"><ele>278.0</ele><time>2026-04-11T16:19:21.88Z</time></trkpt><trkpt lat="45.1026383" lon="7.9400783"><ele>278.0</ele><time>2026-04-11T16:19:22.88Z</time></trkpt><trkpt lat="45.1025083" lon="7.9401233"><ele>278.0</ele><time>2026-04-11T16:19:23.879Z</time></trkpt><trkpt lat="45.1023733" lon="7.9401567"><ele>278.0</ele><time>2026-04-11T16:19:24.879Z</time></trkpt><trkpt lat="45.1022317" lon="7.9401933"><ele>277.25</ele><time>2026-04-11T16:19:25.88Z</time></trkpt><trkpt lat="45.10209" lon="7.9402317"><ele>276.5</ele><time>2026-04-11T16:19:26.88Z</time></trkpt><trkpt lat="45.1019633" lon="7.94027"><ele>275.75</ele><time>2026-04-11T16:19:27.88Z</time></trkpt><trkpt lat="45.101855" lon="7.9403567"><ele>275.0</ele><time>2026-04-11T16:19:28.879Z</time></trkpt><trkpt lat="45.1017783" lon="7.9404883"><ele>275.0</ele><time>2026-04-11T16:19:29.88Z</time></trkpt><trkpt lat="45.101725" lon="7.9406483"><ele>275.0</ele><time>2026-04-11T16:19:30.879Z</time></trkpt><trkpt lat="45.1016767" lon="7.94082"><ele>275.0</ele><time>2026-04-11T16:19:31.88Z</time></trkpt><trkpt lat="45.101635" lon="7.9410117"><ele>275.0</ele><time>2026-04-11T16:19:32.879Z</time></trkpt><trkpt lat="45.10159" lon="7.9411817"><ele>277.0</ele><time>2026-04-11T16:19:33.88Z</time></trkpt><trkpt lat="45.1015467" lon="7.941335"><ele>279.0</ele><time>2026-04-11T16:19:34.88Z</time></trkpt><trkpt lat="45.101485" lon="7.94143"><ele>281.0</ele><time>2026-04-11T16:19:35.879Z</time></trkpt><trkpt lat="45.1014183" lon="7.9414833"><ele>283.0</ele><time>2026-04-11T16:19:36.879Z</time></trkpt><trkpt lat="45.1013283" lon="7.941465"><ele>285.0</ele><time>2026-04-11T16:19:37.88Z</time></trkpt><trkpt lat="45.1012233" lon="7.9414133"><ele>285.0</ele><time>2026-04-11T16:19:38.879Z</time></trkpt><trkpt lat="45.101105" lon="7.9414083"><ele>285.0</ele><time>2026-04-11T16:19:39.879Z</time></trkpt><trkpt lat="45.1009867" lon="7.9414817"><ele>285.0</ele><time>2026-04-11T16:19:40.88Z</time></trkpt><trkpt lat="45.1008883" lon="7.94158"><ele>285.0</ele><time>2026-04-11T16:19:41.879Z</time></trkpt><trkpt lat="45.1008017" lon="7.9417133"><ele>284.0</ele><time>2026-04-11T16:19:42.879Z</time></trkpt><trkpt lat="45.100725" lon="7.9418633"><ele>283.0</ele><time>2026-04-11T16:19:43.879Z</time></trkpt><trkpt lat="45.1006533" lon="7.9420267"><ele>282.0</ele><time>2026-04-11T16:19:44.879Z</time></trkpt><trkpt lat="45.10058" lon="7.94221"><ele>281.0</ele><time>2026-04-11T16:19:45.879Z</time></trkpt><trkpt lat="45.1005167" lon="7.942395"><ele>283.5</ele><time>2026-04-11T16:19:46.879Z</time></trkpt><trkpt lat="45.1004467" lon="7.942575"><ele>286.0</ele><time>2026-04-11T16:19:47.879Z</time></trkpt><trkpt lat="45.1003867" lon="7.9427617"><ele>288.5</ele><time>2026-04-11T16:19:48.879Z</time></trkpt><trkpt lat="45.1003283" lon="7.9429417"><ele>291.0</ele><time>2026-04-11T16:19:49.879Z</time></trkpt><trkpt lat="45.1002583" lon="7.9431267"><ele>291.0</ele><time>2026-04-11T16:19:50.88Z</time></trkpt><trkpt lat="45.1001883" lon="7.9433133"><ele>291.0</ele><time>2026-04-11T16:19:51.879Z</time></trkpt><trkpt lat="45.10011" lon="7.9435017"><ele>291.0</ele><time>2026-04-11T16:19:52.88Z</time></trkpt><trkpt lat="45.1000517" lon="7.9437017"><ele>290.6666666666667</ele><time>2026-04-11T16:19:53.88Z</time></trkpt><trkpt lat="45.0999917" lon="7.9439033"><ele>290.33333333333337</ele><time>2026-04-11T16:19:54.879Z</time></trkpt><trkpt lat="45.0999183" lon="7.944095"><ele>290.0</ele><time>2026-04-11T16:19:55.88Z</time></trkpt><trkpt lat="45.0998533" lon="7.9442817"><ele>290.0</ele><time>2026-04-11T16:19:56.879Z</time></trkpt><trkpt lat="45.0998017" lon="7.9444517"><ele>290.0</ele><time>2026-04-11T16:19:57.879Z</time></trkpt><trkpt lat="45.0997717" lon="7.944635"><ele>290.0</ele><time>2026-04-11T16:19:58.879Z</time></trkpt><trkpt lat="45.0997717" lon="7.94481"><ele>290.0</ele><time>2026-04-11T16:19:59.879Z</time></trkpt><trkpt lat="45.0998033" lon="7.944985"><ele>294.0</ele><time>2026-04-11T16:20:00.879Z</time></trkpt><trkpt lat="45.0998433" lon="7.9451633"><ele>298.0</ele><time>2026-04-11T16:20:01.879Z</time></trkpt><trkpt lat="45.0998517" lon="7.9453217"><ele>302.0</ele><time>2026-04-11T16:20:02.879Z</time></trkpt><trkpt lat="45.0998067" lon="7.9454667"><ele>306.0</ele><time>2026-04-11T16:20:03.88Z</time></trkpt><trkpt lat="45.0997517" lon="7.9455983"><ele>306.0</ele><time>2026-04-11T16:20:04.88Z</time></trkpt><trkpt lat="45.0997033" lon="7.9457133"><ele>306.0</ele><time>2026-04-11T16:20:05.88Z</time></trkpt><trkpt lat="45.0996917" lon="7.94583"><ele>306.0</ele><time>2026-04-11T16:20:06.879Z</time></trkpt><trkpt lat="45.0997133" lon="7.9459367"><ele>306.0</ele><time>2026-04-11T16:20:07.879Z</time></trkpt><trkpt lat="45.0998367" lon="7.9459817"><ele>306.0</ele><time>2026-04-11T16:20:09.88Z</time></trkpt><trkpt lat="45.0999233" lon="7.94592"><ele>306.25</ele><time>2026-04-11T16:20:10.88Z</time></trkpt><trkpt lat="45.1000083" lon="7.9457783"><ele>306.5</ele><time>2026-04-11T16:20:11.88Z</time></trkpt><trkpt lat="45.1000417" lon="7.9455833"><ele>306.75</ele><time>2026-04-11T16:20:12.88Z</time></trkpt><trkpt lat="45.1000683" lon="7.94535"><ele>307.0</ele><time>2026-04-11T16:20:13.879Z</time></trkpt><trkpt lat="45.1001017" lon="7.9451167"><ele>306.0</ele><time>2026-04-11T16:20:14.879Z</time></trkpt><trkpt lat="45.1001667" lon="7.9449283"><ele>305.0</ele><time>2026-04-11T16:20:15.88Z</time></trkpt><trkpt lat="45.1002583" lon="7.9447867"><ele>304.0</ele><time>2026-04-11T16:20:16.879Z</time></trkpt><trkpt lat="45.1003517" lon="7.94465"><ele>303.0</ele><time>2026-04-11T16:20:17.879Z</time></trkpt><trkpt lat="45.10046" lon="7.94451"><ele>303.0</ele><time>2026-04-11T16:20:18.879Z</time></trkpt><trkpt lat="45.1005683" lon="7.9443583"><ele>303.0</ele><time>2026-04-11T16:20:19.879Z</time></trkpt><trkpt lat="45.1006783" lon="7.944205"><ele>303.0</ele><time>2026-04-11T16:20:20.88Z</time></trkpt><trkpt lat="45.10079" lon="7.94405"><ele>304.5</ele><time>2026-04-11T16:20:21.879Z</time></trkpt><trkpt lat="45.1009033" lon="7.9439117"><ele>306.0</ele><time>2026-04-11T16:20:22.879Z</time></trkpt><trkpt lat="45.1010383" lon="7.94382"><ele>307.5</ele><time>2026-04-11T16:20:23.879Z</time></trkpt><trkpt lat="45.1011667" lon="7.9437783"><ele>309.0</ele><time>2026-04-11T16:20:24.879Z</time></trkpt><trkpt lat="45.1012667" lon="7.9438"><ele>309.0</ele><time>2026-04-11T16:20:25.879Z</time></trkpt><trkpt lat="45.1013367" lon="7.9438633"><ele>309.0</ele><time>2026-04-11T16:20:26.88Z</time></trkpt><trkpt lat="45.1013767" lon="7.9439583"><ele>309.0</ele><time>2026-04-11T16:20:27.879Z</time></trkpt><trkpt lat="45.1013817" lon="7.944055"><ele>309.0</ele><time>2026-04-11T16:20:28.88Z</time></trkpt><trkpt lat="45.1013483" lon="7.9441433"><ele>309.0</ele><time>2026-04-11T16:20:29.879Z</time></trkpt><trkpt lat="45.1012517" lon="7.944205"><ele>309.0</ele><time>2026-04-11T16:20:30.879Z</time></trkpt><trkpt lat="45.1011017" lon="7.94423"><ele>307.5</ele><time>2026-04-11T16:20:31.879Z</time></trkpt><trkpt lat="45.1009667" lon="7.944275"><ele>306.0</ele><time>2026-04-11T16:20:32.879Z</time></trkpt><trkpt lat="45.10085" lon="7.9443683"><ele>304.5</ele><time>2026-04-11T16:20:33.879Z</time></trkpt><trkpt lat="45.10076" lon="7.9445133"><ele>303.0</ele><time>2026-04-11T16:20:34.879Z</time></trkpt><trkpt lat="45.1006867" lon="7.9446783"><ele>303.0</ele><time>2026-04-11T16:20:35.879Z</time></trkpt><trkpt lat="45.1006167" lon="7.94485"><ele>303.0</ele><time>2026-04-11T16:20:36.879Z</time></trkpt><trkpt lat="45.100555" lon="7.94503"><ele>303.0</ele><time>2026-04-11T16:20:37.879Z</time></trkpt><trkpt lat="45.1004983" lon="7.945205"><ele>303.0</ele><time>2026-04-11T16:20:38.88Z</time></trkpt><trkpt lat="45.1004617" lon="7.9454117"><ele>304.3333333333333</ele><time>2026-04-11T16:20:39.88Z</time></trkpt><trkpt lat="45.1004583" lon="7.945625"><ele>305.66666666666663</ele><time>2026-04-11T16:20:40.88Z</time></trkpt><trkpt lat="45.1004833" lon="7.9458233"><ele>307.0</ele><time>2026-04-11T16:20:41.88Z</time></trkpt><trkpt lat="45.1005367" lon="7.9460333"><ele>309.75</ele><time>2026-04-11T16:20:42.879Z</time></trkpt><trkpt lat="45.1005983" lon="7.9462267"><ele>312.5</ele><time>2026-04-11T16:20:43.879Z</time></trkpt><trkpt lat="45.1006617" lon="7.9464067"><ele>315.25</ele><time>2026-04-11T16:20:44.879Z</time></trkpt><trkpt lat="45.10069" lon="7.9465867"><ele>318.0</ele><time>2026-04-11T16:20:45.88Z</time></trkpt><trkpt lat="45.1007017" lon="7.9467483"><ele>321.75</ele><time>2026-04-11T16:20:46.88Z</time></trkpt><trkpt lat="45.1006683" lon="7.9469167"><ele>325.5</ele><time>2026-04-11T16:20:47.879Z</time></trkpt><trkpt lat="45.1005917" lon="7.947055"><ele>329.25</ele><time>2026-04-11T16:20:48.879Z</time></trkpt><trkpt lat="45.1004917" lon="7.9471633"><ele>333.0</ele><time>2026-04-11T16:20:49.879Z</time></trkpt><trkpt lat="45.100365" lon="7.94724"><ele>333.0</ele><time>2026-04-11T16:20:50.88Z</time></trkpt><trkpt lat="45.1002383" lon="7.9472967"><ele>333.0</ele><time>2026-04-11T16:20:51.88Z</time></trkpt><trkpt lat="45.1001" lon="7.9473333"><ele>333.0</ele><time>2026-04-11T16:20:52.88Z</time></trkpt><trkpt lat="45.0999533" lon="7.9474017"><ele>333.0</ele><time>2026-04-11T16:20:53.88Z</time></trkpt><trkpt lat="45.0998183" lon="7.947465"><ele>333.6666666666667</ele><time>2026-04-11T16:20:54.88Z</time></trkpt><trkpt lat="45.0996683" lon="7.94752"><ele>334.33333333333337</ele><time>2026-04-11T16:20:55.88Z</time></trkpt><trkpt lat="45.0995283" lon="7.9475717"><ele>335.0</ele><time>2026-04-11T16:20:56.879Z</time></trkpt><trkpt lat="45.0993817" lon="7.9476267"><ele>336.5</ele><time>2026-04-11T16:20:57.88Z</time></trkpt><trkpt lat="45.09925" lon="7.9477117"><ele>338.0</ele><time>2026-04-11T16:20:58.879Z</time></trkpt><trkpt lat="45.0991267" lon="7.947835"><ele>339.5</ele><time>2026-04-11T16:20:59.88Z</time></trkpt><trkpt lat="45.0990183" lon="7.947985"><ele>341.0</ele><time>2026-04-11T16:21:00.88Z</time></trkpt><trkpt lat="45.0988967" lon="7.94816"><ele>341.0</ele><time>2026-04-11T16:21:01.879Z</time></trkpt><trkpt lat="45.0987833" lon="7.9483333"><ele>341.0</ele><time>2026-04-11T16:21:02.88Z</time></trkpt><trkpt lat="45.09866" lon="7.9484917"><ele>341.0</ele><time>2026-04-11T16:21:03.88Z</time></trkpt><trkpt lat="45.09853" lon="7.9486433"><ele>340.6666666666667</ele><time>2026-04-11T16:21:04.88Z</time></trkpt><trkpt lat="45.0984067" lon="7.9487983"><ele>340.3333333333333</ele><time>2026-04-11T16:21:05.88Z</time></trkpt><trkpt lat="45.098285" lon="7.94893"><ele>340.0</ele><time>2026-04-11T16:21:06.879Z</time></trkpt><trkpt lat="45.0981567" lon="7.9490683"><ele>340.0</ele><time>2026-04-11T16:21:07.879Z</time></trkpt><trkpt lat="45.0980333" lon="7.94918"><ele>340.0</ele><time>2026-04-11T16:21:08.879Z</time></trkpt><trkpt lat="45.0979067" lon="7.9493017"><ele>340.0</ele><time>2026-04-11T16:21:09.88Z</time></trkpt><trkpt lat="45.09779" lon="7.9494233"><ele>340.0</ele><time>2026-04-11T16:21:10.879Z</time></trkpt><trkpt lat="45.097695" lon="7.949605"><ele>345.0</ele><time>2026-04-11T16:21:11.879Z</time></trkpt><trkpt lat="45.0976" lon="7.9497917"><ele>350.0</ele><time>2026-04-11T16:21:12.879Z</time></trkpt><trkpt lat="45.097495" lon="7.949975"><ele>355.0</ele><time>2026-04-11T16:21:13.88Z</time></trkpt><trkpt lat="45.097395" lon="7.9501717"><ele>357.66666666666663</ele><time>2026-04-11T16:21:14.879Z</time></trkpt><trkpt lat="45.0972917" lon="7.9503467"><ele>360.3333333333333</ele><time>2026-04-11T16:21:15.879Z</time></trkpt><trkpt lat="45.0971883" lon="7.9505133"><ele>363.0</ele><time>2026-04-11T16:21:16.88Z</time></trkpt><trkpt lat="45.0970717" lon="7.9506767"><ele>363.0</ele><time>2026-04-11T16:21:17.88Z</time></trkpt><trkpt lat="45.0969467" lon="7.9508133"><ele>363.0</ele><time>2026-04-11T16:21:18.879Z</time></trkpt><trkpt lat="45.096805" lon="7.9509133"><ele>363.0</ele><time>2026-04-11T16:21:19.879Z</time></trkpt><trkpt lat="45.09666" lon="7.95097"><ele>365.0</ele><time>2026-04-11T16:21:20.879Z</time></trkpt><trkpt lat="45.0965317" lon="7.9510017"><ele>367.0</ele><time>2026-04-11T16:21:21.879Z</time></trkpt><trkpt lat="45.0964317" lon="7.9510517"><ele>369.0</ele><time>2026-04-11T16:21:22.879Z</time></trkpt><trkpt lat="45.0963567" lon="7.9511233"><ele>371.0</ele><time>2026-04-11T16:21:23.88Z</time></trkpt><trkpt lat="45.0963083" lon="7.95121"><ele>373.0</ele><time>2026-04-11T16:21:24.879Z</time></trkpt><trkpt lat="45.0962883" lon="7.9513333"><ele>373.0</ele><time>2026-04-11T16:21:25.879Z</time></trkpt><trkpt lat="45.0963017" lon="7.9514267"><ele>373.0</ele><time>2026-04-11T16:21:26.879Z</time></trkpt><trkpt lat="45.0963683" lon="7.9515067"><ele>373.0</ele><time>2026-04-11T16:21:27.879Z</time></trkpt><trkpt lat="45.0964817" lon="7.9515433"><ele>373.0</ele><time>2026-04-11T16:21:28.879Z</time></trkpt><trkpt lat="45.096625" lon="7.95154"><ele>373.0</ele><time>2026-04-11T16:21:29.879Z</time></trkpt><trkpt lat="45.0968" lon="7.9514717"><ele>374.66666666666663</ele><time>2026-04-11T16:21:30.879Z</time></trkpt><trkpt lat="45.0969767" lon="7.9513417"><ele>376.3333333333333</ele><time>2026-04-11T16:21:31.88Z</time></trkpt><trkpt lat="45.0971317" lon="7.9512033"><ele>378.0</ele><time>2026-04-11T16:21:32.879Z</time></trkpt><trkpt lat="45.0972567" lon="7.9510917"><ele>378.0</ele><time>2026-04-11T16:21:33.879Z</time></trkpt><trkpt lat="45.0973567" lon="7.951"><ele>378.0</ele><time>2026-04-11T16:21:34.879Z</time></trkpt><trkpt lat="45.09744" lon="7.95094"><ele>378.0</ele><time>2026-04-11T16:21:35.879Z</time></trkpt><trkpt lat="45.097525" lon="7.9509417"><ele>378.0</ele><time>2026-04-11T16:21:36.88Z</time></trkpt><trkpt lat="45.0975983" lon="7.95106"><ele>378.0</ele><time>2026-04-11T16:21:38.88Z</time></trkpt><trkpt lat="45.0975283" lon="7.9512383"><ele>378.0</ele><time>2026-04-11T16:21:40.88Z</time></trkpt><trkpt lat="45.09742" lon="7.9513333"><ele>378.0</ele><time>2026-04-11T16:21:41.879Z</time></trkpt><trkpt lat="45.0972917" lon="7.951425"><ele>378.0</ele><time>2026-04-11T16:21:42.88Z</time></trkpt><trkpt lat="45.097175" lon="7.9515233"><ele>378.0</ele><time>2026-04-11T16:21:43.879Z</time></trkpt><trkpt lat="45.0970533" lon="7.9516183"><ele>381.5</ele><time>2026-04-11T16:21:44.879Z</time></trkpt><trkpt lat="45.096935" lon="7.9517183"><ele>385.0</ele><time>2026-04-11T16:21:45.88Z</time></trkpt><trkpt lat="45.0968183" lon="7.95182"><ele>388.5</ele><time>2026-04-11T16:21:46.879Z</time></trkpt><trkpt lat="45.0967" lon="7.9519017"><ele>392.0</ele><time>2026-04-11T16:21:47.879Z</time></trkpt><trkpt lat="45.0965833" lon="7.95197"><ele>392.0</ele><time>2026-04-11T16:21:48.879Z</time></trkpt><trkpt lat="45.0964517" lon="7.95202"><ele>392.0</ele><time>2026-04-11T16:21:49.88Z</time></trkpt><trkpt lat="45.0963117" lon="7.9520717"><ele>392.0</ele><time>2026-04-11T16:21:50.879Z</time></trkpt><trkpt lat="45.0961817" lon="7.9521417"><ele>392.0</ele><time>2026-04-11T16:21:51.879Z</time></trkpt><trkpt lat="45.09605" lon="7.952215"><ele>392.0</ele><time>2026-04-11T16:21:52.88Z</time></trkpt><trkpt lat="45.0959383" lon="7.9523117"><ele>392.0</ele><time>2026-04-11T16:21:53.88Z</time></trkpt><trkpt lat="45.0958433" lon="7.9524117"><ele>392.0</ele><time>2026-04-11T16:21:54.88Z</time></trkpt><trkpt lat="45.0957567" lon="7.9525233"><ele>392.0</ele><time>2026-04-11T16:21:55.879Z</time></trkpt><trkpt lat="45.0956683" lon="7.9526367"><ele>392.40000000000003</ele><time>2026-04-11T16:21:56.879Z</time></trkpt><trkpt lat="45.095585" lon="7.9527283"><ele>392.8</ele><time>2026-04-11T16:21:57.88Z</time></trkpt><trkpt lat="45.0955117" lon="7.9527983"><ele>393.2</ele><time>2026-04-11T16:21:58.88Z</time></trkpt><trkpt lat="45.0954517" lon="7.9528633"><ele>393.6</ele><time>2026-04-11T16:21:59.88Z</time></trkpt><trkpt lat="45.0953567" lon="7.9529533"><ele>394.0</ele><time>2026-04-11T16:22:01.879Z</time></trkpt><trkpt lat="45.0952617" lon="7.9529733"><ele>394.0</ele><time>2026-04-11T16:22:03.879Z</time></trkpt><trkpt lat="45.0952067" lon="7.9530217"><ele>394.0</ele><time>2026-04-11T16:22:06.88Z</time></trkpt><trkpt lat="45.09525" lon="7.9531717"><ele>394.0</ele><time>2026-04-11T16:22:08.879Z</time></trkpt><trkpt lat="45.09529" lon="7.953275"><ele>394.0</ele><time>2026-04-11T16:22:09.88Z</time></trkpt><trkpt lat="45.095335" lon="7.953415"><ele>394.0</ele><time>2026-04-11T16:22:10.879Z</time></trkpt><trkpt lat="45.095375" lon="7.95358"><ele>393.75</ele><time>2026-04-11T16:22:11.88Z</time></trkpt><trkpt lat="45.0954067" lon="7.9537617"><ele>393.5</ele><time>2026-04-11T16:22:12.879Z</time></trkpt><trkpt lat="45.0953883" lon="7.9539433"><ele>393.25</ele><time>2026-04-11T16:22:13.88Z</time></trkpt><trkpt lat="45.09536" lon="7.9541217"><ele>393.0</ele><time>2026-04-11T16:22:14.88Z</time></trkpt><trkpt lat="45.0953133" lon="7.9542733"><ele>393.4</ele><time>2026-04-11T16:22:15.88Z</time></trkpt><trkpt lat="45.095265" lon="7.9544033"><ele>393.79999999999995</ele><time>2026-04-11T16:22:16.879Z</time></trkpt><trkpt lat="45.0952033" lon="7.9545183"><ele>394.2</ele><time>2026-04-11T16:22:17.879Z</time></trkpt><trkpt lat="45.09512" lon="7.954635"><ele>394.6</ele><time>2026-04-11T16:22:18.88Z</time></trkpt><trkpt lat="45.0950317" lon="7.95476"><ele>395.0</ele><time>2026-04-11T16:22:19.879Z</time></trkpt><trkpt lat="45.0949333" lon="7.9548933"><ele>394.5</ele><time>2026-04-11T16:22:20.879Z</time></trkpt><trkpt lat="45.0948383" lon="7.9550483"><ele>394.0</ele><time>2026-04-11T16:22:21.88Z</time></trkpt><trkpt lat="45.0947483" lon="7.9552083"><ele>393.5</ele><time>2026-04-11T16:22:22.88Z</time></trkpt><trkpt lat="45.0946367" lon="7.9553667"><ele>393.0</ele><time>2026-04-11T16:22:23.879Z</time></trkpt><trkpt lat="45.0945117" lon="7.955525"><ele>393.0</ele><time>2026-04-11T16:22:24.879Z</time></trkpt><trkpt lat="45.0943783" lon="7.9556783"><ele>393.0</ele><time>2026-04-11T16:22:25.879Z</time></trkpt><trkpt lat="45.0942467" lon="7.9558283"><ele>393.0</ele><time>2026-04-11T16:22:26.88Z</time></trkpt><trkpt lat="45.0941133" lon="7.9559733"><ele>391.66666666666663</ele><time>2026-04-11T16:22:27.879Z</time></trkpt><trkpt lat="45.0939817" lon="7.9561333"><ele>390.3333333333333</ele><time>2026-04-11T16:22:28.88Z</time></trkpt><trkpt lat="45.0938617" lon="7.9562717"><ele>389.0</ele><time>2026-04-11T16:22:29.88Z</time></trkpt><trkpt lat="45.0937467" lon="7.956405"><ele>389.0</ele><time>2026-04-11T16:22:30.879Z</time></trkpt><trkpt lat="45.0936333" lon="7.956525"><ele>389.0</ele><time>2026-04-11T16:22:31.879Z</time></trkpt><trkpt lat="45.0935117" lon="7.9566367"><ele>389.0</ele><time>2026-04-11T16:22:32.88Z</time></trkpt><trkpt lat="45.0933867" lon="7.95674"><ele>389.0</ele><time>2026-04-11T16:22:33.879Z</time></trkpt><trkpt lat="45.09326" lon="7.9568517"><ele>386.5</ele><time>2026-04-11T16:22:34.88Z</time></trkpt><trkpt lat="45.0931283" lon="7.95697"><ele>384.0</ele><time>2026-04-11T16:22:35.879Z</time></trkpt><trkpt lat="45.0930117" lon="7.9570867"><ele>381.5</ele><time>2026-04-11T16:22:36.88Z</time></trkpt><trkpt lat="45.09291" lon="7.9572283"><ele>379.0</ele><time>2026-04-11T16:22:37.88Z</time></trkpt><trkpt lat="45.092835" lon="7.957385"><ele>378.3333333333333</ele><time>2026-04-11T16:22:38.88Z</time></trkpt><trkpt lat="45.0927783" lon="7.9575833"><ele>377.6666666666667</ele><time>2026-04-11T16:22:39.879Z</time></trkpt><trkpt lat="45.0927583" lon="7.9577983"><ele>377.0</ele><time>2026-04-11T16:22:40.879Z</time></trkpt><trkpt lat="45.0927617" lon="7.9580233"><ele>377.0</ele><time>2026-04-11T16:22:41.879Z</time></trkpt><trkpt lat="45.0927617" lon="7.95825"><ele>377.0</ele><time>2026-04-11T16:22:42.879Z</time></trkpt><trkpt lat="45.0927633" lon="7.9584883"><ele>377.0</ele><time>2026-04-11T16:22:43.879Z</time></trkpt><trkpt lat="45.0927567" lon="7.958725"><ele>377.0</ele><time>2026-04-11T16:22:44.88Z</time></trkpt><trkpt lat="45.092745" lon="7.9589417"><ele>377.0</ele><time>2026-04-11T16:22:45.879Z</time></trkpt><trkpt lat="45.0927167" lon="7.9591533"><ele>377.0</ele><time>2026-04-11T16:22:46.88Z</time></trkpt><trkpt lat="45.0926783" lon="7.9593467"><ele>377.0</ele><time>2026-04-11T16:22:47.879Z</time></trkpt><trkpt lat="45.0926217" lon="7.9595267"><ele>377.5</ele><time>2026-04-11T16:22:48.879Z</time></trkpt><trkpt lat="45.0925583" lon="7.9596967"><ele>378.0</ele><time>2026-04-11T16:22:49.879Z</time></trkpt><trkpt lat="45.0924883" lon="7.9598667"><ele>378.5</ele><time>2026-04-11T16:22:50.879Z</time></trkpt><trkpt lat="45.092405" lon="7.9600267"><ele>379.0</ele><time>2026-04-11T16:22:51.879Z</time></trkpt><trkpt lat="45.09233" lon="7.96018"><ele>380.25</ele><time>2026-04-11T16:22:52.879Z</time></trkpt><trkpt lat="45.0922483" lon="7.9603383"><ele>381.5</ele><time>2026-04-11T16:22:53.879Z</time></trkpt><trkpt lat="45.0921567" lon="7.9604967"><ele>382.75</ele><time>2026-04-11T16:22:54.88Z</time></trkpt><trkpt lat="45.0920633" lon="7.96066"><ele>384.0</ele><time>2026-04-11T16:22:55.879Z</time></trkpt><trkpt lat="45.0919733" lon="7.96084"><ele>383.6666666666667</ele><time>2026-04-11T16:22:56.879Z</time></trkpt><trkpt lat="45.091875" lon="7.961015"><ele>383.33333333333337</ele><time>2026-04-11T16:22:57.879Z</time></trkpt><trkpt lat="45.0917817" lon="7.9611817"><ele>383.0</ele><time>2026-04-11T16:22:58.879Z</time></trkpt><trkpt lat="45.09169" lon="7.9613667"><ele>388.6666666666667</ele><time>2026-04-11T16:22:59.88Z</time></trkpt><trkpt lat="45.0915817" lon="7.9615533"><ele>394.33333333333337</ele><time>2026-04-11T16:23:00.879Z</time></trkpt><trkpt lat="45.09149" lon="7.96175"><ele>400.0</ele><time>2026-04-11T16:23:01.879Z</time></trkpt><trkpt lat="45.0913933" lon="7.9619367"><ele>400.0</ele><time>2026-04-11T16:23:02.88Z</time></trkpt><trkpt lat="45.0913017" lon="7.9621217"><ele>400.0</ele><time>2026-04-11T16:23:03.879Z</time></trkpt><trkpt lat="45.0912417" lon="7.9623117"><ele>400.0</ele><time>2026-04-11T16:23:04.879Z</time></trkpt><trkpt lat="45.091205" lon="7.9625083"><ele>399.0</ele><time>2026-04-11T16:23:05.88Z</time></trkpt><trkpt lat="45.0912217" lon="7.96272"><ele>398.0</ele><time>2026-04-11T16:23:06.879Z</time></trkpt><trkpt lat="45.0912783" lon="7.9629267"><ele>397.0</ele><time>2026-04-11T16:23:07.879Z</time></trkpt><trkpt lat="45.091345" lon="7.9631183"><ele>397.0</ele><time>2026-04-11T16:23:08.879Z</time></trkpt><trkpt lat="45.091405" lon="7.963305"><ele>397.0</ele><time>2026-04-11T16:23:09.879Z</time></trkpt><trkpt lat="45.0914467" lon="7.9634983"><ele>397.0</ele><time>2026-04-11T16:23:10.879Z</time></trkpt><trkpt lat="45.0914633" lon="7.9636833"><ele>397.0</ele><time>2026-04-11T16:23:11.88Z</time></trkpt><trkpt lat="45.09145" lon="7.9638783"><ele>399.25</ele><time>2026-04-11T16:23:12.88Z</time></trkpt><trkpt lat="45.0914033" lon="7.9640517"><ele>401.5</ele><time>2026-04-11T16:23:13.879Z</time></trkpt><trkpt lat="45.0913417" lon="7.9641983"><ele>403.75</ele><time>2026-04-11T16:23:14.879Z</time></trkpt><trkpt lat="45.0912333" lon="7.9642783"><ele>406.0</ele><time>2026-04-11T16:23:15.879Z</time></trkpt><trkpt lat="45.09109" lon="7.9643"><ele>411.0</ele><time>2026-04-11T16:23:16.879Z</time></trkpt><trkpt lat="45.09095" lon="7.964305"><ele>416.0</ele><time>2026-04-11T16:23:17.879Z</time></trkpt><trkpt lat="45.0908" lon="7.9643217"><ele>421.0</ele><time>2026-04-11T16:23:18.879Z</time></trkpt><trkpt lat="45.09064" lon="7.9643417"><ele>421.0</ele><time>2026-04-11T16:23:19.88Z</time></trkpt><trkpt lat="45.0904933" lon="7.9643883"><ele>421.0</ele><time>2026-04-11T16:23:20.88Z</time></trkpt><trkpt lat="45.09035" lon="7.964435"><ele>421.0</ele><time>2026-04-11T16:23:21.88Z</time></trkpt><trkpt lat="45.0902167" lon="7.96448"><ele>421.0</ele><time>2026-04-11T16:23:22.879Z</time></trkpt><trkpt lat="45.090085" lon="7.9645017"><ele>421.0</ele><time>2026-04-11T16:23:23.879Z</time></trkpt><trkpt lat="45.0899383" lon="7.9644983"><ele>421.0</ele><time>2026-04-11T16:23:24.88Z</time></trkpt><trkpt lat="45.08981" lon="7.9644383"><ele>421.0</ele><time>2026-04-11T16:23:25.879Z</time></trkpt><trkpt lat="45.089695" lon="7.964335"><ele>421.0</ele><time>2026-04-11T16:23:26.879Z</time></trkpt><trkpt lat="45.0896083" lon="7.9642083"><ele>420.83333333333337</ele><time>2026-04-11T16:23:27.88Z</time></trkpt><trkpt lat="45.0895467" lon="7.9640933"><ele>420.6666666666667</ele><time>2026-04-11T16:23:28.879Z</time></trkpt><trkpt lat="45.089465" lon="7.9640217"><ele>420.5</ele><time>2026-04-11T16:23:29.88Z</time></trkpt><trkpt lat="45.089375" lon="7.9640067"><ele>420.33333333333337</ele><time>2026-04-11T16:23:30.879Z</time></trkpt><trkpt lat="45.08931" lon="7.9640533"><ele>420.1666666666667</ele><time>2026-04-11T16:23:31.879Z</time></trkpt><trkpt lat="45.0892683" lon="7.9641417"><ele>420.0</ele><time>2026-04-11T16:23:32.88Z</time></trkpt><trkpt lat="45.0892567" lon="7.964265"><ele>420.75</ele><time>2026-04-11T16:23:33.879Z</time></trkpt><trkpt lat="45.0892917" lon="7.9644133"><ele>421.5</ele><time>2026-04-11T16:23:34.879Z</time></trkpt><trkpt lat="45.08935" lon="7.96457"><ele>422.25</ele><time>2026-04-11T16:23:35.88Z</time></trkpt><trkpt lat="45.0894117" lon="7.96472"><ele>423.0</ele><time>2026-04-11T16:23:36.879Z</time></trkpt><trkpt lat="45.0894733" lon="7.964895"><ele>420.79999999999995</ele><time>2026-04-11T16:23:37.88Z</time></trkpt><trkpt lat="45.0894967" lon="7.9650533"><ele>418.6</ele><time>2026-04-11T16:23:38.879Z</time></trkpt><trkpt lat="45.089475" lon="7.9651683"><ele>416.4</ele><time>2026-04-11T16:23:39.88Z</time></trkpt><trkpt lat="45.0894167" lon="7.96524"><ele>414.20000000000005</ele><time>2026-04-11T16:23:40.88Z</time></trkpt><trkpt lat="45.089335" lon="7.9652567"><ele>412.0</ele><time>2026-04-11T16:23:41.88Z</time></trkpt><trkpt lat="45.089245" lon="7.965215"><ele>412.0</ele><time>2026-04-11T16:23:42.88Z</time></trkpt><trkpt lat="45.089155" lon="7.9651067"><ele>412.0</ele><time>2026-04-11T16:23:43.879Z</time></trkpt><trkpt lat="45.0890717" lon="7.9649383"><ele>412.0</ele><time>2026-04-11T16:23:44.879Z</time></trkpt><trkpt lat="45.0889717" lon="7.964735"><ele>412.0</ele><time>2026-04-11T16:23:45.879Z</time></trkpt><trkpt lat="45.0888733" lon="7.96456"><ele>417.5</ele><time>2026-04-11T16:23:46.88Z</time></trkpt><trkpt lat="45.0887633" lon="7.9644067"><ele>423.0</ele><time>2026-04-11T16:23:47.88Z</time></trkpt><trkpt lat="45.0886633" lon="7.9642783"><ele>428.5</ele><time>2026-04-11T16:23:48.879Z</time></trkpt><trkpt lat="45.0885517" lon="7.964165"><ele>434.0</ele><time>2026-04-11T16:23:49.88Z</time></trkpt><trkpt lat="45.0884333" lon="7.9640517"><ele>434.75</ele><time>2026-04-11T16:23:50.88Z</time></trkpt><trkpt lat="45.0883217" lon="7.9639533"><ele>435.5</ele><time>2026-04-11T16:23:51.879Z</time></trkpt><trkpt lat="45.088215" lon="7.9638217"><ele>436.25</ele><time>2026-04-11T16:23:52.879Z</time></trkpt><trkpt lat="45.0881067" lon="7.96372"><ele>437.0</ele><time>2026-04-11T16:23:53.88Z</time></trkpt><trkpt lat="45.0879967" lon="7.9636317"><ele>439.20000000000005</ele><time>2026-04-11T16:23:54.88Z</time></trkpt><trkpt lat="45.087885" lon="7.9635483"><ele>441.40000000000003</ele><time>2026-04-11T16:23:55.879Z</time></trkpt><trkpt lat="45.087765" lon="7.9635017"><ele>443.59999999999997</ele><time>2026-04-11T16:23:56.879Z</time></trkpt><trkpt lat="45.08765" lon="7.9634717"><ele>445.79999999999995</ele><time>2026-04-11T16:23:57.879Z</time></trkpt><trkpt lat="45.0875767" lon="7.9634233"><ele>448.0</ele><time>2026-04-11T16:23:58.879Z</time></trkpt><trkpt lat="45.0875283" lon="7.963335"><ele>448.0</ele><time>2026-04-11T16:23:59.88Z</time></trkpt><trkpt lat="45.0875183" lon="7.9632217"><ele>447.99999999999994</ele><time>2026-04-11T16:24:00.88Z</time></trkpt><trkpt lat="45.08754" lon="7.9630867"><ele>447.99999999999994</ele><time>2026-04-11T16:24:01.879Z</time></trkpt><trkpt lat="45.087595" lon="7.9629417"><ele>448.0</ele><time>2026-04-11T16:24:02.879Z</time></trkpt><trkpt lat="45.0876833" lon="7.9628233"><ele>448.0</ele><time>2026-04-11T16:24:03.88Z</time></trkpt><trkpt lat="45.0877867" lon="7.9627383"><ele>448.0</ele><time>2026-04-11T16:24:04.88Z</time></trkpt><trkpt lat="45.0878933" lon="7.962665"><ele>447.99999999999994</ele><time>2026-04-11T16:24:05.88Z</time></trkpt><trkpt lat="45.087975" lon="7.9625667"><ele>447.99999999999994</ele><time>2026-04-11T16:24:06.879Z</time></trkpt><trkpt lat="45.0880233" lon="7.96245"><ele>448.0</ele><time>2026-04-11T16:24:07.88Z</time></trkpt><trkpt lat="45.0880367" lon="7.96233"><ele>448.0</ele><time>2026-04-11T16:24:08.879Z</time></trkpt><trkpt lat="45.088005" lon="7.9622083"><ele>449.2</ele><time>2026-04-11T16:24:09.88Z</time></trkpt><trkpt lat="45.087965" lon="7.9621083"><ele>450.4</ele><time>2026-04-11T16:24:10.879Z</time></trkpt><trkpt lat="45.087875" lon="7.9620483"><ele>451.59999999999997</ele><time>2026-04-11T16:24:11.88Z</time></trkpt><trkpt lat="45.0878167" lon="7.96199"><ele>452.79999999999995</ele><time>2026-04-11T16:24:12.879Z</time></trkpt><trkpt lat="45.0876783" lon="7.9620283"><ele>454.0</ele><time>2026-04-11T16:24:13.88Z</time></trkpt><trkpt lat="45.0875117" lon="7.9621517"><ele>461.0</ele><time>2026-04-11T16:24:14.879Z</time></trkpt><trkpt lat="45.0873317" lon="7.962295"><ele>468.0</ele><time>2026-04-11T16:24:15.88Z</time></trkpt><trkpt lat="45.0871717" lon="7.9623917"><ele>475.0</ele><time>2026-04-11T16:24:16.879Z</time></trkpt><trkpt lat="45.08703" lon="7.962485"><ele>472.25</ele><time>2026-04-11T16:24:17.879Z</time></trkpt><trkpt lat="45.0869017" lon="7.9625683"><ele>469.5</ele><time>2026-04-11T16:24:18.88Z</time></trkpt><trkpt lat="45.0867667" lon="7.9626367"><ele>466.75</ele><time>2026-04-11T16:24:19.879Z</time></trkpt><trkpt lat="45.0866317" lon="7.96269"><ele>464.0</ele><time>2026-04-11T16:24:20.879Z</time></trkpt><trkpt lat="45.0865017" lon="7.9627267"><ele>464.0</ele><time>2026-04-11T16:24:21.879Z</time></trkpt><trkpt lat="45.0863667" lon="7.96274"><ele>464.0</ele><time>2026-04-11T16:24:22.88Z</time></trkpt><trkpt lat="45.0862183" lon="7.9627583"><ele>464.0</ele><time>2026-04-11T16:24:23.879Z</time></trkpt><trkpt lat="45.086065" lon="7.9627583"><ele>464.0</ele><time>2026-04-11T16:24:24.88Z</time></trkpt><trkpt lat="45.0859133" lon="7.9627517"><ele>469.75</ele><time>2026-04-11T16:24:25.88Z</time></trkpt><trkpt lat="45.0857583" lon="7.9627333"><ele>475.5</ele><time>2026-04-11T16:24:26.879Z</time></trkpt><trkpt lat="45.085605" lon="7.9627283"><ele>481.25</ele><time>2026-04-11T16:24:27.88Z</time></trkpt><trkpt lat="45.08547" lon="7.9627517"><ele>487.0</ele><time>2026-04-11T16:24:28.88Z</time></trkpt><trkpt lat="45.08533" lon="7.962825"><ele>487.0</ele><time>2026-04-11T16:24:29.879Z</time></trkpt><trkpt lat="45.0852067" lon="7.96293"><ele>487.0</ele><time>2026-04-11T16:24:30.88Z</time></trkpt><trkpt lat="45.0851117" lon="7.9631117"><ele>487.0</ele><time>2026-04-11T16:24:31.879Z</time></trkpt><trkpt lat="45.085075" lon="7.963295"><ele>487.0</ele><time>2026-04-11T16:24:32.879Z</time></trkpt><trkpt lat="45.085035" lon="7.9634583"><ele>480.75</ele><time>2026-04-11T16:24:33.88Z</time></trkpt><trkpt lat="45.0849683" lon="7.9635667"><ele>474.5</ele><time>2026-04-11T16:24:34.88Z</time></trkpt><trkpt lat="45.0848583" lon="7.963585"><ele>468.25</ele><time>2026-04-11T16:24:35.879Z</time></trkpt><trkpt lat="45.0847517" lon="7.96353"><ele>462.0</ele><time>2026-04-11T16:24:36.88Z</time></trkpt><trkpt lat="45.0846517" lon="7.9634067"><ele>468.25</ele><time>2026-04-11T16:24:37.879Z</time></trkpt><trkpt lat="45.0845617" lon="7.963255"><ele>474.5</ele><time>2026-04-11T16:24:38.879Z</time></trkpt><trkpt lat="45.08445" lon="7.9631183"><ele>480.75</ele><time>2026-04-11T16:24:39.879Z</time></trkpt><trkpt lat="45.0843333" lon="7.9630317"><ele>487.0</ele><time>2026-04-11T16:24:40.879Z</time></trkpt><trkpt lat="45.0842033" lon="7.962975"><ele>488.0</ele><time>2026-04-11T16:24:41.879Z</time></trkpt><trkpt lat="45.0840583" lon="7.9629617"><ele>489.0</ele><time>2026-04-11T16:24:42.879Z</time></trkpt><trkpt lat="45.0839133" lon="7.9629767"><ele>490.0</ele><time>2026-04-11T16:24:43.879Z</time></trkpt><trkpt lat="45.0837767" lon="7.9629983"><ele>491.0</ele><time>2026-04-11T16:24:44.879Z</time></trkpt><trkpt lat="45.083635" lon="7.9630433"><ele>491.0</ele><time>2026-04-11T16:24:45.879Z</time></trkpt><trkpt lat="45.0834917" lon="7.963085"><ele>491.0</ele><time>2026-04-11T16:24:46.879Z</time></trkpt><trkpt lat="45.08335" lon="7.9631233"><ele>491.0</ele><time>2026-04-11T16:24:47.879Z</time></trkpt><trkpt lat="45.08319" lon="7.9631767"><ele>491.3333333333333</ele><time>2026-04-11T16:24:48.879Z</time></trkpt><trkpt lat="45.0830533" lon="7.9632717"><ele>491.66666666666663</ele><time>2026-04-11T16:24:49.879Z</time></trkpt><trkpt lat="45.0829183" lon="7.9633967"><ele>492.0</ele><time>2026-04-11T16:24:50.88Z</time></trkpt><trkpt lat="45.082795" lon="7.9635233"><ele>495.66666666666663</ele><time>2026-04-11T16:24:51.88Z</time></trkpt><trkpt lat="45.0826667" lon="7.9636417"><ele>499.3333333333333</ele><time>2026-04-11T16:24:52.88Z</time></trkpt><trkpt lat="45.0825333" lon="7.9637483"><ele>503.0</ele><time>2026-04-11T16:24:53.88Z</time></trkpt><trkpt lat="45.0823917" lon="7.9638567"><ele>508.0</ele><time>2026-04-11T16:24:54.879Z</time></trkpt><trkpt lat="45.0822533" lon="7.96395"><ele>513.0</ele><time>2026-04-11T16:24:55.88Z</time></trkpt><trkpt lat="45.0821067" lon="7.96403"><ele>518.0</ele><time>2026-04-11T16:24:56.879Z</time></trkpt><trkpt lat="45.0819617" lon="7.96412"><ele>518.75</ele><time>2026-04-11T16:24:57.879Z</time></trkpt><trkpt lat="45.0818133" lon="7.9642"><ele>519.5</ele><time>2026-04-11T16:24:58.88Z</time></trkpt><trkpt lat="45.0816783" lon="7.9642833"><ele>520.25</ele><time>2026-04-11T16:24:59.88Z</time></trkpt><trkpt lat="45.081565" lon="7.96438"><ele>521.0</ele><time>2026-04-11T16:25:00.88Z</time></trkpt><trkpt lat="45.0814883" lon="7.964505"><ele>516.5</ele><time>2026-04-11T16:25:01.879Z</time></trkpt><trkpt lat="45.08142" lon="7.9646517"><ele>512.0</ele><time>2026-04-11T16:25:02.879Z</time></trkpt><trkpt lat="45.0814017" lon="7.9648583"><ele>507.5</ele><time>2026-04-11T16:25:03.879Z</time></trkpt><trkpt lat="45.0813917" lon="7.9650583"><ele>503.0</ele><time>2026-04-11T16:25:04.879Z</time></trkpt><trkpt lat="45.0813683" lon="7.9652783"><ele>502.66666666666663</ele><time>2026-04-11T16:25:05.879Z</time></trkpt><trkpt lat="45.0813417" lon="7.9655033"><ele>502.33333333333337</ele><time>2026-04-11T16:25:06.88Z</time></trkpt><trkpt lat="45.0812733" lon="7.9657167"><ele>502.0</ele><time>2026-04-11T16:25:07.88Z</time></trkpt><trkpt lat="45.0811867" lon="7.9658967"><ele>504.33333333333337</ele><time>2026-04-11T16:25:08.88Z</time></trkpt><trkpt lat="45.0810967" lon="7.9660933"><ele>506.66666666666663</ele><time>2026-04-11T16:25:09.879Z</time></trkpt><trkpt lat="45.0810033" lon="7.9662867"><ele>509.0</ele><time>2026-04-11T16:25:10.879Z</time></trkpt><trkpt lat="45.0809117" lon="7.9664833"><ele>509.0</ele><time>2026-04-11T16:25:11.879Z</time></trkpt><trkpt lat="45.0808133" lon="7.9666767"><ele>509.0</ele><time>2026-04-11T16:25:12.879Z</time></trkpt><trkpt lat="45.08072" lon="7.9668633"><ele>509.0</ele><time>2026-04-11T16:25:13.88Z</time></trkpt><trkpt lat="45.080625" lon="7.967055"><ele>508.0</ele><time>2026-04-11T16:25:14.88Z</time></trkpt><trkpt lat="45.0805417" lon="7.9672467"><ele>507.0</ele><time>2026-04-11T16:25:15.88Z</time></trkpt><trkpt lat="45.08045" lon="7.967435"><ele>506.0</ele><time>2026-04-11T16:25:16.88Z</time></trkpt><trkpt lat="45.0803517" lon="7.96761"><ele>506.0</ele><time>2026-04-11T16:25:17.88Z</time></trkpt><trkpt lat="45.080265" lon="7.96776"><ele>506.0</ele><time>2026-04-11T16:25:18.88Z</time></trkpt><trkpt lat="45.0801833" lon="7.9679033"><ele>506.0</ele><time>2026-04-11T16:25:19.879Z</time></trkpt><trkpt lat="45.0801" lon="7.9680467"><ele>506.0</ele><time>2026-04-11T16:25:20.88Z</time></trkpt><trkpt lat="45.0800267" lon="7.9681783"><ele>506.0</ele><time>2026-04-11T16:25:21.88Z</time></trkpt><trkpt lat="45.0799517" lon="7.968305"><ele>506.0</ele><time>2026-04-11T16:25:22.879Z</time></trkpt><trkpt lat="45.07987" lon="7.9683983"><ele>506.0</ele><time>2026-04-11T16:25:23.879Z</time></trkpt><trkpt lat="45.0797933" lon="7.9684767"><ele>506.0</ele><time>2026-04-11T16:25:24.88Z</time></trkpt><trkpt lat="45.0797167" lon="7.968545"><ele>506.0</ele><time>2026-04-11T16:25:25.879Z</time></trkpt><trkpt lat="45.0796333" lon="7.9686"><ele>509.20000000000005</ele><time>2026-04-11T16:25:26.88Z</time></trkpt><trkpt lat="45.0795367" lon="7.9686333"><ele>512.4000000000001</ele><time>2026-04-11T16:25:27.879Z</time></trkpt><trkpt lat="45.0794367" lon="7.9686217"><ele>515.6</ele><time>2026-04-11T16:25:28.88Z</time></trkpt><trkpt lat="45.079325" lon="7.9685833"><ele>518.8000000000001</ele><time>2026-04-11T16:25:29.88Z</time></trkpt><trkpt lat="45.0792117" lon="7.9685"><ele>522.0</ele><time>2026-04-11T16:25:30.879Z</time></trkpt><trkpt lat="45.079105" lon="7.968395"><ele>519.0</ele><time>2026-04-11T16:25:31.88Z</time></trkpt><trkpt lat="45.078995" lon="7.968265"><ele>516.0</ele><time>2026-04-11T16:25:32.88Z</time></trkpt><trkpt lat="45.078895" lon="7.968115"><ele>513.0</ele><time>2026-04-11T16:25:33.879Z</time></trkpt><trkpt lat="45.07878" lon="7.96797"><ele>510.0</ele><time>2026-04-11T16:25:34.879Z</time></trkpt><trkpt lat="45.078665" lon="7.9678133"><ele>510.0</ele><time>2026-04-11T16:25:35.879Z</time></trkpt><trkpt lat="45.0785467" lon="7.967675"><ele>510.0</ele><time>2026-04-11T16:25:36.88Z</time></trkpt><trkpt lat="45.078415" lon="7.967575"><ele>510.0</ele><time>2026-04-11T16:25:37.879Z</time></trkpt><trkpt lat="45.078285" lon="7.967525"><ele>510.0</ele><time>2026-04-11T16:25:38.88Z</time></trkpt><trkpt lat="45.0781383" lon="7.9675133"><ele>509.0</ele><time>2026-04-11T16:25:39.88Z</time></trkpt><trkpt lat="45.0779917" lon="7.967535"><ele>508.0</ele><time>2026-04-11T16:25:40.879Z</time></trkpt><trkpt lat="45.0778417" lon="7.96761"><ele>507.0</ele><time>2026-04-11T16:25:41.88Z</time></trkpt><trkpt lat="45.0776833" lon="7.9677083"><ele>507.0</ele><time>2026-04-11T16:25:42.879Z</time></trkpt><trkpt lat="45.07755" lon="7.967795"><ele>507.0</ele><time>2026-04-11T16:25:43.879Z</time></trkpt><trkpt lat="45.0774133" lon="7.967885"><ele>507.0</ele><time>2026-04-11T16:25:44.88Z</time></trkpt><trkpt lat="45.0772767" lon="7.967985"><ele>505.0</ele><time>2026-04-11T16:25:45.88Z</time></trkpt><trkpt lat="45.0771267" lon="7.9680733"><ele>503.0</ele><time>2026-04-11T16:25:46.88Z</time></trkpt><trkpt lat="45.076995" lon="7.9681633"><ele>501.0</ele><time>2026-04-11T16:25:47.88Z</time></trkpt><trkpt lat="45.0768717" lon="7.9682583"><ele>499.0</ele><time>2026-04-11T16:25:48.879Z</time></trkpt><trkpt lat="45.0767517" lon="7.9683367"><ele>497.0</ele><time>2026-04-11T16:25:49.88Z</time></trkpt><trkpt lat="45.0766317" lon="7.9684117"><ele>495.0</ele><time>2026-04-11T16:25:50.88Z</time></trkpt><trkpt lat="45.0765233" lon="7.9685117"><ele>493.0</ele><time>2026-04-11T16:25:51.88Z</time></trkpt><trkpt lat="45.076425" lon="7.968615"><ele>491.0</ele><time>2026-04-11T16:25:52.879Z</time></trkpt><trkpt lat="45.07634" lon="7.96877"><ele>491.0</ele><time>2026-04-11T16:25:53.88Z</time></trkpt><trkpt lat="45.076265" lon="7.968935"><ele>491.0</ele><time>2026-04-11T16:25:54.879Z</time></trkpt><trkpt lat="45.0762083" lon="7.9691133"><ele>491.0</ele><time>2026-04-11T16:25:55.879Z</time></trkpt><trkpt lat="45.0761717" lon="7.9693033"><ele>491.0</ele><time>2026-04-11T16:25:56.879Z</time></trkpt><trkpt lat="45.076155" lon="7.9695117"><ele>489.66666666666663</ele><time>2026-04-11T16:25:57.879Z</time></trkpt><trkpt lat="45.0761183" lon="7.9697233"><ele>488.33333333333337</ele><time>2026-04-11T16:25:58.879Z</time></trkpt><trkpt lat="45.07609" lon="7.9699483"><ele>487.0</ele><time>2026-04-11T16:25:59.879Z</time></trkpt><trkpt lat="45.07606" lon="7.9701533"><ele>485.5</ele><time>2026-04-11T16:26:00.88Z</time></trkpt><trkpt lat="45.0760417" lon="7.970355"><ele>484.0</ele><time>2026-04-11T16:26:01.879Z</time></trkpt><trkpt lat="45.0760533" lon="7.9705383"><ele>482.5</ele><time>2026-04-11T16:26:02.879Z</time></trkpt><trkpt lat="45.07609" lon="7.97071"><ele>481.0</ele><time>2026-04-11T16:26:03.88Z</time></trkpt><trkpt lat="45.0761683" lon="7.970875"><ele>480.5</ele><time>2026-04-11T16:26:04.879Z</time></trkpt><trkpt lat="45.0762283" lon="7.9710283"><ele>480.0</ele><time>2026-04-11T16:26:05.88Z</time></trkpt><trkpt lat="45.0762467" lon="7.9711817"><ele>479.5</ele><time>2026-04-11T16:26:06.879Z</time></trkpt><trkpt lat="45.0762233" lon="7.9713483"><ele>479.0</ele><time>2026-04-11T16:26:07.879Z</time></trkpt><trkpt lat="45.0761533" lon="7.97151"><ele>479.0</ele><time>2026-04-11T16:26:08.88Z</time></trkpt><trkpt lat="45.0760717" lon="7.971665"><ele>479.0</ele><time>2026-04-11T16:26:09.879Z</time></trkpt><trkpt lat="45.076" lon="7.9718417"><ele>479.0</ele><time>2026-04-11T16:26:10.879Z</time></trkpt><trkpt lat="45.0759317" lon="7.97205"><ele>479.0</ele><time>2026-04-11T16:26:11.88Z</time></trkpt><trkpt lat="45.07586" lon="7.9722517"><ele>481.0</ele><time>2026-04-11T16:26:12.879Z</time></trkpt><trkpt lat="45.0757867" lon="7.9724383"><ele>483.0</ele><time>2026-04-11T16:26:13.88Z</time></trkpt><trkpt lat="45.075685" lon="7.9726"><ele>485.0</ele><time>2026-04-11T16:26:14.879Z</time></trkpt><trkpt lat="45.0755867" lon="7.97273"><ele>487.0</ele><time>2026-04-11T16:26:15.88Z</time></trkpt><trkpt lat="45.07551" lon="7.9728583"><ele>484.00000000000006</ele><time>2026-04-11T16:26:16.879Z</time></trkpt><trkpt lat="45.0754467" lon="7.9729367"><ele>481.0</ele><time>2026-04-11T16:26:17.88Z</time></trkpt><trkpt lat="45.0753817" lon="7.972985"><ele>478.0</ele><time>2026-04-11T16:26:18.88Z</time></trkpt><trkpt lat="45.0752783" lon="7.9729517"><ele>475.0</ele><time>2026-04-11T16:26:20.879Z</time></trkpt><trkpt lat="45.07526" lon="7.9728617"><ele>472.00000000000006</ele><time>2026-04-11T16:26:21.88Z</time></trkpt><trkpt lat="45.0752883" lon="7.9727467"><ele>469.0</ele><time>2026-04-11T16:26:22.88Z</time></trkpt><trkpt lat="45.07536" lon="7.9726233"><ele>467.75</ele><time>2026-04-11T16:26:23.879Z</time></trkpt><trkpt lat="45.07546" lon="7.9724983"><ele>466.5</ele><time>2026-04-11T16:26:24.879Z</time></trkpt><trkpt lat="45.0755683" lon="7.9723567"><ele>465.25</ele><time>2026-04-11T16:26:25.879Z</time></trkpt><trkpt lat="45.0756567" lon="7.9721983"><ele>464.0</ele><time>2026-04-11T16:26:26.879Z</time></trkpt><trkpt lat="45.0757317" lon="7.9720233"><ele>461.25</ele><time>2026-04-11T16:26:27.88Z</time></trkpt><trkpt lat="45.0757767" lon="7.9718633"><ele>458.5</ele><time>2026-04-11T16:26:28.879Z</time></trkpt><trkpt lat="45.0757883" lon="7.9716483"><ele>455.75</ele><time>2026-04-11T16:26:29.879Z</time></trkpt><trkpt lat="45.0757883" lon="7.9714483"><ele>453.0</ele><time>2026-04-11T16:26:30.879Z</time></trkpt><trkpt lat="45.075745" lon="7.97126"><ele>453.0</ele><time>2026-04-11T16:26:31.879Z</time></trkpt><trkpt lat="45.0756633" lon="7.9710783"><ele>453.0</ele><time>2026-04-11T16:26:32.879Z</time></trkpt><trkpt lat="45.07555" lon="7.970915"><ele>453.0</ele><time>2026-04-11T16:26:33.879Z</time></trkpt><trkpt lat="45.0754533" lon="7.9707367"><ele>454.0</ele><time>2026-04-11T16:26:34.879Z</time></trkpt><trkpt lat="45.0753833" lon="7.9705367"><ele>455.0</ele><time>2026-04-11T16:26:35.879Z</time></trkpt><trkpt lat="45.075345" lon="7.970335"><ele>456.0</ele><time>2026-04-11T16:26:36.879Z</time></trkpt><trkpt lat="45.0753167" lon="7.9701367"><ele>457.0</ele><time>2026-04-11T16:26:37.879Z</time></trkpt><trkpt lat="45.075275" lon="7.969955"><ele>456.5</ele><time>2026-04-11T16:26:38.879Z</time></trkpt><trkpt lat="45.0751833" lon="7.9698083"><ele>456.0</ele><time>2026-04-11T16:26:39.879Z</time></trkpt><trkpt lat="45.0750467" lon="7.9697183"><ele>455.5</ele><time>2026-04-11T16:26:40.879Z</time></trkpt><trkpt lat="45.0748983" lon="7.9696633"><ele>455.0</ele><time>2026-04-11T16:26:41.879Z</time></trkpt><trkpt lat="45.0747583" lon="7.969615"><ele>455.0</ele><time>2026-04-11T16:26:42.879Z</time></trkpt><trkpt lat="45.0746367" lon="7.96955"><ele>455.0</ele><time>2026-04-11T16:26:43.88Z</time></trkpt><trkpt lat="45.0745083" lon="7.9694767"><ele>455.0</ele><time>2026-04-11T16:26:44.88Z</time></trkpt><trkpt lat="45.0743767" lon="7.9694167"><ele>455.0</ele><time>2026-04-11T16:26:45.879Z</time></trkpt><trkpt lat="45.0742383" lon="7.9693867"><ele>456.25</ele><time>2026-04-11T16:26:46.879Z</time></trkpt><trkpt lat="45.0741033" lon="7.9694133"><ele>457.5</ele><time>2026-04-11T16:26:47.88Z</time></trkpt><trkpt lat="45.073975" lon="7.9694967"><ele>458.75</ele><time>2026-04-11T16:26:48.88Z</time></trkpt><trkpt lat="45.0738633" lon="7.9696383"><ele>460.0</ele><time>2026-04-11T16:26:49.88Z</time></trkpt><trkpt lat="45.0737467" lon="7.9697883"><ele>460.0</ele><time>2026-04-11T16:26:50.88Z</time></trkpt><trkpt lat="45.07362" lon="7.9699333"><ele>460.0</ele><time>2026-04-11T16:26:51.88Z</time></trkpt><trkpt lat="45.0734933" lon="7.970075"><ele>460.0</ele><time>2026-04-11T16:26:52.879Z</time></trkpt><trkpt lat="45.0733767" lon="7.9702017"><ele>454.0</ele><time>2026-04-11T16:26:53.88Z</time></trkpt><trkpt lat="45.0732417" lon="7.9703033"><ele>448.0</ele><time>2026-04-11T16:26:54.88Z</time></trkpt><trkpt lat="45.0731117" lon="7.9704"><ele>442.0</ele><time>2026-04-11T16:26:55.88Z</time></trkpt><trkpt lat="45.072975" lon="7.970505"><ele>442.0</ele><time>2026-04-11T16:26:56.879Z</time></trkpt><trkpt lat="45.07283" lon="7.9705983"><ele>442.0</ele><time>2026-04-11T16:26:57.88Z</time></trkpt><trkpt lat="45.0726733" lon="7.9706867"><ele>442.0</ele><time>2026-04-11T16:26:58.879Z</time></trkpt><trkpt lat="45.0725117" lon="7.9707983"><ele>437.6666666666667</ele><time>2026-04-11T16:26:59.879Z</time></trkpt><trkpt lat="45.0723533" lon="7.9709217"><ele>433.33333333333337</ele><time>2026-04-11T16:27:00.88Z</time></trkpt><trkpt lat="45.0721933" lon="7.9710383"><ele>429.0</ele><time>2026-04-11T16:27:01.879Z</time></trkpt><trkpt lat="45.0720267" lon="7.9711733"><ele>429.0</ele><time>2026-04-11T16:27:02.88Z</time></trkpt><trkpt lat="45.0718667" lon="7.9712833"><ele>429.0</ele><time>2026-04-11T16:27:03.88Z</time></trkpt><trkpt lat="45.0717183" lon="7.9713717"><ele>429.0</ele><time>2026-04-11T16:27:04.879Z</time></trkpt><trkpt lat="45.0715717" lon="7.97147"><ele>428.75</ele><time>2026-04-11T16:27:05.88Z</time></trkpt><trkpt lat="45.071435" lon="7.971565"><ele>428.5</ele><time>2026-04-11T16:27:06.879Z</time></trkpt><trkpt lat="45.0712983" lon="7.9716533"><ele>428.25</ele><time>2026-04-11T16:27:07.88Z</time></trkpt><trkpt lat="45.0711683" lon="7.9717467"><ele>428.0</ele><time>2026-04-11T16:27:08.879Z</time></trkpt><trkpt lat="45.0710417" lon="7.9718317"><ele>427.75</ele><time>2026-04-11T16:27:09.88Z</time></trkpt><trkpt lat="45.0709283" lon="7.97192"><ele>427.5</ele><time>2026-04-11T16:27:10.88Z</time></trkpt><trkpt lat="45.070825" lon="7.9719967"><ele>427.25</ele><time>2026-04-11T16:27:11.879Z</time></trkpt><trkpt lat="45.070715" lon="7.9720917"><ele>427.0</ele><time>2026-04-11T16:27:12.88Z</time></trkpt><trkpt lat="45.070615" lon="7.972155"><ele>427.0</ele><time>2026-04-11T16:27:13.879Z</time></trkpt><trkpt lat="45.0705117" lon="7.972185"><ele>427.00000000000006</ele><time>2026-04-11T16:27:14.879Z</time></trkpt><trkpt lat="45.0704133" lon="7.9722283"><ele>427.00000000000006</ele><time>2026-04-11T16:27:15.879Z</time></trkpt><trkpt lat="45.070315" lon="7.9723117"><ele>427.0</ele><time>2026-04-11T16:27:16.879Z</time></trkpt><trkpt lat="45.070215" lon="7.9724083"><ele>427.0</ele><time>2026-04-11T16:27:17.879Z</time></trkpt><trkpt lat="45.0701067" lon="7.97251"><ele>426.0</ele><time>2026-04-11T16:27:18.879Z</time></trkpt><trkpt lat="45.06999" lon="7.9726017"><ele>425.0</ele><time>2026-04-11T16:27:19.879Z</time></trkpt><trkpt lat="45.0698717" lon="7.97269"><ele>424.0</ele><time>2026-04-11T16:27:20.879Z</time></trkpt><trkpt lat="45.0697767" lon="7.9728083"><ele>423.0</ele><time>2026-04-11T16:27:21.879Z</time></trkpt><trkpt lat="45.0697117" lon="7.972945"><ele>423.0</ele><time>2026-04-11T16:27:22.879Z</time></trkpt><trkpt lat="45.0696883" lon="7.9731217"><ele>423.0</ele><time>2026-04-11T16:27:23.879Z</time></trkpt><trkpt lat="45.0696583" lon="7.973305"><ele>423.0</ele><time>2026-04-11T16:27:24.879Z</time></trkpt><trkpt lat="45.0696367" lon="7.9734817"><ele>423.0</ele><time>2026-04-11T16:27:25.879Z</time></trkpt><trkpt lat="45.0695983" lon="7.9736283"><ele>420.5</ele><time>2026-04-11T16:27:26.88Z</time></trkpt><trkpt lat="45.0695317" lon="7.97375"><ele>418.0</ele><time>2026-04-11T16:27:27.88Z</time></trkpt><trkpt lat="45.06943" lon="7.973825"><ele>415.5</ele><time>2026-04-11T16:27:28.879Z</time></trkpt><trkpt lat="45.0692967" lon="7.97388"><ele>413.0</ele><time>2026-04-11T16:27:29.879Z</time></trkpt><trkpt lat="45.0691483" lon="7.9739417"><ele>412.0</ele><time>2026-04-11T16:27:30.88Z</time></trkpt><trkpt lat="45.0690083" lon="7.97403"><ele>411.0</ele><time>2026-04-11T16:27:31.88Z</time></trkpt><trkpt lat="45.06887" lon="7.9741217"><ele>410.0</ele><time>2026-04-11T16:27:32.88Z</time></trkpt><trkpt lat="45.068725" lon="7.9742017"><ele>410.0</ele><time>2026-04-11T16:27:33.88Z</time></trkpt><trkpt lat="45.0685867" lon="7.9742767"><ele>410.0</ele><time>2026-04-11T16:27:34.879Z</time></trkpt><trkpt lat="45.0684683" lon="7.9743683"><ele>410.0</ele><time>2026-04-11T16:27:35.879Z</time></trkpt><trkpt lat="45.0683717" lon="7.974485"><ele>410.0</ele><time>2026-04-11T16:27:36.879Z</time></trkpt><trkpt lat="45.06827" lon="7.974625"><ele>406.5</ele><time>2026-04-11T16:27:37.88Z</time></trkpt><trkpt lat="45.0682" lon="7.9747883"><ele>403.0</ele><time>2026-04-11T16:27:38.88Z</time></trkpt><trkpt lat="45.0681233" lon="7.9749767"><ele>399.5</ele><time>2026-04-11T16:27:39.879Z</time></trkpt><trkpt lat="45.0680567" lon="7.97518"><ele>396.0</ele><time>2026-04-11T16:27:40.879Z</time></trkpt><trkpt lat="45.0679917" lon="7.975395"><ele>396.0</ele><time>2026-04-11T16:27:41.88Z</time></trkpt><trkpt lat="45.067925" lon="7.9755983"><ele>396.0</ele><time>2026-04-11T16:27:42.879Z</time></trkpt><trkpt lat="45.0678467" lon="7.9757967"><ele>396.0</ele><time>2026-04-11T16:27:43.88Z</time></trkpt><trkpt lat="45.0677617" lon="7.9759767"><ele>395.66666666666663</ele><time>2026-04-11T16:27:44.879Z</time></trkpt><trkpt lat="45.0676883" lon="7.976165"><ele>395.3333333333333</ele><time>2026-04-11T16:27:45.88Z</time></trkpt><trkpt lat="45.0676233" lon="7.97636"><ele>395.0</ele><time>2026-04-11T16:27:46.88Z</time></trkpt><trkpt lat="45.06755" lon="7.976575"><ele>393.0</ele><time>2026-04-11T16:27:47.879Z</time></trkpt><trkpt lat="45.06748" lon="7.9767967"><ele>391.0</ele><time>2026-04-11T16:27:48.879Z</time></trkpt><trkpt lat="45.067375" lon="7.9769983"><ele>389.0</ele><time>2026-04-11T16:27:49.88Z</time></trkpt><trkpt lat="45.0672533" lon="7.9771767"><ele>389.0</ele><time>2026-04-11T16:27:50.879Z</time></trkpt><trkpt lat="45.0671233" lon="7.9773383"><ele>389.0</ele><time>2026-04-11T16:27:51.879Z</time></trkpt><trkpt lat="45.0670033" lon="7.9774933"><ele>389.0</ele><time>2026-04-11T16:27:52.879Z</time></trkpt><trkpt lat="45.0668833" lon="7.9776583"><ele>387.66666666666663</ele><time>2026-04-11T16:27:53.879Z</time></trkpt><trkpt lat="45.06677" lon="7.9778167"><ele>386.33333333333337</ele><time>2026-04-11T16:27:54.879Z</time></trkpt><trkpt lat="45.0666633" lon="7.9779733"><ele>385.0</ele><time>2026-04-11T16:27:55.88Z</time></trkpt><trkpt lat="45.06655" lon="7.97812"><ele>385.0</ele><time>2026-04-11T16:27:56.88Z</time></trkpt><trkpt lat="45.0664333" lon="7.9782617"><ele>385.0</ele><time>2026-04-11T16:27:57.879Z</time></trkpt><trkpt lat="45.06632" lon="7.9784133"><ele>385.0</ele><time>2026-04-11T16:27:58.88Z</time></trkpt><trkpt lat="45.0662017" lon="7.9785717"><ele>385.33333333333337</ele><time>2026-04-11T16:27:59.88Z</time></trkpt><trkpt lat="45.0661017" lon="7.9787633"><ele>385.66666666666663</ele><time>2026-04-11T16:28:00.879Z</time></trkpt><trkpt lat="45.0660017" lon="7.97895"><ele>386.0</ele><time>2026-04-11T16:28:01.879Z</time></trkpt><trkpt lat="45.0658917" lon="7.9791267"><ele>383.0</ele><time>2026-04-11T16:28:02.879Z</time></trkpt><trkpt lat="45.06578" lon="7.9792967"><ele>380.0</ele><time>2026-04-11T16:28:03.879Z</time></trkpt><trkpt lat="45.0656567" lon="7.9794583"><ele>377.0</ele><time>2026-04-11T16:28:04.879Z</time></trkpt><trkpt lat="45.0655417" lon="7.9796133"><ele>377.0</ele><time>2026-04-11T16:28:05.88Z</time></trkpt><trkpt lat="45.06544" lon="7.9797833"><ele>377.0</ele><time>2026-04-11T16:28:06.88Z</time></trkpt><trkpt lat="45.065335" lon="7.9799667"><ele>377.0</ele><time>2026-04-11T16:28:07.879Z</time></trkpt><trkpt lat="45.0652283" lon="7.9801433"><ele>376.6666666666667</ele><time>2026-04-11T16:28:08.879Z</time></trkpt><trkpt lat="45.06511" lon="7.98031"><ele>376.3333333333333</ele><time>2026-04-11T16:28:09.879Z</time></trkpt><trkpt lat="45.0649867" lon="7.9804567"><ele>376.0</ele><time>2026-04-11T16:28:10.879Z</time></trkpt><trkpt lat="45.064845" lon="7.9806033"><ele>376.0</ele><time>2026-04-11T16:28:11.879Z</time></trkpt><trkpt lat="45.06472" lon="7.980715"><ele>376.0</ele><time>2026-04-11T16:28:12.879Z</time></trkpt><trkpt lat="45.0645983" lon="7.9808117"><ele>376.0</ele><time>2026-04-11T16:28:13.88Z</time></trkpt><trkpt lat="45.064455" lon="7.980905"><ele>376.0</ele><time>2026-04-11T16:28:14.879Z</time></trkpt><trkpt lat="45.064315" lon="7.9809667"><ele>376.75</ele><time>2026-04-11T16:28:15.88Z</time></trkpt><trkpt lat="45.0641717" lon="7.9810183"><ele>377.5</ele><time>2026-04-11T16:28:16.88Z</time></trkpt><trkpt lat="45.0640383" lon="7.9811017"><ele>378.25</ele><time>2026-04-11T16:28:17.879Z</time></trkpt><trkpt lat="45.0639233" lon="7.9811917"><ele>379.0</ele><time>2026-04-11T16:28:18.879Z</time></trkpt><trkpt lat="45.0638333" lon="7.981285"><ele>377.5</ele><time>2026-04-11T16:28:19.88Z</time></trkpt><trkpt lat="45.0637667" lon="7.9814167"><ele>376.0</ele><time>2026-04-11T16:28:20.879Z</time></trkpt><trkpt lat="45.0637133" lon="7.9815783"><ele>374.5</ele><time>2026-04-11T16:28:21.879Z</time></trkpt><trkpt lat="45.0636533" lon="7.9817617"><ele>373.0</ele><time>2026-04-11T16:28:22.879Z</time></trkpt><trkpt lat="45.06357" lon="7.9819433"><ele>372.66666666666663</ele><time>2026-04-11T16:28:23.88Z</time></trkpt><trkpt lat="45.0634733" lon="7.982105"><ele>372.3333333333333</ele><time>2026-04-11T16:28:24.879Z</time></trkpt><trkpt lat="45.0633617" lon="7.98227"><ele>372.0</ele><time>2026-04-11T16:28:25.88Z</time></trkpt><trkpt lat="45.0632317" lon="7.9824183"><ele>369.6666666666667</ele><time>2026-04-11T16:28:26.879Z</time></trkpt><trkpt lat="45.06311" lon="7.9825583"><ele>367.33333333333337</ele><time>2026-04-11T16:28:27.879Z</time></trkpt><trkpt lat="45.06299" lon="7.9827083"><ele>365.0</ele><time>2026-04-11T16:28:28.88Z</time></trkpt><trkpt lat="45.06287" lon="7.9828483"><ele>365.0</ele><time>2026-04-11T16:28:29.879Z</time></trkpt><trkpt lat="45.0627517" lon="7.982995"><ele>365.0</ele><time>2026-04-11T16:28:30.879Z</time></trkpt><trkpt lat="45.06263" lon="7.9831133"><ele>365.0</ele><time>2026-04-11T16:28:31.879Z</time></trkpt><trkpt lat="45.0625167" lon="7.983255"><ele>365.0</ele><time>2026-04-11T16:28:32.879Z</time></trkpt><trkpt lat="45.0624067" lon="7.9834233"><ele>365.0</ele><time>2026-04-11T16:28:33.879Z</time></trkpt><trkpt lat="45.0623033" lon="7.983575"><ele>365.0</ele><time>2026-04-11T16:28:34.88Z</time></trkpt><trkpt lat="45.06219" lon="7.9837067"><ele>365.0</ele><time>2026-04-11T16:28:35.879Z</time></trkpt><trkpt lat="45.0620717" lon="7.98383"><ele>365.0</ele><time>2026-04-11T16:28:36.879Z</time></trkpt><trkpt lat="45.06193" lon="7.9839467"><ele>365.0</ele><time>2026-04-11T16:28:37.88Z</time></trkpt><trkpt lat="45.0618183" lon="7.98405"><ele>365.0</ele><time>2026-04-11T16:28:38.879Z</time></trkpt><trkpt lat="45.06172" lon="7.9841383"><ele>363.6</ele><time>2026-04-11T16:28:39.879Z</time></trkpt><trkpt lat="45.0616217" lon="7.9841933"><ele>362.2</ele><time>2026-04-11T16:28:40.879Z</time></trkpt><trkpt lat="45.0615217" lon="7.98421"><ele>360.79999999999995</ele><time>2026-04-11T16:28:41.879Z</time></trkpt><trkpt lat="45.061435" lon="7.98416"><ele>359.4</ele><time>2026-04-11T16:28:42.879Z</time></trkpt><trkpt lat="45.0613383" lon="7.9840983"><ele>358.0</ele><time>2026-04-11T16:28:43.879Z</time></trkpt><trkpt lat="45.0612233" lon="7.9840467"><ele>361.5</ele><time>2026-04-11T16:28:44.88Z</time></trkpt><trkpt lat="45.0610917" lon="7.9840083"><ele>365.0</ele><time>2026-04-11T16:28:45.879Z</time></trkpt><trkpt lat="45.0609583" lon="7.98398"><ele>368.5</ele><time>2026-04-11T16:28:46.879Z</time></trkpt><trkpt lat="45.0608183" lon="7.9839483"><ele>372.0</ele><time>2026-04-11T16:28:47.879Z</time></trkpt><trkpt lat="45.060665" lon="7.9839183"><ele>373.0</ele><time>2026-04-11T16:28:48.879Z</time></trkpt><trkpt lat="45.06052" lon="7.9838933"><ele>374.0</ele><time>2026-04-11T16:28:49.879Z</time></trkpt><trkpt lat="45.0603883" lon="7.983875"><ele>375.0</ele><time>2026-04-11T16:28:50.88Z</time></trkpt><trkpt lat="45.060245" lon="7.9839067"><ele>376.0</ele><time>2026-04-11T16:28:51.88Z</time></trkpt><trkpt lat="45.0601117" lon="7.983955"><ele>376.0</ele><time>2026-04-11T16:28:52.88Z</time></trkpt><trkpt lat="45.0599867" lon="7.98404"><ele>376.0</ele><time>2026-04-11T16:28:53.879Z</time></trkpt><trkpt lat="45.05986" lon="7.98412"><ele>376.0</ele><time>2026-04-11T16:28:54.88Z</time></trkpt><trkpt lat="45.0597367" lon="7.98419"><ele>376.0</ele><time>2026-04-11T16:28:55.879Z</time></trkpt><trkpt lat="45.0596167" lon="7.984265"><ele>382.0</ele><time>2026-04-11T16:28:56.879Z</time></trkpt><trkpt lat="45.059495" lon="7.9843233"><ele>388.0</ele><time>2026-04-11T16:28:57.879Z</time></trkpt><trkpt lat="45.059375" lon="7.98437"><ele>394.0</ele><time>2026-04-11T16:28:58.879Z</time></trkpt><trkpt lat="45.0592583" lon="7.9843783"><ele>400.0</ele><time>2026-04-11T16:28:59.88Z</time></trkpt><trkpt lat="45.05913" lon="7.9843717"><ele>399.0</ele><time>2026-04-11T16:29:00.879Z</time></trkpt><trkpt lat="45.0589867" lon="7.9843233"><ele>398.0</ele><time>2026-04-11T16:29:01.879Z</time></trkpt><trkpt lat="45.0588467" lon="7.9842383"><ele>397.0</ele><time>2026-04-11T16:29:02.88Z</time></trkpt><trkpt lat="45.058715" lon="7.9841833"><ele>396.0</ele><time>2026-04-11T16:29:03.88Z</time></trkpt><trkpt lat="45.0585917" lon="7.9841267"><ele>393.25</ele><time>2026-04-11T16:29:04.88Z</time></trkpt><trkpt lat="45.0584667" lon="7.984095"><ele>390.5</ele><time>2026-04-11T16:29:05.879Z</time></trkpt><trkpt lat="45.0583483" lon="7.9840717"><ele>387.75</ele><time>2026-04-11T16:29:06.88Z</time></trkpt><trkpt lat="45.0582317" lon="7.9840733"><ele>385.0</ele><time>2026-04-11T16:29:07.879Z</time></trkpt><trkpt lat="45.05812" lon="7.9840917"><ele>383.50000000000006</ele><time>2026-04-11T16:29:08.879Z</time></trkpt><trkpt lat="45.0580217" lon="7.984135"><ele>382.0</ele><time>2026-04-11T16:29:09.879Z</time></trkpt><trkpt lat="45.057955" lon="7.9841933"><ele>380.5</ele><time>2026-04-11T16:29:10.879Z</time></trkpt><trkpt lat="45.057905" lon="7.98425"><ele>379.0</ele><time>2026-04-11T16:29:11.879Z</time></trkpt><trkpt lat="45.0578717" lon="7.9843333"><ele>377.5</ele><time>2026-04-11T16:29:12.879Z</time></trkpt><trkpt lat="45.0578817" lon="7.9844383"><ele>376.0</ele><time>2026-04-11T16:29:13.88Z</time></trkpt><trkpt lat="45.0578883" lon="7.9845583"><ele>375.6</ele><time>2026-04-11T16:29:14.879Z</time></trkpt><trkpt lat="45.0579067" lon="7.9846967"><ele>375.20000000000005</ele><time>2026-04-11T16:29:15.879Z</time></trkpt><trkpt lat="45.0579217" lon="7.984845"><ele>374.79999999999995</ele><time>2026-04-11T16:29:16.88Z</time></trkpt><trkpt lat="45.0579333" lon="7.98499"><ele>374.4</ele><time>2026-04-11T16:29:17.88Z</time></trkpt><trkpt lat="45.0579417" lon="7.985125"><ele>374.0</ele><time>2026-04-11T16:29:18.879Z</time></trkpt><trkpt lat="45.0579433" lon="7.9852567"><ele>376.79999999999995</ele><time>2026-04-11T16:29:19.88Z</time></trkpt><trkpt lat="45.0579117" lon="7.98535"><ele>379.59999999999997</ele><time>2026-04-11T16:29:20.879Z</time></trkpt><trkpt lat="45.0578467" lon="7.9854283"><ele>382.4</ele><time>2026-04-11T16:29:21.88Z</time></trkpt><trkpt lat="45.0577633" lon="7.9854767"><ele>385.2</ele><time>2026-04-11T16:29:22.879Z</time></trkpt><trkpt lat="45.05767" lon="7.98548"><ele>388.0</ele><time>2026-04-11T16:29:23.88Z</time></trkpt><trkpt lat="45.0575633" lon="7.9854433"><ele>388.0</ele><time>2026-04-11T16:29:24.88Z</time></trkpt><trkpt lat="45.0574533" lon="7.9853667"><ele>388.0</ele><time>2026-04-11T16:29:25.879Z</time></trkpt><trkpt lat="45.0573533" lon="7.98531"><ele>388.0</ele><time>2026-04-11T16:29:26.879Z</time></trkpt><trkpt lat="45.0572617" lon="7.9852567"><ele>388.0</ele><time>2026-04-11T16:29:27.88Z</time></trkpt><trkpt lat="45.0571733" lon="7.9852033"><ele>388.0</ele><time>2026-04-11T16:29:28.88Z</time></trkpt><trkpt lat="45.0571" lon="7.9851533"><ele>385.5</ele><time>2026-04-11T16:29:29.88Z</time></trkpt><trkpt lat="45.0570067" lon="7.98512"><ele>383.0</ele><time>2026-04-11T16:29:30.879Z</time></trkpt><trkpt lat="45.0569" lon="7.985115"><ele>380.5</ele><time>2026-04-11T16:29:31.88Z</time></trkpt><trkpt lat="45.056775" lon="7.9851367"><ele>378.0</ele><time>2026-04-11T16:29:32.879Z</time></trkpt><trkpt lat="45.0566433" lon="7.9851667"><ele>374.0</ele><time>2026-04-11T16:29:33.88Z</time></trkpt><trkpt lat="45.0565067" lon="7.985195"><ele>370.0</ele><time>2026-04-11T16:29:34.879Z</time></trkpt><trkpt lat="45.0563683" lon="7.9852233"><ele>366.0</ele><time>2026-04-11T16:29:35.88Z</time></trkpt><trkpt lat="45.0562267" lon="7.9852533"><ele>362.0</ele><time>2026-04-11T16:29:36.879Z</time></trkpt><trkpt lat="45.0561233" lon="7.9853083"><ele>362.0</ele><time>2026-04-11T16:29:37.88Z</time></trkpt><trkpt lat="45.0560183" lon="7.9853567"><ele>362.0</ele><time>2026-04-11T16:29:38.879Z</time></trkpt><trkpt lat="45.0559183" lon="7.9854333"><ele>362.0</ele><time>2026-04-11T16:29:39.88Z</time></trkpt><trkpt lat="45.0558283" lon="7.98554"><ele>362.0</ele><time>2026-04-11T16:29:40.879Z</time></trkpt><trkpt lat="45.05574" lon="7.9856533"><ele>361.5</ele><time>2026-04-11T16:29:41.88Z</time></trkpt><trkpt lat="45.0556533" lon="7.9857533"><ele>361.0</ele><time>2026-04-11T16:29:42.88Z</time></trkpt><trkpt lat="45.05555" lon="7.985835"><ele>360.5</ele><time>2026-04-11T16:29:43.879Z</time></trkpt><trkpt lat="45.0554567" lon="7.9859067"><ele>360.0</ele><time>2026-04-11T16:29:44.879Z</time></trkpt><trkpt lat="45.0553567" lon="7.985985"><ele>360.0</ele><time>2026-04-11T16:29:45.879Z</time></trkpt><trkpt lat="45.0552533" lon="7.9860517"><ele>360.0</ele><time>2026-04-11T16:29:46.88Z</time></trkpt><trkpt lat="45.0551417" lon="7.9861217"><ele>360.0</ele><time>2026-04-11T16:29:47.88Z</time></trkpt><trkpt lat="45.0550383" lon="7.9861967"><ele>360.0</ele><time>2026-04-11T16:29:48.879Z</time></trkpt><trkpt lat="45.054915" lon="7.9862567"><ele>358.6</ele><time>2026-04-11T16:29:49.879Z</time></trkpt><trkpt lat="45.0548033" lon="7.9863483"><ele>357.2</ele><time>2026-04-11T16:29:50.88Z</time></trkpt><trkpt lat="45.0547017" lon="7.9864"><ele>355.79999999999995</ele><time>2026-04-11T16:29:51.879Z</time></trkpt><trkpt lat="45.0546" lon="7.9864367"><ele>354.4</ele><time>2026-04-11T16:29:52.879Z</time></trkpt><trkpt lat="45.0545167" lon="7.986475"><ele>353.0</ele><time>2026-04-11T16:29:53.88Z</time></trkpt><trkpt lat="45.0544283" lon="7.9865183"><ele>353.0</ele><time>2026-04-11T16:29:54.879Z</time></trkpt><trkpt lat="45.0543233" lon="7.98653"><ele>353.0</ele><time>2026-04-11T16:29:55.88Z</time></trkpt><trkpt lat="45.0542067" lon="7.9865417"><ele>353.0</ele><time>2026-04-11T16:29:56.879Z</time></trkpt><trkpt lat="45.0540817" lon="7.9865517"><ele>353.0</ele><time>2026-04-11T16:29:57.879Z</time></trkpt><trkpt lat="45.05394" lon="7.9865717"><ele>352.0</ele><time>2026-04-11T16:29:58.88Z</time></trkpt><trkpt lat="45.053795" lon="7.98659"><ele>351.0</ele><time>2026-04-11T16:29:59.879Z</time></trkpt><trkpt lat="45.0536433" lon="7.9866067"><ele>350.0</ele><time>2026-04-11T16:30:00.879Z</time></trkpt><trkpt lat="45.053485" lon="7.9866267"><ele>350.0</ele><time>2026-04-11T16:30:01.88Z</time></trkpt><trkpt lat="45.05332" lon="7.9866333"><ele>350.0</ele><time>2026-04-11T16:30:02.879Z</time></trkpt><trkpt lat="45.0531383" lon="7.9866533"><ele>350.0</ele><time>2026-04-11T16:30:03.879Z</time></trkpt><trkpt lat="45.0529583" lon="7.986655"><ele>348.0</ele><time>2026-04-11T16:30:04.88Z</time></trkpt><trkpt lat="45.0527933" lon="7.9866717"><ele>346.0</ele><time>2026-04-11T16:30:05.88Z</time></trkpt><trkpt lat="45.0526317" lon="7.9866767"><ele>344.0</ele><time>2026-04-11T16:30:06.879Z</time></trkpt><trkpt lat="45.05247" lon="7.986695"><ele>337.6666666666667</ele><time>2026-04-11T16:30:07.879Z</time></trkpt><trkpt lat="45.0523217" lon="7.9867167"><ele>331.3333333333333</ele><time>2026-04-11T16:30:08.88Z</time></trkpt><trkpt lat="45.052165" lon="7.986735"><ele>325.0</ele><time>2026-04-11T16:30:09.88Z</time></trkpt><trkpt lat="45.052" lon="7.98676"><ele>325.0</ele><time>2026-04-11T16:30:10.88Z</time></trkpt><trkpt lat="45.0518417" lon="7.98678"><ele>325.0</ele><time>2026-04-11T16:30:11.88Z</time></trkpt><trkpt lat="45.0516817" lon="7.9868017"><ele>325.0</ele><time>2026-04-11T16:30:12.88Z</time></trkpt><trkpt lat="45.0515183" lon="7.9868133"><ele>323.3333333333333</ele><time>2026-04-11T16:30:13.88Z</time></trkpt><trkpt lat="45.0513567" lon="7.98683"><ele>321.6666666666667</ele><time>2026-04-11T16:30:14.88Z</time></trkpt><trkpt lat="45.05119" lon="7.9868517"><ele>320.0</ele><time>2026-04-11T16:30:15.88Z</time></trkpt><trkpt lat="45.0510233" lon="7.9868783"><ele>320.0</ele><time>2026-04-11T16:30:16.879Z</time></trkpt><trkpt lat="45.0508617" lon="7.9869117"><ele>320.0</ele><time>2026-04-11T16:30:17.88Z</time></trkpt><trkpt lat="45.0506933" lon="7.9869217"><ele>320.0</ele><time>2026-04-11T16:30:18.879Z</time></trkpt><trkpt lat="45.0505233" lon="7.986935"><ele>319.0</ele><time>2026-04-11T16:30:19.879Z</time></trkpt><trkpt lat="45.0503533" lon="7.98694"><ele>318.0</ele><time>2026-04-11T16:30:20.879Z</time></trkpt><trkpt lat="45.050185" lon="7.9869567"><ele>317.0</ele><time>2026-04-11T16:30:21.879Z</time></trkpt><trkpt lat="45.05002" lon="7.986965"><ele>315.0</ele><time>2026-04-11T16:30:22.88Z</time></trkpt><trkpt lat="45.04986" lon="7.9869833"><ele>313.0</ele><time>2026-04-11T16:30:23.879Z</time></trkpt><trkpt lat="45.0497067" lon="7.9870033"><ele>311.0</ele><time>2026-04-11T16:30:24.879Z</time></trkpt><trkpt lat="45.0495583" lon="7.98704"><ele>311.0</ele><time>2026-04-11T16:30:25.879Z</time></trkpt><trkpt lat="45.0494017" lon="7.9871017"><ele>311.0</ele><time>2026-04-11T16:30:26.879Z</time></trkpt><trkpt lat="45.0492417" lon="7.987195"><ele>311.0</ele><time>2026-04-11T16:30:27.88Z</time></trkpt><trkpt lat="45.049095" lon="7.9873"><ele>307.6666666666667</ele><time>2026-04-11T16:30:28.879Z</time></trkpt><trkpt lat="45.0489567" lon="7.9874183"><ele>304.3333333333333</ele><time>2026-04-11T16:30:29.879Z</time></trkpt><trkpt lat="45.04882" lon="7.987535"><ele>301.0</ele><time>2026-04-11T16:30:30.879Z</time></trkpt><trkpt lat="45.048685" lon="7.9876633"><ele>301.0</ele><time>2026-04-11T16:30:31.879Z</time></trkpt><trkpt lat="45.048545" lon="7.9877783"><ele>301.0</ele><time>2026-04-11T16:30:32.88Z</time></trkpt><trkpt lat="45.04841" lon="7.987895"><ele>301.0</ele><time>2026-04-11T16:30:33.88Z</time></trkpt><trkpt lat="45.0482833" lon="7.9879933"><ele>300.3333333333333</ele><time>2026-04-11T16:30:34.88Z</time></trkpt><trkpt lat="45.04814" lon="7.9880833"><ele>299.6666666666667</ele><time>2026-04-11T16:30:35.879Z</time></trkpt><trkpt lat="45.04799" lon="7.9881417"><ele>299.0</ele><time>2026-04-11T16:30:36.879Z</time></trkpt><trkpt lat="45.047835" lon="7.988165"><ele>299.0</ele><time>2026-04-11T16:30:37.879Z</time></trkpt><trkpt lat="45.0476733" lon="7.9881683"><ele>299.0</ele><time>2026-04-11T16:30:38.88Z</time></trkpt><trkpt lat="45.0475033" lon="7.9881717"><ele>299.0</ele><time>2026-04-11T16:30:39.88Z</time></trkpt><trkpt lat="45.0473417" lon="7.9881617"><ele>298.0</ele><time>2026-04-11T16:30:40.88Z</time></trkpt><trkpt lat="45.0471833" lon="7.9881733"><ele>297.0</ele><time>2026-04-11T16:30:41.88Z</time></trkpt><trkpt lat="45.0470217" lon="7.9881817"><ele>296.0</ele><time>2026-04-11T16:30:42.879Z</time></trkpt><trkpt lat="45.04686" lon="7.98818"><ele>296.0</ele><time>2026-04-11T16:30:43.879Z</time></trkpt><trkpt lat="45.0467017" lon="7.9881767"><ele>296.0</ele><time>2026-04-11T16:30:44.879Z</time></trkpt><trkpt lat="45.0465483" lon="7.9881933"><ele>296.0</ele><time>2026-04-11T16:30:45.88Z</time></trkpt><trkpt lat="45.046395" lon="7.9882067"><ele>294.33333333333337</ele><time>2026-04-11T16:30:46.88Z</time></trkpt><trkpt lat="45.0462383" lon="7.98825"><ele>292.6666666666667</ele><time>2026-04-11T16:30:47.88Z</time></trkpt><trkpt lat="45.0460883" lon="7.9883067"><ele>291.0</ele><time>2026-04-11T16:30:48.879Z</time></trkpt><trkpt lat="45.0459267" lon="7.9883717"><ele>286.3333333333333</ele><time>2026-04-11T16:30:49.88Z</time></trkpt><trkpt lat="45.0457583" lon="7.9884467"><ele>281.66666666666663</ele><time>2026-04-11T16:30:50.879Z</time></trkpt><trkpt lat="45.0456217" lon="7.9885633"><ele>277.0</ele><time>2026-04-11T16:30:51.88Z</time></trkpt><trkpt lat="45.0454867" lon="7.988685"><ele>277.0</ele><time>2026-04-11T16:30:52.879Z</time></trkpt><trkpt lat="45.0453517" lon="7.9888317"><ele>277.0</ele><time>2026-04-11T16:30:53.88Z</time></trkpt><trkpt lat="45.04522" lon="7.989005"><ele>277.0</ele><time>2026-04-11T16:30:54.879Z</time></trkpt><trkpt lat="45.0450983" lon="7.98917"><ele>275.3333333333333</ele><time>2026-04-11T16:30:55.879Z</time></trkpt><trkpt lat="45.0449617" lon="7.9893133"><ele>273.6666666666667</ele><time>2026-04-11T16:30:56.879Z</time></trkpt><trkpt lat="45.0448467" lon="7.989435"><ele>272.0</ele><time>2026-04-11T16:30:57.88Z</time></trkpt><trkpt lat="45.044715" lon="7.9895067"><ele>272.0</ele><time>2026-04-11T16:30:58.88Z</time></trkpt><trkpt lat="45.0445683" lon="7.9895483"><ele>272.0</ele><time>2026-04-11T16:30:59.879Z</time></trkpt><trkpt lat="45.0444083" lon="7.9895717"><ele>272.0</ele><time>2026-04-11T16:31:00.879Z</time></trkpt><trkpt lat="45.0442367" lon="7.9895917"><ele>269.6666666666667</ele><time>2026-04-11T16:31:01.88Z</time></trkpt><trkpt lat="45.0440733" lon="7.9896267"><ele>267.3333333333333</ele><time>2026-04-11T16:31:02.88Z</time></trkpt><trkpt lat="45.043925" lon="7.9896933"><ele>265.0</ele><time>2026-04-11T16:31:03.88Z</time></trkpt><trkpt lat="45.0437783" lon="7.989775"><ele>265.0</ele><time>2026-04-11T16:31:04.88Z</time></trkpt><trkpt lat="45.0436617" lon="7.9899067"><ele>265.0</ele><time>2026-04-11T16:31:05.88Z</time></trkpt><trkpt lat="45.0435133" lon="7.9900133"><ele>265.0</ele><time>2026-04-11T16:31:06.879Z</time></trkpt><trkpt lat="45.0433667" lon="7.9901217"><ele>264.66666666666663</ele><time>2026-04-11T16:31:07.88Z</time></trkpt><trkpt lat="45.04323" lon="7.9902633"><ele>264.3333333333333</ele><time>2026-04-11T16:31:08.879Z</time></trkpt><trkpt lat="45.0430983" lon="7.9904117"><ele>264.0</ele><time>2026-04-11T16:31:09.879Z</time></trkpt><trkpt lat="45.0429583" lon="7.99055"><ele>264.0</ele><time>2026-04-11T16:31:10.879Z</time></trkpt><trkpt lat="45.0428217" lon="7.9906667"><ele>264.0</ele><time>2026-04-11T16:31:11.879Z</time></trkpt><trkpt lat="45.0427033" lon="7.99077"><ele>264.0</ele><time>2026-04-11T16:31:12.879Z</time></trkpt><trkpt lat="45.0425967" lon="7.9908717"><ele>264.0</ele><time>2026-04-11T16:31:13.879Z</time></trkpt><trkpt lat="45.0425017" lon="7.9909617"><ele>266.4</ele><time>2026-04-11T16:31:14.88Z</time></trkpt><trkpt lat="45.0424167" lon="7.9910317"><ele>268.79999999999995</ele><time>2026-04-11T16:31:15.879Z</time></trkpt><trkpt lat="45.042325" lon="7.9910783"><ele>271.20000000000005</ele><time>2026-04-11T16:31:16.879Z</time></trkpt><trkpt lat="45.0422133" lon="7.9910867"><ele>273.6</ele><time>2026-04-11T16:31:17.879Z</time></trkpt><trkpt lat="45.0420883" lon="7.9910783"><ele>276.0</ele><time>2026-04-11T16:31:18.88Z</time></trkpt><trkpt lat="45.0419533" lon="7.9910617"><ele>276.0</ele><time>2026-04-11T16:31:19.879Z</time></trkpt><trkpt lat="45.0418317" lon="7.99104"><ele>276.0</ele><time>2026-04-11T16:31:20.88Z</time></trkpt><trkpt lat="45.0417117" lon="7.9910317"><ele>276.0</ele><time>2026-04-11T16:31:21.879Z</time></trkpt><trkpt lat="45.0415883" lon="7.991035"><ele>276.0</ele><time>2026-04-11T16:31:22.879Z</time></trkpt><trkpt lat="45.0414417" lon="7.9910683"><ele>273.6666666666667</ele><time>2026-04-11T16:31:23.879Z</time></trkpt><trkpt lat="45.0412933" lon="7.9911017"><ele>271.33333333333337</ele><time>2026-04-11T16:31:24.879Z</time></trkpt><trkpt lat="45.0411417" lon="7.9911383"><ele>269.0</ele><time>2026-04-11T16:31:25.879Z</time></trkpt><trkpt lat="45.0409867" lon="7.9911933"><ele>269.0</ele><time>2026-04-11T16:31:26.88Z</time></trkpt><trkpt lat="45.04082" lon="7.9912733"><ele>269.0</ele><time>2026-04-11T16:31:27.88Z</time></trkpt><trkpt lat="45.0406617" lon="7.9913783"><ele>269.0</ele><time>2026-04-11T16:31:28.88Z</time></trkpt><trkpt lat="45.04052" lon="7.9914667"><ele>270.6666666666667</ele><time>2026-04-11T16:31:29.879Z</time></trkpt><trkpt lat="45.0403717" lon="7.9915517"><ele>272.3333333333333</ele><time>2026-04-11T16:31:30.879Z</time></trkpt><trkpt lat="45.040225" lon="7.9916367"><ele>274.0</ele><time>2026-04-11T16:31:31.879Z</time></trkpt><trkpt lat="45.0400983" lon="7.9917483"><ele>274.0</ele><time>2026-04-11T16:31:32.879Z</time></trkpt><trkpt lat="45.0399683" lon="7.9919"><ele>274.0</ele><time>2026-04-11T16:31:33.879Z</time></trkpt><trkpt lat="45.0398317" lon="7.9920467"><ele>274.0</ele><time>2026-04-11T16:31:34.879Z</time></trkpt><trkpt lat="45.0397167" lon="7.9922017"><ele>272.0</ele><time>2026-04-11T16:31:35.879Z</time></trkpt><trkpt lat="45.0395867" lon="7.9923317"><ele>270.0</ele><time>2026-04-11T16:31:36.879Z</time></trkpt><trkpt lat="45.0394617" lon="7.9924583"><ele>268.0</ele><time>2026-04-11T16:31:37.88Z</time></trkpt><trkpt lat="45.03934" lon="7.992585"><ele>268.0</ele><time>2026-04-11T16:31:38.88Z</time></trkpt><trkpt lat="45.039215" lon="7.9927217"><ele>268.0</ele><time>2026-04-11T16:31:39.879Z</time></trkpt><trkpt lat="45.0390883" lon="7.9928483"><ele>268.0</ele><time>2026-04-11T16:31:40.879Z</time></trkpt><trkpt lat="45.0389617" lon="7.9929783"><ele>263.0</ele><time>2026-04-11T16:31:41.88Z</time></trkpt><trkpt lat="45.03884" lon="7.99313"><ele>258.0</ele><time>2026-04-11T16:31:42.879Z</time></trkpt><trkpt lat="45.038735" lon="7.9932917"><ele>253.0</ele><time>2026-04-11T16:31:43.879Z</time></trkpt><trkpt lat="45.0386283" lon="7.99346"><ele>253.0</ele><time>2026-04-11T16:31:44.88Z</time></trkpt><trkpt lat="45.038535" lon="7.9935933"><ele>253.0</ele><time>2026-04-11T16:31:45.879Z</time></trkpt><trkpt lat="45.0384533" lon="7.9937083"><ele>253.0</ele><time>2026-04-11T16:31:46.879Z</time></trkpt><trkpt lat="45.0383817" lon="7.993825"><ele>253.0</ele><time>2026-04-11T16:31:47.88Z</time></trkpt><trkpt lat="45.03833" lon="7.9939117"><ele>253.0</ele><time>2026-04-11T16:31:48.879Z</time></trkpt><trkpt lat="45.038285" lon="7.9939883"><ele>251.66666666666666</ele><time>2026-04-11T16:31:49.879Z</time></trkpt><trkpt lat="45.0382117" lon="7.99411"><ele>250.33333333333331</ele><time>2026-04-11T16:31:51.879Z</time></trkpt><trkpt lat="45.0381517" lon="7.9942"><ele>249.0</ele><time>2026-04-11T16:31:53.88Z</time></trkpt><trkpt lat="45.0381133" lon="7.9943033"><ele>247.66666666666669</ele><time>2026-04-11T16:31:56.879Z</time></trkpt><trkpt lat="45.038075" lon="7.9943883"><ele>246.33333333333334</ele><time>2026-04-11T16:31:59.879Z</time></trkpt><trkpt lat="45.0380183" lon="7.9944717"><ele>245.0</ele><time>2026-04-11T16:32:11.879Z</time></trkpt><trkpt lat="45.0379267" lon="7.9944833"><ele>245.0</ele><time>2026-04-11T16:32:13.88Z</time></trkpt><trkpt lat="45.0378617" lon="7.994315"><ele>245.0</ele><time>2026-04-11T16:32:15.88Z</time></trkpt><trkpt lat="45.0378367" lon="7.9941733"><ele>245.0</ele><time>2026-04-11T16:32:16.88Z</time></trkpt><trkpt lat="45.0378067" lon="7.9940283"><ele>245.0</ele><time>2026-04-11T16:32:17.88Z</time></trkpt><trkpt lat="45.037775" lon="7.99388"><ele>245.0</ele><time>2026-04-11T16:32:18.879Z</time></trkpt><trkpt lat="45.0377383" lon="7.99373"><ele>245.0</ele><time>2026-04-11T16:32:19.88Z</time></trkpt><trkpt lat="45.0377167" lon="7.9935717"><ele>245.0</ele><time>2026-04-11T16:32:20.879Z</time></trkpt><trkpt lat="45.037685" lon="7.9934067"><ele>245.0</ele><time>2026-04-11T16:32:21.88Z</time></trkpt><trkpt lat="45.0376467" lon="7.993235"><ele>245.25</ele><time>2026-04-11T16:32:22.879Z</time></trkpt><trkpt lat="45.037605" lon="7.9930433"><ele>245.5</ele><time>2026-04-11T16:32:23.88Z</time></trkpt><trkpt lat="45.0375517" lon="7.9928467"><ele>245.75</ele><time>2026-04-11T16:32:24.879Z</time></trkpt><trkpt lat="45.037505" lon="7.9926533"><ele>246.0</ele><time>2026-04-11T16:32:25.879Z</time></trkpt><trkpt lat="45.0374667" lon="7.9924617"><ele>247.0</ele><time>2026-04-11T16:32:26.879Z</time></trkpt><trkpt lat="45.03743" lon="7.9922667"><ele>248.0</ele><time>2026-04-11T16:32:27.879Z</time></trkpt><trkpt lat="45.037385" lon="7.9920583"><ele>249.0</ele><time>2026-04-11T16:32:28.879Z</time></trkpt><trkpt lat="45.0373333" lon="7.9918483"><ele>251.33333333333331</ele><time>2026-04-11T16:32:29.88Z</time></trkpt><trkpt lat="45.0372833" lon="7.9916417"><ele>253.66666666666666</ele><time>2026-04-11T16:32:30.879Z</time></trkpt><trkpt lat="45.0372383" lon="7.991435"><ele>256.0</ele><time>2026-04-11T16:32:31.879Z</time></trkpt><trkpt lat="45.0372" lon="7.9912333"><ele>256.0</ele><time>2026-04-11T16:32:32.879Z</time></trkpt><trkpt lat="45.03718" lon="7.991025"><ele>256.0</ele><time>2026-04-11T16:32:33.879Z</time></trkpt><trkpt lat="45.0371733" lon="7.9908217"><ele>256.0</ele><time>2026-04-11T16:32:34.879Z</time></trkpt><trkpt lat="45.03721" lon="7.9906167"><ele>256.0</ele><time>2026-04-11T16:32:35.88Z</time></trkpt><trkpt lat="45.03727" lon="7.99043"><ele>256.0</ele><time>2026-04-11T16:32:36.88Z</time></trkpt><trkpt lat="45.0373583" lon="7.9902433"><ele>256.0</ele><time>2026-04-11T16:32:37.88Z</time></trkpt><trkpt lat="45.0374467" lon="7.9900617"><ele>256.0</ele><time>2026-04-11T16:32:38.879Z</time></trkpt><trkpt lat="45.0375317" lon="7.9898667"><ele>256.0</ele><time>2026-04-11T16:32:39.88Z</time></trkpt><trkpt lat="45.037615" lon="7.9896717"><ele>256.0</ele><time>2026-04-11T16:32:40.879Z</time></trkpt><trkpt lat="45.0377083" lon="7.989475"><ele>256.0</ele><time>2026-04-11T16:32:41.88Z</time></trkpt><trkpt lat="45.0377933" lon="7.9892917"><ele>253.33333333333331</ele><time>2026-04-11T16:32:42.879Z</time></trkpt><trkpt lat="45.037885" lon="7.9891083"><ele>250.66666666666669</ele><time>2026-04-11T16:32:43.879Z</time></trkpt><trkpt lat="45.0379867" lon="7.9889383"><ele>248.0</ele><time>2026-04-11T16:32:44.88Z</time></trkpt><trkpt lat="45.0380933" lon="7.9887833"><ele>248.0</ele><time>2026-04-11T16:32:45.88Z</time></trkpt><trkpt lat="45.0382217" lon="7.988625"><ele>248.0</ele><time>2026-04-11T16:32:46.879Z</time></trkpt><trkpt lat="45.0383667" lon="7.9884767"><ele>248.0</ele><time>2026-04-11T16:32:47.879Z</time></trkpt><trkpt lat="45.0385167" lon="7.9883717"><ele>250.0</ele><time>2026-04-11T16:32:48.88Z</time></trkpt><trkpt lat="45.0386667" lon="7.9882683"><ele>252.0</ele><time>2026-04-11T16:32:49.879Z</time></trkpt><trkpt lat="45.038825" lon="7.9882"><ele>254.0</ele><time>2026-04-11T16:32:50.88Z</time></trkpt><trkpt lat="45.0389883" lon="7.9881283"><ele>256.6666666666667</ele><time>2026-04-11T16:32:51.88Z</time></trkpt><trkpt lat="45.039145" lon="7.9880717"><ele>259.3333333333333</ele><time>2026-04-11T16:32:52.879Z</time></trkpt><trkpt lat="45.0392967" lon="7.9879883"><ele>262.0</ele><time>2026-04-11T16:32:53.879Z</time></trkpt><trkpt lat="45.0394417" lon="7.987875"><ele>262.0</ele><time>2026-04-11T16:32:54.879Z</time></trkpt><trkpt lat="45.03958" lon="7.987765"><ele>262.0</ele><time>2026-04-11T16:32:55.88Z</time></trkpt><trkpt lat="45.0397117" lon="7.9876367"><ele>262.0</ele><time>2026-04-11T16:32:56.879Z</time></trkpt><trkpt lat="45.039835" lon="7.987495"><ele>263.3333333333333</ele><time>2026-04-11T16:32:57.879Z</time></trkpt><trkpt lat="45.0399633" lon="7.9873733"><ele>264.6666666666667</ele><time>2026-04-11T16:32:58.879Z</time></trkpt><trkpt lat="45.040085" lon="7.9872467"><ele>266.0</ele><time>2026-04-11T16:32:59.879Z</time></trkpt><trkpt lat="45.040195" lon="7.9871033"><ele>266.0</ele><time>2026-04-11T16:33:00.88Z</time></trkpt><trkpt lat="45.040305" lon="7.9869417"><ele>266.0</ele><time>2026-04-11T16:33:01.879Z</time></trkpt><trkpt lat="45.0403983" lon="7.9867533"><ele>266.0</ele><time>2026-04-11T16:33:02.88Z</time></trkpt><trkpt lat="45.0404867" lon="7.9865717"><ele>264.33333333333337</ele><time>2026-04-11T16:33:03.879Z</time></trkpt><trkpt lat="45.04057" lon="7.9863583"><ele>262.6666666666667</ele><time>2026-04-11T16:33:04.88Z</time></trkpt><trkpt lat="45.04065" lon="7.98615"><ele>261.0</ele><time>2026-04-11T16:33:05.88Z</time></trkpt><trkpt lat="45.0407417" lon="7.9859517"><ele>262.3333333333333</ele><time>2026-04-11T16:33:06.879Z</time></trkpt><trkpt lat="45.04083" lon="7.9857533"><ele>263.66666666666663</ele><time>2026-04-11T16:33:07.879Z</time></trkpt><trkpt lat="45.0409117" lon="7.9855483"><ele>265.0</ele><time>2026-04-11T16:33:08.879Z</time></trkpt><trkpt lat="45.041" lon="7.985355"><ele>265.0</ele><time>2026-04-11T16:33:09.879Z</time></trkpt><trkpt lat="45.0410867" lon="7.985165"><ele>265.0</ele><time>2026-04-11T16:33:10.879Z</time></trkpt><trkpt lat="45.0411783" lon="7.9849833"><ele>265.0</ele><time>2026-04-11T16:33:11.88Z</time></trkpt><trkpt lat="45.04127" lon="7.9848067"><ele>266.3333333333333</ele><time>2026-04-11T16:33:12.88Z</time></trkpt><trkpt lat="45.04137" lon="7.9846233"><ele>267.6666666666667</ele><time>2026-04-11T16:33:13.879Z</time></trkpt><trkpt lat="45.0414617" lon="7.9844433"><ele>269.0</ele><time>2026-04-11T16:33:14.88Z</time></trkpt><trkpt lat="45.04156" lon="7.9842583"><ele>269.0</ele><time>2026-04-11T16:33:15.88Z</time></trkpt><trkpt lat="45.0416617" lon="7.984085"><ele>269.0</ele><time>2026-04-11T16:33:16.879Z</time></trkpt><trkpt lat="45.041765" lon="7.98391"><ele>269.0</ele><time>2026-04-11T16:33:17.879Z</time></trkpt><trkpt lat="45.0418583" lon="7.983745"><ele>269.0</ele><time>2026-04-11T16:33:18.88Z</time></trkpt><trkpt lat="45.04195" lon="7.9835633"><ele>269.0</ele><time>2026-04-11T16:33:19.879Z</time></trkpt><trkpt lat="45.0420283" lon="7.9833783"><ele>269.0</ele><time>2026-04-11T16:33:20.879Z</time></trkpt><trkpt lat="45.042085" lon="7.9831917"><ele>269.5</ele><time>2026-04-11T16:33:21.879Z</time></trkpt><trkpt lat="45.0421283" lon="7.9829967"><ele>270.0</ele><time>2026-04-11T16:33:22.88Z</time></trkpt><trkpt lat="45.042145" lon="7.9828033"><ele>270.5</ele><time>2026-04-11T16:33:23.88Z</time></trkpt><trkpt lat="45.0421267" lon="7.9826033"><ele>271.0</ele><time>2026-04-11T16:33:24.879Z</time></trkpt><trkpt lat="45.0420767" lon="7.9823933"><ele>275.66666666666663</ele><time>2026-04-11T16:33:25.879Z</time></trkpt><trkpt lat="45.0420167" lon="7.9821833"><ele>280.3333333333333</ele><time>2026-04-11T16:33:26.879Z</time></trkpt><trkpt lat="45.0419533" lon="7.98199"><ele>285.0</ele><time>2026-04-11T16:33:27.879Z</time></trkpt><trkpt lat="45.0418833" lon="7.9818133"><ele>286.0</ele><time>2026-04-11T16:33:28.879Z</time></trkpt><trkpt lat="45.0418217" lon="7.9816317"><ele>287.0</ele><time>2026-04-11T16:33:29.88Z</time></trkpt><trkpt lat="45.041765" lon="7.981445"><ele>288.0</ele><time>2026-04-11T16:33:30.879Z</time></trkpt><trkpt lat="45.0416967" lon="7.98127"><ele>289.0</ele><time>2026-04-11T16:33:31.879Z</time></trkpt><trkpt lat="45.04163" lon="7.9811083"><ele>287.66666666666663</ele><time>2026-04-11T16:33:32.88Z</time></trkpt><trkpt lat="45.04157" lon="7.9808783"><ele>286.3333333333333</ele><time>2026-04-11T16:33:33.88Z</time></trkpt><trkpt lat="45.0415183" lon="7.9806683"><ele>285.0</ele><time>2026-04-11T16:33:34.879Z</time></trkpt><trkpt lat="45.0414883" lon="7.98047"><ele>285.0</ele><time>2026-04-11T16:33:35.88Z</time></trkpt><trkpt lat="45.0414467" lon="7.9802567"><ele>285.0</ele><time>2026-04-11T16:33:36.879Z</time></trkpt><trkpt lat="45.0414183" lon="7.9800667"><ele>285.0</ele><time>2026-04-11T16:33:37.879Z</time></trkpt><trkpt lat="45.04139" lon="7.9798817"><ele>285.0</ele><time>2026-04-11T16:33:38.879Z</time></trkpt><trkpt lat="45.0413717" lon="7.9797233"><ele>282.4</ele><time>2026-04-11T16:33:39.879Z</time></trkpt><trkpt lat="45.0413633" lon="7.9795933"><ele>279.8</ele><time>2026-04-11T16:33:40.879Z</time></trkpt><trkpt lat="45.0413433" lon="7.9794867"><ele>277.2</ele><time>2026-04-11T16:33:41.879Z</time></trkpt><trkpt lat="45.0412883" lon="7.9794183"><ele>274.6</ele><time>2026-04-11T16:33:43.879Z</time></trkpt><trkpt lat="45.0411933" lon="7.9795417"><ele>272.0</ele><time>2026-04-11T16:33:45.879Z</time></trkpt><trkpt lat="45.0411683" lon="7.97966"><ele>272.0</ele><time>2026-04-11T16:33:46.879Z</time></trkpt><trkpt lat="45.04116" lon="7.9798283"><ele>272.0</ele><time>2026-04-11T16:33:47.879Z</time></trkpt><trkpt lat="45.0411767" lon="7.9799833"><ele>272.0</ele><time>2026-04-11T16:33:48.88Z</time></trkpt><trkpt lat="45.0411933" lon="7.980135"><ele>272.0</ele><time>2026-04-11T16:33:49.879Z</time></trkpt><trkpt lat="45.0412233" lon="7.9802783"><ele>272.0</ele><time>2026-04-11T16:33:50.879Z</time></trkpt><trkpt lat="45.04125" lon="7.9804317"><ele>275.25</ele><time>2026-04-11T16:33:51.88Z</time></trkpt><trkpt lat="45.0412867" lon="7.980585"><ele>278.5</ele><time>2026-04-11T16:33:52.879Z</time></trkpt><trkpt lat="45.0413233" lon="7.980755"><ele>281.75</ele><time>2026-04-11T16:33:53.879Z</time></trkpt><trkpt lat="45.04135" lon="7.9809267"><ele>285.0</ele><time>2026-04-11T16:33:54.879Z</time></trkpt><trkpt lat="45.0413767" lon="7.9810817"><ele>287.0</ele><time>2026-04-11T16:33:55.88Z</time></trkpt><trkpt lat="45.0414133" lon="7.9812133"><ele>289.0</ele><time>2026-04-11T16:33:56.879Z</time></trkpt><trkpt lat="45.0414767" lon="7.981345"><ele>291.0</ele><time>2026-04-11T16:33:57.88Z</time></trkpt><trkpt lat="45.041525" lon="7.9814817"><ele>293.0</ele><time>2026-04-11T16:33:58.88Z</time></trkpt><trkpt lat="45.0415567" lon="7.981625"><ele>295.0</ele><time>2026-04-11T16:33:59.879Z</time></trkpt><trkpt lat="45.04157" lon="7.9817833"><ele>295.25</ele><time>2026-04-11T16:34:00.88Z</time></trkpt><trkpt lat="45.0415617" lon="7.9819433"><ele>295.5</ele><time>2026-04-11T16:34:01.879Z</time></trkpt><trkpt lat="45.0415483" lon="7.9821"><ele>295.75</ele><time>2026-04-11T16:34:02.88Z</time></trkpt><trkpt lat="45.0415083" lon="7.982245"><ele>296.0</ele><time>2026-04-11T16:34:03.88Z</time></trkpt><trkpt lat="45.0414483" lon="7.982385"><ele>295.25</ele><time>2026-04-11T16:34:04.879Z</time></trkpt><trkpt lat="45.041375" lon="7.98252"><ele>294.5</ele><time>2026-04-11T16:34:05.879Z</time></trkpt><trkpt lat="45.0412867" lon="7.982645"><ele>293.75</ele><time>2026-04-11T16:34:06.88Z</time></trkpt><trkpt lat="45.041205" lon="7.982785"><ele>293.0</ele><time>2026-04-11T16:34:07.88Z</time></trkpt><trkpt lat="45.0411117" lon="7.98292"><ele>293.0</ele><time>2026-04-11T16:34:08.879Z</time></trkpt><trkpt lat="45.0410083" lon="7.983045"><ele>293.0</ele><time>2026-04-11T16:34:09.879Z</time></trkpt><trkpt lat="45.0409017" lon="7.9831317"><ele>293.0</ele><time>2026-04-11T16:34:10.879Z</time></trkpt><trkpt lat="45.04078" lon="7.9831883"><ele>293.0</ele><time>2026-04-11T16:34:11.879Z</time></trkpt><trkpt lat="45.0406533" lon="7.98323"><ele>293.5</ele><time>2026-04-11T16:34:12.88Z</time></trkpt><trkpt lat="45.0405217" lon="7.98328"><ele>294.0</ele><time>2026-04-11T16:34:13.88Z</time></trkpt><trkpt lat="45.040385" lon="7.9833617"><ele>294.5</ele><time>2026-04-11T16:34:14.879Z</time></trkpt><trkpt lat="45.0402517" lon="7.9834567"><ele>295.0</ele><time>2026-04-11T16:34:15.879Z</time></trkpt><trkpt lat="45.0401183" lon="7.9835583"><ele>295.0</ele><time>2026-04-11T16:34:16.879Z</time></trkpt><trkpt lat="45.039985" lon="7.98366"><ele>295.0</ele><time>2026-04-11T16:34:17.879Z</time></trkpt><trkpt lat="45.0398467" lon="7.9837717"><ele>295.0</ele><time>2026-04-11T16:34:18.879Z</time></trkpt><trkpt lat="45.0397" lon="7.9838917"><ele>295.0</ele><time>2026-04-11T16:34:19.88Z</time></trkpt><trkpt lat="45.0395417" lon="7.9840117"><ele>295.0</ele><time>2026-04-11T16:34:20.879Z</time></trkpt><trkpt lat="45.0393933" lon="7.9841233"><ele>295.0</ele><time>2026-04-11T16:34:21.88Z</time></trkpt><trkpt lat="45.03925" lon="7.984235"><ele>293.0</ele><time>2026-04-11T16:34:22.88Z</time></trkpt><trkpt lat="45.0391067" lon="7.984345"><ele>291.0</ele><time>2026-04-11T16:34:23.879Z</time></trkpt><trkpt lat="45.0389583" lon="7.9844467"><ele>289.0</ele><time>2026-04-11T16:34:24.88Z</time></trkpt><trkpt lat="45.0388117" lon="7.98456"><ele>289.0</ele><time>2026-04-11T16:34:25.879Z</time></trkpt><trkpt lat="45.038665" lon="7.98468"><ele>289.0</ele><time>2026-04-11T16:34:26.879Z</time></trkpt><trkpt lat="45.03852" lon="7.9848083"><ele>289.0</ele><time>2026-04-11T16:34:27.879Z</time></trkpt><trkpt lat="45.0383933" lon="7.98494"><ele>291.0</ele><time>2026-04-11T16:34:28.879Z</time></trkpt><trkpt lat="45.0382683" lon="7.9850433"><ele>293.0</ele><time>2026-04-11T16:34:29.879Z</time></trkpt><trkpt lat="45.0381317" lon="7.9851183"><ele>295.0</ele><time>2026-04-11T16:34:30.879Z</time></trkpt><trkpt lat="45.0379833" lon="7.9851417"><ele>297.0</ele><time>2026-04-11T16:34:31.879Z</time></trkpt><trkpt lat="45.03783" lon="7.9851367"><ele>297.0</ele><time>2026-04-11T16:34:32.88Z</time></trkpt><trkpt lat="45.0376683" lon="7.9851367"><ele>297.0</ele><time>2026-04-11T16:34:33.88Z</time></trkpt><trkpt lat="45.0375083" lon="7.98518"><ele>297.0</ele><time>2026-04-11T16:34:34.879Z</time></trkpt><trkpt lat="45.0373617" lon="7.98526"><ele>295.3333333333333</ele><time>2026-04-11T16:34:35.879Z</time></trkpt><trkpt lat="45.0372267" lon="7.9853817"><ele>293.66666666666663</ele><time>2026-04-11T16:34:36.88Z</time></trkpt><trkpt lat="45.0371083" lon="7.9855117"><ele>292.0</ele><time>2026-04-11T16:34:37.88Z</time></trkpt><trkpt lat="45.0369833" lon="7.9856267"><ele>292.0</ele><time>2026-04-11T16:34:38.88Z</time></trkpt><trkpt lat="45.0368383" lon="7.9857017"><ele>292.0</ele><time>2026-04-11T16:34:39.879Z</time></trkpt><trkpt lat="45.036685" lon="7.98573"><ele>292.0</ele><time>2026-04-11T16:34:40.879Z</time></trkpt><trkpt lat="45.0365167" lon="7.9857283"><ele>290.0</ele><time>2026-04-11T16:34:41.879Z</time></trkpt><trkpt lat="45.03634" lon="7.9857317"><ele>288.0</ele><time>2026-04-11T16:34:42.879Z</time></trkpt><trkpt lat="45.0361933" lon="7.985745"><ele>286.0</ele><time>2026-04-11T16:34:43.879Z</time></trkpt><trkpt lat="45.0360317" lon="7.9857067"><ele>286.0</ele><time>2026-04-11T16:34:44.88Z</time></trkpt><trkpt lat="45.0358933" lon="7.985625"><ele>286.0</ele><time>2026-04-11T16:34:45.879Z</time></trkpt><trkpt lat="45.0357783" lon="7.9855017"><ele>286.0</ele><time>2026-04-11T16:34:46.88Z</time></trkpt><trkpt lat="45.03568" lon="7.9853633"><ele>286.0</ele><time>2026-04-11T16:34:47.88Z</time></trkpt><trkpt lat="45.035595" lon="7.9851983"><ele>284.75</ele><time>2026-04-11T16:34:48.879Z</time></trkpt><trkpt lat="45.0355033" lon="7.9850883"><ele>283.5</ele><time>2026-04-11T16:34:49.88Z</time></trkpt><trkpt lat="45.0353767" lon="7.985005"><ele>282.25</ele><time>2026-04-11T16:34:50.879Z</time></trkpt><trkpt lat="45.0352383" lon="7.9849533"><ele>281.0</ele><time>2026-04-11T16:34:51.88Z</time></trkpt><trkpt lat="45.0351" lon="7.9849017"><ele>281.75</ele><time>2026-04-11T16:34:52.879Z</time></trkpt><trkpt lat="45.0349483" lon="7.984845"><ele>282.5</ele><time>2026-04-11T16:34:53.88Z</time></trkpt><trkpt lat="45.0348083" lon="7.984835"><ele>283.25</ele><time>2026-04-11T16:34:54.88Z</time></trkpt><trkpt lat="45.0346667" lon="7.984865"><ele>284.0</ele><time>2026-04-11T16:34:55.88Z</time></trkpt><trkpt lat="45.0345333" lon="7.9849417"><ele>283.5</ele><time>2026-04-11T16:34:56.879Z</time></trkpt><trkpt lat="45.03441" lon="7.9850317"><ele>283.0</ele><time>2026-04-11T16:34:57.88Z</time></trkpt><trkpt lat="45.03429" lon="7.985105"><ele>282.5</ele><time>2026-04-11T16:34:58.88Z</time></trkpt><trkpt lat="45.0341733" lon="7.98515"><ele>282.0</ele><time>2026-04-11T16:34:59.88Z</time></trkpt><trkpt lat="45.034035" lon="7.9851683"><ele>279.3333333333333</ele><time>2026-04-11T16:35:00.879Z</time></trkpt><trkpt lat="45.0338817" lon="7.9851567"><ele>276.66666666666663</ele><time>2026-04-11T16:35:01.88Z</time></trkpt><trkpt lat="45.03373" lon="7.9851183"><ele>274.0</ele><time>2026-04-11T16:35:02.879Z</time></trkpt><trkpt lat="45.0335833" lon="7.9850467"><ele>273.3333333333333</ele><time>2026-04-11T16:35:03.879Z</time></trkpt><trkpt lat="45.03344" lon="7.9849533"><ele>272.6666666666667</ele><time>2026-04-11T16:35:04.88Z</time></trkpt><trkpt lat="45.0333033" lon="7.9848467"><ele>272.0</ele><time>2026-04-11T16:35:05.879Z</time></trkpt><trkpt lat="45.0331733" lon="7.9847333"><ele>272.0</ele><time>2026-04-11T16:35:06.879Z</time></trkpt><trkpt lat="45.03306" lon="7.9846317"><ele>272.0</ele><time>2026-04-11T16:35:07.879Z</time></trkpt><trkpt lat="45.0329283" lon="7.9845483"><ele>272.0</ele><time>2026-04-11T16:35:08.879Z</time></trkpt><trkpt lat="45.0327817" lon="7.984505"><ele>272.0</ele><time>2026-04-11T16:35:09.879Z</time></trkpt><trkpt lat="45.0326283" lon="7.9845033"><ele>272.0</ele><time>2026-04-11T16:35:10.879Z</time></trkpt><trkpt lat="45.032475" lon="7.9845267"><ele>272.0</ele><time>2026-04-11T16:35:11.88Z</time></trkpt><trkpt lat="45.0323233" lon="7.9845633"><ele>272.0</ele><time>2026-04-11T16:35:12.879Z</time></trkpt><trkpt lat="45.0321733" lon="7.9846083"><ele>272.0</ele><time>2026-04-11T16:35:13.879Z</time></trkpt><trkpt lat="45.0320333" lon="7.9846833"><ele>272.0</ele><time>2026-04-11T16:35:14.879Z</time></trkpt><trkpt lat="45.0319033" lon="7.98479"><ele>272.0</ele><time>2026-04-11T16:35:15.879Z</time></trkpt><trkpt lat="45.03177" lon="7.98491"><ele>271.6666666666667</ele><time>2026-04-11T16:35:16.879Z</time></trkpt><trkpt lat="45.0316467" lon="7.9850467"><ele>271.3333333333333</ele><time>2026-04-11T16:35:17.879Z</time></trkpt><trkpt lat="45.0315183" lon="7.9851767"><ele>271.0</ele><time>2026-04-11T16:35:18.879Z</time></trkpt><trkpt lat="45.031385" lon="7.985295"><ele>271.0</ele><time>2026-04-11T16:35:19.879Z</time></trkpt><trkpt lat="45.0312483" lon="7.9854067"><ele>271.0</ele><time>2026-04-11T16:35:20.879Z</time></trkpt><trkpt lat="45.031105" lon="7.98552"><ele>271.0</ele><time>2026-04-11T16:35:21.88Z</time></trkpt><trkpt lat="45.0309667" lon="7.9856617"><ele>271.0</ele><time>2026-04-11T16:35:22.879Z</time></trkpt><trkpt lat="45.0308433" lon="7.9858067"><ele>271.0</ele><time>2026-04-11T16:35:23.88Z</time></trkpt><trkpt lat="45.0307383" lon="7.985955"><ele>271.0</ele><time>2026-04-11T16:35:24.879Z</time></trkpt><trkpt lat="45.030655" lon="7.986125"><ele>271.75</ele><time>2026-04-11T16:35:25.879Z</time></trkpt><trkpt lat="45.03057" lon="7.98627"><ele>272.5</ele><time>2026-04-11T16:35:26.879Z</time></trkpt><trkpt lat="45.0304833" lon="7.986395"><ele>273.25</ele><time>2026-04-11T16:35:27.879Z</time></trkpt><trkpt lat="45.03038" lon="7.9865017"><ele>274.0</ele><time>2026-04-11T16:35:28.879Z</time></trkpt><trkpt lat="45.0302683" lon="7.9865733"><ele>274.0</ele><time>2026-04-11T16:35:29.879Z</time></trkpt><trkpt lat="45.0301317" lon="7.9866467"><ele>274.0</ele><time>2026-04-11T16:35:30.879Z</time></trkpt><trkpt lat="45.0299983" lon="7.986735"><ele>274.0</ele><time>2026-04-11T16:35:31.88Z</time></trkpt><trkpt lat="45.0298617" lon="7.986815"><ele>274.0</ele><time>2026-04-11T16:35:32.879Z</time></trkpt><trkpt lat="45.0297383" lon="7.9869067"><ele>272.66666666666663</ele><time>2026-04-11T16:35:33.88Z</time></trkpt><trkpt lat="45.0296067" lon="7.9870067"><ele>271.3333333333333</ele><time>2026-04-11T16:35:34.879Z</time></trkpt><trkpt lat="45.0294467" lon="7.9871017"><ele>270.0</ele><time>2026-04-11T16:35:35.879Z</time></trkpt><trkpt lat="45.0292767" lon="7.9871683"><ele>270.3333333333333</ele><time>2026-04-11T16:35:36.879Z</time></trkpt><trkpt lat="45.0291183" lon="7.9872183"><ele>270.66666666666663</ele><time>2026-04-11T16:35:37.88Z</time></trkpt><trkpt lat="45.0289483" lon="7.9872433"><ele>271.0</ele><time>2026-04-11T16:35:38.879Z</time></trkpt><trkpt lat="45.02878" lon="7.9872683"><ele>271.0</ele><time>2026-04-11T16:35:39.879Z</time></trkpt><trkpt lat="45.028625" lon="7.9872833"><ele>271.0</ele><time>2026-04-11T16:35:40.88Z</time></trkpt><trkpt lat="45.0284733" lon="7.987285"><ele>271.0</ele><time>2026-04-11T16:35:41.879Z</time></trkpt><trkpt lat="45.02831" lon="7.9872767"><ele>269.0</ele><time>2026-04-11T16:35:42.879Z</time></trkpt><trkpt lat="45.0281483" lon="7.9872267"><ele>267.0</ele><time>2026-04-11T16:35:43.879Z</time></trkpt><trkpt lat="45.0279833" lon="7.9871633"><ele>265.0</ele><time>2026-04-11T16:35:44.879Z</time></trkpt><trkpt lat="45.0278283" lon="7.9870867"><ele>265.0</ele><time>2026-04-11T16:35:45.878Z</time></trkpt><trkpt lat="45.0276783" lon="7.9870033"><ele>265.0</ele><time>2026-04-11T16:35:46.879Z</time></trkpt><trkpt lat="45.02752" lon="7.986945"><ele>265.0</ele><time>2026-04-11T16:35:47.878Z</time></trkpt><trkpt lat="45.02735" lon="7.9869"><ele>265.0</ele><time>2026-04-11T16:35:48.878Z</time></trkpt><trkpt lat="45.0271833" lon="7.9868833"><ele>265.0</ele><time>2026-04-11T16:35:49.879Z</time></trkpt><trkpt lat="45.0270267" lon="7.9869117"><ele>265.0</ele><time>2026-04-11T16:35:50.879Z</time></trkpt><trkpt lat="45.0268767" lon="7.9869667"><ele>265.0</ele><time>2026-04-11T16:35:51.879Z</time></trkpt><trkpt lat="45.02673" lon="7.987045"><ele>265.0</ele><time>2026-04-11T16:35:52.879Z</time></trkpt><trkpt lat="45.02658" lon="7.9871183"><ele>265.0</ele><time>2026-04-11T16:35:53.879Z</time></trkpt><trkpt lat="45.026435" lon="7.987195"><ele>267.3333333333333</ele><time>2026-04-11T16:35:54.879Z</time></trkpt><trkpt lat="45.0262917" lon="7.9872783"><ele>269.6666666666667</ele><time>2026-04-11T16:35:55.879Z</time></trkpt><trkpt lat="45.0261567" lon="7.9873617"><ele>272.0</ele><time>2026-04-11T16:35:56.879Z</time></trkpt><trkpt lat="45.0260183" lon="7.987475"><ele>269.6666666666667</ele><time>2026-04-11T16:35:57.878Z</time></trkpt><trkpt lat="45.0258917" lon="7.987605"><ele>267.3333333333333</ele><time>2026-04-11T16:35:58.878Z</time></trkpt><trkpt lat="45.0257633" lon="7.9877517"><ele>265.0</ele><time>2026-04-11T16:35:59.878Z</time></trkpt><trkpt lat="45.025655" lon="7.987925"><ele>266.66666666666663</ele><time>2026-04-11T16:36:00.879Z</time></trkpt><trkpt lat="45.0255583" lon="7.988095"><ele>268.3333333333333</ele><time>2026-04-11T16:36:01.878Z</time></trkpt><trkpt lat="45.025465" lon="7.9882717"><ele>270.0</ele><time>2026-04-11T16:36:02.879Z</time></trkpt><trkpt lat="45.025375" lon="7.9884483"><ele>270.0</ele><time>2026-04-11T16:36:03.878Z</time></trkpt><trkpt lat="45.0252683" lon="7.9886"><ele>270.0</ele><time>2026-04-11T16:36:04.879Z</time></trkpt><trkpt lat="45.02516" lon="7.988745"><ele>270.0</ele><time>2026-04-11T16:36:05.878Z</time></trkpt><trkpt lat="45.02504" lon="7.9888733"><ele>269.0</ele><time>2026-04-11T16:36:06.878Z</time></trkpt><trkpt lat="45.024915" lon="7.9889833"><ele>268.0</ele><time>2026-04-11T16:36:07.879Z</time></trkpt><trkpt lat="45.02478" lon="7.9890783"><ele>267.0</ele><time>2026-04-11T16:36:08.878Z</time></trkpt><trkpt lat="45.02465" lon="7.9891617"><ele>266.0</ele><time>2026-04-11T16:36:09.879Z</time></trkpt><trkpt lat="45.0245267" lon="7.989215"><ele>266.0</ele><time>2026-04-11T16:36:10.878Z</time></trkpt><trkpt lat="45.0243833" lon="7.9892117"><ele>266.0</ele><time>2026-04-11T16:36:11.879Z</time></trkpt><trkpt lat="45.0242583" lon="7.9891283"><ele>266.0</ele><time>2026-04-11T16:36:12.879Z</time></trkpt><trkpt lat="45.024135" lon="7.9890067"><ele>266.0</ele><time>2026-04-11T16:36:13.878Z</time></trkpt><trkpt lat="45.02402" lon="7.9888633"><ele>260.6666666666667</ele><time>2026-04-11T16:36:14.878Z</time></trkpt><trkpt lat="45.023895" lon="7.98874"><ele>255.33333333333331</ele><time>2026-04-11T16:36:15.878Z</time></trkpt><trkpt lat="45.02376" lon="7.9886483"><ele>250.0</ele><time>2026-04-11T16:36:16.879Z</time></trkpt><trkpt lat="45.023615" lon="7.98856"><ele>250.0</ele><time>2026-04-11T16:36:17.878Z</time></trkpt><trkpt lat="45.023475" lon="7.988485"><ele>250.0</ele><time>2026-04-11T16:36:18.878Z</time></trkpt><trkpt lat="45.0233317" lon="7.988405"><ele>250.0</ele><time>2026-04-11T16:36:19.879Z</time></trkpt><trkpt lat="45.02319" lon="7.9883367"><ele>252.25</ele><time>2026-04-11T16:36:20.878Z</time></trkpt><trkpt lat="45.0230533" lon="7.9882533"><ele>254.5</ele><time>2026-04-11T16:36:21.878Z</time></trkpt><trkpt lat="45.0229283" lon="7.9881767"><ele>256.75</ele><time>2026-04-11T16:36:22.879Z</time></trkpt><trkpt lat="45.0227967" lon="7.9880917"><ele>259.0</ele><time>2026-04-11T16:36:23.879Z</time></trkpt><trkpt lat="45.022655" lon="7.9880067"><ele>259.0</ele><time>2026-04-11T16:36:24.879Z</time></trkpt><trkpt lat="45.0225133" lon="7.9879217"><ele>259.0</ele><time>2026-04-11T16:36:25.879Z</time></trkpt><trkpt lat="45.0223883" lon="7.987835"><ele>259.0</ele><time>2026-04-11T16:36:26.878Z</time></trkpt><trkpt lat="45.022265" lon="7.987765"><ele>259.0</ele><time>2026-04-11T16:36:27.878Z</time></trkpt><trkpt lat="45.0221617" lon="7.987745"><ele>260.75</ele><time>2026-04-11T16:36:28.878Z</time></trkpt><trkpt lat="45.0220317" lon="7.98776"><ele>262.5</ele><time>2026-04-11T16:36:29.878Z</time></trkpt><trkpt lat="45.021915" lon="7.987805"><ele>264.25</ele><time>2026-04-11T16:36:30.879Z</time></trkpt><trkpt lat="45.0217917" lon="7.987885"><ele>266.0</ele><time>2026-04-11T16:36:31.878Z</time></trkpt><trkpt lat="45.021685" lon="7.9879533"><ele>268.0</ele><time>2026-04-11T16:36:32.878Z</time></trkpt><trkpt lat="45.0215583" lon="7.9880017"><ele>270.0</ele><time>2026-04-11T16:36:33.879Z</time></trkpt><trkpt lat="45.0214217" lon="7.9880633"><ele>272.0</ele><time>2026-04-11T16:36:34.879Z</time></trkpt><trkpt lat="45.02128" lon="7.9881033"><ele>274.0</ele><time>2026-04-11T16:36:35.879Z</time></trkpt><trkpt lat="45.0211433" lon="7.9881367"><ele>274.0</ele><time>2026-04-11T16:36:36.878Z</time></trkpt><trkpt lat="45.0210167" lon="7.9881333"><ele>274.0</ele><time>2026-04-11T16:36:37.878Z</time></trkpt><trkpt lat="45.0208933" lon="7.9881083"><ele>274.0</ele><time>2026-04-11T16:36:38.878Z</time></trkpt><trkpt lat="45.020765" lon="7.9880567"><ele>274.0</ele><time>2026-04-11T16:36:39.878Z</time></trkpt><trkpt lat="45.0206367" lon="7.988005"><ele>274.25</ele><time>2026-04-11T16:36:40.878Z</time></trkpt><trkpt lat="45.0204933" lon="7.9879367"><ele>274.5</ele><time>2026-04-11T16:36:41.879Z</time></trkpt><trkpt lat="45.0203683" lon="7.9878867"><ele>274.75</ele><time>2026-04-11T16:36:42.879Z</time></trkpt><trkpt lat="45.0202317" lon="7.9878433"><ele>275.0</ele><time>2026-04-11T16:36:43.878Z</time></trkpt><trkpt lat="45.0201167" lon="7.9877867"><ele>275.0</ele><time>2026-04-11T16:36:44.878Z</time></trkpt><trkpt lat="45.0200033" lon="7.9877233"><ele>275.0</ele><time>2026-04-11T16:36:45.878Z</time></trkpt><trkpt lat="45.0198667" lon="7.9876567"><ele>275.0</ele><time>2026-04-11T16:36:46.879Z</time></trkpt><trkpt lat="45.0197233" lon="7.98765"><ele>275.0</ele><time>2026-04-11T16:36:47.878Z</time></trkpt><trkpt lat="45.0195817" lon="7.9876833"><ele>274.6666666666667</ele><time>2026-04-11T16:36:48.878Z</time></trkpt><trkpt lat="45.0194367" lon="7.9877433"><ele>274.3333333333333</ele><time>2026-04-11T16:36:49.878Z</time></trkpt><trkpt lat="45.01929" lon="7.9878367"><ele>274.0</ele><time>2026-04-11T16:36:50.879Z</time></trkpt><trkpt lat="45.01915" lon="7.9879583"><ele>274.3333333333333</ele><time>2026-04-11T16:36:51.878Z</time></trkpt><trkpt lat="45.0190333" lon="7.9881033"><ele>274.6666666666667</ele><time>2026-04-11T16:36:52.879Z</time></trkpt><trkpt lat="45.01893" lon="7.9882583"><ele>275.0</ele><time>2026-04-11T16:36:53.878Z</time></trkpt><trkpt lat="45.0188433" lon="7.9884317"><ele>275.0</ele><time>2026-04-11T16:36:54.878Z</time></trkpt><trkpt lat="45.0187733" lon="7.9886333"><ele>275.0</ele><time>2026-04-11T16:36:55.878Z</time></trkpt><trkpt lat="45.0187133" lon="7.98883"><ele>275.0</ele><time>2026-04-11T16:36:56.878Z</time></trkpt><trkpt lat="45.0186517" lon="7.98903"><ele>273.33333333333337</ele><time>2026-04-11T16:36:57.879Z</time></trkpt><trkpt lat="45.01858" lon="7.9892383"><ele>271.6666666666667</ele><time>2026-04-11T16:36:58.879Z</time></trkpt><trkpt lat="45.018485" lon="7.9894283"><ele>270.0</ele><time>2026-04-11T16:36:59.878Z</time></trkpt><trkpt lat="45.018415" lon="7.9896233"><ele>270.0</ele><time>2026-04-11T16:37:00.879Z</time></trkpt><trkpt lat="45.0183517" lon="7.98983"><ele>270.0</ele><time>2026-04-11T16:37:01.878Z</time></trkpt><trkpt lat="45.0182767" lon="7.9900267"><ele>270.0</ele><time>2026-04-11T16:37:02.878Z</time></trkpt><trkpt lat="45.0182067" lon="7.9902317"><ele>268.6666666666667</ele><time>2026-04-11T16:37:03.878Z</time></trkpt><trkpt lat="45.0181233" lon="7.9904467"><ele>267.33333333333337</ele><time>2026-04-11T16:37:04.879Z</time></trkpt><trkpt lat="45.0180467" lon="7.9906583"><ele>266.0</ele><time>2026-04-11T16:37:05.879Z</time></trkpt><trkpt lat="45.01797" lon="7.9908617"><ele>266.0</ele><time>2026-04-11T16:37:06.879Z</time></trkpt><trkpt lat="45.0178817" lon="7.99106"><ele>266.0</ele><time>2026-04-11T16:37:07.879Z</time></trkpt><trkpt lat="45.0177917" lon="7.9912467"><ele>266.0</ele><time>2026-04-11T16:37:08.879Z</time></trkpt><trkpt lat="45.017685" lon="7.991425"><ele>266.0</ele><time>2026-04-11T16:37:09.879Z</time></trkpt><trkpt lat="45.0175717" lon="7.991585"><ele>266.0</ele><time>2026-04-11T16:37:10.879Z</time></trkpt><trkpt lat="45.01745" lon="7.99172"><ele>266.0</ele><time>2026-04-11T16:37:11.878Z</time></trkpt><trkpt lat="45.0173233" lon="7.99185"><ele>267.33333333333337</ele><time>2026-04-11T16:37:12.879Z</time></trkpt><trkpt lat="45.017195" lon="7.991965"><ele>268.6666666666667</ele><time>2026-04-11T16:37:13.879Z</time></trkpt><trkpt lat="45.0170583" lon="7.9920867"><ele>270.0</ele><time>2026-04-11T16:37:14.878Z</time></trkpt><trkpt lat="45.016925" lon="7.992195"><ele>270.0</ele><time>2026-04-11T16:37:15.878Z</time></trkpt><trkpt lat="45.0167867" lon="7.9923"><ele>270.0</ele><time>2026-04-11T16:37:16.879Z</time></trkpt><trkpt lat="45.0166433" lon="7.9923933"><ele>270.0</ele><time>2026-04-11T16:37:17.878Z</time></trkpt><trkpt lat="45.0165" lon="7.992495"><ele>270.0</ele><time>2026-04-11T16:37:18.879Z</time></trkpt><trkpt lat="45.0163583" lon="7.9926033"><ele>270.0</ele><time>2026-04-11T16:37:19.878Z</time></trkpt><trkpt lat="45.01621" lon="7.9926733"><ele>270.0</ele><time>2026-04-11T16:37:20.878Z</time></trkpt><trkpt lat="45.0160617" lon="7.9927017"><ele>270.0</ele><time>2026-04-11T16:37:21.878Z</time></trkpt><trkpt lat="45.015915" lon="7.99272"><ele>270.0</ele><time>2026-04-11T16:37:22.878Z</time></trkpt><trkpt lat="45.0157633" lon="7.9927333"><ele>270.0</ele><time>2026-04-11T16:37:23.878Z</time></trkpt><trkpt lat="45.0156017" lon="7.99273"><ele>268.6666666666667</ele><time>2026-04-11T16:37:24.879Z</time></trkpt><trkpt lat="45.0154333" lon="7.9927233"><ele>267.33333333333337</ele><time>2026-04-11T16:37:25.878Z</time></trkpt><trkpt lat="45.0152683" lon="7.9927083"><ele>266.0</ele><time>2026-04-11T16:37:26.878Z</time></trkpt><trkpt lat="45.0151017" lon="7.9926733"><ele>264.33333333333337</ele><time>2026-04-11T16:37:27.879Z</time></trkpt><trkpt lat="45.014935" lon="7.9926317"><ele>262.6666666666667</ele><time>2026-04-11T16:37:28.879Z</time></trkpt><trkpt lat="45.01478" lon="7.9925767"><ele>261.0</ele><time>2026-04-11T16:37:29.878Z</time></trkpt><trkpt lat="45.0146317" lon="7.992525"><ele>261.3333333333333</ele><time>2026-04-11T16:37:30.878Z</time></trkpt><trkpt lat="45.0144767" lon="7.9924583"><ele>261.66666666666663</ele><time>2026-04-11T16:37:31.878Z</time></trkpt><trkpt lat="45.0143133" lon="7.9924067"><ele>262.0</ele><time>2026-04-11T16:37:32.879Z</time></trkpt><trkpt lat="45.0141483" lon="7.9923567"><ele>262.0</ele><time>2026-04-11T16:37:33.878Z</time></trkpt><trkpt lat="45.013985" lon="7.9923067"><ele>262.0</ele><time>2026-04-11T16:37:34.878Z</time></trkpt><trkpt lat="45.0138233" lon="7.9922567"><ele>262.0</ele><time>2026-04-11T16:37:35.878Z</time></trkpt><trkpt lat="45.0136683" lon="7.992205"><ele>262.0</ele><time>2026-04-11T16:37:36.878Z</time></trkpt><trkpt lat="45.0135267" lon="7.9921183"><ele>262.0</ele><time>2026-04-11T16:37:37.878Z</time></trkpt><trkpt lat="45.013395" lon="7.9920167"><ele>262.0</ele><time>2026-04-11T16:37:38.879Z</time></trkpt><trkpt lat="45.0132667" lon="7.991895"><ele>262.66666666666663</ele><time>2026-04-11T16:37:39.878Z</time></trkpt><trkpt lat="45.0131567" lon="7.991735"><ele>263.3333333333333</ele><time>2026-04-11T16:37:40.879Z</time></trkpt><trkpt lat="45.0130733" lon="7.99156"><ele>264.0</ele><time>2026-04-11T16:37:41.878Z</time></trkpt><trkpt lat="45.0129783" lon="7.9913733"><ele>264.0</ele><time>2026-04-11T16:37:42.879Z</time></trkpt><trkpt lat="45.0128833" lon="7.9911733"><ele>264.0</ele><time>2026-04-11T16:37:43.879Z</time></trkpt><trkpt lat="45.012795" lon="7.990985"><ele>264.0</ele><time>2026-04-11T16:37:44.879Z</time></trkpt><trkpt lat="45.0127183" lon="7.9908083"><ele>262.0</ele><time>2026-04-11T16:37:45.879Z</time></trkpt><trkpt lat="45.0126267" lon="7.99064"><ele>260.0</ele><time>2026-04-11T16:37:46.879Z</time></trkpt><trkpt lat="45.0125083" lon="7.9904967"><ele>258.0</ele><time>2026-04-11T16:37:47.878Z</time></trkpt><trkpt lat="45.0123817" lon="7.9903767"><ele>257.5</ele><time>2026-04-11T16:37:48.878Z</time></trkpt><trkpt lat="45.0122517" lon="7.9902883"><ele>257.0</ele><time>2026-04-11T16:37:49.878Z</time></trkpt><trkpt lat="45.0121033" lon="7.9902217"><ele>256.5</ele><time>2026-04-11T16:37:50.879Z</time></trkpt><trkpt lat="45.0119683" lon="7.990175"><ele>256.0</ele><time>2026-04-11T16:37:51.878Z</time></trkpt><trkpt lat="45.0118367" lon="7.9901267"><ele>256.0</ele><time>2026-04-11T16:37:52.879Z</time></trkpt><trkpt lat="45.0116967" lon="7.9900767"><ele>256.0</ele><time>2026-04-11T16:37:53.879Z</time></trkpt><trkpt lat="45.011555" lon="7.9900417"><ele>256.0</ele><time>2026-04-11T16:37:54.879Z</time></trkpt><trkpt lat="45.0114167" lon="7.9900167"><ele>256.0</ele><time>2026-04-11T16:37:55.878Z</time></trkpt><trkpt lat="45.0112733" lon="7.9900067"><ele>254.0</ele><time>2026-04-11T16:37:56.878Z</time></trkpt><trkpt lat="45.011135" lon="7.9900033"><ele>252.0</ele><time>2026-04-11T16:37:57.878Z</time></trkpt><trkpt lat="45.0109917" lon="7.9899883"><ele>250.0</ele><time>2026-04-11T16:37:58.878Z</time></trkpt><trkpt lat="45.010845" lon="7.9899683"><ele>248.0</ele><time>2026-04-11T16:37:59.879Z</time></trkpt><trkpt lat="45.0107017" lon="7.9899367"><ele>247.25</ele><time>2026-04-11T16:38:00.878Z</time></trkpt><trkpt lat="45.0105533" lon="7.9899283"><ele>246.5</ele><time>2026-04-11T16:38:01.879Z</time></trkpt><trkpt lat="45.0104033" lon="7.9899083"><ele>245.75</ele><time>2026-04-11T16:38:02.879Z</time></trkpt><trkpt lat="45.0102617" lon="7.9898733"><ele>245.0</ele><time>2026-04-11T16:38:03.879Z</time></trkpt><trkpt lat="45.0101267" lon="7.98984"><ele>245.0</ele><time>2026-04-11T16:38:04.878Z</time></trkpt><trkpt lat="45.01" lon="7.9898117"><ele>245.0</ele><time>2026-04-11T16:38:05.878Z</time></trkpt><trkpt lat="45.00989" lon="7.9897817"><ele>245.0</ele><time>2026-04-11T16:38:06.879Z</time></trkpt><trkpt lat="45.00982" lon="7.9897283"><ele>245.0</ele><time>2026-04-11T16:38:07.878Z</time></trkpt><trkpt lat="45.00978" lon="7.9896467"><ele>245.0</ele><time>2026-04-11T16:38:08.878Z</time></trkpt><trkpt lat="45.0097733" lon="7.9894933"><ele>245.0</ele><time>2026-04-11T16:38:10.879Z</time></trkpt><trkpt lat="45.0098617" lon="7.9894217"><ele>245.0</ele><time>2026-04-11T16:38:11.879Z</time></trkpt><trkpt lat="45.01" lon="7.9893333"><ele>245.0</ele><time>2026-04-11T16:38:12.879Z</time></trkpt><trkpt lat="45.0101583" lon="7.9892317"><ele>245.0</ele><time>2026-04-11T16:38:13.878Z</time></trkpt><trkpt lat="45.0102817" lon="7.9890817"><ele>240.0</ele><time>2026-04-11T16:38:14.879Z</time></trkpt><trkpt lat="45.0103733" lon="7.9889067"><ele>235.0</ele><time>2026-04-11T16:38:15.878Z</time></trkpt><trkpt lat="45.0104083" lon="7.9886883"><ele>230.0</ele><time>2026-04-11T16:38:16.878Z</time></trkpt><trkpt lat="45.0104167" lon="7.988445"><ele>227.66666666666669</ele><time>2026-04-11T16:38:17.878Z</time></trkpt><trkpt lat="45.0104333" lon="7.988195"><ele>225.33333333333331</ele><time>2026-04-11T16:38:18.878Z</time></trkpt><trkpt lat="45.01046" lon="7.9879617"><ele>223.0</ele><time>2026-04-11T16:38:19.878Z</time></trkpt><trkpt lat="45.01048" lon="7.9877517"><ele>223.0</ele><time>2026-04-11T16:38:20.878Z</time></trkpt><trkpt lat="45.0105083" lon="7.9875567"><ele>223.0</ele><time>2026-04-11T16:38:21.878Z</time></trkpt><trkpt lat="45.0105233" lon="7.98734"><ele>223.0</ele><time>2026-04-11T16:38:22.878Z</time></trkpt><trkpt lat="45.0105467" lon="7.9871467"><ele>223.0</ele><time>2026-04-11T16:38:23.878Z</time></trkpt><trkpt lat="45.0105683" lon="7.9869683"><ele>222.0</ele><time>2026-04-11T16:38:24.878Z</time></trkpt><trkpt lat="45.0105917" lon="7.9867983"><ele>221.0</ele><time>2026-04-11T16:38:25.878Z</time></trkpt><trkpt lat="45.0106133" lon="7.9866633"><ele>220.0</ele><time>2026-04-11T16:38:26.879Z</time></trkpt><trkpt lat="45.0106233" lon="7.9865483"><ele>219.0</ele><time>2026-04-11T16:38:27.878Z</time></trkpt><trkpt lat="45.0105917" lon="7.9864233"><ele>218.0</ele><time>2026-04-11T16:38:29.878Z</time></trkpt><trkpt lat="45.0105333" lon="7.9863667"><ele>217.25</ele><time>2026-04-11T16:38:30.879Z</time></trkpt><trkpt lat="45.0104467" lon="7.9863283"><ele>216.5</ele><time>2026-04-11T16:38:31.878Z</time></trkpt><trkpt lat="45.010335" lon="7.9863017"><ele>215.75</ele><time>2026-04-11T16:38:32.878Z</time></trkpt><trkpt lat="45.0102" lon="7.9862967"><ele>215.0</ele><time>2026-04-11T16:38:33.878Z</time></trkpt><trkpt lat="45.0100583" lon="7.9862867"><ele>217.5</ele><time>2026-04-11T16:38:34.878Z</time></trkpt><trkpt lat="45.00992" lon="7.9862483"><ele>220.0</ele><time>2026-04-11T16:38:35.879Z</time></trkpt><trkpt lat="45.00978" lon="7.9861883"><ele>222.5</ele><time>2026-04-11T16:38:36.878Z</time></trkpt><trkpt lat="45.0096333" lon="7.986125"><ele>225.0</ele><time>2026-04-11T16:38:37.878Z</time></trkpt><trkpt lat="45.00948" lon="7.9860483"><ele>225.0</ele><time>2026-04-11T16:38:38.879Z</time></trkpt><trkpt lat="45.0093267" lon="7.9859833"><ele>225.0</ele><time>2026-04-11T16:38:39.878Z</time></trkpt><trkpt lat="45.0091633" lon="7.98595"><ele>225.0</ele><time>2026-04-11T16:38:40.878Z</time></trkpt><trkpt lat="45.008995" lon="7.98595"><ele>225.66666666666669</ele><time>2026-04-11T16:38:41.879Z</time></trkpt><trkpt lat="45.0088217" lon="7.9859683"><ele>226.33333333333334</ele><time>2026-04-11T16:38:42.879Z</time></trkpt><trkpt lat="45.0086517" lon="7.9860017"><ele>227.0</ele><time>2026-04-11T16:38:43.878Z</time></trkpt><trkpt lat="45.008485" lon="7.9860367"><ele>227.0</ele><time>2026-04-11T16:38:44.878Z</time></trkpt><trkpt lat="45.0083283" lon="7.9860833"><ele>227.0</ele><time>2026-04-11T16:38:45.879Z</time></trkpt><trkpt lat="45.0081667" lon="7.9861167"><ele>227.0</ele><time>2026-04-11T16:38:46.878Z</time></trkpt><trkpt lat="45.0080017" lon="7.9861583"><ele>226.0</ele><time>2026-04-11T16:38:47.878Z</time></trkpt><trkpt lat="45.0078433" lon="7.9861917"><ele>225.0</ele><time>2026-04-11T16:38:48.879Z</time></trkpt><trkpt lat="45.0076883" lon="7.9862283"><ele>224.0</ele><time>2026-04-11T16:38:49.879Z</time></trkpt><trkpt lat="45.007525" lon="7.9862417"><ele>223.66666666666669</ele><time>2026-04-11T16:38:50.879Z</time></trkpt><trkpt lat="45.0073583" lon="7.98626"><ele>223.33333333333331</ele><time>2026-04-11T16:38:51.878Z</time></trkpt><trkpt lat="45.0071983" lon="7.9862883"><ele>223.0</ele><time>2026-04-11T16:38:52.878Z</time></trkpt><trkpt lat="45.007035" lon="7.9863117"><ele>223.0</ele><time>2026-04-11T16:38:53.878Z</time></trkpt><trkpt lat="45.0068683" lon="7.9863267"><ele>223.0</ele><time>2026-04-11T16:38:54.878Z</time></trkpt><trkpt lat="45.0067083" lon="7.98636"><ele>223.0</ele><time>2026-04-11T16:38:55.879Z</time></trkpt><trkpt lat="45.0065417" lon="7.9864017"><ele>222.0</ele><time>2026-04-11T16:38:56.878Z</time></trkpt><trkpt lat="45.0063817" lon="7.9864567"><ele>221.0</ele><time>2026-04-11T16:38:57.879Z</time></trkpt><trkpt lat="45.0062267" lon="7.9865233"><ele>220.0</ele><time>2026-04-11T16:38:58.879Z</time></trkpt><trkpt lat="45.0060833" lon="7.986605"><ele>219.33333333333331</ele><time>2026-04-11T16:38:59.879Z</time></trkpt><trkpt lat="45.00594" lon="7.9867017"><ele>218.66666666666669</ele><time>2026-04-11T16:39:00.878Z</time></trkpt><trkpt lat="45.005795" lon="7.9868067"><ele>218.0</ele><time>2026-04-11T16:39:01.878Z</time></trkpt><trkpt lat="45.0056567" lon="7.9869317"><ele>218.0</ele><time>2026-04-11T16:39:02.878Z</time></trkpt><trkpt lat="45.0055133" lon="7.98706"><ele>218.0</ele><time>2026-04-11T16:39:03.878Z</time></trkpt><trkpt lat="45.00537" lon="7.98717"><ele>218.0</ele><time>2026-04-11T16:39:04.878Z</time></trkpt><trkpt lat="45.00523" lon="7.9872867"><ele>218.0</ele><time>2026-04-11T16:39:05.878Z</time></trkpt><trkpt lat="45.005085" lon="7.9873867"><ele>218.0</ele><time>2026-04-11T16:39:06.879Z</time></trkpt><trkpt lat="45.0049567" lon="7.9875217"><ele>218.0</ele><time>2026-04-11T16:39:07.879Z</time></trkpt><trkpt lat="45.0048367" lon="7.9876767"><ele>215.0</ele><time>2026-04-11T16:39:08.878Z</time></trkpt><trkpt lat="45.0047367" lon="7.9878467"><ele>212.0</ele><time>2026-04-11T16:39:09.878Z</time></trkpt><trkpt lat="45.0046583" lon="7.988035"><ele>209.0</ele><time>2026-04-11T16:39:10.879Z</time></trkpt><trkpt lat="45.004575" lon="7.9882367"><ele>211.0</ele><time>2026-04-11T16:39:11.879Z</time></trkpt><trkpt lat="45.0044833" lon="7.988435"><ele>213.0</ele><time>2026-04-11T16:39:12.879Z</time></trkpt><trkpt lat="45.0044" lon="7.9886333"><ele>215.0</ele><time>2026-04-11T16:39:13.879Z</time></trkpt><trkpt lat="45.004305" lon="7.988855"><ele>215.0</ele><time>2026-04-11T16:39:14.879Z</time></trkpt><trkpt lat="45.0042217" lon="7.9890567"><ele>215.0</ele><time>2026-04-11T16:39:15.879Z</time></trkpt><trkpt lat="45.0041383" lon="7.9892483"><ele>215.0</ele><time>2026-04-11T16:39:16.879Z</time></trkpt><trkpt lat="45.0040617" lon="7.9894417"><ele>215.0</ele><time>2026-04-11T16:39:17.878Z</time></trkpt><trkpt lat="45.00398" lon="7.9896317"><ele>215.0</ele><time>2026-04-11T16:39:18.879Z</time></trkpt><trkpt lat="45.0039017" lon="7.9898217"><ele>215.0</ele><time>2026-04-11T16:39:19.878Z</time></trkpt><trkpt lat="45.0038267" lon="7.9900033"><ele>217.0</ele><time>2026-04-11T16:39:20.878Z</time></trkpt><trkpt lat="45.0037583" lon="7.990195"><ele>219.0</ele><time>2026-04-11T16:39:21.878Z</time></trkpt><trkpt lat="45.0037067" lon="7.9903983"><ele>221.0</ele><time>2026-04-11T16:39:22.879Z</time></trkpt><trkpt lat="45.0036867" lon="7.9906217"><ele>221.66666666666669</ele><time>2026-04-11T16:39:23.878Z</time></trkpt><trkpt lat="45.003685" lon="7.9908517"><ele>222.33333333333331</ele><time>2026-04-11T16:39:24.878Z</time></trkpt><trkpt lat="45.0036817" lon="7.9910667"><ele>223.0</ele><time>2026-04-11T16:39:25.879Z</time></trkpt><trkpt lat="45.003675" lon="7.9912817"><ele>223.0</ele><time>2026-04-11T16:39:26.878Z</time></trkpt><trkpt lat="45.003675" lon="7.9914833"><ele>223.0</ele><time>2026-04-11T16:39:27.878Z</time></trkpt><trkpt lat="45.0036783" lon="7.9916633"><ele>223.0</ele><time>2026-04-11T16:39:28.879Z</time></trkpt><trkpt lat="45.0036983" lon="7.991835"><ele>223.0</ele><time>2026-04-11T16:39:29.878Z</time></trkpt><trkpt lat="45.0037483" lon="7.99199"><ele>223.0</ele><time>2026-04-11T16:39:30.879Z</time></trkpt><trkpt lat="45.003835" lon="7.9920967"><ele>223.0</ele><time>2026-04-11T16:39:31.879Z</time></trkpt><trkpt lat="45.00394" lon="7.9921783"><ele>223.0</ele><time>2026-04-11T16:39:32.879Z</time></trkpt><trkpt lat="45.004055" lon="7.9922583"><ele>223.0</ele><time>2026-04-11T16:39:33.879Z</time></trkpt><trkpt lat="45.004155" lon="7.99234"><ele>225.4</ele><time>2026-04-11T16:39:34.879Z</time></trkpt><trkpt lat="45.0042183" lon="7.992455"><ele>227.8</ele><time>2026-04-11T16:39:35.879Z</time></trkpt><trkpt lat="45.00424" lon="7.9926"><ele>230.2</ele><time>2026-04-11T16:39:36.878Z</time></trkpt><trkpt lat="45.0042167" lon="7.99276"><ele>232.6</ele><time>2026-04-11T16:39:37.878Z</time></trkpt><trkpt lat="45.0042267" lon="7.9929117"><ele>235.0</ele><time>2026-04-11T16:39:38.878Z</time></trkpt><trkpt lat="45.0042633" lon="7.9930783"><ele>235.0</ele><time>2026-04-11T16:39:39.878Z</time></trkpt><trkpt lat="45.004345" lon="7.993215"><ele>235.0</ele><time>2026-04-11T16:39:40.878Z</time></trkpt><trkpt lat="45.0044383" lon="7.993355"><ele>235.0</ele><time>2026-04-11T16:39:41.878Z</time></trkpt><trkpt lat="45.00451" lon="7.9935167"><ele>235.0</ele><time>2026-04-11T16:39:42.879Z</time></trkpt><trkpt lat="45.004545" lon="7.9937017"><ele>236.25</ele><time>2026-04-11T16:39:43.879Z</time></trkpt><trkpt lat="45.0045517" lon="7.9939033"><ele>237.5</ele><time>2026-04-11T16:39:44.878Z</time></trkpt><trkpt lat="45.0045383" lon="7.9941"><ele>238.75</ele><time>2026-04-11T16:39:45.879Z</time></trkpt><trkpt lat="45.004525" lon="7.99431"><ele>240.0</ele><time>2026-04-11T16:39:46.878Z</time></trkpt><trkpt lat="45.004505" lon="7.9945217"><ele>242.33333333333331</ele><time>2026-04-11T16:39:47.879Z</time></trkpt><trkpt lat="45.0045033" lon="7.99474"><ele>244.66666666666666</ele><time>2026-04-11T16:39:48.879Z</time></trkpt><trkpt lat="45.0044983" lon="7.9949533"><ele>247.0</ele><time>2026-04-11T16:39:49.878Z</time></trkpt><trkpt lat="45.0044867" lon="7.995165"><ele>247.5</ele><time>2026-04-11T16:39:50.879Z</time></trkpt><trkpt lat="45.0044467" lon="7.995345"><ele>248.0</ele><time>2026-04-11T16:39:51.879Z</time></trkpt><trkpt lat="45.0043717" lon="7.9954617"><ele>248.5</ele><time>2026-04-11T16:39:52.878Z</time></trkpt><trkpt lat="45.0042683" lon="7.995535"><ele>249.0</ele><time>2026-04-11T16:39:53.879Z</time></trkpt><trkpt lat="45.00411" lon="7.9955417"><ele>249.0</ele><time>2026-04-11T16:39:54.879Z</time></trkpt><trkpt lat="45.0039567" lon="7.9955433"><ele>249.0</ele><time>2026-04-11T16:39:55.878Z</time></trkpt><trkpt lat="45.0038017" lon="7.9955733"><ele>249.0</ele><time>2026-04-11T16:39:56.878Z</time></trkpt><trkpt lat="45.0036617" lon="7.9956583"><ele>249.0</ele><time>2026-04-11T16:39:57.878Z</time></trkpt><trkpt lat="45.00354" lon="7.9958067"><ele>249.0</ele><time>2026-04-11T16:39:58.878Z</time></trkpt><trkpt lat="45.003445" lon="7.9959883"><ele>249.0</ele><time>2026-04-11T16:39:59.879Z</time></trkpt><trkpt lat="45.0033567" lon="7.9961633"><ele>250.25</ele><time>2026-04-11T16:40:00.878Z</time></trkpt><trkpt lat="45.00327" lon="7.99635"><ele>251.5</ele><time>2026-04-11T16:40:01.878Z</time></trkpt><trkpt lat="45.003195" lon="7.9965167"><ele>252.75</ele><time>2026-04-11T16:40:02.879Z</time></trkpt><trkpt lat="45.00315" lon="7.9966433"><ele>254.0</ele><time>2026-04-11T16:40:03.878Z</time></trkpt><trkpt lat="45.0031467" lon="7.9967633"><ele>254.0</ele><time>2026-04-11T16:40:04.879Z</time></trkpt><trkpt lat="45.0031817" lon="7.9968617"><ele>253.99999999999997</ele><time>2026-04-11T16:40:05.878Z</time></trkpt><trkpt lat="45.0032483" lon="7.9969417"><ele>253.99999999999997</ele><time>2026-04-11T16:40:06.878Z</time></trkpt><trkpt lat="45.0033533" lon="7.9969983"><ele>254.0</ele><time>2026-04-11T16:40:07.878Z</time></trkpt><trkpt lat="45.00348" lon="7.99706"><ele>254.0</ele><time>2026-04-11T16:40:08.878Z</time></trkpt><trkpt lat="45.003605" lon="7.9971467"><ele>253.0</ele><time>2026-04-11T16:40:09.879Z</time></trkpt><trkpt lat="45.0037183" lon="7.9972767"><ele>252.0</ele><time>2026-04-11T16:40:10.879Z</time></trkpt><trkpt lat="45.0038217" lon="7.9974167"><ele>251.0</ele><time>2026-04-11T16:40:11.879Z</time></trkpt><trkpt lat="45.003925" lon="7.9975633"><ele>250.0</ele><time>2026-04-11T16:40:12.878Z</time></trkpt><trkpt lat="45.004025" lon="7.99771"><ele>250.75</ele><time>2026-04-11T16:40:13.879Z</time></trkpt><trkpt lat="45.00411" lon="7.997865"><ele>251.5</ele><time>2026-04-11T16:40:14.878Z</time></trkpt><trkpt lat="45.0041683" lon="7.9980467"><ele>252.25</ele><time>2026-04-11T16:40:15.878Z</time></trkpt><trkpt lat="45.0041883" lon="7.9982667"><ele>253.0</ele><time>2026-04-11T16:40:16.878Z</time></trkpt><trkpt lat="45.004155" lon="7.9984883"><ele>248.33333333333331</ele><time>2026-04-11T16:40:17.878Z</time></trkpt><trkpt lat="45.0040967" lon="7.9986983"><ele>243.66666666666669</ele><time>2026-04-11T16:40:18.878Z</time></trkpt><trkpt lat="45.0040383" lon="7.9989217"><ele>239.0</ele><time>2026-04-11T16:40:19.879Z</time></trkpt><trkpt lat="45.00398" lon="7.9991467"><ele>239.33333333333334</ele><time>2026-04-11T16:40:20.879Z</time></trkpt><trkpt lat="45.0039217" lon="7.9993667"><ele>239.66666666666669</ele><time>2026-04-11T16:40:21.878Z</time></trkpt><trkpt lat="45.0038783" lon="7.9995717"><ele>240.0</ele><time>2026-04-11T16:40:22.878Z</time></trkpt><trkpt lat="45.00383" lon="7.99977"><ele>240.0</ele><time>2026-04-11T16:40:23.878Z</time></trkpt><trkpt lat="45.00378" lon="7.9999817"><ele>240.0</ele><time>2026-04-11T16:40:24.879Z</time></trkpt><trkpt lat="45.00372" lon="8.0001783"><ele>240.0</ele><time>2026-04-11T16:40:25.878Z</time></trkpt><trkpt lat="45.0036617" lon="8.0003583"><ele>240.0</ele><time>2026-04-11T16:40:26.879Z</time></trkpt><trkpt lat="45.0035967" lon="8.0005167"><ele>240.0</ele><time>2026-04-11T16:40:27.879Z</time></trkpt><trkpt lat="45.003505" lon="8.000665"><ele>240.0</ele><time>2026-04-11T16:40:28.878Z</time></trkpt><trkpt lat="45.0034117" lon="8.00081"><ele>240.0</ele><time>2026-04-11T16:40:29.879Z</time></trkpt><trkpt lat="45.0033183" lon="8.0009233"><ele>240.0</ele><time>2026-04-11T16:40:30.878Z</time></trkpt><trkpt lat="45.00322" lon="8.0010283"><ele>236.6</ele><time>2026-04-11T16:40:31.879Z</time></trkpt><trkpt lat="45.003135" lon="8.001105"><ele>233.2</ele><time>2026-04-11T16:40:32.878Z</time></trkpt><trkpt lat="45.0030467" lon="8.0011117"><ele>229.8</ele><time>2026-04-11T16:40:33.878Z</time></trkpt><trkpt lat="45.0029867" lon="8.001075"><ele>226.4</ele><time>2026-04-11T16:40:34.878Z</time></trkpt><trkpt lat="45.0029683" lon="8.00089"><ele>223.0</ele><time>2026-04-11T16:40:36.879Z</time></trkpt><trkpt lat="45.0030133" lon="8.0007467"><ele>222.25</ele><time>2026-04-11T16:40:37.878Z</time></trkpt><trkpt lat="45.0030817" lon="8.0005833"><ele>221.5</ele><time>2026-04-11T16:40:38.878Z</time></trkpt><trkpt lat="45.0031283" lon="8.0004117"><ele>220.75</ele><time>2026-04-11T16:40:39.878Z</time></trkpt><trkpt lat="45.00314" lon="8.0002617"><ele>220.0</ele><time>2026-04-11T16:40:40.879Z</time></trkpt><trkpt lat="45.0031183" lon="8.00013"><ele>220.0</ele><time>2026-04-11T16:40:41.879Z</time></trkpt><trkpt lat="45.003065" lon="8.0000417"><ele>220.0</ele><time>2026-04-11T16:40:42.879Z</time></trkpt><trkpt lat="45.0029733" lon="7.9999867"><ele>220.0</ele><time>2026-04-11T16:40:43.878Z</time></trkpt><trkpt lat="45.00286" lon="7.9999733"><ele>220.0</ele><time>2026-04-11T16:40:44.879Z</time></trkpt><trkpt lat="45.0027283" lon="8.0000067"><ele>220.0</ele><time>2026-04-11T16:40:45.878Z</time></trkpt><trkpt lat="45.0026017" lon="8.0000783"><ele>221.75</ele><time>2026-04-11T16:40:46.879Z</time></trkpt><trkpt lat="45.0024917" lon="8.0002"><ele>223.5</ele><time>2026-04-11T16:40:47.878Z</time></trkpt><trkpt lat="45.0024117" lon="8.0003617"><ele>225.25</ele><time>2026-04-11T16:40:48.878Z</time></trkpt><trkpt lat="45.0023267" lon="8.0005233"><ele>227.0</ele><time>2026-04-11T16:40:49.879Z</time></trkpt><trkpt lat="45.0022533" lon="8.000685"><ele>223.75</ele><time>2026-04-11T16:40:50.878Z</time></trkpt><trkpt lat="45.0021817" lon="8.0008417"><ele>220.5</ele><time>2026-04-11T16:40:51.879Z</time></trkpt><trkpt lat="45.00211" lon="8.0009733"><ele>217.25</ele><time>2026-04-11T16:40:52.878Z</time></trkpt><trkpt lat="45.0020433" lon="8.001095"><ele>214.0</ele><time>2026-04-11T16:40:53.878Z</time></trkpt><trkpt lat="45.001985" lon="8.0012383"><ele>214.0</ele><time>2026-04-11T16:40:54.878Z</time></trkpt><trkpt lat="45.001965" lon="8.0014017"><ele>214.0</ele><time>2026-04-11T16:40:55.878Z</time></trkpt><trkpt lat="45.00197" lon="8.0015883"><ele>214.0</ele><time>2026-04-11T16:40:56.879Z</time></trkpt><trkpt lat="45.002005" lon="8.0017717"><ele>214.0</ele><time>2026-04-11T16:40:57.879Z</time></trkpt><trkpt lat="45.002075" lon="8.001955"><ele>214.0</ele><time>2026-04-11T16:40:58.878Z</time></trkpt><trkpt lat="45.002135" lon="8.00216"><ele>214.0</ele><time>2026-04-11T16:40:59.878Z</time></trkpt><trkpt lat="45.0021983" lon="8.0023917"><ele>214.0</ele><time>2026-04-11T16:41:00.878Z</time></trkpt><trkpt lat="45.0022517" lon="8.0026333"><ele>214.0</ele><time>2026-04-11T16:41:01.878Z</time></trkpt><trkpt lat="45.002305" lon="8.0028833"><ele>214.0</ele><time>2026-04-11T16:41:02.879Z</time></trkpt><trkpt lat="45.0023517" lon="8.0031483"><ele>214.0</ele><time>2026-04-11T16:41:03.878Z</time></trkpt><trkpt lat="45.00241" lon="8.003395"><ele>215.0</ele><time>2026-04-11T16:41:04.879Z</time></trkpt><trkpt lat="45.0024717" lon="8.0036167"><ele>216.0</ele><time>2026-04-11T16:41:05.878Z</time></trkpt><trkpt lat="45.0025333" lon="8.0038317"><ele>217.0</ele><time>2026-04-11T16:41:06.879Z</time></trkpt><trkpt lat="45.0025883" lon="8.004035"><ele>211.33333333333331</ele><time>2026-04-11T16:41:07.879Z</time></trkpt><trkpt lat="45.0026417" lon="8.0042467"><ele>205.66666666666669</ele><time>2026-04-11T16:41:08.878Z</time></trkpt><trkpt lat="45.0027" lon="8.0044717"><ele>200.0</ele><time>2026-04-11T16:41:09.879Z</time></trkpt><trkpt lat="45.0027567" lon="8.004685"><ele>200.0</ele><time>2026-04-11T16:41:10.879Z</time></trkpt><trkpt lat="45.0028183" lon="8.004895"><ele>200.0</ele><time>2026-04-11T16:41:11.878Z</time></trkpt><trkpt lat="45.0028717" lon="8.0051133"><ele>200.0</ele><time>2026-04-11T16:41:12.879Z</time></trkpt><trkpt lat="45.00293" lon="8.0053283"><ele>198.5</ele><time>2026-04-11T16:41:13.879Z</time></trkpt><trkpt lat="45.0029833" lon="8.0055333"><ele>197.0</ele><time>2026-04-11T16:41:14.879Z</time></trkpt><trkpt lat="45.0030383" lon="8.0057383"><ele>195.5</ele><time>2026-04-11T16:41:15.879Z</time></trkpt><trkpt lat="45.0030733" lon="8.00591"><ele>194.0</ele><time>2026-04-11T16:41:16.879Z</time></trkpt><trkpt lat="45.0030767" lon="8.0060883"><ele>193.75</ele><time>2026-04-11T16:41:17.878Z</time></trkpt><trkpt lat="45.003035" lon="8.0062583"><ele>193.5</ele><time>2026-04-11T16:41:18.879Z</time></trkpt><trkpt lat="45.0029467" lon="8.0063983"><ele>193.25</ele><time>2026-04-11T16:41:19.879Z</time></trkpt><trkpt lat="45.0028183" lon="8.0065"><ele>193.0</ele><time>2026-04-11T16:41:20.879Z</time></trkpt><trkpt lat="45.0026817" lon="8.00659"><ele>193.0</ele><time>2026-04-11T16:41:21.878Z</time></trkpt><trkpt lat="45.0025367" lon="8.0066883"><ele>193.0</ele><time>2026-04-11T16:41:22.878Z</time></trkpt><trkpt lat="45.0023917" lon="8.0068017"><ele>193.0</ele><time>2026-04-11T16:41:23.879Z</time></trkpt><trkpt lat="45.002245" lon="8.0069167"><ele>193.0</ele><time>2026-04-11T16:41:24.879Z</time></trkpt><trkpt lat="45.0021067" lon="8.0070467"><ele>193.0</ele><time>2026-04-11T16:41:25.878Z</time></trkpt><trkpt lat="45.001955" lon="8.0071483"><ele>193.0</ele><time>2026-04-11T16:41:26.878Z</time></trkpt><trkpt lat="45.0018083" lon="8.0072567"><ele>193.0</ele><time>2026-04-11T16:41:27.878Z</time></trkpt><trkpt lat="45.0016767" lon="8.0073767"><ele>193.0</ele><time>2026-04-11T16:41:28.878Z</time></trkpt><trkpt lat="45.0015317" lon="8.0075017"><ele>193.0</ele><time>2026-04-11T16:41:29.879Z</time></trkpt><trkpt lat="45.001395" lon="8.007635"><ele>195.0</ele><time>2026-04-11T16:41:30.879Z</time></trkpt><trkpt lat="45.0012483" lon="8.0077633"><ele>197.0</ele><time>2026-04-11T16:41:31.879Z</time></trkpt><trkpt lat="45.0011133" lon="8.00789"><ele>199.0</ele><time>2026-04-11T16:41:32.879Z</time></trkpt><trkpt lat="45.00097" lon="8.0080183"><ele>197.33333333333331</ele><time>2026-04-11T16:41:33.879Z</time></trkpt><trkpt lat="45.0008217" lon="8.0081217"><ele>195.66666666666669</ele><time>2026-04-11T16:41:34.878Z</time></trkpt><trkpt lat="45.0006683" lon="8.0081867"><ele>194.0</ele><time>2026-04-11T16:41:35.878Z</time></trkpt><trkpt lat="45.0005067" lon="8.0081883"><ele>194.0</ele><time>2026-04-11T16:41:36.879Z</time></trkpt><trkpt lat="45.0003417" lon="8.0081883"><ele>194.0</ele><time>2026-04-11T16:41:37.878Z</time></trkpt><trkpt lat="45.000175" lon="8.0081733"><ele>194.0</ele><time>2026-04-11T16:41:38.878Z</time></trkpt><trkpt lat="45.0000133" lon="8.0081717"><ele>194.0</ele><time>2026-04-11T16:41:39.879Z</time></trkpt><trkpt lat="44.9998517" lon="8.0082217"><ele>194.0</ele><time>2026-04-11T16:41:40.878Z</time></trkpt><trkpt lat="44.9997017" lon="8.0083117"><ele>194.0</ele><time>2026-04-11T16:41:41.878Z</time></trkpt><trkpt lat="44.9995567" lon="8.00842"><ele>194.66666666666669</ele><time>2026-04-11T16:41:42.879Z</time></trkpt><trkpt lat="44.9994283" lon="8.0085517"><ele>195.33333333333331</ele><time>2026-04-11T16:41:43.878Z</time></trkpt><trkpt lat="44.9992917" lon="8.0087067"><ele>196.0</ele><time>2026-04-11T16:41:44.878Z</time></trkpt><trkpt lat="44.9991567" lon="8.00886"><ele>194.66666666666666</ele><time>2026-04-11T16:41:45.878Z</time></trkpt><trkpt lat="44.9990283" lon="8.0090033"><ele>193.33333333333331</ele><time>2026-04-11T16:41:46.879Z</time></trkpt><trkpt lat="44.9988967" lon="8.009135"><ele>192.0</ele><time>2026-04-11T16:41:47.879Z</time></trkpt><trkpt lat="44.9987633" lon="8.0092683"><ele>191.66666666666666</ele><time>2026-04-11T16:41:48.878Z</time></trkpt><trkpt lat="44.9986317" lon="8.0094133"><ele>191.33333333333331</ele><time>2026-04-11T16:41:49.879Z</time></trkpt><trkpt lat="44.9984967" lon="8.009555"><ele>191.0</ele><time>2026-04-11T16:41:50.879Z</time></trkpt><trkpt lat="44.9983667" lon="8.0096933"><ele>191.33333333333331</ele><time>2026-04-11T16:41:51.878Z</time></trkpt><trkpt lat="44.9982383" lon="8.00984"><ele>191.66666666666666</ele><time>2026-04-11T16:41:52.878Z</time></trkpt><trkpt lat="44.9981067" lon="8.009975"><ele>192.0</ele><time>2026-04-11T16:41:53.878Z</time></trkpt><trkpt lat="44.997975" lon="8.010105"><ele>191.33333333333334</ele><time>2026-04-11T16:41:54.878Z</time></trkpt><trkpt lat="44.9978483" lon="8.0102467"><ele>190.66666666666669</ele><time>2026-04-11T16:41:55.879Z</time></trkpt><trkpt lat="44.9977133" lon="8.0103967"><ele>190.0</ele><time>2026-04-11T16:41:56.879Z</time></trkpt><trkpt lat="44.9975783" lon="8.01054"><ele>190.33333333333334</ele><time>2026-04-11T16:41:57.878Z</time></trkpt><trkpt lat="44.9974433" lon="8.01068"><ele>190.66666666666666</ele><time>2026-04-11T16:41:58.878Z</time></trkpt><trkpt lat="44.9973083" lon="8.01082"><ele>191.0</ele><time>2026-04-11T16:41:59.879Z</time></trkpt><trkpt lat="44.9971733" lon="8.01096"><ele>190.33333333333331</ele><time>2026-04-11T16:42:00.879Z</time></trkpt><trkpt lat="44.99704" lon="8.0111167"><ele>189.66666666666666</ele><time>2026-04-11T16:42:01.878Z</time></trkpt><trkpt lat="44.9969133" lon="8.0112683"><ele>189.0</ele><time>2026-04-11T16:42:02.878Z</time></trkpt><trkpt lat="44.9967817" lon="8.0114183"><ele>189.0</ele><time>2026-04-11T16:42:03.878Z</time></trkpt><trkpt lat="44.99665" lon="8.0115533"><ele>189.0</ele><time>2026-04-11T16:42:04.878Z</time></trkpt><trkpt lat="44.996515" lon="8.0116817"><ele>189.0</ele><time>2026-04-11T16:42:05.878Z</time></trkpt><trkpt lat="44.9963867" lon="8.011825"><ele>189.0</ele><time>2026-04-11T16:42:06.879Z</time></trkpt><trkpt lat="44.9962483" lon="8.0119717"><ele>189.0</ele><time>2026-04-11T16:42:07.879Z</time></trkpt><trkpt lat="44.9961133" lon="8.012125"><ele>189.0</ele><time>2026-04-11T16:42:08.879Z</time></trkpt><trkpt lat="44.995975" lon="8.0122617"><ele>189.0</ele><time>2026-04-11T16:42:09.878Z</time></trkpt><trkpt lat="44.9958417" lon="8.0124067"><ele>189.0</ele><time>2026-04-11T16:42:10.879Z</time></trkpt><trkpt lat="44.9957" lon="8.0125517"><ele>189.0</ele><time>2026-04-11T16:42:11.879Z</time></trkpt><trkpt lat="44.9955667" lon="8.0127067"><ele>190.0</ele><time>2026-04-11T16:42:12.878Z</time></trkpt><trkpt lat="44.99543" lon="8.0128433"><ele>191.0</ele><time>2026-04-11T16:42:13.878Z</time></trkpt><trkpt lat="44.9953033" lon="8.0129883"><ele>192.0</ele><time>2026-04-11T16:42:14.878Z</time></trkpt><trkpt lat="44.9951733" lon="8.0131383"><ele>192.0</ele><time>2026-04-11T16:42:15.878Z</time></trkpt><trkpt lat="44.995065" lon="8.0132967"><ele>192.0</ele><time>2026-04-11T16:42:16.878Z</time></trkpt><trkpt lat="44.9949667" lon="8.01349"><ele>192.0</ele><time>2026-04-11T16:42:17.879Z</time></trkpt><trkpt lat="44.9948983" lon="8.0137033"><ele>190.66666666666666</ele><time>2026-04-11T16:42:18.879Z</time></trkpt><trkpt lat="44.9948383" lon="8.01392"><ele>189.33333333333331</ele><time>2026-04-11T16:42:19.878Z</time></trkpt><trkpt lat="44.99478" lon="8.014145"><ele>188.0</ele><time>2026-04-11T16:42:20.879Z</time></trkpt><trkpt lat="44.9947383" lon="8.0143533"><ele>188.0</ele><time>2026-04-11T16:42:21.878Z</time></trkpt><trkpt lat="44.9947117" lon="8.0145517"><ele>188.0</ele><time>2026-04-11T16:42:22.878Z</time></trkpt><trkpt lat="44.9946933" lon="8.014745"><ele>188.0</ele><time>2026-04-11T16:42:23.878Z</time></trkpt><trkpt lat="44.9946733" lon="8.0149217"><ele>188.0</ele><time>2026-04-11T16:42:24.878Z</time></trkpt><trkpt lat="44.9946517" lon="8.01509"><ele>188.0</ele><time>2026-04-11T16:42:25.878Z</time></trkpt><trkpt lat="44.99464" lon="8.0152533"><ele>188.0</ele><time>2026-04-11T16:42:26.878Z</time></trkpt><trkpt lat="44.99462" lon="8.0153783"><ele>188.0</ele><time>2026-04-11T16:42:27.878Z</time></trkpt><trkpt lat="44.9945967" lon="8.0155083"><ele>188.0</ele><time>2026-04-11T16:42:28.878Z</time></trkpt><trkpt lat="44.9945767" lon="8.0156283"><ele>188.0</ele><time>2026-04-11T16:42:29.878Z</time></trkpt><trkpt lat="44.9945567" lon="8.0157633"><ele>187.75</ele><time>2026-04-11T16:42:30.878Z</time></trkpt><trkpt lat="44.99454" lon="8.0159133"><ele>187.5</ele><time>2026-04-11T16:42:31.878Z</time></trkpt><trkpt lat="44.9945133" lon="8.01608"><ele>187.25</ele><time>2026-04-11T16:42:32.879Z</time></trkpt><trkpt lat="44.9944733" lon="8.01626"><ele>187.0</ele><time>2026-04-11T16:42:33.878Z</time></trkpt><trkpt lat="44.9944367" lon="8.0164417"><ele>187.0</ele><time>2026-04-11T16:42:34.878Z</time></trkpt><trkpt lat="44.9944" lon="8.0166283"><ele>187.0</ele><time>2026-04-11T16:42:35.879Z</time></trkpt><trkpt lat="44.9943683" lon="8.0168283"><ele>187.0</ele><time>2026-04-11T16:42:36.879Z</time></trkpt><trkpt lat="44.9943367" lon="8.0170367"><ele>187.0</ele><time>2026-04-11T16:42:37.878Z</time></trkpt><trkpt lat="44.9943083" lon="8.0172483"><ele>186.33333333333334</ele><time>2026-04-11T16:42:38.879Z</time></trkpt><trkpt lat="44.994285" lon="8.0174667"><ele>185.66666666666666</ele><time>2026-04-11T16:42:39.878Z</time></trkpt><trkpt lat="44.9942517" lon="8.017685"><ele>185.0</ele><time>2026-04-11T16:42:40.878Z</time></trkpt><trkpt lat="44.994215" lon="8.0178983"><ele>185.0</ele><time>2026-04-11T16:42:41.878Z</time></trkpt><trkpt lat="44.9941667" lon="8.0181133"><ele>185.0</ele><time>2026-04-11T16:42:42.878Z</time></trkpt><trkpt lat="44.9941" lon="8.01831"><ele>185.0</ele><time>2026-04-11T16:42:43.879Z</time></trkpt><trkpt lat="44.9940217" lon="8.0184933"><ele>185.0</ele><time>2026-04-11T16:42:44.878Z</time></trkpt><trkpt lat="44.9939367" lon="8.0186683"><ele>185.0</ele><time>2026-04-11T16:42:45.879Z</time></trkpt><trkpt lat="44.993845" lon="8.0188417"><ele>185.0</ele><time>2026-04-11T16:42:46.878Z</time></trkpt><trkpt lat="44.993755" lon="8.0190283"><ele>185.0</ele><time>2026-04-11T16:42:47.879Z</time></trkpt><trkpt lat="44.9936633" lon="8.019215"><ele>185.0</ele><time>2026-04-11T16:42:48.878Z</time></trkpt><trkpt lat="44.9935767" lon="8.019395"><ele>185.0</ele><time>2026-04-11T16:42:49.878Z</time></trkpt><trkpt lat="44.9934983" lon="8.0195583"><ele>185.0</ele><time>2026-04-11T16:42:50.879Z</time></trkpt><trkpt lat="44.9934233" lon="8.0197133"><ele>185.0</ele><time>2026-04-11T16:42:51.878Z</time></trkpt><trkpt lat="44.9933517" lon="8.01987"><ele>185.0</ele><time>2026-04-11T16:42:52.878Z</time></trkpt><trkpt lat="44.9932767" lon="8.0200033"><ele>185.0</ele><time>2026-04-11T16:42:53.879Z</time></trkpt><trkpt lat="44.9931767" lon="8.0201217"><ele>185.0</ele><time>2026-04-11T16:42:54.878Z</time></trkpt><trkpt lat="44.99306" lon="8.02018"><ele>185.0</ele><time>2026-04-11T16:42:55.878Z</time></trkpt><trkpt lat="44.9929267" lon="8.02018"><ele>185.0</ele><time>2026-04-11T16:42:56.878Z</time></trkpt><trkpt lat="44.9927883" lon="8.0201217"><ele>185.0</ele><time>2026-04-11T16:42:57.878Z</time></trkpt><trkpt lat="44.9926533" lon="8.0200283"><ele>185.0</ele><time>2026-04-11T16:42:58.878Z</time></trkpt><trkpt lat="44.9925017" lon="8.01994"><ele>185.0</ele><time>2026-04-11T16:42:59.878Z</time></trkpt><trkpt lat="44.9923433" lon="8.0198533"><ele>185.0</ele><time>2026-04-11T16:43:00.879Z</time></trkpt><trkpt lat="44.9921833" lon="8.019765"><ele>185.0</ele><time>2026-04-11T16:43:01.878Z</time></trkpt><trkpt lat="44.99202" lon="8.01968"><ele>185.0</ele><time>2026-04-11T16:43:02.878Z</time></trkpt><trkpt lat="44.9918567" lon="8.0195983"><ele>185.0</ele><time>2026-04-11T16:43:03.879Z</time></trkpt><trkpt lat="44.9916933" lon="8.0195267"><ele>184.66666666666666</ele><time>2026-04-11T16:43:04.879Z</time></trkpt><trkpt lat="44.9915367" lon="8.0194433"><ele>184.33333333333334</ele><time>2026-04-11T16:43:05.879Z</time></trkpt><trkpt lat="44.9913717" lon="8.0193567"><ele>184.0</ele><time>2026-04-11T16:43:06.879Z</time></trkpt><trkpt lat="44.99121" lon="8.0192683"><ele>184.0</ele><time>2026-04-11T16:43:07.878Z</time></trkpt><trkpt lat="44.9910533" lon="8.019185"><ele>184.0</ele><time>2026-04-11T16:43:08.878Z</time></trkpt><trkpt lat="44.9908933" lon="8.0191117"><ele>184.0</ele><time>2026-04-11T16:43:09.879Z</time></trkpt><trkpt lat="44.9907383" lon="8.0190267"><ele>184.0</ele><time>2026-04-11T16:43:10.878Z</time></trkpt><trkpt lat="44.9905767" lon="8.018945"><ele>184.0</ele><time>2026-04-11T16:43:11.879Z</time></trkpt><trkpt lat="44.9904233" lon="8.01886"><ele>184.0</ele><time>2026-04-11T16:43:12.879Z</time></trkpt><trkpt lat="44.9902733" lon="8.0187867"><ele>184.0</ele><time>2026-04-11T16:43:13.879Z</time></trkpt><trkpt lat="44.990125" lon="8.0187033"><ele>184.0</ele><time>2026-04-11T16:43:14.878Z</time></trkpt><trkpt lat="44.98997" lon="8.0186283"><ele>184.0</ele><time>2026-04-11T16:43:15.879Z</time></trkpt><trkpt lat="44.98982" lon="8.0185517"><ele>184.33333333333334</ele><time>2026-04-11T16:43:16.879Z</time></trkpt><trkpt lat="44.989665" lon="8.0184633"><ele>184.66666666666666</ele><time>2026-04-11T16:43:17.879Z</time></trkpt><trkpt lat="44.98951" lon="8.0183833"><ele>185.0</ele><time>2026-04-11T16:43:18.878Z</time></trkpt><trkpt lat="44.9893567" lon="8.018305"><ele>185.0</ele><time>2026-04-11T16:43:19.878Z</time></trkpt><trkpt lat="44.9892133" lon="8.0182283"><ele>185.0</ele><time>2026-04-11T16:43:20.878Z</time></trkpt><trkpt lat="44.9890617" lon="8.0181583"><ele>185.0</ele><time>2026-04-11T16:43:21.878Z</time></trkpt><trkpt lat="44.9889117" lon="8.0180667"><ele>186.66666666666666</ele><time>2026-04-11T16:43:22.879Z</time></trkpt><trkpt lat="44.98876" lon="8.0179867"><ele>188.33333333333334</ele><time>2026-04-11T16:43:23.878Z</time></trkpt><trkpt lat="44.98862" lon="8.0179017"><ele>190.0</ele><time>2026-04-11T16:43:24.878Z</time></trkpt><trkpt lat="44.9884783" lon="8.0178233"><ele>189.33333333333334</ele><time>2026-04-11T16:43:25.878Z</time></trkpt><trkpt lat="44.9883333" lon="8.01774"><ele>188.66666666666666</ele><time>2026-04-11T16:43:26.878Z</time></trkpt><trkpt lat="44.9881883" lon="8.0176683"><ele>188.0</ele><time>2026-04-11T16:43:27.878Z</time></trkpt><trkpt lat="44.9880467" lon="8.0175983"><ele>188.0</ele><time>2026-04-11T16:43:28.878Z</time></trkpt><trkpt lat="44.9878967" lon="8.01752"><ele>188.0</ele><time>2026-04-11T16:43:29.879Z</time></trkpt><trkpt lat="44.98775" lon="8.017455"><ele>188.0</ele><time>2026-04-11T16:43:30.879Z</time></trkpt><trkpt lat="44.987605" lon="8.0173833"><ele>187.33333333333331</ele><time>2026-04-11T16:43:31.878Z</time></trkpt><trkpt lat="44.98746" lon="8.0173167"><ele>186.66666666666666</ele><time>2026-04-11T16:43:32.878Z</time></trkpt><trkpt lat="44.9873183" lon="8.0172467"><ele>186.0</ele><time>2026-04-11T16:43:33.879Z</time></trkpt><trkpt lat="44.9871617" lon="8.01717"><ele>186.0</ele><time>2026-04-11T16:43:34.878Z</time></trkpt><trkpt lat="44.98701" lon="8.0170883"><ele>186.0</ele><time>2026-04-11T16:43:35.878Z</time></trkpt><trkpt lat="44.98686" lon="8.0170033"><ele>186.0</ele><time>2026-04-11T16:43:36.878Z</time></trkpt><trkpt lat="44.9867" lon="8.01693"><ele>185.33333333333334</ele><time>2026-04-11T16:43:37.878Z</time></trkpt><trkpt lat="44.9865533" lon="8.0168533"><ele>184.66666666666669</ele><time>2026-04-11T16:43:38.879Z</time></trkpt><trkpt lat="44.9864017" lon="8.0167833"><ele>184.0</ele><time>2026-04-11T16:43:39.878Z</time></trkpt><trkpt lat="44.9862583" lon="8.0167183"><ele>184.0</ele><time>2026-04-11T16:43:40.879Z</time></trkpt><trkpt lat="44.9861017" lon="8.0166467"><ele>184.0</ele><time>2026-04-11T16:43:41.878Z</time></trkpt><trkpt lat="44.9859467" lon="8.016565"><ele>184.0</ele><time>2026-04-11T16:43:42.878Z</time></trkpt><trkpt lat="44.9857967" lon="8.01648"><ele>184.33333333333334</ele><time>2026-04-11T16:43:43.879Z</time></trkpt><trkpt lat="44.985645" lon="8.0163867"><ele>184.66666666666666</ele><time>2026-04-11T16:43:44.878Z</time></trkpt><trkpt lat="44.985485" lon="8.0162867"><ele>185.0</ele><time>2026-04-11T16:43:45.879Z</time></trkpt><trkpt lat="44.9853217" lon="8.01619"><ele>185.0</ele><time>2026-04-11T16:43:46.878Z</time></trkpt><trkpt lat="44.98517" lon="8.0161067"><ele>185.0</ele><time>2026-04-11T16:43:47.879Z</time></trkpt><trkpt lat="44.9850167" lon="8.0160183"><ele>185.0</ele><time>2026-04-11T16:43:48.878Z</time></trkpt><trkpt lat="44.9848733" lon="8.0159117"><ele>185.33333333333331</ele><time>2026-04-11T16:43:49.878Z</time></trkpt><trkpt lat="44.98473" lon="8.0157967"><ele>185.66666666666666</ele><time>2026-04-11T16:43:50.879Z</time></trkpt><trkpt lat="44.984585" lon="8.0156933"><ele>186.0</ele><time>2026-04-11T16:43:51.879Z</time></trkpt><trkpt lat="44.9844417" lon="8.0155783"><ele>186.0</ele><time>2026-04-11T16:43:52.878Z</time></trkpt><trkpt lat="44.9843" lon="8.0154667"><ele>186.0</ele><time>2026-04-11T16:43:53.879Z</time></trkpt><trkpt lat="44.984165" lon="8.0153517"><ele>186.0</ele><time>2026-04-11T16:43:54.879Z</time></trkpt><trkpt lat="44.984025" lon="8.015235"><ele>186.0</ele><time>2026-04-11T16:43:55.878Z</time></trkpt><trkpt lat="44.9838833" lon="8.0151183"><ele>186.0</ele><time>2026-04-11T16:43:56.878Z</time></trkpt><trkpt lat="44.9837417" lon="8.0150067"><ele>186.0</ele><time>2026-04-11T16:43:57.878Z</time></trkpt><trkpt lat="44.9835983" lon="8.0148933"><ele>185.66666666666666</ele><time>2026-04-11T16:43:58.878Z</time></trkpt><trkpt lat="44.98346" lon="8.0147783"><ele>185.33333333333331</ele><time>2026-04-11T16:43:59.879Z</time></trkpt><trkpt lat="44.983325" lon="8.0146533"><ele>185.0</ele><time>2026-04-11T16:44:00.879Z</time></trkpt><trkpt lat="44.98319" lon="8.0145283"><ele>185.0</ele><time>2026-04-11T16:44:01.879Z</time></trkpt><trkpt lat="44.98305" lon="8.0144033"><ele>185.0</ele><time>2026-04-11T16:44:02.878Z</time></trkpt><trkpt lat="44.982915" lon="8.0142833"><ele>185.0</ele><time>2026-04-11T16:44:03.878Z</time></trkpt><trkpt lat="44.9827783" lon="8.0141617"><ele>184.66666666666666</ele><time>2026-04-11T16:44:04.878Z</time></trkpt><trkpt lat="44.9826367" lon="8.01403"><ele>184.33333333333334</ele><time>2026-04-11T16:44:05.879Z</time></trkpt><trkpt lat="44.9824933" lon="8.0139"><ele>184.0</ele><time>2026-04-11T16:44:06.878Z</time></trkpt><trkpt lat="44.98236" lon="8.0137767"><ele>184.0</ele><time>2026-04-11T16:44:07.878Z</time></trkpt><trkpt lat="44.982225" lon="8.0136533"><ele>184.0</ele><time>2026-04-11T16:44:08.879Z</time></trkpt><trkpt lat="44.9820767" lon="8.0135417"><ele>184.0</ele><time>2026-04-11T16:44:09.878Z</time></trkpt><trkpt lat="44.981925" lon="8.01343"><ele>184.0</ele><time>2026-04-11T16:44:10.879Z</time></trkpt><trkpt lat="44.9817667" lon="8.01334"><ele>184.0</ele><time>2026-04-11T16:44:11.879Z</time></trkpt><trkpt lat="44.9816067" lon="8.013285"><ele>184.0</ele><time>2026-04-11T16:44:12.878Z</time></trkpt><trkpt lat="44.9814533" lon="8.0132567"><ele>184.0</ele><time>2026-04-11T16:44:13.878Z</time></trkpt><trkpt lat="44.9812883" lon="8.0132333"><ele>184.0</ele><time>2026-04-11T16:44:14.878Z</time></trkpt><trkpt lat="44.9811217" lon="8.01322"><ele>184.0</ele><time>2026-04-11T16:44:15.879Z</time></trkpt><trkpt lat="44.98096" lon="8.0132133"><ele>183.66666666666669</ele><time>2026-04-11T16:44:16.879Z</time></trkpt><trkpt lat="44.9807933" lon="8.0132067"><ele>183.33333333333334</ele><time>2026-04-11T16:44:17.878Z</time></trkpt><trkpt lat="44.9806217" lon="8.0131983"><ele>183.0</ele><time>2026-04-11T16:44:18.878Z</time></trkpt><trkpt lat="44.9804517" lon="8.013185"><ele>183.0</ele><time>2026-04-11T16:44:19.878Z</time></trkpt><trkpt lat="44.9802783" lon="8.013155"><ele>183.0</ele><time>2026-04-11T16:44:20.879Z</time></trkpt><trkpt lat="44.9801117" lon="8.0131383"><ele>183.0</ele><time>2026-04-11T16:44:21.878Z</time></trkpt><trkpt lat="44.9799517" lon="8.0131317"><ele>182.66666666666666</ele><time>2026-04-11T16:44:22.878Z</time></trkpt><trkpt lat="44.979785" lon="8.0131333"><ele>182.33333333333331</ele><time>2026-04-11T16:44:23.878Z</time></trkpt><trkpt lat="44.9796217" lon="8.0131333"><ele>182.0</ele><time>2026-04-11T16:44:24.879Z</time></trkpt><trkpt lat="44.9794533" lon="8.0131267"><ele>182.0</ele><time>2026-04-11T16:44:25.878Z</time></trkpt><trkpt lat="44.9792883" lon="8.0131133"><ele>182.0</ele><time>2026-04-11T16:44:26.878Z</time></trkpt><trkpt lat="44.9791217" lon="8.0130917"><ele>182.0</ele><time>2026-04-11T16:44:27.879Z</time></trkpt><trkpt lat="44.97896" lon="8.0130783"><ele>181.66666666666666</ele><time>2026-04-11T16:44:28.878Z</time></trkpt><trkpt lat="44.978795" lon="8.0130633"><ele>181.33333333333334</ele><time>2026-04-11T16:44:29.879Z</time></trkpt><trkpt lat="44.978635" lon="8.01306"><ele>181.0</ele><time>2026-04-11T16:44:30.878Z</time></trkpt><trkpt lat="44.978475" lon="8.0130483"><ele>181.66666666666669</ele><time>2026-04-11T16:44:31.878Z</time></trkpt><trkpt lat="44.978315" lon="8.0130383"><ele>182.33333333333334</ele><time>2026-04-11T16:44:32.879Z</time></trkpt><trkpt lat="44.9781483" lon="8.0130217"><ele>183.0</ele><time>2026-04-11T16:44:33.878Z</time></trkpt><trkpt lat="44.9779833" lon="8.0130033"><ele>183.0</ele><time>2026-04-11T16:44:34.879Z</time></trkpt><trkpt lat="44.9778167" lon="8.0130017"><ele>183.0</ele><time>2026-04-11T16:44:35.879Z</time></trkpt><trkpt lat="44.9776517" lon="8.01302"><ele>183.0</ele><time>2026-04-11T16:44:36.878Z</time></trkpt><trkpt lat="44.9774817" lon="8.0130367"><ele>184.33333333333334</ele><time>2026-04-11T16:44:37.878Z</time></trkpt><trkpt lat="44.9773133" lon="8.0130583"><ele>185.66666666666669</ele><time>2026-04-11T16:44:38.879Z</time></trkpt><trkpt lat="44.9771483" lon="8.0130983"><ele>187.0</ele><time>2026-04-11T16:44:39.878Z</time></trkpt><trkpt lat="44.97698" lon="8.0131183"><ele>187.0</ele><time>2026-04-11T16:44:40.879Z</time></trkpt><trkpt lat="44.9768167" lon="8.01315"><ele>187.0</ele><time>2026-04-11T16:44:41.878Z</time></trkpt><trkpt lat="44.976655" lon="8.0131883"><ele>187.0</ele><time>2026-04-11T16:44:42.879Z</time></trkpt><trkpt lat="44.9764817" lon="8.0132017"><ele>185.66666666666669</ele><time>2026-04-11T16:44:43.878Z</time></trkpt><trkpt lat="44.9763033" lon="8.0131883"><ele>184.33333333333334</ele><time>2026-04-11T16:44:44.878Z</time></trkpt><trkpt lat="44.976125" lon="8.0131767"><ele>183.0</ele><time>2026-04-11T16:44:45.878Z</time></trkpt><trkpt lat="44.975955" lon="8.01319"><ele>183.0</ele><time>2026-04-11T16:44:46.879Z</time></trkpt><trkpt lat="44.9757883" lon="8.0131917"><ele>183.0</ele><time>2026-04-11T16:44:47.879Z</time></trkpt><trkpt lat="44.975625" lon="8.0131967"><ele>183.0</ele><time>2026-04-11T16:44:48.878Z</time></trkpt><trkpt lat="44.9754617" lon="8.0132017"><ele>183.0</ele><time>2026-04-11T16:44:49.879Z</time></trkpt><trkpt lat="44.9752967" lon="8.0132083"><ele>183.0</ele><time>2026-04-11T16:44:50.879Z</time></trkpt><trkpt lat="44.97513" lon="8.0132"><ele>183.0</ele><time>2026-04-11T16:44:51.879Z</time></trkpt><trkpt lat="44.9749683" lon="8.0132067"><ele>183.33333333333334</ele><time>2026-04-11T16:44:52.878Z</time></trkpt><trkpt lat="44.9747983" lon="8.0132017"><ele>183.66666666666669</ele><time>2026-04-11T16:44:53.879Z</time></trkpt><trkpt lat="44.97463" lon="8.0132133"><ele>184.0</ele><time>2026-04-11T16:44:54.878Z</time></trkpt><trkpt lat="44.974475" lon="8.013215"><ele>184.0</ele><time>2026-04-11T16:44:55.879Z</time></trkpt><trkpt lat="44.9742983" lon="8.0132"><ele>184.0</ele><time>2026-04-11T16:44:56.879Z</time></trkpt><trkpt lat="44.9741267" lon="8.0131933"><ele>184.0</ele><time>2026-04-11T16:44:57.878Z</time></trkpt><trkpt lat="44.9739567" lon="8.0131817"><ele>183.33333333333334</ele><time>2026-04-11T16:44:58.879Z</time></trkpt><trkpt lat="44.9738" lon="8.0132033"><ele>182.66666666666666</ele><time>2026-04-11T16:44:59.879Z</time></trkpt><trkpt lat="44.9736317" lon="8.0132033"><ele>182.0</ele><time>2026-04-11T16:45:00.878Z</time></trkpt><trkpt lat="44.9734617" lon="8.0132083"><ele>182.0</ele><time>2026-04-11T16:45:01.878Z</time></trkpt><trkpt lat="44.9732883" lon="8.0132083"><ele>182.0</ele><time>2026-04-11T16:45:02.878Z</time></trkpt><trkpt lat="44.97311" lon="8.013205"><ele>182.0</ele><time>2026-04-11T16:45:03.878Z</time></trkpt><trkpt lat="44.9729417" lon="8.0132067"><ele>182.0</ele><time>2026-04-11T16:45:04.878Z</time></trkpt><trkpt lat="44.9727667" lon="8.0132033"><ele>182.0</ele><time>2026-04-11T16:45:05.878Z</time></trkpt><trkpt lat="44.972595" lon="8.0132083"><ele>182.0</ele><time>2026-04-11T16:45:06.878Z</time></trkpt><trkpt lat="44.972435" lon="8.0132083"><ele>182.0</ele><time>2026-04-11T16:45:07.879Z</time></trkpt><trkpt lat="44.97228" lon="8.0132017"><ele>182.0</ele><time>2026-04-11T16:45:08.879Z</time></trkpt><trkpt lat="44.9721267" lon="8.0132083"><ele>182.0</ele><time>2026-04-11T16:45:09.878Z</time></trkpt><trkpt lat="44.97197" lon="8.0132133"><ele>182.0</ele><time>2026-04-11T16:45:10.879Z</time></trkpt><trkpt lat="44.9718133" lon="8.0132133"><ele>182.0</ele><time>2026-04-11T16:45:11.878Z</time></trkpt><trkpt lat="44.9716533" lon="8.0132283"><ele>182.0</ele><time>2026-04-11T16:45:12.878Z</time></trkpt><trkpt lat="44.9715" lon="8.013235"><ele>181.66666666666666</ele><time>2026-04-11T16:45:13.878Z</time></trkpt><trkpt lat="44.9713417" lon="8.0132317"><ele>181.33333333333334</ele><time>2026-04-11T16:45:14.879Z</time></trkpt><trkpt lat="44.9711733" lon="8.013215"><ele>181.0</ele><time>2026-04-11T16:45:15.879Z</time></trkpt><trkpt lat="44.9710017" lon="8.0132083"><ele>181.0</ele><time>2026-04-11T16:45:16.879Z</time></trkpt><trkpt lat="44.970835" lon="8.0132017"><ele>181.0</ele><time>2026-04-11T16:45:17.878Z</time></trkpt><trkpt lat="44.970675" lon="8.0132033"><ele>181.0</ele><time>2026-04-11T16:45:18.878Z</time></trkpt><trkpt lat="44.9705083" lon="8.0131833"><ele>181.0</ele><time>2026-04-11T16:45:19.879Z</time></trkpt><trkpt lat="44.9703467" lon="8.0131433"><ele>181.0</ele><time>2026-04-11T16:45:20.878Z</time></trkpt><trkpt lat="44.9701867" lon="8.0130917"><ele>181.0</ele><time>2026-04-11T16:45:21.878Z</time></trkpt><trkpt lat="44.9700267" lon="8.0130167"><ele>181.33333333333334</ele><time>2026-04-11T16:45:22.878Z</time></trkpt><trkpt lat="44.9698667" lon="8.012925"><ele>181.66666666666666</ele><time>2026-04-11T16:45:23.879Z</time></trkpt><trkpt lat="44.9697083" lon="8.0128417"><ele>182.0</ele><time>2026-04-11T16:45:24.878Z</time></trkpt><trkpt lat="44.9695467" lon="8.0127583"><ele>182.0</ele><time>2026-04-11T16:45:25.879Z</time></trkpt><trkpt lat="44.9693933" lon="8.01269"><ele>182.0</ele><time>2026-04-11T16:45:26.878Z</time></trkpt><trkpt lat="44.969235" lon="8.012605"><ele>182.0</ele><time>2026-04-11T16:45:27.878Z</time></trkpt><trkpt lat="44.9690717" lon="8.012515"><ele>181.33333333333331</ele><time>2026-04-11T16:45:28.879Z</time></trkpt><trkpt lat="44.9689183" lon="8.01242"><ele>180.66666666666666</ele><time>2026-04-11T16:45:29.878Z</time></trkpt><trkpt lat="44.96876" lon="8.0123283"><ele>180.0</ele><time>2026-04-11T16:45:30.878Z</time></trkpt><trkpt lat="44.9686067" lon="8.0122433"><ele>180.0</ele><time>2026-04-11T16:45:31.879Z</time></trkpt><trkpt lat="44.9684483" lon="8.012165"><ele>180.0</ele><time>2026-04-11T16:45:32.878Z</time></trkpt><trkpt lat="44.96829" lon="8.0120883"><ele>180.0</ele><time>2026-04-11T16:45:33.879Z</time></trkpt><trkpt lat="44.9681283" lon="8.01205"><ele>180.66666666666666</ele><time>2026-04-11T16:45:34.878Z</time></trkpt><trkpt lat="44.96797" lon="8.0120317"><ele>181.33333333333331</ele><time>2026-04-11T16:45:35.879Z</time></trkpt><trkpt lat="44.967805" lon="8.01204"><ele>182.0</ele><time>2026-04-11T16:45:36.878Z</time></trkpt><trkpt lat="44.9676383" lon="8.0120617"><ele>182.0</ele><time>2026-04-11T16:45:37.879Z</time></trkpt><trkpt lat="44.9674683" lon="8.0121033"><ele>182.0</ele><time>2026-04-11T16:45:38.879Z</time></trkpt><trkpt lat="44.967305" lon="8.0121683"><ele>182.0</ele><time>2026-04-11T16:45:39.878Z</time></trkpt><trkpt lat="44.9671517" lon="8.0122383"><ele>182.0</ele><time>2026-04-11T16:45:40.879Z</time></trkpt><trkpt lat="44.967005" lon="8.0123233"><ele>182.0</ele><time>2026-04-11T16:45:41.879Z</time></trkpt><trkpt lat="44.9668467" lon="8.0124017"><ele>182.0</ele><time>2026-04-11T16:45:42.878Z</time></trkpt><trkpt lat="44.9666867" lon="8.0124817"><ele>184.33333333333331</ele><time>2026-04-11T16:45:43.879Z</time></trkpt><trkpt lat="44.9665367" lon="8.0125667"><ele>186.66666666666666</ele><time>2026-04-11T16:45:44.879Z</time></trkpt><trkpt lat="44.96639" lon="8.01269"><ele>189.0</ele><time>2026-04-11T16:45:45.878Z</time></trkpt><trkpt lat="44.9662383" lon="8.0128017"><ele>189.0</ele><time>2026-04-11T16:45:46.879Z</time></trkpt><trkpt lat="44.966095" lon="8.0129283"><ele>189.0</ele><time>2026-04-11T16:45:47.878Z</time></trkpt><trkpt lat="44.9659433" lon="8.0130483"><ele>189.0</ele><time>2026-04-11T16:45:48.878Z</time></trkpt><trkpt lat="44.9658033" lon="8.0131783"><ele>186.66666666666666</ele><time>2026-04-11T16:45:49.879Z</time></trkpt><trkpt lat="44.965655" lon="8.0133083"><ele>184.33333333333331</ele><time>2026-04-11T16:45:50.879Z</time></trkpt><trkpt lat="44.9655083" lon="8.0134283"><ele>182.0</ele><time>2026-04-11T16:45:51.878Z</time></trkpt><trkpt lat="44.9653683" lon="8.013555"><ele>182.0</ele><time>2026-04-11T16:45:52.878Z</time></trkpt><trkpt lat="44.965235" lon="8.0136817"><ele>182.0</ele><time>2026-04-11T16:45:53.879Z</time></trkpt><trkpt lat="44.9650983" lon="8.0138133"><ele>182.0</ele><time>2026-04-11T16:45:54.879Z</time></trkpt><trkpt lat="44.9649617" lon="8.0139317"><ele>181.33333333333331</ele><time>2026-04-11T16:45:55.878Z</time></trkpt><trkpt lat="44.9648167" lon="8.0140467"><ele>180.66666666666666</ele><time>2026-04-11T16:45:56.878Z</time></trkpt><trkpt lat="44.9646783" lon="8.0141733"><ele>180.0</ele><time>2026-04-11T16:45:57.879Z</time></trkpt><trkpt lat="44.9645333" lon="8.0143"><ele>180.66666666666666</ele><time>2026-04-11T16:45:58.878Z</time></trkpt><trkpt lat="44.96439" lon="8.0144283"><ele>181.33333333333331</ele><time>2026-04-11T16:45:59.878Z</time></trkpt><trkpt lat="44.9642533" lon="8.0145533"><ele>182.0</ele><time>2026-04-11T16:46:00.878Z</time></trkpt><trkpt lat="44.9641133" lon="8.0146733"><ele>182.0</ele><time>2026-04-11T16:46:01.878Z</time></trkpt><trkpt lat="44.9639667" lon="8.0147933"><ele>182.0</ele><time>2026-04-11T16:46:02.878Z</time></trkpt><trkpt lat="44.96382" lon="8.0149167"><ele>182.0</ele><time>2026-04-11T16:46:03.879Z</time></trkpt><trkpt lat="44.963675" lon="8.01503"><ele>182.33333333333331</ele><time>2026-04-11T16:46:04.879Z</time></trkpt><trkpt lat="44.9635283" lon="8.01513"><ele>182.66666666666666</ele><time>2026-04-11T16:46:05.878Z</time></trkpt><trkpt lat="44.9633817" lon="8.01523"><ele>183.0</ele><time>2026-04-11T16:46:06.878Z</time></trkpt><trkpt lat="44.96323" lon="8.0153033"><ele>183.66666666666666</ele><time>2026-04-11T16:46:07.878Z</time></trkpt><trkpt lat="44.9630733" lon="8.01538"><ele>184.33333333333331</ele><time>2026-04-11T16:46:08.878Z</time></trkpt><trkpt lat="44.96292" lon="8.0154617"><ele>185.0</ele><time>2026-04-11T16:46:09.878Z</time></trkpt><trkpt lat="44.96276" lon="8.0155283"><ele>185.0</ele><time>2026-04-11T16:46:10.878Z</time></trkpt><trkpt lat="44.962605" lon="8.0156"><ele>185.0</ele><time>2026-04-11T16:46:11.878Z</time></trkpt><trkpt lat="44.9624483" lon="8.0156783"><ele>185.0</ele><time>2026-04-11T16:46:12.878Z</time></trkpt><trkpt lat="44.9622833" lon="8.0157483"><ele>183.66666666666666</ele><time>2026-04-11T16:46:13.879Z</time></trkpt><trkpt lat="44.962115" lon="8.0158267"><ele>182.33333333333334</ele><time>2026-04-11T16:46:14.879Z</time></trkpt><trkpt lat="44.9619583" lon="8.0159017"><ele>181.0</ele><time>2026-04-11T16:46:15.878Z</time></trkpt><trkpt lat="44.9618017" lon="8.0159733"><ele>180.0</ele><time>2026-04-11T16:46:16.878Z</time></trkpt><trkpt lat="44.96165" lon="8.0160583"><ele>179.0</ele><time>2026-04-11T16:46:17.878Z</time></trkpt><trkpt lat="44.9614917" lon="8.0161367"><ele>178.0</ele><time>2026-04-11T16:46:18.879Z</time></trkpt><trkpt lat="44.961335" lon="8.0162117"><ele>178.0</ele><time>2026-04-11T16:46:19.879Z</time></trkpt><trkpt lat="44.96118" lon="8.0163083"><ele>178.0</ele><time>2026-04-11T16:46:20.878Z</time></trkpt><trkpt lat="44.9610233" lon="8.0164"><ele>178.0</ele><time>2026-04-11T16:46:21.878Z</time></trkpt><trkpt lat="44.9608683" lon="8.016485"><ele>177.33333333333334</ele><time>2026-04-11T16:46:22.879Z</time></trkpt><trkpt lat="44.9607117" lon="8.0165683"><ele>176.66666666666666</ele><time>2026-04-11T16:46:23.879Z</time></trkpt><trkpt lat="44.9605567" lon="8.01665"><ele>176.0</ele><time>2026-04-11T16:46:24.878Z</time></trkpt><trkpt lat="44.9603983" lon="8.0167267"><ele>177.66666666666666</ele><time>2026-04-11T16:46:25.878Z</time></trkpt><trkpt lat="44.9602383" lon="8.016825"><ele>179.33333333333334</ele><time>2026-04-11T16:46:26.879Z</time></trkpt><trkpt lat="44.96008" lon="8.0169383"><ele>181.0</ele><time>2026-04-11T16:46:27.879Z</time></trkpt><trkpt lat="44.95993" lon="8.0170467"><ele>181.33333333333334</ele><time>2026-04-11T16:46:28.878Z</time></trkpt><trkpt lat="44.9597733" lon="8.0171517"><ele>181.66666666666666</ele><time>2026-04-11T16:46:29.879Z</time></trkpt><trkpt lat="44.9596233" lon="8.0172567"><ele>182.0</ele><time>2026-04-11T16:46:30.879Z</time></trkpt><trkpt lat="44.9594767" lon="8.01737"><ele>181.33333333333331</ele><time>2026-04-11T16:46:31.879Z</time></trkpt><trkpt lat="44.9593283" lon="8.017495"><ele>180.66666666666666</ele><time>2026-04-11T16:46:32.879Z</time></trkpt><trkpt lat="44.959165" lon="8.0175967"><ele>180.0</ele><time>2026-04-11T16:46:33.879Z</time></trkpt><trkpt lat="44.9590033" lon="8.0176983"><ele>180.0</ele><time>2026-04-11T16:46:34.878Z</time></trkpt><trkpt lat="44.9588517" lon="8.01781"><ele>180.0</ele><time>2026-04-11T16:46:35.879Z</time></trkpt><trkpt lat="44.9586933" lon="8.01792"><ele>180.0</ele><time>2026-04-11T16:46:36.878Z</time></trkpt><trkpt lat="44.9585333" lon="8.0180183"><ele>180.0</ele><time>2026-04-11T16:46:37.878Z</time></trkpt><trkpt lat="44.95837" lon="8.018095"><ele>180.0</ele><time>2026-04-11T16:46:38.878Z</time></trkpt><trkpt lat="44.9582" lon="8.0181233"><ele>180.0</ele><time>2026-04-11T16:46:39.879Z</time></trkpt><trkpt lat="44.9580267" lon="8.01812"><ele>179.66666666666666</ele><time>2026-04-11T16:46:40.879Z</time></trkpt><trkpt lat="44.957855" lon="8.0180717"><ele>179.33333333333331</ele><time>2026-04-11T16:46:41.878Z</time></trkpt><trkpt lat="44.95769" lon="8.0179983"><ele>179.0</ele><time>2026-04-11T16:46:42.879Z</time></trkpt><trkpt lat="44.9575167" lon="8.0179233"><ele>178.66666666666666</ele><time>2026-04-11T16:46:43.879Z</time></trkpt><trkpt lat="44.9573483" lon="8.0178483"><ele>178.33333333333334</ele><time>2026-04-11T16:46:44.878Z</time></trkpt><trkpt lat="44.9571867" lon="8.01778"><ele>178.0</ele><time>2026-04-11T16:46:45.878Z</time></trkpt><trkpt lat="44.95702" lon="8.0177083"><ele>178.0</ele><time>2026-04-11T16:46:46.878Z</time></trkpt><trkpt lat="44.9568417" lon="8.01766"><ele>178.0</ele><time>2026-04-11T16:46:47.878Z</time></trkpt><trkpt lat="44.9566733" lon="8.0175917"><ele>178.0</ele><time>2026-04-11T16:46:48.878Z</time></trkpt><trkpt lat="44.9565067" lon="8.0175183"><ele>177.66666666666669</ele><time>2026-04-11T16:46:49.878Z</time></trkpt><trkpt lat="44.9563433" lon="8.0174433"><ele>177.33333333333334</ele><time>2026-04-11T16:46:50.878Z</time></trkpt><trkpt lat="44.9561883" lon="8.0173767"><ele>177.0</ele><time>2026-04-11T16:46:51.879Z</time></trkpt><trkpt lat="44.95603" lon="8.0173267"><ele>177.0</ele><time>2026-04-11T16:46:52.878Z</time></trkpt><trkpt lat="44.95587" lon="8.0172783"><ele>177.0</ele><time>2026-04-11T16:46:53.879Z</time></trkpt><trkpt lat="44.955705" lon="8.0172733"><ele>177.0</ele><time>2026-04-11T16:46:54.879Z</time></trkpt><trkpt lat="44.955535" lon="8.0173067"><ele>177.0</ele><time>2026-04-11T16:46:55.878Z</time></trkpt><trkpt lat="44.955375" lon="8.017385"><ele>177.0</ele><time>2026-04-11T16:46:56.878Z</time></trkpt><trkpt lat="44.9552167" lon="8.0174783"><ele>177.0</ele><time>2026-04-11T16:46:57.878Z</time></trkpt><trkpt lat="44.9550617" lon="8.017575"><ele>177.0</ele><time>2026-04-11T16:46:58.879Z</time></trkpt><trkpt lat="44.954905" lon="8.0176817"><ele>177.0</ele><time>2026-04-11T16:46:59.878Z</time></trkpt><trkpt lat="44.9547483" lon="8.0177883"><ele>177.0</ele><time>2026-04-11T16:47:00.879Z</time></trkpt><trkpt lat="44.9545983" lon="8.0178867"><ele>177.0</ele><time>2026-04-11T16:47:01.878Z</time></trkpt><trkpt lat="44.9544467" lon="8.017985"><ele>177.0</ele><time>2026-04-11T16:47:02.878Z</time></trkpt><trkpt lat="44.9542967" lon="8.0180783"><ele>177.0</ele><time>2026-04-11T16:47:03.878Z</time></trkpt><trkpt lat="44.9541367" lon="8.0181783"><ele>176.33333333333334</ele><time>2026-04-11T16:47:04.878Z</time></trkpt><trkpt lat="44.9539767" lon="8.0182683"><ele>175.66666666666669</ele><time>2026-04-11T16:47:05.878Z</time></trkpt><trkpt lat="44.9538267" lon="8.0183667"><ele>175.0</ele><time>2026-04-11T16:47:06.878Z</time></trkpt><trkpt lat="44.9536783" lon="8.0184567"><ele>175.0</ele><time>2026-04-11T16:47:07.879Z</time></trkpt><trkpt lat="44.95353" lon="8.0185383"><ele>175.0</ele><time>2026-04-11T16:47:08.879Z</time></trkpt><trkpt lat="44.9533733" lon="8.0186333"><ele>175.0</ele><time>2026-04-11T16:47:09.878Z</time></trkpt><trkpt lat="44.9532267" lon="8.0187267"><ele>175.0</ele><time>2026-04-11T16:47:10.879Z</time></trkpt><trkpt lat="44.9530817" lon="8.01884"><ele>175.0</ele><time>2026-04-11T16:47:11.879Z</time></trkpt><trkpt lat="44.95293" lon="8.01894"><ele>175.0</ele><time>2026-04-11T16:47:12.878Z</time></trkpt><trkpt lat="44.9527817" lon="8.01903"><ele>175.0</ele><time>2026-04-11T16:47:13.878Z</time></trkpt><trkpt lat="44.9526383" lon="8.0191117"><ele>175.0</ele><time>2026-04-11T16:47:14.879Z</time></trkpt><trkpt lat="44.952495" lon="8.0191983"><ele>175.0</ele><time>2026-04-11T16:47:15.879Z</time></trkpt><trkpt lat="44.9523433" lon="8.01929"><ele>176.66666666666669</ele><time>2026-04-11T16:47:16.878Z</time></trkpt><trkpt lat="44.9521933" lon="8.0193767"><ele>178.33333333333334</ele><time>2026-04-11T16:47:17.879Z</time></trkpt><trkpt lat="44.952045" lon="8.01948"><ele>180.0</ele><time>2026-04-11T16:47:18.879Z</time></trkpt><trkpt lat="44.951895" lon="8.01958"><ele>180.0</ele><time>2026-04-11T16:47:19.878Z</time></trkpt><trkpt lat="44.951745" lon="8.01968"><ele>180.0</ele><time>2026-04-11T16:47:20.879Z</time></trkpt><trkpt lat="44.9515867" lon="8.0197633"><ele>180.0</ele><time>2026-04-11T16:47:21.879Z</time></trkpt><trkpt lat="44.9514317" lon="8.01984"><ele>179.66666666666666</ele><time>2026-04-11T16:47:22.879Z</time></trkpt><trkpt lat="44.9512767" lon="8.019905"><ele>179.33333333333331</ele><time>2026-04-11T16:47:23.879Z</time></trkpt><trkpt lat="44.9511133" lon="8.01994"><ele>179.0</ele><time>2026-04-11T16:47:24.878Z</time></trkpt><trkpt lat="44.95095" lon="8.0199717"><ele>179.25</ele><time>2026-04-11T16:47:25.878Z</time></trkpt><trkpt lat="44.9507983" lon="8.019995"><ele>179.5</ele><time>2026-04-11T16:47:26.879Z</time></trkpt><trkpt lat="44.9506567" lon="8.0200033"><ele>179.75</ele><time>2026-04-11T16:47:27.879Z</time></trkpt><trkpt lat="44.9505233" lon="8.019995"><ele>180.0</ele><time>2026-04-11T16:47:28.879Z</time></trkpt><trkpt lat="44.9503967" lon="8.0199883"><ele>179.6</ele><time>2026-04-11T16:47:29.879Z</time></trkpt><trkpt lat="44.9502783" lon="8.0199817"><ele>179.2</ele><time>2026-04-11T16:47:30.879Z</time></trkpt><trkpt lat="44.9501667" lon="8.0199683"><ele>178.8</ele><time>2026-04-11T16:47:31.879Z</time></trkpt><trkpt lat="44.9500633" lon="8.0199683"><ele>178.4</ele><time>2026-04-11T16:47:32.878Z</time></trkpt><trkpt lat="44.949985" lon="8.0200117"><ele>178.0</ele><time>2026-04-11T16:47:33.879Z</time></trkpt><trkpt lat="44.94992" lon="8.020085"><ele>178.0</ele><time>2026-04-11T16:47:34.878Z</time></trkpt><trkpt lat="44.9498817" lon="8.0202033"><ele>178.0</ele><time>2026-04-11T16:47:35.878Z</time></trkpt><trkpt lat="44.94987" lon="8.0203483"><ele>178.0</ele><time>2026-04-11T16:47:36.878Z</time></trkpt><trkpt lat="44.9499" lon="8.0205183"><ele>178.0</ele><time>2026-04-11T16:47:37.878Z</time></trkpt><trkpt lat="44.9499317" lon="8.020695"><ele>178.0</ele><time>2026-04-11T16:47:38.879Z</time></trkpt><trkpt lat="44.94995" lon="8.02086"><ele>179.0</ele><time>2026-04-11T16:47:39.878Z</time></trkpt><trkpt lat="44.9499633" lon="8.02102"><ele>180.0</ele><time>2026-04-11T16:47:40.878Z</time></trkpt><trkpt lat="44.9499783" lon="8.02119"><ele>181.0</ele><time>2026-04-11T16:47:41.878Z</time></trkpt><trkpt lat="44.9499967" lon="8.0213583"><ele>182.0</ele><time>2026-04-11T16:47:42.879Z</time></trkpt><trkpt lat="44.95001" lon="8.0215317"><ele>184.25</ele><time>2026-04-11T16:47:43.878Z</time></trkpt><trkpt lat="44.9500183" lon="8.0217067"><ele>186.5</ele><time>2026-04-11T16:47:44.879Z</time></trkpt><trkpt lat="44.95002" lon="8.021885"><ele>188.75</ele><time>2026-04-11T16:47:45.878Z</time></trkpt><trkpt lat="44.9500283" lon="8.0220717"><ele>191.0</ele><time>2026-04-11T16:47:46.879Z</time></trkpt><trkpt lat="44.9500333" lon="8.0222617"><ele>191.0</ele><time>2026-04-11T16:47:47.879Z</time></trkpt><trkpt lat="44.95004" lon="8.0224433"><ele>191.0</ele><time>2026-04-11T16:47:48.878Z</time></trkpt><trkpt lat="44.9500317" lon="8.0226317"><ele>191.0</ele><time>2026-04-11T16:47:49.879Z</time></trkpt><trkpt lat="44.9500267" lon="8.02282"><ele>191.0</ele><time>2026-04-11T16:47:50.878Z</time></trkpt><trkpt lat="44.9500167" lon="8.0230083"><ele>192.5</ele><time>2026-04-11T16:47:51.878Z</time></trkpt><trkpt lat="44.9500017" lon="8.0231917"><ele>194.0</ele><time>2026-04-11T16:47:52.878Z</time></trkpt><trkpt lat="44.9499883" lon="8.0233817"><ele>195.5</ele><time>2026-04-11T16:47:53.878Z</time></trkpt><trkpt lat="44.949965" lon="8.02356"><ele>197.0</ele><time>2026-04-11T16:47:54.878Z</time></trkpt><trkpt lat="44.9499133" lon="8.0237233"><ele>197.8</ele><time>2026-04-11T16:47:55.879Z</time></trkpt><trkpt lat="44.9498467" lon="8.0238767"><ele>198.6</ele><time>2026-04-11T16:47:56.879Z</time></trkpt><trkpt lat="44.9497767" lon="8.0240017"><ele>199.4</ele><time>2026-04-11T16:47:57.878Z</time></trkpt><trkpt lat="44.9497217" lon="8.0241183"><ele>200.20000000000002</ele><time>2026-04-11T16:47:58.878Z</time></trkpt><trkpt lat="44.9497067" lon="8.0242483"><ele>201.0</ele><time>2026-04-11T16:47:59.878Z</time></trkpt><trkpt lat="44.949725" lon="8.0243783"><ele>202.4</ele><time>2026-04-11T16:48:00.878Z</time></trkpt><trkpt lat="44.9497867" lon="8.0244717"><ele>203.8</ele><time>2026-04-11T16:48:01.878Z</time></trkpt><trkpt lat="44.9498783" lon="8.02452"><ele>205.20000000000002</ele><time>2026-04-11T16:48:02.879Z</time></trkpt><trkpt lat="44.9499867" lon="8.024495"><ele>206.60000000000002</ele><time>2026-04-11T16:48:03.878Z</time></trkpt><trkpt lat="44.95009" lon="8.0243983"><ele>208.0</ele><time>2026-04-11T16:48:04.879Z</time></trkpt><trkpt lat="44.9501717" lon="8.0242367"><ele>210.25</ele><time>2026-04-11T16:48:05.879Z</time></trkpt><trkpt lat="44.9502383" lon="8.0240367"><ele>212.5</ele><time>2026-04-11T16:48:06.878Z</time></trkpt><trkpt lat="44.9502933" lon="8.0238317"><ele>214.75</ele><time>2026-04-11T16:48:07.878Z</time></trkpt><trkpt lat="44.95035" lon="8.023655"><ele>217.0</ele><time>2026-04-11T16:48:08.879Z</time></trkpt><trkpt lat="44.9504067" lon="8.0234667"><ele>215.5</ele><time>2026-04-11T16:48:09.878Z</time></trkpt><trkpt lat="44.9504683" lon="8.02329"><ele>214.0</ele><time>2026-04-11T16:48:10.878Z</time></trkpt><trkpt lat="44.9505317" lon="8.02311"><ele>212.5</ele><time>2026-04-11T16:48:11.879Z</time></trkpt><trkpt lat="44.9505917" lon="8.0229383"><ele>211.0</ele><time>2026-04-11T16:48:12.878Z</time></trkpt><trkpt lat="44.95065" lon="8.0227667"><ele>211.0</ele><time>2026-04-11T16:48:13.878Z</time></trkpt><trkpt lat="44.9507083" lon="8.0225967"><ele>211.0</ele><time>2026-04-11T16:48:14.878Z</time></trkpt><trkpt lat="44.95077" lon="8.02244"><ele>211.0</ele><time>2026-04-11T16:48:15.879Z</time></trkpt><trkpt lat="44.9508533" lon="8.0223183"><ele>211.0</ele><time>2026-04-11T16:48:16.879Z</time></trkpt><trkpt lat="44.9509583" lon="8.02223"><ele>208.0</ele><time>2026-04-11T16:48:17.878Z</time></trkpt><trkpt lat="44.9510717" lon="8.0222017"><ele>205.0</ele><time>2026-04-11T16:48:18.878Z</time></trkpt><trkpt lat="44.9511967" lon="8.0221867"><ele>202.0</ele><time>2026-04-11T16:48:19.879Z</time></trkpt><trkpt lat="44.95131" lon="8.0222017"><ele>199.0</ele><time>2026-04-11T16:48:20.878Z</time></trkpt><trkpt lat="44.9514133" lon="8.0222367"><ele>199.0</ele><time>2026-04-11T16:48:21.879Z</time></trkpt><trkpt lat="44.9514917" lon="8.0223317"><ele>199.0</ele><time>2026-04-11T16:48:22.878Z</time></trkpt><trkpt lat="44.9515467" lon="8.0224567"><ele>199.0</ele><time>2026-04-11T16:48:23.879Z</time></trkpt><trkpt lat="44.9515467" lon="8.02262"><ele>199.0</ele><time>2026-04-11T16:48:24.878Z</time></trkpt><trkpt lat="44.9515033" lon="8.0227967"><ele>202.0</ele><time>2026-04-11T16:48:25.879Z</time></trkpt><trkpt lat="44.951435" lon="8.022975"><ele>205.0</ele><time>2026-04-11T16:48:26.879Z</time></trkpt><trkpt lat="44.9513817" lon="8.023135"><ele>208.0</ele><time>2026-04-11T16:48:27.878Z</time></trkpt><trkpt lat="44.9513383" lon="8.0232917"><ele>211.0</ele><time>2026-04-11T16:48:28.879Z</time></trkpt><trkpt lat="44.951305" lon="8.0234567"><ele>212.4</ele><time>2026-04-11T16:48:29.879Z</time></trkpt><trkpt lat="44.9512833" lon="8.0236167"><ele>213.8</ele><time>2026-04-11T16:48:30.879Z</time></trkpt><trkpt lat="44.9512517" lon="8.023765"><ele>215.20000000000002</ele><time>2026-04-11T16:48:31.878Z</time></trkpt><trkpt lat="44.951205" lon="8.0238917"><ele>216.60000000000002</ele><time>2026-04-11T16:48:32.878Z</time></trkpt><trkpt lat="44.95113" lon="8.0239833"><ele>218.0</ele><time>2026-04-11T16:48:33.878Z</time></trkpt><trkpt lat="44.951045" lon="8.0240183"><ele>218.0</ele><time>2026-04-11T16:48:34.879Z</time></trkpt><trkpt lat="44.9509433" lon="8.0240467"><ele>218.0</ele><time>2026-04-11T16:48:35.878Z</time></trkpt><trkpt lat="44.9508433" lon="8.0241133"><ele>218.0</ele><time>2026-04-11T16:48:36.878Z</time></trkpt><trkpt lat="44.9507683" lon="8.0242217"><ele>218.0</ele><time>2026-04-11T16:48:37.878Z</time></trkpt><trkpt lat="44.95072" lon="8.024355"><ele>218.0</ele><time>2026-04-11T16:48:38.878Z</time></trkpt><trkpt lat="44.9507017" lon="8.0245133"><ele>219.75</ele><time>2026-04-11T16:48:39.879Z</time></trkpt><trkpt lat="44.9507117" lon="8.0246867"><ele>221.5</ele><time>2026-04-11T16:48:40.879Z</time></trkpt><trkpt lat="44.9507417" lon="8.024855"><ele>223.25</ele><time>2026-04-11T16:48:41.878Z</time></trkpt><trkpt lat="44.9508017" lon="8.0250333"><ele>225.0</ele><time>2026-04-11T16:48:42.878Z</time></trkpt><trkpt lat="44.95087" lon="8.0252167"><ele>228.25</ele><time>2026-04-11T16:48:43.879Z</time></trkpt><trkpt lat="44.95093" lon="8.0254083"><ele>231.5</ele><time>2026-04-11T16:48:44.878Z</time></trkpt><trkpt lat="44.9509767" lon="8.0255967"><ele>234.75</ele><time>2026-04-11T16:48:45.878Z</time></trkpt><trkpt lat="44.950995" lon="8.0257817"><ele>238.0</ele><time>2026-04-11T16:48:46.879Z</time></trkpt><trkpt lat="44.95099" lon="8.0259583"><ele>237.25</ele><time>2026-04-11T16:48:47.878Z</time></trkpt><trkpt lat="44.9509583" lon="8.0261333"><ele>236.5</ele><time>2026-04-11T16:48:48.878Z</time></trkpt><trkpt lat="44.9509067" lon="8.0263067"><ele>235.75</ele><time>2026-04-11T16:48:49.878Z</time></trkpt><trkpt lat="44.95083" lon="8.026435"><ele>235.0</ele><time>2026-04-11T16:48:50.878Z</time></trkpt><trkpt lat="44.9507467" lon="8.0265433"><ele>236.8</ele><time>2026-04-11T16:48:51.879Z</time></trkpt><trkpt lat="44.950675" lon="8.0266483"><ele>238.6</ele><time>2026-04-11T16:48:52.879Z</time></trkpt><trkpt lat="44.950615" lon="8.0267433"><ele>240.39999999999998</ele><time>2026-04-11T16:48:53.879Z</time></trkpt><trkpt lat="44.95056" lon="8.0268267"><ele>242.2</ele><time>2026-04-11T16:48:54.879Z</time></trkpt><trkpt lat="44.9504983" lon="8.026915"><ele>244.0</ele><time>2026-04-11T16:48:55.878Z</time></trkpt><trkpt lat="44.9504283" lon="8.0269933"><ele>243.99999999999997</ele><time>2026-04-11T16:48:56.879Z</time></trkpt><trkpt lat="44.95037" lon="8.0270667"><ele>244.0</ele><time>2026-04-11T16:48:57.878Z</time></trkpt><trkpt lat="44.9503233" lon="8.0271533"><ele>244.0</ele><time>2026-04-11T16:48:58.879Z</time></trkpt><trkpt lat="44.9502567" lon="8.0272433"><ele>244.0</ele><time>2026-04-11T16:49:00.878Z</time></trkpt><trkpt lat="44.9501967" lon="8.027175"><ele>243.99999999999997</ele><time>2026-04-11T16:49:04.878Z</time></trkpt><trkpt lat="44.950195" lon="8.0270517"><ele>244.0</ele><time>2026-04-11T16:49:07.878Z</time></trkpt><trkpt lat="44.9502067" lon="8.0269283"><ele>244.0</ele><time>2026-04-11T16:49:10.878Z</time></trkpt><trkpt lat="44.9502017" lon="8.026825"><ele>244.0</ele><time>2026-04-11T16:49:13.879Z</time></trkpt><trkpt lat="44.9501567" lon="8.0267517"><ele>244.0</ele><time>2026-04-11T16:49:26.878Z</time></trkpt><trkpt lat="44.95008" lon="8.0267833"><ele>244.0</ele><time>2026-04-11T16:49:30.878Z</time></trkpt></trkseg></trk></gpx>